GFSNW_prec_precacc_021.txt.gz
Total_Precipitation_Accumulation
0.19 0.22 0.21 0.18 0.16 0.17 0.16 0.13 0.07 0.02 0.02 0.08 0.02 0.01 0.00 0.00 0.00 0.00 0.00 0.00 0.00 0.00 0.00 0.00 0.00 0.00 0.00 0.00 0.00 0.00 0.00 0.00 0.00 0.00 0.00 0.00 0.00 0.00 0.00 0.00 0.00 0.00 0.00 0.00
0.18 0.25 0.29 0.25 0.20 0.16 0.12 0.15 0.20 0.16 0.03 0.03 0.01 0.00 0.00 0.00 0.00 0.00 0.00 0.00 0.00 0.00 0.00 0.00 0.00 0.00 0.00 0.00 0.01 0.00 0.00 0.00 0.00 0.00 0.00 0.00 0.00 0.00 0.00 0.00 0.00 0.00 0.00 0.00
0.22 0.27 0.31 0.31 0.23 0.17 0.18 0.15 0.27 0.44 0.15 0.00 0.00 0.00 0.00 0.00 0.00 0.00 0.00 0.00 0.00 0.00 0.00 0.00 0.00 0.00 0.00 0.00 0.01 0.01 0.01 0.00 0.00 0.00 0.00 0.00 0.00 0.00 0.00 0.00 0.00 0.00 0.00 0.00
0.31 0.31 0.31 0.30 0.26 0.22 0.37 0.22 0.05 0.09 0.07 0.01 0.00 0.00 0.00 0.00 0.00 0.00 0.00 0.00 0.00 0.00 0.00 0.00 0.00 0.00 0.00 0.00 0.00 0.00 0.01 0.00 0.00 0.00 0.00 0.00 0.00 0.00 0.00 0.00 0.00 0.00 0.00 0.00
0.31 0.35 0.31 0.28 0.28 0.34 0.63 0.23 0.03 0.03 0.01 0.00 0.00 0.00 0.00 0.00 0.00 0.00 0.00 0.00 0.00 0.00 0.00 0.00 0.00 0.00 0.00 0.00 0.00 0.00 0.00 0.00 0.00 0.00 0.00 0.00 0.00 0.00 0.00 0.00 0.00 0.00 0.00 0.00
0.23 0.32 0.29 0.25 0.35 0.63 0.76 0.15 0.01 0.06 0.03 0.00 0.01 0.00 0.00 0.00 0.00 0.00 0.00 0.00 0.00 0.00 0.00 0.00 0.00 0.00 0.00 0.00 0.00 0.00 0.00 0.00 0.00 0.00 0.00 0.00 0.00 0.00 0.00 0.00 0.00 0.00 0.00 0.00
0.17 0.24 0.26 0.25 0.35 0.58 0.30 0.08 0.08 0.21 0.09 0.01 0.00 0.00 0.00 0.00 0.00 0.00 0.00 0.00 0.00 0.00 0.00 0.00 0.00 0.00 0.02 0.08 0.09 0.01 0.02 0.01 0.00 0.00 0.00 0.00 0.00 0.00 0.00 0.00 0.00 0.00 0.00 0.00
0.14 0.17 0.22 0.24 0.31 0.33 0.24 0.09 0.14 0.33 0.15 0.01 0.00 0.00 0.00 0.00 0.00 0.00 0.00 0.00 0.00 0.00 0.00 0.02 0.02 0.02 0.02 0.01 0.03 0.04 0.08 0.02 0.00 0.00 0.00 0.00 0.00 0.00 0.00 0.00 0.00 0.00 0.00 0.00
0.13 0.13 0.19 0.22 0.23 0.23 0.28 0.19 0.28 0.41 0.25 0.03 0.00 0.00 0.00 0.00 0.01 0.01 0.02 0.02 0.01 0.01 0.02 0.02 0.01 0.00 0.00 0.00 0.00 0.00 0.01 0.03 0.01 0.00 0.00 0.00 0.00 0.00 0.00 0.00 0.00 0.00 0.00 0.00
0.14 0.12 0.15 0.16 0.13 0.15 0.26 0.26 0.47 0.57 0.32 0.07 0.02 0.00 0.00 0.01 0.01 0.02 0.05 0.07 0.04 0.03 0.08 0.03 0.00 0.00 0.00 0.00 0.00 0.00 0.00 0.00 0.00 0.00 0.00 0.00 0.00 0.00 0.00 0.00 0.00 0.00 0.00 0.00
0.13 0.11 0.10 0.10 0.09 0.10 0.25 0.33 0.45 0.79 0.44 0.09 0.10 0.02 0.00 0.01 0.00 0.04 0.03 0.14 0.11 0.09 0.08 0.03 0.00 0.00 0.00 0.00 0.00 0.00 0.00 0.00 0.00 0.00 0.00 0.00 0.00 0.00 0.00 0.00 0.00 0.00 0.00 0.00
0.11 0.08 0.06 0.06 0.07 0.07 0.25 0.36 0.31 0.53 0.65 0.23 0.11 0.02 0.00 0.00 0.00 0.01 0.01 0.06 0.03 0.04 0.04 0.01 0.02 0.00 0.00 0.00 0.00 0.00 0.00 0.00 0.00 0.00 0.00 0.00 0.00 0.00 0.00 0.00 0.00 0.00 0.00 0.00
0.08 0.06 0.04 0.05 0.05 0.04 0.23 0.38 0.32 0.96 0.65 0.52 0.15 0.06 0.01 0.00 0.00 0.01 0.03 0.01 0.03 0.05 0.04 0.03 0.02 0.01 0.00 0.00 0.00 0.00 0.00 0.00 0.00 0.00 0.00 0.00 0.00 0.00 0.00 0.00 0.00 0.00 0.00 0.00
0.06 0.05 0.04 0.05 0.05 0.05 0.32 0.40 0.64 1.64 0.71 0.93 0.42 0.09 0.05 0.01 0.00 0.00 0.02 0.02 0.01 0.03 0.07 0.02 0.01 0.01 0.00 0.00 0.00 0.00 0.00 0.00 0.00 0.00 0.00 0.00 0.00 0.00 0.00 0.00 0.00 0.00 0.00 0.00
0.07 0.08 0.05 0.07 0.06 0.13 0.42 0.47 0.92 1.21 0.82 0.71 0.78 0.12 0.10 0.08 0.03 0.00 0.05 0.05 0.02 0.03 0.05 0.03 0.01 0.00 0.00 0.00 0.00 0.00 0.00 0.00 0.00 0.00 0.00 0.00 0.00 0.00 0.00 0.00 0.00 0.00 0.00 0.00
0.10 0.12 0.14 0.12 0.10 0.28 0.64 0.99 0.80 0.74 0.55 0.61 0.85 0.35 0.11 0.13 0.07 0.04 0.04 0.11 0.11 0.05 0.03 0.01 0.00 0.00 0.00 0.00 0.00 0.00 0.00 0.00 0.00 0.00 0.00 0.00 0.00 0.00 0.00 0.00 0.00 0.00 0.00 0.00
0.19 0.17 0.20 0.19 0.16 0.37 0.84 0.88 0.76 0.61 0.41 0.39 0.60 0.66 0.26 0.17 0.10 0.12 0.32 0.12 0.11 0.13 0.06 0.01 0.00 0.00 0.00 0.00 0.00 0.00 0.00 0.00 0.00 0.00 0.00 0.00 0.00 0.00 0.00 0.00 0.00 0.00 0.00 0.00
0.15 0.16 0.14 0.23 0.28 0.61 0.90 0.73 0.87 0.60 0.31 0.26 0.32 0.52 0.40 0.16 0.13 0.10 0.30 0.33 0.16 0.13 0.07 0.06 0.02 0.01 0.00 0.00 0.00 0.00 0.00 0.00 0.00 0.00 0.00 0.00 0.00 0.00 0.00 0.00 0.00 0.00 0.00 0.00
0.08 0.09 0.18 0.41 0.62 0.96 0.87 0.79 0.95 0.62 0.41 0.31 0.14 0.16 0.38 0.21 0.15 0.09 0.12 0.27 0.17 0.08 0.07 0.04 0.05 0.05 0.00 0.00 0.00 0.00 0.00 0.00 0.00 0.00 0.00 0.00 0.00 0.00 0.00 0.00 0.00 0.00 0.01 0.04
0.14 0.31 0.48 0.65 0.76 0.83 0.70 0.80 0.69 0.55 0.32 0.25 0.12 0.08 0.16 0.20 0.17 0.12 0.08 0.05 0.03 0.02 0.03 0.02 0.03 0.02 0.00 0.00 0.00 0.00 0.00 0.00 0.00 0.00 0.00 0.00 0.00 0.00 0.00 0.00 0.01 0.02 0.05 0.07
0.35 0.39 0.59 0.69 0.74 0.92 0.89 0.68 0.39 0.34 0.21 0.10 0.14 0.09 0.11 0.13 0.19 0.18 0.06 0.02 0.01 0.00 0.00 0.01 0.00 0.00 0.00 0.00 0.00 0.00 0.00 0.00 0.00 0.00 0.00 0.00 0.00 0.00 0.01 0.03 0.04 0.03 0.01 0.00
0.28 0.42 0.52 0.78 0.81 0.61 0.45 0.28 0.11 0.08 0.06 0.02 0.02 0.02 0.07 0.07 0.11 0.10 0.07 0.03 0.01 0.01 0.00 0.01 0.01 0.00 0.00 0.00 0.00 0.00 0.00 0.00 0.00 0.00 0.00 0.00 0.00 0.01 0.01 0.01 0.00 0.00 0.00 0.00
0.27 0.33 0.52 0.45 0.31 0.20 0.09 0.03 0.01 0.00 0.00 0.01 0.01 0.01 0.07 0.07 0.04 0.08 0.06 0.09 0.05 0.01 0.01 0.01 0.01 0.01 0.03 0.01 0.01 0.00 0.00 0.00 0.01 0.02 0.00 0.00 0.00 0.00 0.00 0.00 0.00 0.00 0.00 0.00
0.21 0.26 0.18 0.08 0.07 0.02 0.01 0.01 0.01 0.01 0.01 0.01 0.00 0.00 0.05 0.15 0.09 0.14 0.10 0.11 0.08 0.09 0.04 0.01 0.03 0.06 0.03 0.01 0.00 0.00 0.01 0.00 0.00 0.00 0.00 0.00 0.00 0.00 0.00 0.00 0.00 0.00 0.00 0.00
0.11 0.11 0.13 0.03 0.03 0.02 0.03 0.02 0.01 0.02 0.02 0.01 0.01 0.04 0.04 0.09 0.20 0.17 0.15 0.12 0.08 0.04 0.01 0.02 0.06 0.05 0.02 0.01 0.01 0.01 0.01 0.01 0.02 0.02 0.01 0.00 0.00 0.00 0.00 0.00 0.00 0.00 0.00 0.00
0.23 0.21 0.15 0.08 0.04 0.05 0.05 0.05 0.03 0.02 0.02 0.01 0.04 0.09 0.09 0.13 0.09 0.09 0.07 0.07 0.04 0.03 0.02 0.04 0.05 0.05 0.06 0.04 0.04 0.07 0.07 0.05 0.02 0.01 0.00 0.00 0.00 0.00 0.00 0.00 0.00 0.00 0.00 0.00
0.20 0.32 0.37 0.26 0.17 0.20 0.20 0.17 0.11 0.07 0.07 0.11 0.09 0.10 0.11 0.14 0.13 0.11 0.10 0.13 0.12 0.11 0.10 0.10 0.10 0.12 0.11 0.10 0.12 0.09 0.04 0.01 0.00 0.00 0.00 0.00 0.00 0.00 0.00 0.00 0.00 0.00 0.00 0.00

GFSNW_prec_precacc_024.txt.gz
Total_Precipitation_Accumulation
0.19 0.26 0.25 0.21 0.24 0.19 0.20 0.17 0.07 0.03 0.02 0.13 0.04 0.01 0.00 0.00 0.00 0.00 0.00 0.00 0.00 0.00 0.00 0.00 0.00 0.00 0.00 0.00 0.00 0.00 0.00 0.00 0.00 0.00 0.00 0.00 0.00 0.00 0.00 0.00 0.00 0.00 0.00 0.00
0.19 0.29 0.39 0.30 0.26 0.19 0.14 0.21 0.22 0.23 0.04 0.04 0.02 0.00 0.00 0.00 0.00 0.00 0.00 0.00 0.00 0.00 0.00 0.00 0.00 0.00 0.00 0.00 0.01 0.00 0.00 0.00 0.00 0.00 0.00 0.00 0.00 0.00 0.00 0.00 0.00 0.00 0.00 0.00
0.24 0.30 0.41 0.42 0.28 0.21 0.21 0.21 0.30 0.54 0.21 0.00 0.00 0.00 0.00 0.00 0.00 0.00 0.00 0.00 0.00 0.00 0.00 0.00 0.00 0.00 0.00 0.00 0.01 0.01 0.01 0.00 0.00 0.00 0.00 0.00 0.00 0.00 0.00 0.00 0.00 0.00 0.00 0.00
0.34 0.33 0.37 0.43 0.32 0.24 0.42 0.30 0.07 0.11 0.09 0.01 0.00 0.00 0.00 0.00 0.00 0.00 0.00 0.00 0.00 0.00 0.00 0.00 0.00 0.00 0.00 0.00 0.00 0.00 0.01 0.00 0.00 0.00 0.00 0.00 0.00 0.00 0.00 0.00 0.00 0.00 0.00 0.00
0.36 0.38 0.36 0.35 0.33 0.36 0.73 0.33 0.05 0.04 0.01 0.00 0.00 0.00 0.00 0.00 0.00 0.00 0.00 0.00 0.00 0.00 0.00 0.00 0.00 0.00 0.00 0.00 0.00 0.00 0.00 0.00 0.00 0.00 0.00 0.00 0.00 0.00 0.00 0.00 0.00 0.00 0.00 0.00
0.31 0.35 0.33 0.30 0.38 0.66 0.86 0.24 0.02 0.07 0.03 0.01 0.01 0.00 0.00 0.00 0.00 0.00 0.00 0.00 0.00 0.00 0.00 0.00 0.00 0.00 0.00 0.00 0.00 0.00 0.00 0.00 0.00 0.00 0.00 0.00 0.00 0.00 0.00 0.00 0.00 0.00 0.00 0.00
0.26 0.29 0.29 0.29 0.37 0.59 0.33 0.12 0.08 0.23 0.10 0.01 0.00 0.00 0.00 0.00 0.00 0.00 0.00 0.00 0.00 0.00 0.00 0.00 0.00 0.00 0.02 0.08 0.09 0.01 0.02 0.01 0.00 0.00 0.00 0.00 0.00 0.00 0.00 0.00 0.00 0.00 0.00 0.00
0.23 0.22 0.23 0.25 0.33 0.34 0.25 0.10 0.15 0.42 0.18 0.01 0.00 0.00 0.00 0.00 0.00 0.00 0.00 0.00 0.00 0.00 0.01 0.03 0.02 0.02 0.02 0.01 0.03 0.04 0.08 0.02 0.00 0.00 0.00 0.00 0.00 0.00 0.00 0.00 0.00 0.00 0.00 0.00
0.20 0.16 0.20 0.22 0.24 0.23 0.29 0.19 0.30 0.58 0.35 0.04 0.00 0.00 0.00 0.00 0.01 0.01 0.02 0.02 0.01 0.01 0.02 0.03 0.02 0.01 0.00 0.00 0.00 0.00 0.01 0.03 0.01 0.00 0.00 0.00 0.00 0.00 0.00 0.00 0.00 0.00 0.00 0.00
0.17 0.13 0.16 0.16 0.14 0.16 0.26 0.29 0.51 0.75 0.46 0.11 0.02 0.00 0.00 0.01 0.01 0.02 0.05 0.07 0.04 0.03 0.08 0.04 0.01 0.01 0.00 0.00 0.00 0.00 0.00 0.00 0.00 0.00 0.00 0.00 0.00 0.00 0.00 0.00 0.00 0.00 0.00 0.00
0.14 0.11 0.10 0.11 0.10 0.12 0.26 0.36 0.58 0.96 0.54 0.12 0.14 0.05 0.01 0.01 0.00 0.04 0.03 0.14 0.11 0.09 0.08 0.04 0.02 0.01 0.00 0.00 0.00 0.00 0.00 0.00 0.00 0.00 0.00 0.00 0.00 0.00 0.00 0.00 0.00 0.00 0.00 0.00
0.11 0.09 0.06 0.07 0.08 0.10 0.27 0.39 0.43 0.72 0.76 0.26 0.13 0.04 0.00 0.00 0.00 0.01 0.01 0.06 0.03 0.04 0.04 0.02 0.04 0.01 0.00 0.00 0.00 0.00 0.00 0.00 0.00 0.00 0.00 0.00 0.00 0.00 0.00 0.00 0.00 0.00 0.00 0.00
0.09 0.08 0.06 0.07 0.08 0.07 0.27 0.41 0.42 1.13 0.74 0.53 0.15 0.07 0.01 0.00 0.00 0.01 0.03 0.01 0.03 0.05 0.04 0.05 0.04 0.02 0.00 0.00 0.00 0.00 0.00 0.00 0.00 0.00 0.00 0.00 0.00 0.00 0.00 0.00 0.00 0.00 0.00 0.00
0.08 0.08 0.07 0.08 0.08 0.08 0.35 0.43 0.73 1.77 0.75 0.95 0.44 0.12 0.08 0.04 0.01 0.00 0.02 0.02 0.02 0.05 0.09 0.06 0.04 0.02 0.00 0.00 0.00 0.00 0.00 0.00 0.00 0.00 0.00 0.00 0.00 0.00 0.00 0.00 0.00 0.00 0.00 0.00
0.09 0.11 0.09 0.10 0.09 0.16 0.44 0.50 1.08 1.31 0.84 0.73 0.78 0.15 0.14 0.12 0.05 0.01 0.05 0.05 0.03 0.08 0.11 0.06 0.03 0.01 0.01 0.00 0.00 0.00 0.00 0.00 0.00 0.00 0.00 0.00 0.00 0.00 0.00 0.00 0.00 0.00 0.00 0.00
0.12 0.15 0.16 0.15 0.13 0.31 0.69 1.05 0.96 0.86 0.61 0.73 0.90 0.37 0.12 0.16 0.13 0.07 0.04 0.11 0.12 0.08 0.07 0.03 0.02 0.01 0.00 0.00 0.00 0.00 0.00 0.00 0.00 0.00 0.00 0.00 0.00 0.00 0.00 0.00 0.00 0.00 0.00 0.00
0.19 0.18 0.22 0.22 0.19 0.41 0.89 0.94 0.80 0.63 0.49 0.56 0.68 0.67 0.28 0.20 0.18 0.17 0.34 0.13 0.12 0.16 0.10 0.03 0.00 0.00 0.00 0.00 0.00 0.00 0.00 0.00 0.00 0.00 0.00 0.00 0.00 0.00 0.00 0.00 0.00 0.00 0.00 0.00
0.17 0.18 0.19 0.28 0.34 0.63 0.92 0.77 0.96 0.62 0.38 0.42 0.40 0.53 0.51 0.28 0.21 0.16 0.33 0.35 0.20 0.16 0.10 0.08 0.03 0.01 0.00 0.00 0.00 0.00 0.00 0.00 0.00 0.00 0.00 0.00 0.00 0.00 0.00 0.00 0.00 0.00 0.00 0.00
0.16 0.18 0.28 0.51 0.67 0.98 0.89 0.90 1.15 0.77 0.51 0.42 0.16 0.16 0.46 0.43 0.34 0.15 0.14 0.31 0.31 0.21 0.12 0.05 0.07 0.07 0.02 0.00 0.00 0.00 0.00 0.00 0.00 0.00 0.00 0.00 0.00 0.00 0.00 0.00 0.00 0.00 0.01 0.04
0.25 0.48 0.61 0.72 0.79 0.87 0.79 1.00 1.01 0.80 0.50 0.37 0.17 0.11 0.18 0.33 0.52 0.38 0.13 0.16 0.23 0.28 0.27 0.14 0.05 0.03 0.04 0.01 0.00 0.00 0.00 0.00 0.00 0.00 0.00 0.00 0.00 0.00 0.00 0.00 0.01 0.02 0.05 0.07
0.45 0.45 0.68 0.75 0.85 0.99 0.96 0.85 0.56 0.46 0.27 0.13 0.20 0.18 0.14 0.16 0.34 0.52 0.24 0.17 0.13 0.10 0.16 0.19 0.20 0.05 0.00 0.00 0.00 0.00 0.01 0.00 0.00 0.00 0.00 0.00 0.00 0.00 0.01 0.03 0.04 0.03 0.01 0.00
0.41 0.57 0.62 0.85 0.95 0.75 0.59 0.47 0.29 0.15 0.08 0.03 0.07 0.22 0.24 0.11 0.16 0.38 0.39 0.12 0.13 0.06 0.03 0.08 0.10 0.05 0.00 0.00 0.00 0.00 0.00 0.00 0.00 0.00 0.00 0.00 0.00 0.01 0.01 0.01 0.00 0.00 0.00 0.00
0.60 0.41 0.58 0.54 0.45 0.40 0.31 0.20 0.09 0.03 0.02 0.02 0.02 0.04 0.20 0.13 0.05 0.14 0.20 0.19 0.09 0.05 0.03 0.02 0.01 0.01 0.03 0.01 0.01 0.00 0.00 0.00 0.01 0.02 0.03 0.03 0.03 0.03 0.02 0.01 0.00 0.00 0.00 0.00
0.40 0.46 0.39 0.30 0.26 0.16 0.15 0.09 0.03 0.01 0.02 0.02 0.01 0.00 0.05 0.16 0.10 0.16 0.12 0.13 0.10 0.10 0.05 0.01 0.03 0.06 0.03 0.01 0.00 0.00 0.01 0.01 0.01 0.01 0.02 0.04 0.05 0.05 0.04 0.01 0.00 0.00 0.00 0.00
0.33 0.35 0.26 0.13 0.11 0.10 0.10 0.07 0.03 0.04 0.04 0.02 0.02 0.04 0.04 0.09 0.21 0.18 0.18 0.15 0.10 0.06 0.02 0.02 0.06 0.05 0.02 0.01 0.01 0.02 0.04 0.07 0.10 0.11 0.09 0.06 0.04 0.02 0.02 0.01 0.00 0.00 0.00 0.00
0.28 0.29 0.21 0.11 0.06 0.08 0.07 0.06 0.05 0.04 0.04 0.02 0.05 0.10 0.10 0.15 0.10 0.10 0.11 0.11 0.08 0.07 0.05 0.05 0.06 0.07 0.10 0.10 0.11 0.14 0.13 0.10 0.07 0.07 0.04 0.02 0.01 0.01 0.01 0.00 0.00 0.00 0.00 0.00
0.23 0.39 0.42 0.28 0.20 0.23 0.23 0.19 0.13 0.09 0.08 0.12 0.11 0.13 0.16 0.18 0.14 0.12 0.13 0.18 0.18 0.20 0.18 0.15 0.14 0.18 0.19 0.19 0.20 0.17 0.10 0.06 0.04 0.03 0.02 0.01 0.00 0.00 0.00 0.00 0.00 0.00 0.00 0.00

GFSNW_prec_precacc_027.txt.gz
Total_Precipitation_Accumulation
0.22 0.29 0.26 0.21 0.26 0.32 0.31 0.25 0.09 0.03 0.04 0.19 0.06 0.01 0.00 0.00 0.00 0.00 0.00 0.00 0.00 0.00 0.00 0.00 0.00 0.00 0.00 0.00 0.00 0.00 0.00 0.00 0.00 0.00 0.00 0.00 0.00 0.00 0.00 0.00 0.00 0.00 0.00 0.00
0.27 0.33 0.42 0.31 0.27 0.34 0.31 0.31 0.25 0.30 0.09 0.07 0.02 0.00 0.00 0.00 0.00 0.00 0.00 0.00 0.00 0.00 0.00 0.00 0.00 0.00 0.00 0.00 0.01 0.00 0.00 0.00 0.00 0.00 0.00 0.00 0.00 0.00 0.00 0.00 0.00 0.00 0.00 0.00
0.41 0.39 0.46 0.44 0.29 0.31 0.34 0.31 0.36 0.65 0.27 0.00 0.00 0.00 0.00 0.00 0.00 0.00 0.00 0.00 0.00 0.00 0.00 0.00 0.00 0.00 0.00 0.00 0.01 0.01 0.01 0.00 0.00 0.00 0.00 0.00 0.00 0.00 0.00 0.00 0.00 0.00 0.00 0.00
0.58 0.47 0.46 0.47 0.34 0.31 0.58 0.42 0.11 0.14 0.10 0.01 0.00 0.00 0.00 0.00 0.00 0.00 0.00 0.00 0.00 0.00 0.00 0.00 0.00 0.00 0.00 0.00 0.00 0.00 0.01 0.00 0.00 0.00 0.00 0.00 0.00 0.00 0.00 0.00 0.00 0.00 0.00 0.00
0.54 0.61 0.49 0.43 0.38 0.43 0.90 0.43 0.06 0.05 0.01 0.00 0.00 0.01 0.00 0.00 0.00 0.00 0.00 0.00 0.00 0.00 0.00 0.00 0.00 0.00 0.00 0.00 0.00 0.00 0.00 0.00 0.00 0.00 0.00 0.00 0.00 0.00 0.00 0.00 0.00 0.00 0.00 0.00
0.41 0.62 0.49 0.41 0.43 0.76 1.05 0.31 0.02 0.08 0.04 0.01 0.01 0.00 0.00 0.00 0.00 0.00 0.00 0.00 0.00 0.00 0.00 0.01 0.00 0.00 0.00 0.00 0.00 0.00 0.00 0.00 0.00 0.00 0.00 0.00 0.00 0.00 0.00 0.00 0.00 0.00 0.00 0.00
0.34 0.53 0.51 0.40 0.43 0.65 0.40 0.13 0.09 0.25 0.11 0.02 0.00 0.00 0.00 0.00 0.00 0.00 0.00 0.00 0.00 0.00 0.00 0.00 0.00 0.00 0.02 0.08 0.09 0.01 0.02 0.01 0.00 0.00 0.00 0.00 0.00 0.00 0.00 0.00 0.00 0.00 0.00 0.00
0.34 0.40 0.45 0.35 0.36 0.36 0.25 0.10 0.16 0.47 0.21 0.02 0.01 0.00 0.00 0.00 0.00 0.00 0.00 0.00 0.00 0.00 0.01 0.03 0.02 0.02 0.02 0.01 0.03 0.04 0.08 0.02 0.00 0.00 0.00 0.00 0.00 0.00 0.00 0.00 0.00 0.00 0.00 0.00
0.34 0.31 0.32 0.29 0.26 0.25 0.29 0.19 0.30 0.64 0.41 0.06 0.01 0.01 0.00 0.00 0.01 0.02 0.03 0.02 0.01 0.01 0.02 0.03 0.02 0.02 0.01 0.00 0.00 0.00 0.01 0.03 0.01 0.00 0.00 0.00 0.00 0.00 0.00 0.00 0.00 0.00 0.00 0.00
0.32 0.25 0.23 0.19 0.15 0.17 0.26 0.29 0.51 0.79 0.52 0.16 0.04 0.01 0.01 0.01 0.01 0.02 0.05 0.07 0.04 0.03 0.08 0.04 0.01 0.01 0.01 0.00 0.00 0.00 0.00 0.00 0.00 0.00 0.00 0.00 0.00 0.00 0.00 0.00 0.00 0.00 0.00 0.00
0.27 0.22 0.15 0.13 0.11 0.13 0.27 0.36 0.58 1.00 0.62 0.15 0.19 0.08 0.01 0.01 0.00 0.04 0.03 0.14 0.12 0.09 0.08 0.04 0.02 0.01 0.00 0.00 0.00 0.00 0.00 0.00 0.00 0.00 0.00 0.00 0.00 0.00 0.00 0.00 0.00 0.00 0.00 0.00
0.21 0.16 0.08 0.09 0.09 0.12 0.28 0.39 0.43 0.74 0.91 0.31 0.24 0.07 0.01 0.00 0.00 0.01 0.01 0.06 0.03 0.04 0.04 0.02 0.04 0.01 0.00 0.00 0.00 0.00 0.00 0.00 0.00 0.00 0.00 0.00 0.00 0.00 0.00 0.00 0.00 0.00 0.00 0.00
0.15 0.12 0.08 0.10 0.11 0.11 0.29 0.41 0.42 1.18 0.89 0.56 0.19 0.15 0.03 0.00 0.00 0.01 0.03 0.01 0.03 0.05 0.04 0.05 0.04 0.02 0.00 0.00 0.00 0.00 0.00 0.00 0.00 0.00 0.00 0.00 0.00 0.00 0.00 0.00 0.00 0.00 0.00 0.00
0.13 0.11 0.10 0.14 0.15 0.14 0.37 0.43 0.74 1.86 0.88 0.98 0.48 0.22 0.11 0.09 0.01 0.00 0.02 0.02 0.02 0.05 0.09 0.06 0.04 0.02 0.01 0.01 0.00 0.00 0.00 0.00 0.00 0.00 0.00 0.00 0.00 0.00 0.00 0.00 0.00 0.00 0.00 0.00
0.13 0.14 0.12 0.14 0.14 0.20 0.45 0.50 1.10 1.39 1.02 0.80 0.82 0.16 0.16 0.16 0.14 0.03 0.06 0.05 0.04 0.08 0.11 0.07 0.03 0.01 0.02 0.01 0.00 0.00 0.00 0.00 0.00 0.00 0.00 0.00 0.00 0.00 0.00 0.00 0.00 0.00 0.00 0.00
0.14 0.16 0.17 0.16 0.16 0.34 0.72 1.08 0.99 0.95 0.71 0.81 0.96 0.40 0.15 0.18 0.23 0.18 0.08 0.12 0.12 0.08 0.07 0.03 0.02 0.01 0.01 0.00 0.00 0.00 0.00 0.01 0.00 0.00 0.00 0.00 0.00 0.00 0.00 0.00 0.00 0.00 0.00 0.00
0.20 0.20 0.24 0.25 0.24 0.42 0.94 0.98 0.85 0.68 0.57 0.62 0.70 0.69 0.30 0.21 0.20 0.23 0.42 0.16 0.13 0.16 0.10 0.03 0.00 0.01 0.01 0.00 0.00 0.00 0.00 0.00 0.00 0.00 0.00 0.00 0.00 0.00 0.00 0.00 0.00 0.00 0.00 0.00
0.19 0.20 0.22 0.34 0.37 0.65 0.97 0.81 1.05 0.65 0.43 0.44 0.42 0.57 0.51 0.30 0.26 0.21 0.38 0.38 0.22 0.17 0.10 0.08 0.03 0.01 0.00 0.00 0.00 0.00 0.00 0.00 0.00 0.00 0.00 0.00 0.00 0.00 0.00 0.00 0.00 0.00 0.00 0.00
0.17 0.20 0.36 0.59 0.74 1.01 0.93 0.96 1.21 0.81 0.51 0.43 0.17 0.20 0.48 0.44 0.44 0.22 0.21 0.36 0.35 0.23 0.13 0.05 0.07 0.07 0.02 0.00 0.00 0.00 0.00 0.00 0.00 0.00 0.00 0.00 0.00 0.00 0.00 0.00 0.00 0.00 0.01 0.04
0.28 0.53 0.73 0.79 0.81 0.90 0.85 1.09 1.21 0.95 0.56 0.41 0.25 0.14 0.20 0.33 0.55 0.51 0.22 0.19 0.24 0.29 0.27 0.15 0.05 0.03 0.04 0.01 0.00 0.00 0.00 0.00 0.00 0.00 0.00 0.00 0.00 0.00 0.00 0.00 0.01 0.02 0.05 0.07
0.55 0.57 0.76 0.76 0.90 1.02 1.06 0.97 0.68 0.67 0.39 0.16 0.21 0.21 0.20 0.16 0.34 0.55 0.42 0.36 0.16 0.11 0.16 0.19 0.22 0.06 0.00 0.00 0.01 0.00 0.01 0.01 0.01 0.00 0.00 0.00 0.00 0.00 0.01 0.03 0.04 0.03 0.01 0.00
0.47 0.63 0.66 0.89 1.00 0.77 0.62 0.52 0.45 0.35 0.14 0.04 0.08 0.22 0.25 0.14 0.19 0.38 0.51 0.30 0.27 0.07 0.03 0.08 0.12 0.08 0.05 0.04 0.03 0.02 0.03 0.05 0.07 0.06 0.04 0.02 0.01 0.01 0.01 0.01 0.00 0.00 0.01 0.01
0.70 0.44 0.60 0.60 0.53 0.43 0.33 0.27 0.29 0.16 0.04 0.03 0.03 0.04 0.29 0.27 0.15 0.17 0.36 0.44 0.23 0.09 0.07 0.06 0.03 0.01 0.05 0.09 0.13 0.13 0.11 0.04 0.02 0.03 0.03 0.03 0.03 0.03 0.03 0.03 0.04 0.05 0.06 0.06
0.46 0.47 0.45 0.51 0.40 0.26 0.23 0.20 0.11 0.04 0.04 0.06 0.02 0.00 0.11 0.35 0.23 0.20 0.15 0.23 0.22 0.22 0.13 0.07 0.07 0.09 0.06 0.03 0.02 0.02 0.02 0.01 0.01 0.01 0.02 0.05 0.08 0.12 0.13 0.12 0.10 0.08 0.06 0.05
0.38 0.48 0.48 0.34 0.31 0.29 0.27 0.17 0.06 0.06 0.06 0.04 0.04 0.08 0.04 0.13 0.33 0.27 0.20 0.19 0.15 0.13 0.11 0.12 0.15 0.10 0.04 0.02 0.01 0.02 0.05 0.09 0.14 0.17 0.17 0.17 0.15 0.12 0.12 0.10 0.08 0.05 0.03 0.02
0.39 0.45 0.36 0.25 0.20 0.19 0.16 0.11 0.08 0.06 0.06 0.04 0.11 0.16 0.11 0.16 0.12 0.16 0.17 0.17 0.13 0.14 0.15 0.16 0.18 0.19 0.20 0.19 0.21 0.25 0.26 0.24 0.19 0.16 0.11 0.08 0.07 0.05 0.04 0.03 0.02 0.01 0.00 0.00
0.30 0.49 0.52 0.33 0.23 0.26 0.27 0.23 0.16 0.10 0.09 0.14 0.12 0.14 0.19 0.20 0.14 0.13 0.14 0.24 0.31 0.35 0.32 0.28 0.29 0.34 0.34 0.34 0.33 0.28 0.18 0.13 0.10 0.09 0.08 0.06 0.05 0.02 0.01 0.00 0.00 0.00 0.00 0.00

GFSNW_prec_precacc_030.txt.gz
Total_Precipitation_Accumulation
0.26 0.31 0.29 0.24 0.28 0.34 0.36 0.38 0.21 0.05 0.05 0.24 0.14 0.03 0.00 0.00 0.00 0.00 0.00 0.00 0.00 0.00 0.00 0.00 0.00 0.00 0.00 0.00 0.00 0.00 0.00 0.00 0.00 0.00 0.00 0.00 0.00 0.00 0.00 0.00 0.00 0.00 0.00 0.00
0.42 0.39 0.46 0.35 0.31 0.39 0.35 0.44 0.33 0.35 0.12 0.09 0.04 0.01 0.00 0.00 0.00 0.00 0.00 0.00 0.00 0.00 0.00 0.00 0.00 0.00 0.00 0.00 0.01 0.00 0.00 0.00 0.00 0.00 0.00 0.00 0.00 0.00 0.00 0.00 0.00 0.00 0.00 0.00
0.67 0.65 0.57 0.55 0.39 0.38 0.37 0.40 0.50 0.80 0.33 0.01 0.00 0.00 0.01 0.00 0.00 0.00 0.00 0.00 0.00 0.00 0.00 0.00 0.00 0.00 0.00 0.00 0.01 0.01 0.01 0.00 0.00 0.00 0.00 0.00 0.00 0.00 0.00 0.00 0.00 0.00 0.00 0.00
0.66 0.75 0.78 0.68 0.55 0.43 0.63 0.56 0.20 0.20 0.14 0.01 0.00 0.00 0.00 0.00 0.00 0.00 0.00 0.00 0.00 0.00 0.00 0.00 0.00 0.00 0.00 0.00 0.00 0.00 0.01 0.00 0.00 0.00 0.00 0.00 0.00 0.00 0.00 0.00 0.00 0.00 0.00 0.00
0.55 0.79 0.81 0.75 0.66 0.62 0.99 0.58 0.08 0.06 0.01 0.00 0.00 0.01 0.00 0.00 0.00 0.00 0.00 0.00 0.00 0.00 0.00 0.00 0.00 0.00 0.00 0.00 0.00 0.00 0.00 0.00 0.00 0.00 0.00 0.00 0.00 0.00 0.00 0.00 0.00 0.00 0.00 0.00
0.42 0.72 0.83 0.77 0.73 1.02 1.22 0.37 0.02 0.10 0.05 0.01 0.01 0.00 0.00 0.00 0.00 0.00 0.00 0.00 0.00 0.00 0.00 0.01 0.01 0.00 0.00 0.00 0.00 0.00 0.00 0.00 0.00 0.00 0.00 0.00 0.00 0.00 0.00 0.00 0.00 0.00 0.00 0.00
0.36 0.56 0.84 0.78 0.74 0.93 0.44 0.14 0.10 0.29 0.15 0.04 0.00 0.00 0.00 0.00 0.00 0.00 0.00 0.00 0.01 0.00 0.00 0.00 0.00 0.00 0.02 0.08 0.09 0.01 0.02 0.01 0.00 0.00 0.00 0.00 0.00 0.00 0.00 0.00 0.00 0.00 0.00 0.00
0.36 0.42 0.73 0.79 0.61 0.48 0.25 0.10 0.16 0.49 0.23 0.03 0.01 0.00 0.00 0.00 0.00 0.00 0.00 0.00 0.00 0.00 0.01 0.03 0.03 0.03 0.02 0.01 0.03 0.04 0.08 0.02 0.00 0.00 0.00 0.00 0.00 0.00 0.00 0.00 0.00 0.00 0.00 0.00
0.37 0.33 0.55 0.74 0.43 0.29 0.29 0.20 0.31 0.65 0.44 0.09 0.04 0.02 0.01 0.01 0.01 0.02 0.03 0.02 0.01 0.01 0.03 0.03 0.03 0.03 0.01 0.00 0.00 0.00 0.01 0.03 0.01 0.00 0.00 0.00 0.00 0.00 0.00 0.00 0.00 0.00 0.00 0.00
0.35 0.27 0.38 0.52 0.28 0.20 0.27 0.29 0.52 0.81 0.55 0.22 0.10 0.06 0.03 0.01 0.01 0.03 0.05 0.07 0.04 0.03 0.08 0.04 0.01 0.01 0.01 0.00 0.00 0.00 0.00 0.00 0.00 0.00 0.00 0.00 0.00 0.00 0.00 0.00 0.00 0.00 0.00 0.00
0.28 0.24 0.23 0.29 0.21 0.19 0.27 0.36 0.59 1.02 0.65 0.19 0.26 0.13 0.07 0.02 0.00 0.04 0.03 0.14 0.12 0.09 0.08 0.04 0.02 0.01 0.00 0.00 0.00 0.00 0.00 0.00 0.00 0.00 0.00 0.00 0.00 0.00 0.00 0.00 0.00 0.00 0.00 0.00
0.22 0.19 0.15 0.20 0.24 0.24 0.30 0.39 0.44 0.75 0.93 0.37 0.35 0.14 0.04 0.00 0.00 0.01 0.01 0.06 0.03 0.04 0.04 0.02 0.04 0.01 0.00 0.00 0.00 0.00 0.00 0.00 0.00 0.00 0.00 0.00 0.00 0.00 0.00 0.00 0.00 0.00 0.00 0.00
0.17 0.17 0.15 0.20 0.28 0.19 0.30 0.41 0.42 1.18 0.89 0.57 0.23 0.22 0.05 0.00 0.00 0.01 0.03 0.01 0.03 0.05 0.04 0.05 0.04 0.02 0.00 0.00 0.00 0.00 0.00 0.00 0.00 0.00 0.00 0.00 0.00 0.00 0.00 0.00 0.00 0.00 0.00 0.00
0.17 0.18 0.18 0.25 0.28 0.21 0.39 0.43 0.74 1.86 0.88 1.00 0.49 0.31 0.14 0.10 0.02 0.00 0.02 0.02 0.02 0.06 0.09 0.06 0.04 0.02 0.01 0.01 0.00 0.00 0.00 0.00 0.00 0.00 0.00 0.00 0.00 0.00 0.00 0.00 0.00 0.00 0.00 0.00
0.20 0.23 0.24 0.32 0.33 0.31 0.48 0.50 1.10 1.39 1.03 0.83 0.82 0.22 0.25 0.19 0.15 0.03 0.06 0.05 0.04 0.09 0.11 0.07 0.03 0.01 0.02 0.01 0.00 0.00 0.00 0.00 0.00 0.00 0.00 0.00 0.00 0.00 0.00 0.00 0.00 0.00 0.00 0.00
0.21 0.25 0.31 0.33 0.28 0.39 0.74 1.12 1.00 0.95 0.72 0.85 1.02 0.43 0.21 0.32 0.28 0.22 0.09 0.12 0.12 0.09 0.09 0.04 0.02 0.01 0.01 0.00 0.00 0.00 0.00 0.01 0.01 0.00 0.00 0.00 0.00 0.00 0.00 0.00 0.00 0.00 0.00 0.00
0.25 0.25 0.31 0.33 0.28 0.43 0.95 1.00 0.86 0.68 0.60 0.72 0.80 0.73 0.33 0.33 0.45 0.43 0.48 0.17 0.14 0.16 0.12 0.05 0.02 0.01 0.01 0.00 0.00 0.00 0.00 0.00 0.00 0.00 0.00 0.00 0.00 0.00 0.00 0.00 0.00 0.00 0.00 0.00
0.21 0.22 0.24 0.35 0.37 0.66 1.01 0.84 1.06 0.65 0.51 0.56 0.52 0.64 0.56 0.34 0.49 0.49 0.54 0.53 0.26 0.20 0.12 0.08 0.04 0.02 0.00 0.00 0.00 0.00 0.00 0.00 0.00 0.00 0.00 0.00 0.00 0.00 0.00 0.00 0.00 0.00 0.00 0.00
0.17 0.21 0.37 0.62 0.75 1.06 1.01 0.99 1.22 0.82 0.63 0.51 0.20 0.25 0.51 0.47 0.47 0.25 0.30 0.59 0.50 0.25 0.13 0.05 0.08 0.08 0.02 0.00 0.00 0.00 0.00 0.00 0.00 0.00 0.00 0.00 0.00 0.00 0.00 0.00 0.00 0.00 0.01 0.04
0.31 0.58 0.79 0.83 0.82 1.00 0.96 1.14 1.28 1.06 0.63 0.46 0.26 0.14 0.20 0.33 0.57 0.54 0.35 0.32 0.32 0.33 0.28 0.15 0.06 0.04 0.04 0.01 0.00 0.00 0.00 0.00 0.00 0.00 0.00 0.00 0.00 0.00 0.00 0.00 0.01 0.02 0.05 0.07
0.57 0.61 0.78 0.78 1.05 1.14 1.09 0.98 0.73 0.72 0.40 0.16 0.21 0.22 0.31 0.18 0.34 0.56 0.46 0.47 0.19 0.12 0.17 0.20 0.22 0.07 0.00 0.00 0.01 0.01 0.01 0.01 0.01 0.00 0.00 0.00 0.00 0.00 0.01 0.03 0.04 0.03 0.01 0.00
0.51 0.67 0.68 0.94 1.06 0.77 0.64 0.55 0.46 0.36 0.15 0.04 0.08 0.23 0.32 0.19 0.19 0.39 0.51 0.31 0.30 0.09 0.03 0.08 0.12 0.08 0.05 0.04 0.03 0.02 0.03 0.05 0.07 0.06 0.04 0.04 0.03 0.02 0.02 0.02 0.01 0.01 0.02 0.05
0.76 0.48 0.62 0.62 0.55 0.45 0.34 0.30 0.35 0.23 0.05 0.04 0.03 0.04 0.30 0.30 0.19 0.18 0.37 0.45 0.24 0.10 0.10 0.10 0.07 0.03 0.05 0.09 0.13 0.13 0.12 0.10 0.09 0.09 0.09 0.07 0.07 0.06 0.04 0.05 0.08 0.12 0.18 0.22
0.49 0.50 0.46 0.57 0.45 0.34 0.27 0.30 0.30 0.11 0.05 0.07 0.03 0.01 0.12 0.39 0.34 0.25 0.17 0.27 0.24 0.29 0.25 0.16 0.14 0.16 0.13 0.11 0.10 0.07 0.07 0.05 0.05 0.06 0.08 0.13 0.18 0.24 0.26 0.26 0.25 0.22 0.20 0.20
0.44 0.57 0.62 0.45 0.42 0.42 0.47 0.38 0.25 0.17 0.15 0.09 0.10 0.11 0.05 0.17 0.50 0.43 0.27 0.23 0.18 0.16 0.16 0.19 0.26 0.26 0.23 0.20 0.17 0.15 0.14 0.15 0.19 0.23 0.24 0.28 0.25 0.20 0.23 0.23 0.20 0.16 0.14 0.12
0.53 0.64 0.51 0.42 0.39 0.41 0.40 0.30 0.23 0.22 0.19 0.12 0.18 0.20 0.11 0.17 0.15 0.22 0.20 0.19 0.15 0.17 0.21 0.26 0.29 0.32 0.36 0.37 0.40 0.45 0.43 0.41 0.36 0.32 0.24 0.19 0.17 0.13 0.11 0.12 0.10 0.08 0.06 0.05
0.44 0.63 0.70 0.57 0.44 0.46 0.45 0.37 0.26 0.19 0.13 0.16 0.14 0.15 0.20 0.20 0.15 0.14 0.16 0.27 0.37 0.44 0.42 0.40 0.40 0.46 0.49 0.49 0.47 0.41 0.31 0.24 0.21 0.19 0.17 0.15 0.13 0.08 0.04 0.04 0.04 0.02 0.01 0.01

GFSNW_prec_precacc_033.txt.gz
Total_Precipitation_Accumulation
0.28 0.33 0.30 0.26 0.30 0.38 0.45 0.45 0.24 0.07 0.10 0.32 0.17 0.05 0.00 0.00 0.00 0.00 0.00 0.00 0.00 0.00 0.00 0.00 0.00 0.00 0.00 0.00 0.00 0.00 0.00 0.00 0.00 0.00 0.00 0.00 0.00 0.00 0.00 0.00 0.00 0.00 0.00 0.00
0.45 0.45 0.50 0.37 0.34 0.47 0.51 0.55 0.37 0.44 0.16 0.16 0.07 0.01 0.00 0.00 0.00 0.00 0.00 0.00 0.00 0.00 0.00 0.00 0.00 0.00 0.00 0.00 0.01 0.00 0.00 0.00 0.00 0.00 0.00 0.00 0.00 0.00 0.00 0.00 0.00 0.00 0.00 0.00
0.68 0.73 0.68 0.62 0.47 0.49 0.52 0.53 0.58 0.99 0.40 0.02 0.01 0.00 0.01 0.00 0.00 0.00 0.00 0.00 0.00 0.00 0.00 0.00 0.00 0.00 0.00 0.00 0.01 0.01 0.01 0.00 0.00 0.00 0.00 0.00 0.00 0.00 0.00 0.00 0.00 0.00 0.00 0.00
0.66 0.76 0.93 0.90 0.78 0.65 0.94 0.86 0.31 0.33 0.21 0.03 0.00 0.00 0.00 0.00 0.00 0.00 0.00 0.00 0.00 0.00 0.01 0.01 0.00 0.00 0.00 0.00 0.00 0.00 0.01 0.00 0.00 0.00 0.00 0.00 0.00 0.00 0.00 0.00 0.00 0.00 0.00 0.00
0.55 0.80 0.83 0.99 1.06 1.04 1.48 0.94 0.14 0.08 0.02 0.00 0.00 0.01 0.00 0.00 0.00 0.00 0.00 0.00 0.00 0.02 0.01 0.02 0.04 0.00 0.00 0.00 0.00 0.00 0.00 0.00 0.00 0.00 0.00 0.00 0.00 0.00 0.00 0.00 0.00 0.00 0.00 0.00
0.43 0.74 0.85 0.91 1.17 1.59 1.95 0.67 0.04 0.13 0.06 0.03 0.03 0.01 0.00 0.00 0.00 0.00 0.00 0.00 0.00 0.00 0.01 0.03 0.05 0.01 0.00 0.00 0.00 0.00 0.00 0.00 0.00 0.00 0.00 0.00 0.00 0.00 0.00 0.00 0.00 0.00 0.00 0.00
0.38 0.58 0.86 0.88 1.15 1.52 0.88 0.27 0.11 0.32 0.19 0.07 0.00 0.00 0.00 0.00 0.00 0.00 0.00 0.00 0.01 0.00 0.00 0.00 0.01 0.02 0.04 0.09 0.09 0.01 0.02 0.01 0.00 0.00 0.00 0.00 0.00 0.00 0.00 0.00 0.00 0.00 0.00 0.00
0.39 0.46 0.76 0.86 0.98 0.96 0.43 0.11 0.17 0.51 0.27 0.05 0.02 0.00 0.00 0.00 0.00 0.00 0.00 0.00 0.00 0.00 0.01 0.03 0.03 0.05 0.06 0.04 0.03 0.04 0.08 0.03 0.00 0.00 0.00 0.00 0.00 0.00 0.00 0.00 0.00 0.00 0.00 0.00
0.40 0.37 0.59 0.79 0.77 0.69 0.37 0.24 0.31 0.67 0.47 0.11 0.04 0.03 0.01 0.02 0.03 0.04 0.03 0.02 0.01 0.01 0.03 0.03 0.03 0.03 0.03 0.04 0.04 0.00 0.01 0.03 0.02 0.01 0.00 0.00 0.00 0.00 0.00 0.00 0.00 0.00 0.00 0.00
0.38 0.32 0.42 0.61 0.53 0.46 0.35 0.35 0.53 0.83 0.58 0.25 0.13 0.09 0.05 0.02 0.02 0.06 0.07 0.10 0.07 0.04 0.09 0.05 0.01 0.01 0.01 0.01 0.07 0.03 0.00 0.00 0.01 0.02 0.00 0.00 0.00 0.00 0.00 0.00 0.00 0.00 0.00 0.00
0.31 0.29 0.25 0.40 0.39 0.45 0.41 0.39 0.60 1.05 0.69 0.25 0.32 0.19 0.12 0.03 0.02 0.07 0.05 0.19 0.15 0.11 0.08 0.04 0.02 0.02 0.00 0.00 0.00 0.04 0.02 0.01 0.02 0.01 0.02 0.00 0.00 0.00 0.00 0.00 0.00 0.00 0.00 0.00
0.24 0.21 0.16 0.27 0.38 0.56 0.42 0.41 0.45 0.77 1.00 0.44 0.36 0.16 0.09 0.02 0.00 0.01 0.03 0.08 0.03 0.04 0.04 0.02 0.04 0.03 0.02 0.00 0.00 0.00 0.02 0.03 0.03 0.00 0.00 0.00 0.00 0.00 0.00 0.00 0.00 0.00 0.00 0.00
0.18 0.18 0.16 0.29 0.50 0.49 0.34 0.42 0.43 1.21 0.95 0.61 0.24 0.23 0.06 0.01 0.00 0.01 0.06 0.02 0.03 0.05 0.04 0.05 0.04 0.02 0.01 0.00 0.00 0.00 0.00 0.00 0.00 0.00 0.00 0.00 0.00 0.00 0.00 0.00 0.00 0.00 0.00 0.00
0.17 0.18 0.22 0.41 0.56 0.37 0.40 0.44 0.75 1.87 0.91 1.03 0.51 0.35 0.15 0.11 0.02 0.00 0.03 0.03 0.02 0.06 0.09 0.07 0.04 0.02 0.01 0.01 0.00 0.00 0.00 0.00 0.00 0.00 0.00 0.00 0.00 0.00 0.00 0.00 0.00 0.00 0.00 0.00
0.22 0.27 0.34 0.55 0.49 0.37 0.49 0.53 1.11 1.39 1.06 0.85 0.83 0.22 0.26 0.19 0.16 0.04 0.06 0.07 0.05 0.10 0.12 0.07 0.03 0.01 0.02 0.01 0.00 0.00 0.00 0.00 0.00 0.00 0.00 0.00 0.00 0.00 0.00 0.00 0.00 0.00 0.00 0.00
0.27 0.35 0.48 0.47 0.31 0.40 0.77 1.19 1.02 0.96 0.75 0.87 1.03 0.44 0.22 0.34 0.30 0.23 0.10 0.12 0.14 0.11 0.11 0.05 0.02 0.01 0.01 0.00 0.00 0.00 0.00 0.01 0.01 0.00 0.00 0.00 0.00 0.00 0.00 0.00 0.00 0.00 0.00 0.00
0.36 0.40 0.42 0.36 0.28 0.44 0.97 1.03 0.87 0.68 0.60 0.72 0.81 0.80 0.37 0.39 0.50 0.48 0.53 0.19 0.15 0.21 0.16 0.07 0.03 0.01 0.01 0.00 0.00 0.00 0.00 0.00 0.00 0.00 0.00 0.00 0.00 0.00 0.00 0.00 0.00 0.00 0.00 0.00
0.28 0.27 0.27 0.37 0.39 0.68 1.03 0.85 1.06 0.65 0.51 0.56 0.56 0.76 0.68 0.61 0.85 0.62 0.62 0.59 0.31 0.23 0.14 0.09 0.06 0.05 0.02 0.00 0.00 0.00 0.00 0.00 0.00 0.00 0.00 0.00 0.00 0.00 0.00 0.00 0.00 0.00 0.00 0.00
0.20 0.24 0.41 0.66 0.77 1.08 1.03 1.00 1.22 0.83 0.64 0.53 0.26 0.41 0.74 0.83 0.86 0.58 0.46 0.74 0.58 0.30 0.16 0.06 0.09 0.10 0.06 0.01 0.00 0.00 0.00 0.00 0.00 0.00 0.00 0.00 0.00 0.00 0.00 0.00 0.00 0.00 0.01 0.04
0.31 0.59 0.80 0.85 0.83 1.01 0.98 1.16 1.30 1.07 0.65 0.49 0.33 0.25 0.42 0.48 0.80 0.78 0.51 0.46 0.45 0.38 0.30 0.17 0.08 0.05 0.05 0.01 0.00 0.00 0.00 0.00 0.00 0.00 0.00 0.00 0.00 0.00 0.00 0.00 0.01 0.02 0.05 0.07
0.58 0.61 0.80 0.80 1.10 1.33 1.26 1.02 0.75 0.75 0.42 0.17 0.23 0.26 0.39 0.27 0.46 0.65 0.63 0.74 0.29 0.15 0.20 0.23 0.25 0.08 0.01 0.00 0.01 0.01 0.01 0.01 0.01 0.00 0.00 0.00 0.00 0.00 0.01 0.03 0.04 0.03 0.01 0.00
0.53 0.71 0.75 1.09 1.22 0.94 0.67 0.56 0.48 0.37 0.15 0.06 0.09 0.23 0.33 0.21 0.20 0.40 0.54 0.41 0.42 0.13 0.05 0.13 0.17 0.11 0.05 0.04 0.03 0.02 0.03 0.05 0.07 0.06 0.04 0.04 0.03 0.02 0.02 0.02 0.01 0.01 0.03 0.05
0.81 0.54 0.68 0.66 0.56 0.46 0.35 0.31 0.36 0.24 0.05 0.04 0.04 0.06 0.30 0.31 0.19 0.18 0.37 0.46 0.26 0.14 0.15 0.18 0.13 0.05 0.06 0.09 0.13 0.14 0.12 0.10 0.09 0.09 0.09 0.08 0.08 0.08 0.06 0.07 0.11 0.16 0.25 0.32
0.52 0.51 0.46 0.61 0.48 0.37 0.28 0.31 0.31 0.11 0.05 0.07 0.06 0.02 0.13 0.41 0.38 0.29 0.20 0.31 0.27 0.33 0.30 0.21 0.16 0.19 0.16 0.14 0.14 0.12 0.13 0.13 0.14 0.15 0.17 0.22 0.26 0.33 0.41 0.45 0.46 0.41 0.41 0.44
0.47 0.58 0.65 0.51 0.49 0.47 0.50 0.40 0.26 0.18 0.15 0.12 0.12 0.14 0.14 0.24 0.62 0.51 0.32 0.27 0.20 0.18 0.18 0.22 0.30 0.31 0.28 0.27 0.29 0.31 0.34 0.39 0.45 0.47 0.45 0.47 0.42 0.33 0.38 0.39 0.35 0.28 0.25 0.23
0.57 0.71 0.59 0.49 0.47 0.48 0.46 0.35 0.26 0.24 0.24 0.18 0.27 0.33 0.16 0.21 0.17 0.29 0.26 0.22 0.17 0.20 0.25 0.31 0.36 0.39 0.44 0.45 0.49 0.55 0.55 0.53 0.49 0.46 0.37 0.31 0.27 0.20 0.18 0.19 0.16 0.15 0.11 0.11
0.56 0.77 0.85 0.72 0.59 0.63 0.61 0.50 0.38 0.31 0.22 0.27 0.22 0.20 0.21 0.21 0.15 0.15 0.19 0.32 0.43 0.48 0.47 0.47 0.49 0.55 0.58 0.59 0.54 0.48 0.37 0.31 0.29 0.26 0.23 0.21 0.19 0.12 0.07 0.08 0.10 0.07 0.06 0.04

GFSNW_prec_precacc_036.txt.gz
Total_Precipitation_Accumulation
0.30 0.35 0.33 0.29 0.33 0.40 0.51 0.53 0.30 0.08 0.13 0.39 0.24 0.06 0.00 0.00 0.00 0.00 0.00 0.00 0.00 0.00 0.00 0.00 0.00 0.00 0.00 0.00 0.00 0.00 0.00 0.00 0.00 0.00 0.00 0.00 0.00 0.00 0.00 0.00 0.00 0.00 0.00 0.00
0.47 0.46 0.53 0.41 0.39 0.52 0.61 0.72 0.42 0.50 0.20 0.19 0.10 0.02 0.00 0.00 0.00 0.00 0.00 0.00 0.00 0.00 0.00 0.01 0.00 0.00 0.00 0.00 0.01 0.00 0.00 0.00 0.00 0.00 0.00 0.00 0.00 0.00 0.00 0.00 0.00 0.00 0.03 0.00
0.70 0.76 0.72 0.67 0.56 0.64 0.67 0.78 0.76 1.10 0.47 0.04 0.01 0.01 0.01 0.00 0.00 0.00 0.00 0.00 0.00 0.01 0.06 0.01 0.01 0.00 0.00 0.00 0.01 0.01 0.01 0.00 0.00 0.00 0.00 0.00 0.00 0.00 0.00 0.00 0.00 0.00 0.00 0.00
0.67 0.77 0.96 0.95 0.89 0.88 1.25 1.33 0.58 0.43 0.27 0.06 0.01 0.00 0.00 0.00 0.00 0.00 0.00 0.00 0.00 0.00 0.03 0.05 0.03 0.04 0.01 0.00 0.00 0.00 0.01 0.00 0.00 0.00 0.00 0.00 0.00 0.00 0.00 0.00 0.00 0.00 0.00 0.00
0.56 0.80 0.84 1.02 1.15 1.30 1.92 1.53 0.33 0.10 0.02 0.01 0.01 0.02 0.00 0.00 0.00 0.00 0.00 0.00 0.00 0.02 0.02 0.05 0.07 0.07 0.05 0.02 0.00 0.00 0.00 0.00 0.00 0.00 0.00 0.00 0.00 0.00 0.00 0.00 0.00 0.00 0.00 0.00
0.45 0.75 0.85 0.92 1.22 1.94 2.75 1.39 0.17 0.14 0.08 0.04 0.05 0.02 0.00 0.00 0.00 0.00 0.00 0.00 0.00 0.00 0.03 0.07 0.14 0.07 0.07 0.04 0.01 0.00 0.00 0.00 0.00 0.00 0.00 0.00 0.00 0.00 0.00 0.00 0.00 0.00 0.00 0.00
0.40 0.60 0.88 0.89 1.16 1.77 1.66 0.85 0.22 0.40 0.23 0.11 0.01 0.00 0.00 0.00 0.00 0.00 0.00 0.00 0.01 0.00 0.01 0.06 0.10 0.18 0.13 0.14 0.10 0.01 0.02 0.01 0.00 0.00 0.00 0.00 0.00 0.00 0.00 0.00 0.00 0.00 0.00 0.00
0.42 0.48 0.78 0.87 0.99 1.11 0.90 0.47 0.23 0.57 0.30 0.06 0.02 0.00 0.00 0.01 0.00 0.00 0.00 0.00 0.00 0.00 0.01 0.11 0.13 0.09 0.13 0.13 0.09 0.04 0.08 0.05 0.02 0.02 0.01 0.00 0.00 0.00 0.00 0.00 0.00 0.00 0.00 0.00
0.46 0.42 0.62 0.81 0.78 0.78 0.69 0.44 0.40 0.75 0.51 0.12 0.04 0.03 0.02 0.03 0.04 0.05 0.03 0.02 0.01 0.01 0.04 0.08 0.10 0.05 0.03 0.05 0.09 0.03 0.02 0.06 0.09 0.02 0.01 0.00 0.00 0.00 0.00 0.00 0.00 0.00 0.00 0.00
0.45 0.40 0.49 0.66 0.55 0.54 0.58 0.50 0.63 0.91 0.67 0.28 0.16 0.11 0.06 0.02 0.03 0.07 0.07 0.12 0.13 0.06 0.14 0.10 0.03 0.01 0.01 0.01 0.08 0.10 0.07 0.02 0.04 0.04 0.02 0.00 0.00 0.00 0.00 0.00 0.00 0.00 0.00 0.00
0.35 0.37 0.31 0.47 0.42 0.49 0.55 0.55 0.67 1.12 0.78 0.28 0.34 0.21 0.13 0.04 0.02 0.09 0.06 0.25 0.23 0.24 0.13 0.06 0.03 0.02 0.00 0.00 0.00 0.08 0.13 0.10 0.04 0.05 0.04 0.00 0.00 0.00 0.00 0.00 0.00 0.00 0.00 0.00
0.28 0.26 0.20 0.34 0.43 0.59 0.57 0.54 0.54 0.83 1.11 0.54 0.37 0.19 0.10 0.02 0.00 0.01 0.03 0.11 0.11 0.15 0.12 0.02 0.04 0.03 0.02 0.01 0.00 0.00 0.04 0.12 0.09 0.02 0.00 0.00 0.00 0.00 0.00 0.00 0.00 0.00 0.00 0.00
0.21 0.23 0.21 0.37 0.55 0.55 0.48 0.52 0.56 1.35 1.08 0.72 0.27 0.25 0.07 0.01 0.00 0.01 0.12 0.04 0.05 0.07 0.07 0.06 0.05 0.04 0.01 0.01 0.00 0.00 0.00 0.01 0.03 0.04 0.01 0.01 0.00 0.00 0.00 0.00 0.00 0.00 0.00 0.00
0.22 0.25 0.26 0.45 0.59 0.44 0.50 0.53 0.88 1.92 0.93 1.10 0.59 0.37 0.16 0.11 0.02 0.03 0.08 0.05 0.04 0.10 0.10 0.07 0.07 0.04 0.01 0.01 0.00 0.00 0.00 0.03 0.00 0.00 0.00 0.02 0.01 0.01 0.00 0.00 0.00 0.00 0.00 0.00
0.25 0.28 0.37 0.59 0.56 0.47 0.61 0.58 1.17 1.40 1.07 0.88 0.87 0.23 0.26 0.19 0.16 0.04 0.11 0.14 0.10 0.24 0.24 0.09 0.04 0.01 0.02 0.01 0.00 0.00 0.00 0.00 0.00 0.00 0.00 0.00 0.00 0.01 0.01 0.01 0.01 0.00 0.00 0.00
0.28 0.38 0.54 0.55 0.40 0.54 0.85 1.32 1.12 0.97 0.77 0.92 1.07 0.45 0.22 0.34 0.30 0.23 0.12 0.17 0.19 0.18 0.19 0.09 0.02 0.01 0.01 0.00 0.00 0.00 0.00 0.01 0.01 0.00 0.00 0.00 0.00 0.00 0.03 0.01 0.01 0.00 0.00 0.00
0.40 0.46 0.49 0.41 0.32 0.47 0.99 1.08 0.89 0.68 0.62 0.74 0.82 0.80 0.38 0.39 0.51 0.49 0.55 0.22 0.19 0.29 0.24 0.09 0.04 0.02 0.01 0.00 0.00 0.00 0.00 0.00 0.00 0.00 0.00 0.00 0.00 0.00 0.00 0.00 0.00 0.00 0.00 0.00
0.32 0.34 0.34 0.44 0.42 0.71 1.04 0.85 1.06 0.65 0.51 0.57 0.56 0.78 0.71 0.62 0.86 0.65 0.64 0.63 0.37 0.27 0.20 0.12 0.07 0.06 0.08 0.03 0.00 0.00 0.00 0.00 0.00 0.00 0.00 0.00 0.00 0.00 0.00 0.00 0.00 0.00 0.00 0.00
0.23 0.28 0.44 0.69 0.80 1.12 1.04 1.00 1.22 0.85 0.66 0.53 0.27 0.46 0.99 0.98 0.92 0.62 0.51 0.81 0.64 0.31 0.18 0.08 0.12 0.15 0.12 0.03 0.00 0.00 0.00 0.00 0.00 0.00 0.00 0.00 0.00 0.00 0.00 0.00 0.00 0.00 0.01 0.04
0.32 0.61 0.82 0.89 0.85 1.02 0.98 1.16 1.30 1.07 0.66 0.49 0.34 0.31 0.68 0.90 0.91 0.83 0.57 0.53 0.49 0.40 0.31 0.18 0.10 0.08 0.07 0.01 0.00 0.00 0.00 0.00 0.00 0.00 0.00 0.00 0.00 0.00 0.00 0.00 0.01 0.02 0.05 0.07
0.59 0.64 0.83 0.82 1.10 1.34 1.28 1.02 0.76 0.76 0.42 0.17 0.24 0.32 0.64 0.80 0.71 0.68 0.71 0.82 0.34 0.19 0.22 0.28 0.26 0.09 0.02 0.00 0.01 0.01 0.01 0.01 0.01 0.00 0.00 0.00 0.00 0.00 0.01 0.03 0.04 0.03 0.01 0.00
0.55 0.72 0.76 1.10 1.30 1.03 0.71 0.58 0.49 0.38 0.17 0.10 0.16 0.37 0.70 0.71 0.55 0.52 0.73 0.66 0.50 0.22 0.09 0.21 0.31 0.16 0.06 0.05 0.03 0.02 0.03 0.05 0.07 0.06 0.04 0.04 0.03 0.02 0.02 0.02 0.01 0.01 0.03 0.05
0.87 0.59 0.74 0.78 0.70 0.53 0.40 0.33 0.37 0.25 0.06 0.05 0.09 0.26 0.55 0.56 0.41 0.33 0.46 0.70 0.56 0.27 0.21 0.26 0.19 0.07 0.07 0.10 0.14 0.14 0.12 0.10 0.09 0.09 0.09 0.08 0.08 0.08 0.06 0.07 0.11 0.16 0.27 0.36
0.58 0.56 0.49 0.65 0.52 0.41 0.32 0.34 0.33 0.12 0.06 0.07 0.08 0.06 0.16 0.43 0.45 0.34 0.23 0.39 0.44 0.47 0.34 0.25 0.19 0.21 0.18 0.16 0.17 0.15 0.17 0.17 0.17 0.18 0.19 0.25 0.30 0.40 0.49 0.54 0.58 0.54 0.57 0.64
0.47 0.59 0.67 0.52 0.53 0.49 0.51 0.41 0.27 0.18 0.16 0.14 0.18 0.18 0.16 0.25 0.67 0.52 0.34 0.28 0.22 0.20 0.22 0.26 0.35 0.35 0.32 0.31 0.33 0.36 0.41 0.47 0.54 0.59 0.58 0.62 0.58 0.49 0.54 0.55 0.51 0.42 0.38 0.36
0.57 0.73 0.62 0.50 0.48 0.49 0.46 0.35 0.26 0.25 0.25 0.24 0.32 0.41 0.20 0.23 0.19 0.30 0.28 0.23 0.20 0.25 0.29 0.35 0.41 0.45 0.50 0.51 0.55 0.62 0.62 0.61 0.58 0.55 0.47 0.41 0.37 0.31 0.30 0.30 0.27 0.26 0.20 0.20
0.61 0.83 0.89 0.75 0.61 0.65 0.62 0.52 0.39 0.32 0.24 0.30 0.26 0.26 0.24 0.23 0.15 0.16 0.21 0.38 0.50 0.55 0.53 0.52 0.54 0.62 0.66 0.66 0.60 0.55 0.43 0.37 0.35 0.32 0.28 0.27 0.26 0.17 0.11 0.13 0.17 0.13 0.11 0.10

GFSNW_prec_precacc_039.txt.gz
Total_Precipitation_Accumulation
0.30 0.35 0.34 0.30 0.36 0.45 0.62 0.72 0.43 0.11 0.14 0.43 0.26 0.07 0.00 0.00 0.00 0.00 0.00 0.00 0.00 0.00 0.00 0.00 0.00 0.00 0.00 0.00 0.00 0.00 0.00 0.00 0.00 0.00 0.00 0.00 0.00 0.00 0.00 0.00 0.00 0.00 0.01 0.00
0.47 0.47 0.54 0.43 0.41 0.58 0.78 1.00 0.55 0.54 0.21 0.22 0.11 0.02 0.00 0.00 0.00 0.00 0.00 0.00 0.00 0.00 0.00 0.01 0.01 0.00 0.00 0.00 0.01 0.00 0.00 0.00 0.00 0.00 0.00 0.00 0.00 0.00 0.00 0.00 0.00 0.00 0.03 0.00
0.72 0.77 0.75 0.70 0.59 0.71 0.91 1.16 1.04 1.27 0.56 0.04 0.01 0.01 0.01 0.00 0.00 0.00 0.00 0.00 0.00 0.01 0.06 0.01 0.01 0.00 0.00 0.00 0.01 0.01 0.01 0.00 0.00 0.00 0.00 0.00 0.00 0.00 0.00 0.00 0.00 0.00 0.00 0.00
0.69 0.79 0.98 0.98 0.94 0.95 1.54 1.92 0.83 0.51 0.38 0.09 0.01 0.00 0.00 0.00 0.00 0.00 0.00 0.00 0.00 0.00 0.03 0.05 0.03 0.04 0.02 0.05 0.00 0.00 0.01 0.00 0.00 0.00 0.00 0.00 0.00 0.00 0.00 0.00 0.00 0.01 0.00 0.00
0.59 0.83 0.86 1.03 1.21 1.43 2.31 2.14 0.54 0.11 0.02 0.01 0.02 0.02 0.00 0.00 0.00 0.00 0.00 0.00 0.00 0.02 0.02 0.05 0.08 0.11 0.10 0.14 0.10 0.01 0.00 0.00 0.00 0.00 0.00 0.00 0.00 0.00 0.00 0.00 0.00 0.00 0.00 0.00
0.47 0.77 0.87 0.93 1.24 2.15 3.29 1.97 0.34 0.15 0.09 0.05 0.07 0.02 0.00 0.00 0.00 0.00 0.00 0.00 0.00 0.00 0.03 0.07 0.15 0.09 0.11 0.17 0.21 0.17 0.02 0.00 0.00 0.00 0.00 0.00 0.00 0.00 0.00 0.00 0.00 0.00 0.00 0.00
0.41 0.61 0.88 0.89 1.17 1.85 2.16 1.45 0.43 0.53 0.36 0.12 0.02 0.00 0.00 0.00 0.00 0.00 0.00 0.00 0.01 0.00 0.01 0.06 0.12 0.21 0.15 0.19 0.20 0.20 0.16 0.03 0.00 0.00 0.01 0.01 0.00 0.00 0.00 0.00 0.00 0.00 0.00 0.00
0.44 0.49 0.78 0.88 1.00 1.12 1.03 0.97 0.63 0.73 0.44 0.09 0.02 0.00 0.00 0.01 0.00 0.00 0.00 0.00 0.00 0.00 0.02 0.15 0.20 0.12 0.14 0.16 0.18 0.19 0.21 0.13 0.04 0.02 0.01 0.00 0.00 0.00 0.00 0.00 0.00 0.00 0.00 0.00
0.47 0.44 0.65 0.82 0.79 0.79 0.74 0.56 0.66 1.10 0.70 0.22 0.05 0.03 0.02 0.03 0.04 0.05 0.03 0.02 0.01 0.01 0.04 0.14 0.19 0.16 0.04 0.05 0.11 0.12 0.26 0.16 0.12 0.04 0.01 0.00 0.00 0.00 0.00 0.00 0.00 0.00 0.00 0.00
0.46 0.42 0.54 0.70 0.57 0.56 0.62 0.53 0.67 1.22 1.05 0.36 0.17 0.12 0.06 0.02 0.03 0.07 0.07 0.12 0.13 0.06 0.15 0.12 0.12 0.09 0.02 0.02 0.08 0.11 0.17 0.19 0.14 0.06 0.03 0.00 0.00 0.00 0.00 0.00 0.00 0.00 0.00 0.00
0.36 0.39 0.37 0.57 0.50 0.53 0.60 0.57 0.70 1.28 1.04 0.35 0.36 0.23 0.13 0.04 0.02 0.09 0.06 0.26 0.23 0.25 0.15 0.07 0.05 0.04 0.02 0.01 0.01 0.08 0.15 0.19 0.17 0.14 0.05 0.00 0.00 0.00 0.00 0.00 0.00 0.00 0.00 0.00
0.30 0.29 0.28 0.44 0.59 0.71 0.63 0.59 0.60 0.92 1.23 0.77 0.40 0.19 0.10 0.02 0.00 0.02 0.03 0.12 0.12 0.15 0.14 0.04 0.05 0.03 0.02 0.01 0.00 0.00 0.04 0.12 0.12 0.08 0.02 0.00 0.00 0.00 0.00 0.00 0.00 0.00 0.00 0.00
0.28 0.26 0.30 0.48 0.75 0.73 0.57 0.55 0.63 1.53 1.23 0.96 0.51 0.27 0.07 0.02 0.00 0.02 0.16 0.05 0.06 0.10 0.10 0.09 0.08 0.05 0.01 0.01 0.00 0.00 0.00 0.01 0.03 0.04 0.02 0.03 0.02 0.02 0.00 0.00 0.00 0.00 0.00 0.00
0.26 0.28 0.35 0.60 0.77 0.56 0.55 0.55 0.93 2.10 1.06 1.25 0.74 0.40 0.16 0.11 0.03 0.06 0.11 0.07 0.08 0.11 0.14 0.12 0.12 0.05 0.01 0.01 0.00 0.00 0.00 0.03 0.03 0.02 0.01 0.02 0.03 0.12 0.09 0.04 0.02 0.01 0.01 0.02
0.30 0.32 0.42 0.71 0.66 0.52 0.64 0.63 1.27 1.49 1.13 0.91 0.91 0.25 0.26 0.19 0.16 0.08 0.13 0.16 0.19 0.31 0.27 0.14 0.07 0.03 0.04 0.02 0.01 0.00 0.00 0.00 0.00 0.01 0.00 0.00 0.00 0.02 0.03 0.08 0.09 0.04 0.02 0.02
0.31 0.41 0.60 0.61 0.45 0.58 0.95 1.58 1.42 1.09 0.87 0.96 1.10 0.46 0.23 0.34 0.30 0.26 0.13 0.21 0.27 0.34 0.32 0.15 0.04 0.02 0.04 0.02 0.00 0.00 0.00 0.01 0.01 0.00 0.00 0.00 0.00 0.00 0.03 0.01 0.01 0.02 0.02 0.01
0.42 0.48 0.51 0.45 0.40 0.53 1.04 1.19 0.98 0.71 0.64 0.75 0.83 0.81 0.38 0.39 0.51 0.49 0.56 0.25 0.28 0.56 0.45 0.19 0.07 0.04 0.04 0.01 0.00 0.00 0.00 0.00 0.00 0.00 0.00 0.00 0.00 0.00 0.00 0.00 0.00 0.00 0.00 0.00
0.37 0.41 0.42 0.55 0.52 0.74 1.05 0.85 1.06 0.65 0.52 0.57 0.56 0.78 0.71 0.63 0.87 0.66 0.66 0.67 0.44 0.43 0.53 0.24 0.13 0.12 0.18 0.08 0.01 0.00 0.00 0.00 0.00 0.00 0.00 0.00 0.00 0.00 0.00 0.00 0.00 0.00 0.00 0.00
0.34 0.36 0.51 0.75 0.86 1.14 1.04 1.00 1.22 0.86 0.67 0.53 0.27 0.46 1.01 1.00 0.95 0.64 0.55 0.84 0.69 0.36 0.27 0.16 0.21 0.23 0.18 0.07 0.00 0.00 0.00 0.00 0.00 0.00 0.00 0.00 0.00 0.00 0.00 0.00 0.00 0.00 0.01 0.04
0.34 0.62 0.84 0.94 0.87 1.02 0.98 1.17 1.30 1.08 0.67 0.50 0.34 0.31 0.71 0.98 0.95 0.87 0.60 0.55 0.50 0.42 0.32 0.21 0.14 0.15 0.12 0.02 0.01 0.00 0.00 0.00 0.00 0.00 0.00 0.00 0.00 0.00 0.00 0.00 0.01 0.02 0.05 0.07
0.61 0.66 0.86 0.83 1.10 1.34 1.28 1.03 0.76 0.76 0.42 0.17 0.25 0.33 0.66 0.83 0.80 0.72 0.72 0.83 0.36 0.20 0.24 0.29 0.29 0.13 0.04 0.01 0.02 0.01 0.01 0.01 0.02 0.01 0.00 0.00 0.00 0.00 0.01 0.03 0.04 0.03 0.01 0.00
0.56 0.72 0.76 1.10 1.30 1.03 0.71 0.58 0.49 0.38 0.18 0.14 0.22 0.42 0.83 0.80 0.68 0.56 0.77 0.76 0.54 0.25 0.14 0.22 0.34 0.21 0.07 0.05 0.03 0.02 0.03 0.05 0.07 0.06 0.04 0.04 0.03 0.02 0.02 0.02 0.01 0.01 0.03 0.06
0.87 0.60 0.75 0.81 0.72 0.57 0.41 0.34 0.38 0.29 0.11 0.12 0.15 0.44 1.01 0.81 0.66 0.38 0.47 0.84 0.67 0.40 0.34 0.30 0.24 0.09 0.08 0.11 0.15 0.15 0.13 0.11 0.09 0.09 0.09 0.09 0.09 0.08 0.07 0.08 0.12 0.17 0.29 0.42
0.59 0.57 0.51 0.68 0.54 0.44 0.36 0.36 0.35 0.14 0.07 0.09 0.25 0.42 0.64 0.85 0.75 0.48 0.32 0.64 0.70 0.60 0.45 0.30 0.23 0.24 0.21 0.21 0.21 0.18 0.20 0.21 0.21 0.23 0.24 0.29 0.34 0.44 0.53 0.59 0.63 0.57 0.63 0.74
0.47 0.59 0.67 0.53 0.57 0.50 0.52 0.43 0.28 0.19 0.18 0.15 0.28 0.43 0.37 0.52 0.83 0.59 0.44 0.44 0.39 0.29 0.27 0.31 0.41 0.40 0.38 0.38 0.40 0.41 0.46 0.51 0.58 0.64 0.63 0.68 0.65 0.55 0.64 0.67 0.61 0.51 0.49 0.47
0.57 0.73 0.63 0.51 0.49 0.49 0.47 0.36 0.27 0.25 0.26 0.26 0.43 0.49 0.26 0.31 0.22 0.31 0.30 0.24 0.25 0.31 0.35 0.41 0.45 0.49 0.55 0.56 0.59 0.66 0.66 0.63 0.61 0.59 0.50 0.46 0.42 0.36 0.37 0.37 0.34 0.34 0.27 0.28
0.62 0.85 0.90 0.76 0.62 0.66 0.64 0.53 0.40 0.33 0.24 0.31 0.28 0.30 0.29 0.26 0.18 0.17 0.22 0.41 0.54 0.60 0.58 0.56 0.59 0.67 0.71 0.70 0.64 0.59 0.47 0.40 0.38 0.35 0.31 0.31 0.31 0.20 0.13 0.16 0.22 0.16 0.15 0.13

GFSNW_prec_precacc_042.txt.gz
Total_Precipitation_Accumulation
0.30 0.36 0.35 0.31 0.36 0.48 0.80 1.13 0.65 0.13 0.14 0.47 0.27 0.07 0.00 0.00 0.00 0.00 0.00 0.00 0.00 0.00 0.00 0.00 0.00 0.00 0.00 0.00 0.00 0.00 0.00 0.00 0.00 0.00 0.00 0.00 0.00 0.00 0.00 0.00 0.00 0.00 0.01 0.00
0.48 0.47 0.55 0.43 0.42 0.62 1.01 1.41 0.76 0.59 0.21 0.24 0.11 0.02 0.00 0.00 0.00 0.00 0.00 0.00 0.00 0.00 0.00 0.01 0.01 0.00 0.00 0.00 0.01 0.00 0.00 0.00 0.00 0.00 0.00 0.00 0.00 0.00 0.00 0.00 0.00 0.00 0.03 0.00
0.72 0.78 0.75 0.71 0.60 0.75 1.14 1.62 1.30 1.45 0.61 0.05 0.01 0.01 0.01 0.00 0.00 0.00 0.00 0.00 0.00 0.01 0.06 0.01 0.01 0.00 0.00 0.00 0.01 0.01 0.02 0.00 0.00 0.00 0.00 0.00 0.00 0.00 0.00 0.00 0.00 0.00 0.00 0.00
0.70 0.80 0.98 0.99 0.95 1.00 1.89 2.54 1.06 0.57 0.47 0.10 0.01 0.00 0.00 0.00 0.00 0.00 0.00 0.00 0.00 0.00 0.03 0.05 0.03 0.04 0.02 0.05 0.00 0.01 0.05 0.05 0.00 0.00 0.00 0.00 0.00 0.00 0.00 0.00 0.00 0.01 0.00 0.00
0.60 0.84 0.88 1.04 1.22 1.49 2.72 2.73 0.69 0.12 0.02 0.02 0.02 0.03 0.00 0.00 0.00 0.00 0.00 0.00 0.00 0.02 0.02 0.05 0.08 0.11 0.10 0.14 0.10 0.02 0.03 0.08 0.00 0.00 0.00 0.00 0.00 0.00 0.00 0.00 0.00 0.00 0.00 0.00
0.49 0.80 0.90 0.96 1.27 2.25 3.75 2.33 0.46 0.17 0.10 0.06 0.10 0.03 0.00 0.00 0.00 0.00 0.00 0.00 0.00 0.00 0.03 0.07 0.15 0.09 0.11 0.17 0.22 0.20 0.10 0.13 0.05 0.01 0.00 0.00 0.00 0.00 0.00 0.00 0.00 0.00 0.00 0.00
0.42 0.62 0.90 0.91 1.20 1.93 2.37 1.71 0.55 0.65 0.49 0.14 0.03 0.00 0.00 0.00 0.00 0.00 0.00 0.00 0.01 0.00 0.01 0.06 0.13 0.21 0.16 0.19 0.21 0.21 0.26 0.16 0.11 0.04 0.01 0.02 0.01 0.00 0.00 0.00 0.00 0.00 0.00 0.00
0.44 0.49 0.78 0.88 1.00 1.16 1.13 1.19 0.85 0.86 0.56 0.12 0.02 0.00 0.00 0.01 0.00 0.00 0.00 0.00 0.00 0.00 0.02 0.15 0.20 0.12 0.14 0.16 0.20 0.21 0.23 0.22 0.19 0.12 0.07 0.02 0.00 0.00 0.00 0.00 0.00 0.00 0.00 0.00
0.49 0.46 0.66 0.83 0.79 0.80 0.78 0.73 0.86 1.39 0.89 0.34 0.05 0.03 0.02 0.03 0.04 0.05 0.03 0.02 0.01 0.01 0.04 0.14 0.19 0.16 0.04 0.06 0.11 0.13 0.27 0.26 0.29 0.15 0.15 0.08 0.00 0.00 0.00 0.00 0.00 0.00 0.00 0.00
0.47 0.43 0.56 0.73 0.58 0.57 0.66 0.62 0.75 1.46 1.39 0.47 0.18 0.12 0.06 0.02 0.03 0.07 0.07 0.12 0.13 0.06 0.15 0.12 0.12 0.09 0.03 0.02 0.08 0.11 0.18 0.21 0.23 0.15 0.16 0.05 0.00 0.00 0.00 0.00 0.00 0.00 0.00 0.00
0.38 0.41 0.39 0.58 0.52 0.56 0.65 0.60 0.74 1.33 1.23 0.46 0.38 0.23 0.13 0.04 0.02 0.09 0.06 0.26 0.23 0.25 0.15 0.07 0.05 0.04 0.02 0.01 0.01 0.08 0.15 0.19 0.19 0.21 0.16 0.05 0.01 0.00 0.00 0.00 0.00 0.00 0.00 0.00
0.31 0.31 0.30 0.46 0.61 0.75 0.71 0.68 0.63 0.93 1.27 0.82 0.42 0.19 0.10 0.03 0.00 0.02 0.03 0.12 0.12 0.16 0.15 0.04 0.05 0.03 0.02 0.01 0.01 0.01 0.05 0.12 0.13 0.10 0.06 0.02 0.02 0.01 0.00 0.00 0.00 0.01 0.01 0.00
0.29 0.27 0.32 0.51 0.77 0.77 0.72 0.72 0.68 1.55 1.25 1.02 0.55 0.28 0.08 0.03 0.01 0.02 0.16 0.05 0.07 0.12 0.12 0.11 0.09 0.05 0.01 0.01 0.00 0.01 0.01 0.01 0.03 0.04 0.02 0.03 0.03 0.02 0.01 0.00 0.00 0.01 0.00 0.00
0.28 0.30 0.37 0.63 0.83 0.66 0.79 0.75 0.95 2.11 1.08 1.34 0.88 0.49 0.17 0.12 0.04 0.07 0.12 0.08 0.10 0.15 0.16 0.14 0.15 0.07 0.02 0.02 0.00 0.01 0.02 0.05 0.04 0.02 0.01 0.02 0.03 0.12 0.09 0.04 0.02 0.01 0.01 0.02
0.32 0.34 0.47 0.76 0.75 0.71 0.93 0.75 1.28 1.52 1.19 0.94 1.07 0.32 0.29 0.21 0.17 0.10 0.16 0.18 0.22 0.40 0.31 0.15 0.07 0.03 0.05 0.04 0.03 0.00 0.01 0.02 0.02 0.02 0.00 0.00 0.00 0.02 0.03 0.08 0.09 0.04 0.03 0.03
0.33 0.45 0.65 0.69 0.59 0.82 1.18 1.74 1.49 1.20 1.02 1.04 1.21 0.50 0.25 0.37 0.32 0.30 0.15 0.26 0.34 0.42 0.46 0.19 0.04 0.02 0.06 0.04 0.02 0.04 0.04 0.04 0.02 0.00 0.00 0.00 0.00 0.00 0.03 0.01 0.03 0.04 0.02 0.01
0.46 0.53 0.57 0.55 0.55 0.64 1.15 1.24 1.00 0.86 1.01 0.88 0.90 0.85 0.40 0.40 0.53 0.54 0.61 0.31 0.44 0.69 0.62 0.27 0.08 0.06 0.10 0.05 0.03 0.02 0.02 0.01 0.00 0.00 0.00 0.00 0.00 0.01 0.00 0.00 0.00 0.00 0.00 0.00
0.40 0.47 0.55 0.66 0.59 0.92 1.11 0.87 1.08 0.76 0.70 0.59 0.57 0.80 0.73 0.63 0.87 0.67 0.69 0.69 0.48 0.46 0.64 0.36 0.15 0.14 0.24 0.19 0.05 0.00 0.00 0.00 0.00 0.00 0.00 0.00 0.00 0.00 0.00 0.00 0.00 0.00 0.00 0.00
0.47 0.57 0.67 0.89 0.99 1.29 1.11 1.03 1.27 0.88 0.67 0.53 0.27 0.46 1.02 1.00 0.95 0.64 0.55 0.86 0.70 0.38 0.31 0.32 0.37 0.33 0.34 0.23 0.04 0.00 0.00 0.00 0.00 0.00 0.00 0.00 0.00 0.00 0.00 0.00 0.00 0.00 0.01 0.04
0.45 0.68 0.90 1.05 0.96 1.09 1.02 1.20 1.31 1.08 0.67 0.50 0.34 0.31 0.71 0.98 0.95 0.88 0.62 0.56 0.51 0.42 0.33 0.36 0.53 0.46 0.20 0.06 0.06 0.05 0.01 0.01 0.01 0.00 0.00 0.00 0.00 0.00 0.00 0.00 0.01 0.02 0.05 0.07
0.62 0.66 0.87 0.86 1.11 1.35 1.29 1.03 0.76 0.76 0.42 0.17 0.25 0.33 0.66 0.83 0.82 0.75 0.74 0.84 0.36 0.21 0.25 0.34 0.49 0.21 0.08 0.01 0.03 0.03 0.02 0.02 0.04 0.04 0.05 0.06 0.02 0.01 0.01 0.03 0.04 0.03 0.01 0.00
0.56 0.72 0.76 1.10 1.30 1.03 0.71 0.58 0.49 0.38 0.19 0.14 0.22 0.42 0.83 0.81 0.76 0.61 0.78 0.77 0.55 0.26 0.15 0.24 0.37 0.25 0.09 0.05 0.04 0.03 0.04 0.05 0.07 0.06 0.05 0.05 0.05 0.03 0.02 0.02 0.02 0.01 0.03 0.06
0.87 0.60 0.75 0.81 0.72 0.57 0.41 0.35 0.39 0.31 0.16 0.18 0.20 0.48 1.06 0.84 0.79 0.42 0.48 0.86 0.68 0.41 0.35 0.31 0.27 0.11 0.09 0.12 0.15 0.16 0.15 0.12 0.11 0.11 0.11 0.10 0.10 0.09 0.08 0.09 0.14 0.18 0.31 0.46
0.59 0.57 0.51 0.68 0.54 0.45 0.38 0.38 0.37 0.18 0.09 0.11 0.31 0.61 0.82 0.92 0.88 0.55 0.33 0.71 0.79 0.62 0.47 0.32 0.26 0.26 0.24 0.22 0.23 0.21 0.25 0.26 0.26 0.29 0.30 0.35 0.40 0.49 0.59 0.64 0.70 0.61 0.69 0.82
0.47 0.59 0.68 0.53 0.60 0.52 0.53 0.44 0.32 0.23 0.20 0.17 0.35 0.66 0.57 0.64 0.96 0.63 0.46 0.47 0.44 0.31 0.29 0.34 0.46 0.46 0.43 0.43 0.47 0.50 0.55 0.59 0.66 0.71 0.68 0.74 0.70 0.57 0.68 0.72 0.66 0.54 0.53 0.51
0.57 0.73 0.64 0.51 0.49 0.49 0.47 0.36 0.30 0.29 0.30 0.33 0.63 0.71 0.46 0.43 0.28 0.32 0.34 0.31 0.35 0.41 0.42 0.49 0.52 0.58 0.68 0.70 0.72 0.77 0.76 0.71 0.67 0.64 0.53 0.48 0.44 0.38 0.40 0.40 0.37 0.37 0.29 0.30
0.62 0.85 0.91 0.77 0.63 0.67 0.66 0.54 0.42 0.35 0.29 0.45 0.39 0.41 0.45 0.36 0.21 0.20 0.28 0.49 0.66 0.70 0.68 0.66 0.68 0.75 0.80 0.78 0.69 0.64 0.51 0.43 0.41 0.37 0.32 0.33 0.32 0.21 0.13 0.17 0.23 0.17 0.16 0.14

GFSNW_prec_precacc_045.txt.gz
Total_Precipitation_Accumulation
0.31 0.36 0.36 0.32 0.37 0.50 0.96 1.47 0.93 0.16 0.15 0.52 0.29 0.07 0.00 0.00 0.00 0.00 0.00 0.00 0.00 0.00 0.00 0.00 0.00 0.00 0.00 0.00 0.00 0.00 0.00 0.00 0.00 0.00 0.00 0.00 0.00 0.00 0.00 0.00 0.00 0.00 0.01 0.00
0.48 0.48 0.55 0.45 0.45 0.70 1.22 1.78 0.93 0.67 0.21 0.26 0.12 0.02 0.00 0.00 0.00 0.00 0.00 0.00 0.00 0.00 0.00 0.01 0.01 0.00 0.00 0.00 0.01 0.00 0.00 0.00 0.00 0.00 0.00 0.00 0.00 0.00 0.00 0.00 0.00 0.00 0.03 0.00
0.73 0.79 0.77 0.73 0.65 0.87 1.45 2.05 1.48 1.63 0.72 0.05 0.01 0.01 0.01 0.00 0.00 0.00 0.00 0.00 0.00 0.01 0.06 0.01 0.01 0.00 0.00 0.00 0.01 0.01 0.02 0.00 0.00 0.00 0.00 0.00 0.00 0.00 0.00 0.00 0.00 0.00 0.00 0.00
0.71 0.81 1.00 1.02 1.00 1.18 2.37 3.05 1.19 0.61 0.56 0.13 0.01 0.00 0.00 0.00 0.00 0.00 0.00 0.00 0.00 0.00 0.03 0.05 0.03 0.04 0.02 0.05 0.01 0.01 0.05 0.05 0.01 0.00 0.00 0.00 0.00 0.00 0.00 0.00 0.00 0.01 0.00 0.00
0.62 0.86 0.90 1.08 1.28 1.72 3.33 3.09 0.74 0.13 0.03 0.03 0.03 0.03 0.01 0.00 0.00 0.00 0.00 0.00 0.00 0.02 0.02 0.05 0.08 0.11 0.10 0.14 0.11 0.03 0.03 0.08 0.01 0.00 0.00 0.00 0.00 0.00 0.00 0.00 0.00 0.00 0.00 0.00
0.51 0.82 0.93 0.99 1.35 2.54 4.28 2.52 0.47 0.18 0.12 0.07 0.11 0.04 0.00 0.00 0.00 0.00 0.00 0.00 0.00 0.00 0.03 0.07 0.15 0.09 0.11 0.17 0.22 0.20 0.10 0.13 0.05 0.01 0.00 0.00 0.00 0.00 0.00 0.00 0.00 0.00 0.00 0.00
0.45 0.64 0.93 0.96 1.29 2.16 2.65 1.80 0.58 0.70 0.54 0.16 0.03 0.00 0.00 0.00 0.00 0.00 0.00 0.00 0.01 0.00 0.01 0.06 0.13 0.21 0.16 0.19 0.21 0.21 0.26 0.16 0.12 0.05 0.01 0.04 0.02 0.00 0.00 0.00 0.00 0.00 0.00 0.00
0.46 0.51 0.80 0.91 1.06 1.29 1.35 1.37 0.93 0.91 0.61 0.14 0.03 0.00 0.00 0.01 0.00 0.00 0.00 0.00 0.00 0.00 0.02 0.15 0.20 0.12 0.14 0.17 0.20 0.21 0.23 0.22 0.20 0.13 0.07 0.04 0.00 0.00 0.00 0.00 0.00 0.00 0.00 0.00
0.50 0.47 0.67 0.85 0.81 0.85 0.96 0.96 0.98 1.49 0.97 0.36 0.05 0.04 0.02 0.03 0.04 0.05 0.03 0.02 0.01 0.01 0.04 0.15 0.20 0.16 0.04 0.06 0.11 0.13 0.27 0.26 0.29 0.16 0.15 0.10 0.01 0.00 0.00 0.00 0.01 0.00 0.00 0.00
0.48 0.45 0.58 0.74 0.58 0.58 0.73 0.80 0.89 1.60 1.52 0.48 0.18 0.13 0.06 0.02 0.03 0.07 0.07 0.12 0.13 0.06 0.15 0.16 0.13 0.09 0.03 0.02 0.08 0.11 0.18 0.22 0.23 0.16 0.16 0.05 0.01 0.01 0.00 0.03 0.02 0.00 0.00 0.00
0.39 0.43 0.42 0.61 0.54 0.57 0.70 0.63 0.82 1.43 1.34 0.48 0.39 0.24 0.13 0.04 0.02 0.09 0.06 0.26 0.23 0.25 0.16 0.11 0.06 0.04 0.02 0.01 0.01 0.08 0.15 0.19 0.19 0.21 0.17 0.05 0.02 0.05 0.07 0.04 0.00 0.00 0.00 0.00
0.32 0.32 0.32 0.49 0.64 0.78 0.77 0.77 0.67 0.98 1.38 0.85 0.42 0.19 0.10 0.03 0.00 0.02 0.03 0.12 0.12 0.16 0.15 0.04 0.05 0.03 0.02 0.01 0.01 0.01 0.05 0.12 0.13 0.10 0.06 0.02 0.02 0.03 0.02 0.01 0.01 0.01 0.01 0.00
0.30 0.28 0.33 0.55 0.80 0.80 0.81 0.84 0.73 1.59 1.39 1.07 0.56 0.28 0.08 0.03 0.01 0.03 0.16 0.05 0.07 0.12 0.12 0.11 0.10 0.06 0.01 0.01 0.00 0.01 0.01 0.01 0.03 0.04 0.02 0.03 0.03 0.02 0.01 0.00 0.01 0.01 0.00 0.00
0.29 0.32 0.40 0.65 0.86 0.69 0.87 0.86 1.01 2.13 1.11 1.38 0.88 0.49 0.17 0.12 0.04 0.08 0.12 0.08 0.10 0.16 0.18 0.15 0.15 0.07 0.02 0.02 0.00 0.01 0.02 0.05 0.04 0.02 0.01 0.02 0.03 0.12 0.09 0.04 0.02 0.02 0.01 0.02
0.33 0.37 0.50 0.78 0.79 0.76 1.07 0.84 1.31 1.52 1.20 0.94 1.07 0.32 0.29 0.21 0.17 0.11 0.21 0.20 0.23 0.42 0.34 0.16 0.07 0.04 0.07 0.05 0.04 0.00 0.02 0.04 0.06 0.03 0.02 0.00 0.00 0.03 0.03 0.08 0.10 0.04 0.03 0.03
0.36 0.48 0.70 0.73 0.68 1.05 1.51 2.05 1.62 1.20 1.03 1.10 1.25 0.57 0.26 0.37 0.32 0.30 0.17 0.29 0.38 0.46 0.50 0.26 0.06 0.03 0.09 0.06 0.05 0.04 0.04 0.06 0.03 0.01 0.01 0.03 0.01 0.02 0.03 0.01 0.03 0.04 0.02 0.01
0.50 0.59 0.66 0.61 0.74 0.82 1.28 1.33 1.06 0.87 1.04 1.09 1.08 0.91 0.43 0.43 0.56 0.56 0.63 0.36 0.51 0.77 0.68 0.43 0.20 0.09 0.13 0.06 0.04 0.02 0.03 0.03 0.02 0.01 0.02 0.04 0.02 0.02 0.00 0.01 0.00 0.00 0.00 0.00
0.44 0.54 0.64 0.78 0.69 0.96 1.13 0.88 1.08 0.81 0.94 0.86 0.77 0.86 0.78 0.70 0.92 0.70 0.76 0.78 0.69 0.66 0.69 0.41 0.36 0.37 0.30 0.21 0.07 0.02 0.00 0.00 0.01 0.01 0.01 0.01 0.01 0.00 0.00 0.00 0.00 0.00 0.00 0.00
0.58 0.69 0.78 1.01 1.13 1.39 1.14 1.07 1.33 1.04 0.90 0.68 0.32 0.50 1.06 1.05 0.97 0.66 0.60 1.01 0.85 0.58 0.42 0.37 0.44 0.63 0.49 0.30 0.08 0.07 0.04 0.01 0.00 0.00 0.00 0.00 0.00 0.00 0.00 0.00 0.00 0.00 0.01 0.04
0.52 0.77 1.07 1.35 1.29 1.27 1.21 1.48 1.59 1.33 0.78 0.52 0.35 0.31 0.71 0.98 0.95 0.88 0.63 0.60 0.56 0.46 0.34 0.37 0.59 0.57 0.25 0.06 0.07 0.08 0.06 0.05 0.02 0.01 0.01 0.00 0.00 0.00 0.00 0.00 0.01 0.02 0.05 0.07
0.63 0.71 1.09 1.13 1.27 1.43 1.38 1.11 0.82 0.80 0.43 0.17 0.25 0.33 0.66 0.83 0.82 0.75 0.75 0.85 0.37 0.21 0.27 0.35 0.58 0.32 0.16 0.03 0.04 0.06 0.10 0.08 0.09 0.10 0.10 0.09 0.07 0.04 0.02 0.05 0.06 0.05 0.03 0.01
0.56 0.74 0.77 1.11 1.31 1.03 0.71 0.58 0.49 0.38 0.19 0.14 0.22 0.42 0.83 0.81 0.76 0.61 0.78 0.77 0.55 0.26 0.19 0.24 0.38 0.27 0.14 0.10 0.07 0.06 0.09 0.12 0.12 0.08 0.08 0.08 0.08 0.10 0.08 0.05 0.03 0.03 0.05 0.07
0.87 0.60 0.75 0.81 0.72 0.57 0.41 0.35 0.39 0.33 0.18 0.20 0.21 0.48 1.06 0.84 0.88 0.46 0.49 0.87 0.69 0.41 0.37 0.33 0.28 0.12 0.10 0.12 0.16 0.17 0.16 0.14 0.13 0.13 0.14 0.12 0.13 0.12 0.11 0.12 0.18 0.21 0.34 0.52
0.59 0.57 0.51 0.68 0.54 0.46 0.39 0.40 0.39 0.20 0.11 0.15 0.36 0.64 0.85 0.96 1.08 0.60 0.36 0.76 0.80 0.63 0.48 0.33 0.28 0.28 0.25 0.23 0.25 0.23 0.27 0.29 0.28 0.32 0.34 0.40 0.45 0.55 0.65 0.71 0.79 0.67 0.76 0.92
0.47 0.59 0.68 0.54 0.62 0.54 0.55 0.46 0.33 0.25 0.22 0.24 0.42 0.73 0.63 0.68 1.13 0.66 0.47 0.50 0.46 0.32 0.30 0.36 0.49 0.48 0.45 0.46 0.51 0.54 0.61 0.64 0.72 0.78 0.74 0.81 0.77 0.62 0.74 0.79 0.72 0.59 0.58 0.57
0.57 0.74 0.65 0.52 0.50 0.49 0.48 0.39 0.34 0.32 0.34 0.41 0.71 0.76 0.49 0.45 0.31 0.32 0.34 0.31 0.35 0.43 0.44 0.52 0.55 0.62 0.73 0.77 0.80 0.87 0.87 0.81 0.76 0.72 0.61 0.55 0.49 0.42 0.45 0.43 0.39 0.39 0.31 0.32
0.62 0.86 0.92 0.78 0.64 0.68 0.69 0.57 0.45 0.40 0.36 0.55 0.47 0.47 0.47 0.38 0.22 0.20 0.29 0.51 0.72 0.76 0.74 0.71 0.72 0.81 0.89 0.87 0.78 0.72 0.57 0.46 0.43 0.39 0.33 0.34 0.33 0.21 0.13 0.18 0.24 0.18 0.16 0.15

GFSNW_prec_precacc_051.txt.gz
Total_Precipitation_Accumulation
0.32 0.39 0.37 0.32 0.38 0.54 1.03 1.59 1.09 0.21 0.19 0.71 0.51 0.16 0.01 0.00 0.00 0.00 0.00 0.00 0.00 0.00 0.00 0.00 0.00 0.00 0.00 0.00 0.00 0.00 0.00 0.00 0.00 0.00 0.00 0.00 0.00 0.00 0.00 0.00 0.00 0.00 0.01 0.00
0.51 0.50 0.57 0.46 0.47 0.76 1.30 1.95 1.01 0.76 0.33 0.40 0.18 0.05 0.02 0.00 0.00 0.00 0.00 0.00 0.00 0.00 0.00 0.01 0.01 0.00 0.00 0.00 0.01 0.00 0.00 0.00 0.00 0.00 0.00 0.00 0.00 0.00 0.00 0.00 0.00 0.00 0.03 0.00
0.76 0.81 0.78 0.74 0.68 0.93 1.65 2.32 1.63 1.78 1.03 0.16 0.04 0.07 0.04 0.00 0.00 0.00 0.00 0.00 0.00 0.01 0.06 0.01 0.01 0.00 0.01 0.00 0.01 0.01 0.02 0.00 0.00 0.01 0.00 0.00 0.00 0.00 0.00 0.00 0.00 0.00 0.00 0.00
0.74 0.84 1.02 1.04 1.03 1.25 2.66 3.41 1.32 0.68 0.67 0.26 0.10 0.05 0.03 0.00 0.00 0.00 0.00 0.01 0.00 0.00 0.03 0.05 0.03 0.04 0.02 0.05 0.01 0.01 0.05 0.05 0.01 0.00 0.00 0.00 0.00 0.00 0.00 0.00 0.00 0.01 0.00 0.00
0.64 0.88 0.92 1.09 1.31 1.82 3.72 3.38 0.80 0.17 0.09 0.06 0.10 0.16 0.08 0.00 0.00 0.00 0.00 0.00 0.00 0.02 0.02 0.05 0.08 0.11 0.10 0.14 0.11 0.03 0.03 0.08 0.01 0.00 0.00 0.00 0.00 0.00 0.00 0.00 0.00 0.00 0.00 0.00
0.54 0.84 0.95 1.01 1.39 2.74 4.66 2.71 0.53 0.25 0.18 0.11 0.19 0.08 0.02 0.01 0.00 0.01 0.00 0.00 0.00 0.00 0.03 0.07 0.15 0.09 0.11 0.17 0.22 0.20 0.11 0.13 0.05 0.01 0.00 0.00 0.00 0.00 0.00 0.00 0.00 0.00 0.00 0.00
0.46 0.66 0.95 0.98 1.36 2.36 2.87 1.97 0.66 0.84 0.67 0.19 0.07 0.04 0.01 0.00 0.01 0.00 0.00 0.01 0.01 0.00 0.01 0.06 0.13 0.21 0.16 0.20 0.21 0.21 0.26 0.16 0.12 0.05 0.01 0.04 0.02 0.00 0.00 0.00 0.00 0.00 0.00 0.00
0.49 0.54 0.83 0.94 1.13 1.46 1.59 1.57 1.09 1.00 0.69 0.17 0.07 0.04 0.07 0.06 0.03 0.01 0.01 0.00 0.01 0.01 0.02 0.16 0.20 0.12 0.14 0.17 0.20 0.21 0.23 0.22 0.20 0.13 0.07 0.04 0.00 0.00 0.00 0.00 0.00 0.00 0.00 0.00
0.54 0.50 0.71 0.90 0.90 1.00 1.24 1.24 1.18 1.69 1.15 0.42 0.07 0.11 0.11 0.12 0.13 0.11 0.05 0.03 0.03 0.02 0.05 0.17 0.23 0.16 0.04 0.06 0.12 0.14 0.28 0.27 0.31 0.17 0.16 0.10 0.01 0.00 0.00 0.00 0.01 0.00 0.00 0.00
0.55 0.51 0.63 0.80 0.68 0.73 1.01 1.20 1.11 1.90 1.84 0.56 0.19 0.16 0.16 0.17 0.09 0.13 0.08 0.14 0.16 0.08 0.20 0.19 0.14 0.10 0.03 0.02 0.09 0.12 0.20 0.23 0.25 0.19 0.18 0.05 0.01 0.01 0.00 0.03 0.02 0.00 0.00 0.00
0.47 0.49 0.49 0.68 0.62 0.69 0.94 1.01 1.06 1.67 1.66 0.59 0.43 0.26 0.16 0.11 0.12 0.15 0.09 0.37 0.32 0.32 0.25 0.14 0.07 0.04 0.02 0.01 0.01 0.08 0.15 0.20 0.20 0.22 0.18 0.05 0.02 0.05 0.08 0.04 0.00 0.00 0.00 0.00
0.38 0.39 0.39 0.56 0.72 0.86 0.94 1.10 0.90 1.21 1.73 1.00 0.44 0.23 0.13 0.05 0.01 0.02 0.05 0.13 0.12 0.16 0.15 0.04 0.05 0.03 0.02 0.01 0.01 0.01 0.05 0.12 0.13 0.10 0.06 0.02 0.02 0.03 0.02 0.01 0.01 0.01 0.01 0.00
0.38 0.33 0.38 0.60 0.86 0.88 0.97 1.06 0.84 1.94 1.92 1.31 0.63 0.30 0.09 0.04 0.02 0.03 0.17 0.05 0.07 0.12 0.12 0.11 0.10 0.06 0.01 0.01 0.00 0.01 0.01 0.01 0.03 0.04 0.02 0.03 0.03 0.02 0.01 0.00 0.01 0.01 0.00 0.00
0.38 0.43 0.46 0.69 0.91 0.77 1.06 1.09 1.12 2.29 1.35 1.52 0.99 0.50 0.18 0.13 0.04 0.09 0.13 0.08 0.11 0.17 0.21 0.17 0.16 0.07 0.02 0.02 0.00 0.01 0.02 0.05 0.04 0.02 0.01 0.02 0.03 0.12 0.09 0.04 0.02 0.02 0.02 0.03
0.39 0.42 0.59 0.86 0.86 0.85 1.26 1.18 1.42 1.55 1.24 0.98 1.07 0.32 0.29 0.21 0.17 0.11 0.21 0.21 0.24 0.44 0.39 0.27 0.10 0.04 0.07 0.05 0.04 0.00 0.02 0.04 0.06 0.03 0.02 0.00 0.00 0.03 0.03 0.08 0.10 0.04 0.04 0.04
0.39 0.52 0.77 0.81 0.78 1.18 1.92 2.98 2.03 1.22 1.05 1.17 1.28 0.57 0.26 0.37 0.32 0.30 0.17 0.32 0.43 0.50 0.58 0.31 0.06 0.03 0.11 0.08 0.07 0.06 0.04 0.06 0.03 0.01 0.01 0.03 0.02 0.03 0.05 0.02 0.05 0.06 0.05 0.05
0.53 0.62 0.72 0.70 0.84 0.99 1.68 1.59 1.19 0.91 1.08 1.21 1.12 0.92 0.43 0.43 0.56 0.56 0.65 0.40 0.73 1.09 0.90 0.50 0.22 0.10 0.18 0.10 0.10 0.07 0.07 0.07 0.04 0.02 0.02 0.05 0.03 0.03 0.03 0.03 0.02 0.01 0.01 0.01
0.54 0.67 0.75 0.89 0.88 1.28 1.34 0.95 1.08 0.82 1.03 1.02 0.96 0.95 0.81 0.74 0.96 0.72 0.79 0.86 0.81 0.88 1.00 0.65 0.40 0.41 0.40 0.33 0.14 0.03 0.00 0.01 0.05 0.06 0.07 0.08 0.06 0.03 0.02 0.01 0.01 0.01 0.00 0.00
0.78 0.89 1.09 1.56 1.56 1.80 1.33 1.11 1.35 1.04 0.94 0.75 0.46 0.68 1.21 1.19 1.08 0.72 0.64 1.07 0.98 0.69 0.50 0.48 0.64 0.85 0.80 0.47 0.13 0.08 0.04 0.01 0.01 0.00 0.00 0.01 0.02 0.01 0.00 0.00 0.00 0.00 0.01 0.04
0.70 1.04 1.54 1.90 1.55 1.44 1.30 1.62 1.69 1.41 0.88 0.62 0.45 0.38 0.84 1.27 1.19 1.00 0.68 0.64 0.69 0.66 0.53 0.58 0.81 0.67 0.33 0.14 0.14 0.12 0.09 0.08 0.05 0.02 0.01 0.01 0.01 0.01 0.01 0.01 0.01 0.03 0.06 0.07
0.78 0.93 1.40 1.40 1.40 1.52 1.54 1.32 1.02 0.94 0.54 0.24 0.37 0.40 0.77 0.97 1.11 0.84 0.76 0.86 0.41 0.30 0.42 0.49 0.67 0.39 0.18 0.04 0.04 0.06 0.11 0.10 0.12 0.15 0.16 0.16 0.15 0.10 0.06 0.08 0.10 0.09 0.08 0.10
0.59 0.84 0.98 1.32 1.47 1.19 0.85 0.66 0.59 0.45 0.23 0.20 0.32 0.54 1.02 0.91 1.07 0.75 0.79 0.79 0.56 0.30 0.26 0.29 0.40 0.30 0.15 0.12 0.10 0.09 0.13 0.18 0.21 0.19 0.18 0.20 0.20 0.20 0.17 0.14 0.12 0.11 0.13 0.18
0.87 0.60 0.77 0.83 0.73 0.58 0.43 0.37 0.42 0.36 0.21 0.23 0.28 0.62 1.21 0.90 0.98 0.51 0.50 0.88 0.72 0.43 0.41 0.37 0.30 0.14 0.11 0.14 0.17 0.21 0.23 0.22 0.23 0.25 0.26 0.22 0.22 0.19 0.17 0.18 0.25 0.28 0.41 0.62
0.59 0.57 0.51 0.68 0.55 0.48 0.42 0.43 0.41 0.24 0.15 0.18 0.40 0.67 0.87 1.00 1.16 0.67 0.40 0.80 0.81 0.63 0.49 0.34 0.30 0.30 0.27 0.25 0.27 0.25 0.31 0.34 0.34 0.40 0.40 0.47 0.51 0.62 0.72 0.79 0.88 0.73 0.84 1.04
0.47 0.59 0.69 0.55 0.66 0.58 0.59 0.50 0.37 0.28 0.27 0.31 0.49 0.76 0.64 0.73 1.28 0.69 0.48 0.51 0.47 0.33 0.30 0.38 0.52 0.51 0.47 0.49 0.54 0.58 0.66 0.71 0.79 0.86 0.81 0.89 0.85 0.69 0.83 0.90 0.83 0.67 0.67 0.66
0.57 0.75 0.67 0.53 0.52 0.52 0.49 0.41 0.36 0.36 0.42 0.49 0.77 0.78 0.50 0.47 0.38 0.33 0.35 0.31 0.36 0.44 0.46 0.55 0.58 0.65 0.77 0.82 0.86 0.94 0.94 0.90 0.86 0.84 0.73 0.67 0.61 0.52 0.56 0.55 0.49 0.49 0.39 0.39
0.62 0.87 0.94 0.80 0.66 0.71 0.72 0.62 0.50 0.46 0.43 0.60 0.49 0.47 0.48 0.38 0.22 0.21 0.30 0.52 0.73 0.78 0.79 0.77 0.78 0.86 0.95 0.94 0.86 0.84 0.69 0.59 0.55 0.49 0.42 0.40 0.39 0.25 0.16 0.20 0.27 0.19 0.17 0.15

GFSNW_prec_precacc_054.txt.gz
Total_Precipitation_Accumulation
0.34 0.40 0.40 0.35 0.39 0.55 1.07 1.63 1.10 0.21 0.23 0.74 0.53 0.18 0.02 0.00 0.00 0.00 0.00 0.00 0.00 0.00 0.00 0.00 0.00 0.00 0.00 0.00 0.00 0.00 0.00 0.00 0.00 0.00 0.00 0.00 0.00 0.00 0.00 0.00 0.00 0.00 0.01 0.00
0.54 0.53 0.61 0.49 0.48 0.78 1.34 1.98 1.02 0.78 0.41 0.44 0.20 0.07 0.03 0.00 0.00 0.00 0.00 0.00 0.00 0.00 0.00 0.01 0.01 0.00 0.00 0.00 0.01 0.00 0.00 0.00 0.00 0.00 0.00 0.00 0.00 0.00 0.00 0.00 0.00 0.00 0.03 0.00
0.78 0.84 0.80 0.77 0.70 0.96 1.71 2.36 1.65 1.81 1.07 0.19 0.06 0.10 0.06 0.01 0.00 0.00 0.00 0.00 0.00 0.01 0.06 0.01 0.01 0.00 0.01 0.00 0.01 0.01 0.02 0.01 0.00 0.01 0.00 0.00 0.00 0.00 0.00 0.00 0.00 0.00 0.00 0.00
0.76 0.85 1.05 1.07 1.06 1.28 2.73 3.46 1.36 0.70 0.70 0.27 0.11 0.09 0.07 0.01 0.00 0.00 0.00 0.01 0.00 0.01 0.04 0.05 0.03 0.04 0.02 0.05 0.01 0.01 0.05 0.05 0.01 0.00 0.00 0.00 0.00 0.00 0.00 0.00 0.00 0.01 0.00 0.00
0.68 0.91 0.95 1.12 1.34 1.86 3.80 3.43 0.84 0.21 0.10 0.08 0.12 0.20 0.11 0.01 0.00 0.00 0.00 0.00 0.00 0.03 0.03 0.05 0.08 0.11 0.10 0.14 0.11 0.03 0.03 0.08 0.01 0.00 0.00 0.00 0.00 0.00 0.00 0.00 0.00 0.00 0.00 0.00
0.56 0.86 0.98 1.05 1.41 2.79 4.70 2.75 0.58 0.34 0.22 0.12 0.20 0.09 0.04 0.02 0.02 0.02 0.00 0.00 0.02 0.01 0.03 0.07 0.15 0.09 0.11 0.17 0.22 0.20 0.11 0.13 0.05 0.01 0.00 0.00 0.00 0.00 0.00 0.00 0.00 0.00 0.00 0.00
0.47 0.68 0.97 1.01 1.38 2.40 2.92 2.01 0.72 0.89 0.72 0.21 0.08 0.04 0.02 0.01 0.02 0.02 0.01 0.03 0.04 0.01 0.01 0.06 0.13 0.21 0.16 0.20 0.21 0.21 0.26 0.17 0.13 0.06 0.01 0.04 0.02 0.00 0.00 0.00 0.00 0.00 0.00 0.00
0.50 0.55 0.84 0.95 1.14 1.47 1.66 1.60 1.16 1.13 0.75 0.18 0.08 0.04 0.07 0.07 0.08 0.09 0.05 0.01 0.02 0.06 0.08 0.18 0.21 0.13 0.15 0.17 0.20 0.21 0.23 0.22 0.21 0.14 0.08 0.04 0.00 0.00 0.00 0.00 0.00 0.00 0.00 0.00
0.56 0.52 0.73 0.92 0.92 1.03 1.29 1.28 1.23 1.75 1.26 0.45 0.07 0.12 0.12 0.14 0.15 0.18 0.14 0.12 0.07 0.08 0.11 0.21 0.24 0.17 0.05 0.06 0.12 0.14 0.28 0.27 0.32 0.18 0.16 0.10 0.01 0.00 0.00 0.00 0.01 0.00 0.00 0.00
0.56 0.53 0.66 0.82 0.70 0.74 1.06 1.24 1.15 1.99 1.94 0.58 0.20 0.16 0.18 0.20 0.14 0.20 0.14 0.23 0.25 0.17 0.26 0.21 0.15 0.10 0.03 0.03 0.10 0.13 0.20 0.24 0.26 0.21 0.19 0.05 0.01 0.01 0.00 0.03 0.02 0.00 0.00 0.00
0.48 0.52 0.51 0.71 0.64 0.71 0.99 1.04 1.11 1.74 1.76 0.65 0.45 0.26 0.17 0.12 0.16 0.25 0.15 0.48 0.44 0.43 0.31 0.16 0.08 0.05 0.02 0.01 0.02 0.09 0.16 0.20 0.21 0.23 0.19 0.05 0.02 0.06 0.08 0.04 0.00 0.00 0.00 0.00
0.41 0.43 0.44 0.60 0.76 0.89 0.99 1.16 0.94 1.29 1.89 1.09 0.45 0.24 0.15 0.05 0.02 0.07 0.16 0.16 0.13 0.17 0.17 0.05 0.06 0.04 0.02 0.01 0.01 0.02 0.06 0.12 0.13 0.10 0.06 0.02 0.02 0.04 0.03 0.01 0.01 0.01 0.01 0.00
0.43 0.37 0.43 0.66 0.92 0.93 1.04 1.17 0.91 2.06 2.19 1.45 0.65 0.31 0.10 0.04 0.03 0.06 0.23 0.08 0.08 0.13 0.13 0.14 0.12 0.07 0.01 0.01 0.01 0.01 0.01 0.01 0.03 0.04 0.02 0.03 0.03 0.02 0.01 0.00 0.01 0.01 0.00 0.00
0.43 0.48 0.52 0.74 0.97 0.83 1.17 1.25 1.22 2.42 1.50 1.58 1.01 0.50 0.18 0.13 0.06 0.12 0.15 0.10 0.13 0.19 0.24 0.21 0.18 0.09 0.02 0.02 0.00 0.01 0.02 0.05 0.04 0.02 0.01 0.02 0.03 0.12 0.09 0.04 0.02 0.02 0.02 0.03
0.43 0.48 0.64 0.90 0.93 0.95 1.44 1.31 1.53 1.61 1.29 1.05 1.08 0.32 0.29 0.21 0.17 0.13 0.26 0.27 0.27 0.48 0.45 0.33 0.16 0.06 0.08 0.06 0.04 0.00 0.02 0.04 0.06 0.03 0.02 0.00 0.00 0.03 0.03 0.08 0.10 0.04 0.04 0.04
0.41 0.59 0.82 0.87 0.87 1.37 2.21 3.31 2.28 1.29 1.11 1.22 1.29 0.57 0.26 0.37 0.32 0.31 0.19 0.36 0.48 0.57 0.65 0.34 0.08 0.04 0.13 0.10 0.08 0.06 0.04 0.06 0.03 0.01 0.01 0.03 0.02 0.03 0.05 0.02 0.05 0.06 0.05 0.05
0.56 0.67 0.76 0.76 0.98 1.22 1.81 1.67 1.25 0.94 1.14 1.26 1.13 0.92 0.43 0.43 0.56 0.57 0.68 0.43 0.78 1.16 0.96 0.54 0.25 0.13 0.22 0.14 0.12 0.08 0.07 0.07 0.04 0.02 0.02 0.05 0.03 0.03 0.03 0.03 0.02 0.01 0.01 0.01
0.57 0.70 0.79 0.99 1.07 1.48 1.41 0.99 1.09 0.84 1.09 1.06 0.97 0.96 0.82 0.74 0.96 0.73 0.80 0.91 0.89 1.06 1.15 0.73 0.44 0.45 0.44 0.37 0.14 0.03 0.00 0.01 0.05 0.06 0.07 0.08 0.06 0.03 0.02 0.01 0.01 0.01 0.00 0.00
0.82 0.93 1.21 1.95 1.76 1.96 1.43 1.25 1.42 1.09 1.00 0.79 0.47 0.69 1.22 1.20 1.09 0.73 0.66 1.10 1.15 0.85 0.67 0.57 0.66 0.92 0.85 0.48 0.13 0.08 0.04 0.01 0.01 0.00 0.00 0.01 0.02 0.02 0.01 0.00 0.00 0.00 0.01 0.05
0.75 1.15 1.80 2.19 1.61 1.45 1.40 1.90 1.88 1.56 0.93 0.62 0.45 0.38 0.84 1.33 1.24 1.03 0.71 0.67 0.72 0.72 0.59 0.62 0.84 0.68 0.34 0.14 0.15 0.12 0.09 0.08 0.05 0.02 0.02 0.02 0.02 0.01 0.01 0.02 0.02 0.04 0.07 0.08
0.85 1.10 1.59 1.48 1.50 1.59 1.64 1.47 1.07 0.95 0.55 0.24 0.37 0.40 0.77 0.99 1.20 0.87 0.78 0.88 0.43 0.34 0.46 0.51 0.68 0.39 0.19 0.04 0.04 0.06 0.11 0.10 0.12 0.15 0.17 0.17 0.16 0.12 0.08 0.11 0.13 0.12 0.11 0.14
0.62 0.90 1.07 1.51 1.60 1.25 0.88 0.67 0.60 0.45 0.24 0.20 0.32 0.54 1.02 0.91 1.15 0.86 0.81 0.80 0.57 0.33 0.27 0.29 0.40 0.31 0.15 0.12 0.10 0.09 0.14 0.18 0.22 0.20 0.19 0.22 0.22 0.23 0.20 0.17 0.16 0.15 0.17 0.21
0.87 0.60 0.78 0.85 0.74 0.58 0.44 0.38 0.44 0.38 0.23 0.25 0.30 0.66 1.32 1.00 1.23 0.93 0.57 0.92 0.74 0.44 0.42 0.38 0.31 0.14 0.11 0.14 0.18 0.21 0.23 0.23 0.25 0.27 0.29 0.25 0.25 0.23 0.21 0.21 0.29 0.31 0.44 0.66
0.59 0.57 0.51 0.68 0.55 0.48 0.42 0.43 0.41 0.24 0.15 0.19 0.46 0.80 1.04 1.10 1.27 0.86 0.43 0.81 0.82 0.64 0.50 0.35 0.31 0.30 0.28 0.26 0.28 0.25 0.33 0.36 0.36 0.43 0.44 0.50 0.54 0.65 0.76 0.83 0.93 0.77 0.87 1.08
0.47 0.59 0.69 0.55 0.66 0.58 0.60 0.50 0.37 0.29 0.28 0.33 0.54 0.82 0.68 0.74 1.28 0.70 0.49 0.51 0.47 0.33 0.31 0.39 0.53 0.52 0.49 0.51 0.56 0.60 0.68 0.74 0.82 0.89 0.84 0.92 0.88 0.71 0.86 0.95 0.88 0.72 0.71 0.70
0.57 0.75 0.67 0.53 0.52 0.52 0.50 0.42 0.37 0.37 0.43 0.50 0.77 0.79 0.50 0.48 0.39 0.34 0.35 0.31 0.36 0.45 0.47 0.56 0.59 0.66 0.79 0.84 0.88 0.96 0.97 0.92 0.89 0.87 0.76 0.71 0.65 0.57 0.60 0.59 0.53 0.53 0.43 0.42
0.62 0.87 0.95 0.80 0.67 0.72 0.73 0.63 0.51 0.47 0.44 0.60 0.49 0.47 0.48 0.38 0.22 0.21 0.30 0.52 0.74 0.79 0.81 0.79 0.80 0.88 0.97 0.97 0.88 0.85 0.71 0.61 0.58 0.52 0.46 0.44 0.42 0.28 0.17 0.21 0.28 0.20 0.17 0.15

GFSNW_prec_precacc_057.txt.gz
Total_Precipitation_Accumulation
0.35 0.41 0.40 0.36 0.41 0.57 1.08 1.66 1.12 0.23 0.27 0.77 0.55 0.19 0.02 0.00 0.00 0.00 0.00 0.00 0.00 0.00 0.00 0.00 0.00 0.00 0.00 0.00 0.01 0.02 0.00 0.00 0.00 0.00 0.00 0.00 0.00 0.00 0.00 0.00 0.00 0.00 0.01 0.00
0.58 0.55 0.62 0.51 0.51 0.81 1.38 2.01 1.04 0.80 0.51 0.47 0.21 0.08 0.03 0.01 0.00 0.00 0.00 0.00 0.00 0.00 0.00 0.01 0.01 0.00 0.00 0.00 0.01 0.01 0.01 0.00 0.00 0.00 0.00 0.00 0.00 0.00 0.00 0.00 0.00 0.01 0.04 0.00
0.79 0.85 0.81 0.78 0.72 1.00 1.76 2.42 1.70 1.83 1.13 0.22 0.08 0.11 0.07 0.02 0.00 0.00 0.00 0.00 0.00 0.01 0.06 0.01 0.01 0.00 0.01 0.00 0.01 0.01 0.02 0.01 0.00 0.01 0.00 0.00 0.00 0.00 0.00 0.00 0.00 0.00 0.01 0.00
0.76 0.87 1.06 1.08 1.07 1.31 2.79 3.52 1.39 0.73 0.72 0.28 0.13 0.12 0.10 0.02 0.01 0.00 0.00 0.01 0.00 0.01 0.04 0.06 0.04 0.04 0.02 0.05 0.01 0.01 0.06 0.06 0.01 0.00 0.00 0.00 0.00 0.00 0.00 0.00 0.00 0.01 0.00 0.00
0.71 0.94 0.97 1.14 1.36 1.91 3.89 3.47 0.88 0.24 0.13 0.11 0.14 0.21 0.12 0.02 0.02 0.02 0.01 0.00 0.01 0.03 0.03 0.06 0.09 0.12 0.11 0.14 0.11 0.03 0.03 0.09 0.01 0.00 0.00 0.00 0.00 0.00 0.00 0.00 0.00 0.00 0.00 0.00
0.57 0.90 1.01 1.08 1.43 2.86 4.79 2.79 0.62 0.41 0.25 0.13 0.22 0.12 0.05 0.02 0.03 0.04 0.02 0.02 0.04 0.03 0.04 0.09 0.16 0.09 0.12 0.17 0.22 0.20 0.11 0.14 0.06 0.01 0.00 0.00 0.00 0.00 0.00 0.00 0.00 0.00 0.00 0.00
0.48 0.70 0.99 1.04 1.41 2.45 2.99 2.05 0.77 0.98 0.77 0.23 0.10 0.05 0.03 0.03 0.04 0.04 0.05 0.05 0.07 0.04 0.01 0.06 0.13 0.21 0.16 0.20 0.21 0.21 0.26 0.17 0.13 0.06 0.01 0.05 0.02 0.00 0.00 0.00 0.00 0.00 0.00 0.00
0.52 0.56 0.86 0.97 1.16 1.51 1.73 1.65 1.22 1.20 0.79 0.19 0.09 0.06 0.09 0.08 0.09 0.11 0.08 0.03 0.06 0.09 0.08 0.21 0.23 0.15 0.18 0.18 0.20 0.21 0.23 0.23 0.22 0.14 0.08 0.04 0.00 0.00 0.00 0.00 0.00 0.00 0.00 0.00
0.57 0.54 0.75 0.94 0.93 1.05 1.36 1.34 1.28 1.82 1.33 0.48 0.09 0.13 0.13 0.16 0.17 0.20 0.15 0.15 0.15 0.14 0.16 0.29 0.30 0.22 0.10 0.10 0.14 0.14 0.28 0.27 0.33 0.19 0.16 0.10 0.01 0.00 0.00 0.00 0.01 0.00 0.00 0.00
0.57 0.54 0.67 0.84 0.72 0.76 1.11 1.28 1.20 2.05 1.99 0.59 0.21 0.20 0.21 0.23 0.18 0.24 0.16 0.24 0.32 0.28 0.34 0.29 0.20 0.15 0.07 0.09 0.14 0.15 0.21 0.24 0.26 0.21 0.20 0.06 0.01 0.01 0.00 0.03 0.04 0.00 0.00 0.00
0.48 0.52 0.52 0.73 0.66 0.73 1.04 1.07 1.16 1.81 1.80 0.65 0.46 0.28 0.18 0.15 0.20 0.30 0.20 0.60 0.53 0.51 0.37 0.20 0.12 0.07 0.03 0.03 0.08 0.12 0.16 0.21 0.22 0.24 0.22 0.06 0.02 0.06 0.09 0.08 0.01 0.00 0.00 0.00
0.41 0.43 0.44 0.61 0.77 0.91 1.04 1.20 0.97 1.37 1.95 1.11 0.46 0.25 0.15 0.06 0.03 0.09 0.22 0.26 0.17 0.19 0.21 0.09 0.10 0.07 0.04 0.02 0.03 0.05 0.08 0.12 0.13 0.10 0.06 0.02 0.02 0.06 0.04 0.01 0.01 0.01 0.01 0.00
0.43 0.37 0.43 0.67 0.94 0.95 1.09 1.20 0.95 2.14 2.25 1.51 0.68 0.32 0.10 0.04 0.04 0.08 0.30 0.12 0.19 0.18 0.17 0.21 0.17 0.11 0.03 0.03 0.02 0.03 0.02 0.02 0.05 0.08 0.02 0.03 0.03 0.02 0.01 0.00 0.01 0.01 0.00 0.00
0.43 0.49 0.53 0.77 1.00 0.88 1.23 1.30 1.27 2.48 1.57 1.64 1.02 0.50 0.18 0.13 0.08 0.15 0.17 0.12 0.17 0.24 0.29 0.28 0.25 0.13 0.04 0.04 0.01 0.01 0.02 0.06 0.05 0.03 0.01 0.02 0.03 0.12 0.09 0.04 0.02 0.02 0.02 0.03
0.44 0.49 0.69 0.95 0.98 1.01 1.52 1.36 1.57 1.65 1.34 1.15 1.13 0.33 0.29 0.21 0.18 0.15 0.30 0.31 0.34 0.59 0.51 0.38 0.18 0.08 0.10 0.08 0.07 0.01 0.02 0.04 0.08 0.05 0.04 0.01 0.02 0.03 0.03 0.08 0.10 0.04 0.04 0.04
0.42 0.62 0.89 0.95 0.96 1.47 2.40 3.59 2.40 1.34 1.16 1.32 1.37 0.60 0.26 0.37 0.33 0.34 0.23 0.43 0.62 0.72 0.76 0.38 0.10 0.05 0.17 0.15 0.11 0.07 0.06 0.06 0.03 0.02 0.01 0.03 0.02 0.03 0.05 0.02 0.05 0.06 0.05 0.05
0.58 0.75 0.88 0.85 1.11 1.37 1.93 1.78 1.32 1.03 1.25 1.44 1.23 0.96 0.43 0.43 0.57 0.61 0.73 0.50 0.88 1.33 1.11 0.62 0.28 0.16 0.28 0.18 0.14 0.09 0.07 0.07 0.04 0.02 0.02 0.05 0.03 0.03 0.03 0.03 0.02 0.01 0.01 0.01
0.62 0.80 0.90 1.08 1.20 1.56 1.47 1.01 1.10 0.87 1.22 1.17 1.04 1.00 0.84 0.74 0.97 0.75 0.83 0.96 0.95 1.10 1.18 0.74 0.45 0.48 0.50 0.44 0.15 0.03 0.00 0.01 0.05 0.06 0.07 0.08 0.06 0.03 0.02 0.01 0.01 0.01 0.00 0.00
0.89 1.05 1.41 2.28 1.97 2.10 1.50 1.28 1.43 1.11 1.06 0.83 0.48 0.70 1.24 1.21 1.09 0.74 0.68 1.13 1.19 0.88 0.68 0.61 0.71 0.95 0.89 0.51 0.14 0.08 0.04 0.01 0.01 0.00 0.00 0.01 0.02 0.02 0.01 0.00 0.01 0.00 0.01 0.05
0.93 1.44 2.20 2.47 1.69 1.51 1.63 2.16 2.08 1.74 1.01 0.66 0.46 0.40 0.87 1.34 1.26 1.05 0.74 0.70 0.74 0.76 0.64 0.69 0.89 0.74 0.35 0.14 0.15 0.12 0.09 0.08 0.05 0.02 0.02 0.02 0.02 0.02 0.01 0.02 0.03 0.04 0.08 0.09
1.04 1.33 1.84 1.56 1.59 1.72 1.81 1.60 1.19 1.05 0.59 0.25 0.38 0.43 0.78 1.00 1.26 0.90 0.81 0.91 0.46 0.36 0.48 0.55 0.73 0.41 0.20 0.04 0.04 0.06 0.11 0.10 0.12 0.16 0.17 0.18 0.17 0.13 0.09 0.11 0.14 0.13 0.12 0.15
0.68 1.06 1.13 1.56 1.69 1.32 0.92 0.71 0.62 0.45 0.25 0.21 0.33 0.55 1.04 0.92 1.18 0.91 0.85 0.84 0.59 0.37 0.28 0.31 0.43 0.32 0.15 0.12 0.11 0.09 0.14 0.18 0.22 0.20 0.20 0.23 0.23 0.23 0.20 0.18 0.17 0.17 0.20 0.25
0.88 0.61 0.82 0.87 0.76 0.59 0.45 0.39 0.45 0.39 0.24 0.26 0.31 0.67 1.32 1.00 1.23 0.97 0.62 0.96 0.77 0.44 0.44 0.40 0.33 0.15 0.11 0.14 0.18 0.21 0.24 0.23 0.25 0.28 0.30 0.27 0.27 0.25 0.23 0.23 0.32 0.34 0.47 0.70
0.59 0.57 0.52 0.68 0.55 0.49 0.43 0.44 0.42 0.24 0.16 0.20 0.47 0.83 1.07 1.15 1.36 1.02 0.55 0.83 0.82 0.65 0.51 0.36 0.32 0.31 0.28 0.27 0.28 0.26 0.33 0.36 0.37 0.43 0.45 0.51 0.55 0.67 0.78 0.85 0.96 0.80 0.89 1.11
0.47 0.59 0.69 0.56 0.67 0.59 0.61 0.51 0.38 0.29 0.29 0.34 0.57 0.89 0.79 0.80 1.37 0.77 0.53 0.52 0.48 0.34 0.32 0.41 0.55 0.53 0.49 0.51 0.57 0.60 0.69 0.75 0.83 0.91 0.86 0.94 0.91 0.73 0.88 0.98 0.91 0.74 0.74 0.73
0.57 0.75 0.68 0.54 0.54 0.54 0.51 0.43 0.39 0.38 0.45 0.52 0.84 0.88 0.61 0.53 0.40 0.34 0.36 0.32 0.37 0.46 0.48 0.58 0.60 0.67 0.80 0.86 0.90 0.97 0.98 0.94 0.92 0.90 0.79 0.73 0.68 0.59 0.62 0.61 0.55 0.55 0.44 0.42
0.63 0.88 0.96 0.81 0.68 0.73 0.75 0.64 0.52 0.48 0.46 0.62 0.50 0.48 0.49 0.39 0.22 0.21 0.30 0.54 0.76 0.81 0.83 0.81 0.82 0.89 0.99 0.98 0.90 0.87 0.73 0.62 0.60 0.54 0.47 0.45 0.44 0.29 0.18 0.22 0.29 0.20 0.17 0.15

GFSNW_prec_precacc_060.txt.gz
Total_Precipitation_Accumulation
0.35 0.41 0.41 0.37 0.42 0.60 1.09 1.68 1.13 0.26 0.30 0.81 0.57 0.20 0.02 0.00 0.00 0.00 0.00 0.00 0.00 0.00 0.00 0.00 0.00 0.00 0.00 0.00 0.01 0.02 0.00 0.00 0.01 0.00 0.00 0.00 0.00 0.00 0.00 0.01 0.01 0.01 0.01 0.01
0.58 0.57 0.64 0.54 0.53 0.83 1.42 2.07 1.05 0.82 0.61 0.53 0.23 0.09 0.04 0.01 0.00 0.00 0.00 0.00 0.00 0.00 0.00 0.01 0.01 0.00 0.00 0.00 0.01 0.01 0.01 0.00 0.00 0.01 0.02 0.01 0.00 0.00 0.00 0.00 0.03 0.06 0.06 0.01
0.80 0.87 0.83 0.79 0.74 1.02 1.82 2.52 1.75 1.85 1.20 0.24 0.11 0.15 0.09 0.02 0.00 0.00 0.00 0.00 0.00 0.01 0.06 0.01 0.01 0.00 0.01 0.00 0.01 0.01 0.02 0.01 0.00 0.02 0.05 0.02 0.01 0.00 0.00 0.00 0.06 0.04 0.03 0.01
0.78 0.88 1.08 1.09 1.09 1.34 2.86 3.61 1.42 0.78 0.78 0.29 0.14 0.15 0.16 0.05 0.01 0.00 0.00 0.01 0.00 0.01 0.04 0.06 0.04 0.04 0.02 0.05 0.01 0.01 0.07 0.08 0.03 0.00 0.00 0.00 0.01 0.01 0.00 0.01 0.02 0.03 0.00 0.01
0.73 0.95 0.99 1.16 1.39 1.96 3.99 3.54 0.90 0.28 0.16 0.15 0.18 0.23 0.13 0.05 0.05 0.03 0.02 0.00 0.01 0.03 0.03 0.06 0.10 0.13 0.13 0.15 0.11 0.03 0.05 0.11 0.01 0.00 0.00 0.00 0.00 0.00 0.04 0.00 0.00 0.00 0.00 0.01
0.58 0.91 1.03 1.12 1.48 2.93 4.89 2.82 0.65 0.50 0.31 0.16 0.26 0.18 0.06 0.03 0.03 0.06 0.04 0.04 0.05 0.04 0.05 0.09 0.16 0.11 0.14 0.18 0.22 0.21 0.11 0.15 0.12 0.04 0.00 0.00 0.00 0.00 0.00 0.01 0.00 0.00 0.00 0.00
0.49 0.70 1.00 1.07 1.46 2.50 3.04 2.09 0.82 1.07 0.81 0.26 0.13 0.07 0.07 0.06 0.04 0.04 0.05 0.08 0.12 0.10 0.02 0.07 0.13 0.21 0.16 0.20 0.21 0.21 0.26 0.18 0.17 0.11 0.04 0.06 0.02 0.00 0.00 0.00 0.00 0.00 0.00 0.00
0.53 0.58 0.87 0.99 1.21 1.57 1.80 1.70 1.33 1.29 0.83 0.21 0.10 0.08 0.11 0.10 0.11 0.12 0.10 0.06 0.12 0.15 0.11 0.21 0.24 0.16 0.18 0.18 0.20 0.21 0.23 0.23 0.25 0.17 0.13 0.06 0.01 0.00 0.00 0.00 0.00 0.00 0.00 0.00
0.58 0.55 0.77 0.96 0.95 1.09 1.43 1.40 1.34 2.03 1.43 0.49 0.10 0.15 0.14 0.19 0.21 0.22 0.17 0.19 0.16 0.15 0.19 0.30 0.31 0.24 0.13 0.13 0.15 0.14 0.28 0.27 0.35 0.21 0.18 0.10 0.01 0.00 0.00 0.00 0.01 0.00 0.00 0.00
0.58 0.54 0.68 0.85 0.73 0.78 1.17 1.33 1.24 2.17 2.14 0.59 0.24 0.25 0.25 0.27 0.22 0.28 0.22 0.31 0.33 0.29 0.38 0.33 0.22 0.18 0.13 0.17 0.21 0.17 0.22 0.25 0.27 0.22 0.22 0.06 0.01 0.01 0.00 0.04 0.08 0.00 0.00 0.00
0.56 0.55 0.52 0.73 0.67 0.75 1.09 1.11 1.21 1.89 1.87 0.66 0.46 0.28 0.19 0.16 0.26 0.39 0.29 0.63 0.56 0.53 0.39 0.22 0.15 0.13 0.09 0.07 0.15 0.16 0.17 0.22 0.22 0.24 0.23 0.07 0.02 0.06 0.11 0.13 0.02 0.00 0.00 0.00
0.53 0.50 0.45 0.62 0.78 0.92 1.07 1.24 1.02 1.42 2.01 1.12 0.47 0.25 0.15 0.07 0.05 0.17 0.31 0.30 0.29 0.25 0.24 0.12 0.16 0.13 0.08 0.04 0.09 0.13 0.15 0.13 0.14 0.10 0.07 0.02 0.03 0.07 0.06 0.01 0.02 0.01 0.01 0.00
0.49 0.43 0.44 0.68 0.94 0.96 1.11 1.21 0.98 2.22 2.32 1.54 0.68 0.32 0.10 0.04 0.04 0.09 0.35 0.15 0.22 0.27 0.29 0.35 0.25 0.17 0.05 0.03 0.02 0.09 0.12 0.04 0.08 0.12 0.04 0.04 0.05 0.04 0.01 0.00 0.01 0.01 0.00 0.00
0.46 0.51 0.54 0.77 1.00 0.89 1.25 1.34 1.32 2.55 1.63 1.67 1.03 0.50 0.18 0.13 0.08 0.15 0.18 0.14 0.23 0.39 0.47 0.44 0.33 0.17 0.07 0.07 0.02 0.03 0.10 0.18 0.09 0.09 0.06 0.09 0.20 0.19 0.09 0.04 0.02 0.02 0.02 0.03
0.45 0.50 0.69 0.95 0.98 1.02 1.56 1.41 1.63 1.71 1.36 1.20 1.18 0.33 0.29 0.21 0.18 0.15 0.31 0.34 0.37 0.63 0.58 0.44 0.20 0.12 0.14 0.09 0.08 0.02 0.03 0.11 0.13 0.12 0.11 0.08 0.22 0.06 0.03 0.08 0.10 0.04 0.04 0.04
0.42 0.63 0.89 0.96 0.97 1.50 2.54 3.79 2.46 1.39 1.22 1.38 1.41 0.64 0.29 0.39 0.33 0.35 0.25 0.47 0.69 0.78 0.89 0.44 0.12 0.06 0.19 0.17 0.14 0.12 0.09 0.06 0.03 0.04 0.01 0.03 0.02 0.03 0.05 0.02 0.05 0.06 0.05 0.05
0.58 0.75 0.89 0.89 1.17 1.47 2.19 1.98 1.36 1.04 1.30 1.53 1.29 0.98 0.46 0.44 0.59 0.66 0.76 0.57 0.99 1.40 1.19 0.65 0.30 0.20 0.32 0.20 0.16 0.17 0.08 0.07 0.04 0.02 0.02 0.05 0.03 0.03 0.03 0.03 0.02 0.01 0.01 0.01
0.62 0.81 0.94 1.19 1.35 1.72 1.60 1.06 1.10 0.87 1.25 1.24 1.14 1.13 0.88 0.75 0.99 0.82 0.88 1.02 1.02 1.20 1.25 0.79 0.48 0.52 0.56 0.47 0.16 0.04 0.00 0.01 0.05 0.06 0.07 0.08 0.06 0.03 0.02 0.01 0.01 0.01 0.00 0.00
0.92 1.14 1.62 2.55 2.21 2.24 1.60 1.33 1.44 1.13 1.10 0.91 0.54 0.77 1.28 1.21 1.11 0.78 0.74 1.18 1.25 0.93 0.72 0.62 0.72 0.97 0.91 0.54 0.14 0.08 0.04 0.01 0.01 0.00 0.00 0.01 0.02 0.02 0.01 0.00 0.01 0.00 0.01 0.05
1.16 1.76 2.45 2.61 1.79 1.58 1.75 2.31 2.19 1.86 1.09 0.72 0.50 0.43 0.94 1.37 1.29 1.07 0.77 0.72 0.76 0.77 0.64 0.70 0.91 0.77 0.37 0.14 0.15 0.12 0.09 0.08 0.05 0.02 0.02 0.02 0.02 0.02 0.01 0.02 0.03 0.04 0.08 0.09
1.18 1.42 1.90 1.59 1.66 1.82 1.94 1.72 1.30 1.13 0.63 0.28 0.40 0.48 0.83 1.01 1.30 0.94 0.86 0.94 0.48 0.37 0.49 0.56 0.78 0.45 0.20 0.04 0.04 0.06 0.11 0.10 0.12 0.16 0.17 0.18 0.17 0.13 0.09 0.11 0.14 0.14 0.13 0.16
0.73 1.12 1.22 1.71 1.82 1.44 1.04 0.78 0.65 0.48 0.28 0.22 0.35 0.60 1.09 0.93 1.23 0.95 0.90 0.89 0.62 0.40 0.29 0.33 0.47 0.34 0.16 0.12 0.11 0.09 0.14 0.19 0.22 0.20 0.20 0.24 0.24 0.24 0.21 0.19 0.18 0.18 0.22 0.27
0.88 0.62 0.88 0.95 0.80 0.65 0.51 0.42 0.45 0.40 0.25 0.26 0.31 0.69 1.34 1.00 1.23 0.98 0.65 0.99 0.79 0.45 0.46 0.44 0.34 0.15 0.12 0.15 0.18 0.22 0.24 0.23 0.25 0.28 0.30 0.27 0.27 0.26 0.24 0.25 0.34 0.36 0.48 0.72
0.59 0.57 0.52 0.68 0.55 0.49 0.44 0.46 0.43 0.25 0.16 0.21 0.47 0.83 1.07 1.15 1.36 1.02 0.60 0.86 0.84 0.66 0.53 0.38 0.34 0.31 0.29 0.27 0.29 0.26 0.34 0.37 0.37 0.44 0.46 0.52 0.56 0.68 0.79 0.86 0.97 0.81 0.91 1.13
0.47 0.59 0.70 0.56 0.68 0.60 0.61 0.52 0.38 0.29 0.29 0.34 0.58 0.90 0.80 0.81 1.39 0.78 0.56 0.55 0.50 0.36 0.35 0.43 0.56 0.54 0.50 0.52 0.58 0.61 0.70 0.76 0.84 0.92 0.87 0.95 0.91 0.74 0.89 0.99 0.92 0.75 0.75 0.74
0.57 0.76 0.69 0.55 0.56 0.55 0.53 0.44 0.40 0.39 0.45 0.53 0.86 0.91 0.65 0.58 0.44 0.39 0.40 0.37 0.40 0.49 0.50 0.59 0.61 0.68 0.81 0.87 0.91 0.99 0.99 0.94 0.92 0.91 0.79 0.74 0.69 0.59 0.62 0.62 0.55 0.55 0.44 0.43
0.63 0.89 0.97 0.83 0.69 0.75 0.76 0.66 0.53 0.49 0.48 0.65 0.56 0.54 0.55 0.44 0.23 0.22 0.31 0.56 0.78 0.83 0.85 0.82 0.83 0.90 1.00 1.00 0.92 0.89 0.74 0.64 0.61 0.55 0.48 0.46 0.44 0.29 0.18 0.22 0.29 0.20 0.17 0.15

GFSNW_prec_precacc_063.txt.gz
Total_Precipitation_Accumulation
0.36 0.41 0.41 0.38 0.43 0.61 1.09 1.70 1.15 0.27 0.32 0.83 0.58 0.20 0.02 0.00 0.00 0.00 0.00 0.00 0.00 0.00 0.00 0.00 0.00 0.00 0.01 0.00 0.01 0.02 0.00 0.00 0.01 0.00 0.00 0.00 0.00 0.00 0.01 0.05 0.03 0.01 0.02 0.02
0.60 0.57 0.65 0.55 0.55 0.86 1.45 2.10 1.05 0.83 0.71 0.70 0.24 0.09 0.04 0.01 0.00 0.00 0.00 0.00 0.00 0.00 0.00 0.01 0.01 0.00 0.00 0.00 0.01 0.01 0.01 0.00 0.00 0.01 0.03 0.01 0.00 0.00 0.00 0.00 0.06 0.13 0.07 0.01
0.80 0.87 0.84 0.82 0.78 1.06 1.87 2.56 1.79 1.86 1.22 0.28 0.16 0.18 0.12 0.02 0.00 0.00 0.00 0.00 0.00 0.01 0.06 0.01 0.01 0.00 0.01 0.00 0.01 0.01 0.02 0.01 0.00 0.02 0.06 0.08 0.03 0.00 0.00 0.01 0.13 0.10 0.11 0.03
0.78 0.89 1.10 1.12 1.13 1.40 2.91 3.65 1.45 0.80 0.84 0.32 0.15 0.16 0.19 0.09 0.05 0.01 0.00 0.01 0.00 0.01 0.04 0.06 0.04 0.04 0.02 0.05 0.01 0.01 0.07 0.08 0.03 0.00 0.00 0.03 0.04 0.01 0.01 0.02 0.03 0.09 0.03 0.09
0.75 0.97 1.01 1.18 1.41 2.03 4.04 3.56 0.92 0.29 0.16 0.17 0.25 0.31 0.15 0.05 0.06 0.07 0.03 0.01 0.01 0.03 0.03 0.06 0.10 0.13 0.13 0.15 0.11 0.04 0.06 0.12 0.01 0.00 0.00 0.00 0.00 0.01 0.06 0.03 0.01 0.03 0.04 0.08
0.58 0.91 1.06 1.15 1.52 2.99 4.92 2.83 0.66 0.56 0.34 0.16 0.27 0.20 0.10 0.04 0.03 0.06 0.06 0.07 0.06 0.05 0.07 0.10 0.16 0.11 0.14 0.18 0.22 0.21 0.12 0.16 0.13 0.06 0.00 0.00 0.00 0.00 0.01 0.06 0.03 0.02 0.05 0.01
0.51 0.71 1.01 1.08 1.52 2.57 3.06 2.11 0.87 1.13 0.82 0.26 0.13 0.07 0.08 0.10 0.06 0.05 0.05 0.09 0.18 0.16 0.04 0.07 0.13 0.21 0.16 0.20 0.21 0.21 0.26 0.18 0.19 0.13 0.05 0.07 0.02 0.00 0.00 0.00 0.02 0.00 0.00 0.00
0.55 0.60 0.89 0.99 1.23 1.63 1.84 1.73 1.38 1.36 0.86 0.21 0.10 0.09 0.12 0.12 0.18 0.15 0.11 0.08 0.15 0.17 0.14 0.24 0.25 0.16 0.18 0.18 0.20 0.21 0.23 0.23 0.26 0.19 0.17 0.07 0.01 0.00 0.00 0.00 0.00 0.00 0.00 0.00
0.59 0.56 0.78 0.96 0.96 1.13 1.47 1.42 1.40 2.08 1.52 0.51 0.10 0.15 0.16 0.21 0.22 0.31 0.21 0.27 0.17 0.15 0.20 0.32 0.32 0.24 0.14 0.13 0.15 0.14 0.28 0.27 0.35 0.22 0.20 0.11 0.02 0.00 0.00 0.00 0.02 0.00 0.00 0.00
0.59 0.55 0.68 0.86 0.73 0.80 1.22 1.35 1.29 2.28 2.27 0.63 0.26 0.29 0.28 0.35 0.33 0.34 0.28 0.42 0.36 0.29 0.38 0.33 0.22 0.18 0.14 0.19 0.23 0.20 0.22 0.26 0.27 0.23 0.23 0.07 0.01 0.01 0.00 0.04 0.09 0.00 0.00 0.00
0.66 0.64 0.57 0.74 0.67 0.75 1.13 1.14 1.25 1.96 1.93 0.66 0.47 0.29 0.20 0.17 0.29 0.48 0.41 0.71 0.62 0.53 0.39 0.22 0.15 0.14 0.11 0.10 0.21 0.27 0.21 0.23 0.24 0.26 0.24 0.07 0.02 0.06 0.12 0.14 0.03 0.00 0.00 0.00
0.65 0.67 0.64 0.69 0.79 0.93 1.10 1.26 1.04 1.48 2.05 1.12 0.47 0.25 0.15 0.07 0.06 0.19 0.42 0.50 0.37 0.27 0.26 0.15 0.19 0.16 0.13 0.09 0.14 0.19 0.25 0.16 0.16 0.10 0.07 0.04 0.05 0.09 0.08 0.03 0.02 0.01 0.01 0.00
0.57 0.53 0.60 0.78 0.96 0.97 1.12 1.21 1.00 2.29 2.36 1.56 0.68 0.32 0.10 0.04 0.04 0.09 0.39 0.16 0.27 0.33 0.38 0.45 0.32 0.25 0.13 0.06 0.05 0.13 0.15 0.07 0.11 0.15 0.11 0.11 0.19 0.15 0.02 0.01 0.02 0.01 0.00 0.00
0.58 0.59 0.61 0.84 1.02 0.89 1.25 1.34 1.33 2.60 1.68 1.67 1.03 0.50 0.18 0.13 0.08 0.15 0.18 0.14 0.24 0.46 0.54 0.61 0.50 0.27 0.11 0.11 0.04 0.06 0.16 0.42 0.20 0.18 0.21 0.18 0.30 0.48 0.19 0.06 0.02 0.02 0.02 0.03
0.49 0.53 0.70 0.97 0.99 1.02 1.57 1.43 1.64 1.73 1.38 1.25 1.21 0.33 0.29 0.21 0.18 0.15 0.31 0.34 0.37 0.64 0.62 0.50 0.27 0.22 0.17 0.10 0.08 0.05 0.11 0.58 0.37 0.26 0.47 0.33 0.48 0.24 0.17 0.14 0.10 0.04 0.04 0.04
0.43 0.64 0.90 0.97 0.97 1.52 2.58 3.83 2.47 1.40 1.26 1.42 1.42 0.64 0.29 0.39 0.34 0.35 0.25 0.47 0.69 0.81 0.94 0.46 0.15 0.10 0.22 0.17 0.16 0.17 0.11 0.10 0.12 0.15 0.22 0.16 0.10 0.09 0.06 0.03 0.05 0.06 0.05 0.05
0.58 0.76 0.90 0.89 1.17 1.48 2.20 1.99 1.39 1.04 1.33 1.64 1.32 0.99 0.49 0.45 0.61 0.67 0.78 0.58 1.02 1.43 1.22 0.66 0.30 0.22 0.36 0.22 0.18 0.21 0.09 0.08 0.05 0.03 0.03 0.05 0.03 0.03 0.03 0.03 0.02 0.01 0.01 0.01
0.62 0.82 0.95 1.20 1.38 1.75 1.62 1.08 1.14 0.89 1.26 1.28 1.17 1.16 1.04 0.77 1.03 0.94 0.92 1.08 1.15 1.27 1.28 0.80 0.49 0.54 0.60 0.52 0.17 0.04 0.00 0.01 0.05 0.06 0.07 0.08 0.06 0.03 0.02 0.01 0.01 0.01 0.00 0.00
0.93 1.15 1.69 2.75 2.41 2.34 1.63 1.34 1.48 1.15 1.11 0.93 0.55 0.81 1.48 1.25 1.14 0.88 0.80 1.23 1.33 0.98 0.75 0.63 0.72 0.98 0.94 0.57 0.14 0.08 0.04 0.01 0.01 0.00 0.00 0.01 0.02 0.02 0.01 0.00 0.01 0.00 0.01 0.05
1.21 1.84 2.69 2.81 1.86 1.61 1.80 2.51 2.49 1.98 1.11 0.74 0.51 0.44 0.98 1.43 1.33 1.10 0.85 0.77 0.79 0.79 0.65 0.72 0.92 0.78 0.38 0.14 0.15 0.12 0.09 0.08 0.05 0.02 0.02 0.02 0.02 0.02 0.01 0.02 0.03 0.04 0.08 0.10
1.22 1.54 2.03 1.65 1.71 1.88 2.03 1.85 1.39 1.17 0.65 0.29 0.41 0.49 0.87 1.05 1.34 0.98 0.88 0.96 0.50 0.38 0.50 0.56 0.81 0.46 0.21 0.04 0.04 0.06 0.11 0.10 0.12 0.16 0.18 0.18 0.17 0.13 0.09 0.12 0.14 0.14 0.13 0.16
0.76 1.17 1.28 1.81 1.91 1.53 1.09 0.81 0.68 0.50 0.30 0.23 0.37 0.63 1.13 0.97 1.28 0.99 0.95 0.91 0.63 0.42 0.30 0.35 0.51 0.36 0.16 0.12 0.11 0.09 0.14 0.19 0.22 0.21 0.20 0.24 0.24 0.24 0.21 0.19 0.18 0.19 0.22 0.27
0.89 0.63 0.91 1.00 0.83 0.73 0.62 0.46 0.46 0.42 0.25 0.27 0.33 0.71 1.37 1.01 1.24 0.98 0.67 1.02 0.80 0.47 0.48 0.47 0.36 0.16 0.12 0.15 0.18 0.22 0.24 0.23 0.26 0.28 0.30 0.27 0.28 0.26 0.24 0.25 0.34 0.36 0.49 0.73
0.60 0.58 0.54 0.74 0.57 0.54 0.47 0.47 0.44 0.25 0.16 0.21 0.47 0.83 1.07 1.15 1.36 1.02 0.60 0.86 0.84 0.68 0.55 0.40 0.37 0.32 0.30 0.27 0.29 0.26 0.34 0.37 0.38 0.45 0.46 0.52 0.56 0.68 0.79 0.86 0.97 0.81 0.91 1.13
0.47 0.59 0.70 0.56 0.68 0.60 0.62 0.52 0.39 0.30 0.29 0.34 0.59 0.90 0.80 0.81 1.39 0.78 0.56 0.55 0.52 0.38 0.37 0.45 0.58 0.54 0.50 0.53 0.58 0.62 0.70 0.76 0.84 0.92 0.87 0.95 0.91 0.74 0.89 0.99 0.92 0.75 0.75 0.74
0.57 0.76 0.70 0.57 0.57 0.57 0.55 0.46 0.40 0.39 0.46 0.53 0.86 0.91 0.65 0.58 0.44 0.40 0.41 0.38 0.42 0.51 0.51 0.61 0.61 0.69 0.82 0.87 0.92 0.99 1.00 0.95 0.93 0.91 0.80 0.74 0.69 0.60 0.63 0.62 0.55 0.55 0.44 0.43
0.63 0.89 0.98 0.85 0.71 0.75 0.77 0.67 0.55 0.51 0.50 0.67 0.57 0.54 0.56 0.46 0.24 0.23 0.32 0.58 0.80 0.85 0.87 0.83 0.83 0.91 1.01 1.01 0.93 0.90 0.76 0.65 0.62 0.56 0.49 0.47 0.45 0.29 0.18 0.22 0.29 0.20 0.17 0.15

GFSNW_prec_precacc_066.txt.gz
Total_Precipitation_Accumulation
0.36 0.42 0.41 0.38 0.44 0.63 1.10 1.70 1.16 0.28 0.34 0.83 0.60 0.21 0.02 0.00 0.00 0.00 0.00 0.00 0.00 0.00 0.00 0.00 0.00 0.00 0.01 0.00 0.01 0.02 0.00 0.00 0.01 0.00 0.00 0.00 0.01 0.01 0.03 0.12 0.06 0.01 0.02 0.08
0.61 0.59 0.65 0.55 0.56 0.88 1.46 2.11 1.05 0.83 0.77 0.89 0.25 0.09 0.04 0.01 0.00 0.00 0.00 0.00 0.00 0.00 0.00 0.01 0.01 0.00 0.00 0.00 0.01 0.01 0.01 0.00 0.01 0.01 0.03 0.01 0.00 0.00 0.01 0.03 0.12 0.16 0.08 0.03
0.81 0.88 0.85 0.82 0.80 1.10 1.91 2.61 1.80 1.86 1.22 0.30 0.30 0.33 0.17 0.03 0.00 0.00 0.00 0.00 0.00 0.01 0.06 0.01 0.01 0.00 0.01 0.00 0.01 0.01 0.02 0.01 0.01 0.03 0.07 0.09 0.04 0.01 0.01 0.04 0.21 0.12 0.11 0.03
0.78 0.89 1.11 1.13 1.16 1.44 2.97 3.72 1.46 0.80 0.88 0.37 0.18 0.21 0.25 0.12 0.09 0.03 0.00 0.01 0.00 0.01 0.04 0.06 0.04 0.04 0.02 0.05 0.01 0.01 0.07 0.08 0.03 0.00 0.00 0.03 0.07 0.06 0.03 0.04 0.04 0.10 0.04 0.10
0.77 0.99 1.02 1.21 1.43 2.08 4.10 3.59 0.92 0.29 0.16 0.19 0.27 0.33 0.17 0.06 0.07 0.11 0.07 0.03 0.02 0.03 0.04 0.07 0.10 0.13 0.13 0.15 0.12 0.04 0.06 0.12 0.02 0.00 0.00 0.00 0.01 0.01 0.10 0.07 0.03 0.04 0.05 0.11
0.59 0.92 1.06 1.17 1.56 3.05 4.98 2.86 0.66 0.57 0.35 0.17 0.28 0.21 0.13 0.09 0.06 0.09 0.10 0.15 0.09 0.05 0.11 0.12 0.17 0.12 0.14 0.18 0.23 0.22 0.13 0.17 0.13 0.06 0.00 0.00 0.00 0.00 0.03 0.08 0.07 0.11 0.15 0.05
0.51 0.72 1.02 1.09 1.55 2.63 3.07 2.11 0.87 1.15 0.83 0.26 0.13 0.07 0.08 0.11 0.09 0.09 0.06 0.14 0.30 0.18 0.04 0.09 0.14 0.22 0.17 0.20 0.21 0.21 0.26 0.18 0.19 0.13 0.05 0.07 0.02 0.00 0.00 0.02 0.05 0.05 0.08 0.09
0.56 0.62 0.92 1.03 1.26 1.69 1.86 1.73 1.39 1.40 0.90 0.22 0.10 0.09 0.12 0.12 0.19 0.17 0.11 0.09 0.19 0.19 0.14 0.25 0.25 0.16 0.18 0.18 0.20 0.21 0.23 0.23 0.26 0.19 0.17 0.08 0.01 0.00 0.00 0.02 0.03 0.04 0.05 0.06
0.59 0.56 0.80 0.99 0.99 1.18 1.51 1.43 1.42 2.18 1.56 0.51 0.10 0.15 0.16 0.22 0.23 0.32 0.21 0.33 0.26 0.18 0.20 0.32 0.32 0.24 0.14 0.13 0.15 0.14 0.28 0.27 0.35 0.23 0.21 0.12 0.02 0.00 0.00 0.01 0.05 0.01 0.01 0.01
0.60 0.55 0.69 0.86 0.73 0.82 1.26 1.36 1.29 2.38 2.36 0.63 0.26 0.29 0.31 0.37 0.36 0.38 0.38 0.53 0.41 0.29 0.38 0.33 0.22 0.18 0.14 0.19 0.23 0.20 0.22 0.26 0.27 0.23 0.23 0.07 0.01 0.01 0.01 0.05 0.13 0.01 0.00 0.00
0.66 0.64 0.58 0.75 0.68 0.76 1.16 1.15 1.26 2.00 1.99 0.67 0.47 0.29 0.23 0.25 0.33 0.54 0.53 0.79 0.70 0.54 0.39 0.22 0.15 0.14 0.11 0.10 0.22 0.28 0.24 0.24 0.24 0.27 0.25 0.07 0.02 0.06 0.13 0.15 0.03 0.01 0.00 0.00
0.66 0.68 0.67 0.77 0.86 0.96 1.13 1.27 1.05 1.49 2.08 1.13 0.47 0.25 0.15 0.07 0.06 0.19 0.43 0.60 0.59 0.41 0.29 0.18 0.19 0.17 0.14 0.10 0.16 0.26 0.41 0.24 0.17 0.11 0.07 0.08 0.09 0.11 0.10 0.04 0.04 0.03 0.02 0.01
0.59 0.56 0.63 0.85 1.09 1.11 1.18 1.21 1.01 2.34 2.42 1.57 0.68 0.32 0.10 0.04 0.04 0.09 0.39 0.18 0.45 0.57 0.41 0.48 0.33 0.26 0.15 0.09 0.06 0.16 0.19 0.11 0.16 0.18 0.13 0.13 0.24 0.20 0.03 0.01 0.02 0.02 0.01 0.00
0.62 0.67 0.72 0.96 1.18 1.06 1.35 1.35 1.33 2.61 1.72 1.68 1.03 0.50 0.18 0.13 0.08 0.15 0.18 0.14 0.24 0.48 0.55 0.62 0.51 0.32 0.24 0.17 0.08 0.09 0.18 0.43 0.27 0.27 0.31 0.24 0.31 0.60 0.30 0.08 0.03 0.03 0.02 0.03
0.53 0.60 0.79 1.09 1.17 1.16 1.61 1.43 1.64 1.73 1.39 1.28 1.22 0.33 0.29 0.21 0.18 0.15 0.31 0.34 0.37 0.64 0.63 0.51 0.28 0.26 0.39 0.17 0.10 0.12 0.14 0.73 0.69 0.39 0.58 0.69 0.55 0.29 0.28 0.24 0.13 0.04 0.04 0.04
0.45 0.67 0.94 1.01 1.05 1.57 2.60 3.85 2.47 1.41 1.27 1.44 1.42 0.64 0.29 0.39 0.34 0.35 0.25 0.47 0.69 0.81 0.94 0.48 0.15 0.12 0.43 0.22 0.24 0.31 0.16 0.20 0.32 0.42 0.44 0.57 0.38 0.14 0.10 0.05 0.06 0.06 0.05 0.05
0.59 0.78 0.91 0.91 1.19 1.49 2.20 2.00 1.39 1.04 1.34 1.68 1.35 0.99 0.49 0.45 0.61 0.67 0.78 0.59 1.02 1.43 1.23 0.67 0.30 0.22 0.38 0.31 0.21 0.24 0.12 0.10 0.11 0.15 0.13 0.09 0.06 0.05 0.03 0.03 0.02 0.01 0.01 0.01
0.64 0.83 0.96 1.22 1.39 1.75 1.62 1.09 1.16 0.89 1.26 1.28 1.20 1.17 1.08 0.81 1.05 0.95 0.93 1.09 1.15 1.28 1.29 0.80 0.49 0.55 0.61 0.56 0.20 0.05 0.01 0.04 0.05 0.07 0.08 0.08 0.06 0.03 0.02 0.01 0.01 0.01 0.00 0.00
0.94 1.17 1.72 2.78 2.43 2.35 1.63 1.36 1.51 1.16 1.11 0.93 0.55 0.83 1.62 1.49 1.29 1.04 0.86 1.29 1.37 1.02 0.77 0.63 0.73 0.98 0.96 0.59 0.14 0.08 0.04 0.01 0.01 0.00 0.00 0.01 0.02 0.02 0.01 0.00 0.01 0.01 0.01 0.05
1.22 1.85 2.69 2.82 1.86 1.62 1.80 2.53 2.60 2.18 1.12 0.75 0.52 0.45 0.99 1.60 1.48 1.20 1.01 0.85 0.83 0.84 0.66 0.74 0.95 0.79 0.39 0.15 0.15 0.13 0.09 0.08 0.05 0.02 0.02 0.02 0.03 0.02 0.02 0.02 0.03 0.05 0.08 0.11
1.23 1.55 2.07 1.66 1.72 1.89 2.06 1.94 1.46 1.25 0.65 0.29 0.41 0.49 0.87 1.07 1.42 1.02 0.89 0.96 0.52 0.39 0.50 0.58 0.83 0.47 0.23 0.05 0.04 0.06 0.11 0.10 0.13 0.16 0.18 0.19 0.18 0.14 0.09 0.12 0.14 0.14 0.14 0.17
0.77 1.27 1.35 1.84 1.94 1.58 1.16 0.85 0.69 0.50 0.30 0.24 0.37 0.63 1.13 0.97 1.31 1.01 0.98 0.92 0.64 0.43 0.32 0.38 0.53 0.39 0.17 0.12 0.11 0.09 0.14 0.19 0.23 0.21 0.21 0.25 0.24 0.24 0.21 0.20 0.19 0.19 0.23 0.28
0.94 0.67 0.94 1.06 0.91 0.80 0.66 0.46 0.46 0.42 0.25 0.27 0.33 0.71 1.37 1.01 1.25 0.99 0.69 1.09 0.83 0.48 0.50 0.48 0.38 0.19 0.13 0.15 0.18 0.22 0.24 0.23 0.26 0.29 0.31 0.28 0.28 0.26 0.24 0.25 0.34 0.37 0.49 0.73
0.61 0.62 0.57 0.78 0.58 0.55 0.50 0.48 0.44 0.25 0.16 0.21 0.47 0.83 1.07 1.15 1.36 1.02 0.60 0.87 0.85 0.69 0.57 0.40 0.38 0.33 0.30 0.28 0.29 0.26 0.35 0.37 0.38 0.45 0.46 0.52 0.56 0.68 0.80 0.87 0.98 0.81 0.91 1.13
0.47 0.59 0.70 0.56 0.68 0.60 0.62 0.53 0.39 0.30 0.29 0.34 0.59 0.90 0.80 0.81 1.39 0.78 0.57 0.55 0.52 0.38 0.37 0.46 0.58 0.54 0.50 0.53 0.58 0.62 0.70 0.76 0.84 0.93 0.87 0.95 0.91 0.74 0.90 0.99 0.93 0.75 0.75 0.74
0.57 0.77 0.70 0.58 0.58 0.58 0.55 0.47 0.41 0.39 0.46 0.53 0.86 0.91 0.65 0.58 0.44 0.40 0.41 0.39 0.43 0.51 0.52 0.61 0.62 0.69 0.82 0.88 0.92 1.00 1.00 0.95 0.93 0.92 0.80 0.75 0.69 0.60 0.63 0.62 0.55 0.55 0.44 0.43
0.63 0.90 0.99 0.85 0.71 0.76 0.78 0.68 0.56 0.51 0.51 0.67 0.57 0.55 0.57 0.46 0.24 0.23 0.32 0.59 0.81 0.85 0.88 0.83 0.83 0.91 1.01 1.01 0.93 0.91 0.76 0.66 0.62 0.56 0.49 0.47 0.45 0.30 0.18 0.22 0.29 0.20 0.17 0.15

GFSNW_prec_precacc_069.txt.gz
Total_Precipitation_Accumulation
0.36 0.42 0.42 0.38 0.44 0.64 1.10 1.70 1.16 0.28 0.34 0.87 0.61 0.21 0.02 0.00 0.00 0.00 0.00 0.00 0.00 0.00 0.00 0.00 0.00 0.00 0.02 0.00 0.01 0.03 0.00 0.00 0.01 0.00 0.00 0.00 0.01 0.03 0.08 0.18 0.10 0.02 0.04 0.14
0.61 0.59 0.65 0.55 0.56 0.90 1.46 2.11 1.05 0.83 0.78 1.00 0.31 0.10 0.04 0.01 0.00 0.00 0.00 0.00 0.00 0.00 0.00 0.02 0.01 0.00 0.00 0.00 0.01 0.01 0.01 0.00 0.01 0.01 0.03 0.02 0.01 0.02 0.03 0.07 0.17 0.17 0.12 0.09
0.81 0.88 0.85 0.83 0.81 1.13 1.92 2.62 1.80 1.86 1.22 0.30 0.35 0.46 0.23 0.06 0.03 0.03 0.02 0.00 0.00 0.01 0.06 0.02 0.01 0.00 0.01 0.00 0.01 0.01 0.02 0.01 0.01 0.03 0.08 0.10 0.06 0.04 0.03 0.10 0.29 0.14 0.12 0.06
0.78 0.89 1.11 1.13 1.17 1.46 2.99 3.76 1.48 0.80 0.88 0.39 0.21 0.28 0.29 0.16 0.14 0.07 0.02 0.02 0.02 0.02 0.05 0.07 0.04 0.04 0.02 0.05 0.01 0.01 0.07 0.08 0.03 0.00 0.00 0.03 0.08 0.08 0.06 0.07 0.05 0.12 0.04 0.10
0.77 0.99 1.03 1.22 1.45 2.11 4.14 3.61 0.92 0.29 0.16 0.19 0.28 0.34 0.19 0.08 0.11 0.13 0.11 0.05 0.03 0.04 0.05 0.07 0.10 0.14 0.13 0.16 0.13 0.05 0.06 0.12 0.02 0.00 0.00 0.00 0.01 0.01 0.11 0.12 0.06 0.06 0.05 0.12
0.61 0.93 1.06 1.17 1.58 3.09 5.01 2.90 0.67 0.58 0.35 0.17 0.28 0.21 0.14 0.12 0.06 0.11 0.13 0.20 0.13 0.06 0.11 0.14 0.19 0.14 0.15 0.18 0.23 0.23 0.14 0.18 0.13 0.06 0.00 0.00 0.00 0.00 0.03 0.10 0.13 0.22 0.22 0.07
0.52 0.73 1.02 1.09 1.58 2.67 3.08 2.12 0.88 1.17 0.84 0.26 0.13 0.07 0.08 0.11 0.09 0.10 0.06 0.16 0.41 0.22 0.05 0.10 0.15 0.23 0.17 0.20 0.21 0.21 0.26 0.18 0.19 0.13 0.05 0.07 0.02 0.00 0.00 0.02 0.06 0.08 0.12 0.14
0.56 0.62 0.92 1.04 1.30 1.74 1.87 1.73 1.40 1.41 0.91 0.22 0.10 0.09 0.12 0.12 0.19 0.17 0.11 0.09 0.21 0.24 0.16 0.27 0.26 0.16 0.18 0.18 0.20 0.21 0.23 0.23 0.26 0.19 0.17 0.08 0.01 0.00 0.00 0.03 0.04 0.04 0.06 0.10
0.60 0.57 0.82 1.02 1.02 1.25 1.52 1.43 1.43 2.23 1.58 0.51 0.10 0.15 0.16 0.22 0.24 0.32 0.21 0.33 0.31 0.26 0.32 0.34 0.33 0.25 0.14 0.13 0.15 0.14 0.28 0.27 0.35 0.23 0.21 0.12 0.02 0.00 0.00 0.01 0.06 0.01 0.01 0.06
0.60 0.56 0.69 0.86 0.74 0.85 1.28 1.36 1.29 2.42 2.44 0.64 0.26 0.29 0.31 0.38 0.37 0.38 0.39 0.55 0.45 0.36 0.39 0.33 0.22 0.18 0.14 0.19 0.23 0.20 0.22 0.26 0.27 0.23 0.23 0.07 0.01 0.01 0.01 0.08 0.15 0.01 0.00 0.01
0.67 0.64 0.58 0.75 0.69 0.77 1.18 1.15 1.26 2.01 2.03 0.67 0.47 0.29 0.23 0.25 0.33 0.57 0.55 0.87 0.82 0.57 0.40 0.22 0.15 0.14 0.11 0.10 0.22 0.28 0.24 0.24 0.24 0.27 0.25 0.07 0.02 0.06 0.14 0.19 0.05 0.02 0.01 0.01
0.67 0.69 0.67 0.78 0.87 0.97 1.16 1.27 1.05 1.49 2.09 1.13 0.47 0.25 0.15 0.07 0.06 0.19 0.43 0.62 0.62 0.63 0.38 0.20 0.19 0.17 0.14 0.10 0.16 0.27 0.48 0.30 0.18 0.11 0.07 0.08 0.09 0.11 0.10 0.04 0.11 0.07 0.19 0.14
0.60 0.57 0.64 0.86 1.11 1.14 1.30 1.26 1.01 2.35 2.46 1.58 0.68 0.32 0.10 0.04 0.04 0.09 0.39 0.18 0.49 0.77 0.49 0.52 0.34 0.27 0.16 0.09 0.06 0.17 0.24 0.21 0.31 0.24 0.16 0.13 0.24 0.22 0.04 0.01 0.02 0.02 0.05 0.20
0.63 0.69 0.75 1.02 1.25 1.14 1.58 1.61 1.35 2.62 1.74 1.69 1.03 0.50 0.18 0.13 0.08 0.15 0.18 0.14 0.25 0.49 0.56 0.64 0.52 0.32 0.25 0.22 0.10 0.21 0.26 0.45 0.27 0.37 0.36 0.25 0.33 0.61 0.33 0.11 0.05 0.04 0.02 0.03
0.57 0.65 0.88 1.23 1.35 1.40 1.99 1.69 1.71 1.74 1.39 1.29 1.23 0.33 0.29 0.21 0.18 0.15 0.31 0.34 0.37 0.65 0.63 0.52 0.28 0.27 0.48 0.45 0.23 0.19 0.16 0.74 0.72 0.48 0.74 0.79 0.76 0.37 0.32 0.42 0.23 0.07 0.04 0.04
0.48 0.70 0.99 1.07 1.21 1.92 2.91 4.06 2.55 1.41 1.27 1.45 1.42 0.64 0.29 0.39 0.34 0.35 0.25 0.47 0.69 0.82 0.95 0.48 0.16 0.15 0.61 0.50 0.44 0.35 0.20 0.25 0.40 0.62 0.63 0.73 0.60 0.26 0.11 0.07 0.14 0.14 0.07 0.05
0.63 0.79 0.93 0.95 1.28 1.54 2.22 2.00 1.39 1.04 1.35 1.70 1.37 0.99 0.49 0.45 0.61 0.67 0.78 0.59 1.02 1.43 1.24 0.67 0.30 0.22 0.40 0.44 0.34 0.27 0.13 0.15 0.14 0.29 0.26 0.10 0.07 0.06 0.03 0.03 0.02 0.01 0.01 0.01
0.68 0.85 1.01 1.25 1.40 1.75 1.62 1.09 1.16 0.89 1.26 1.28 1.20 1.17 1.08 0.81 1.05 0.95 0.93 1.09 1.16 1.29 1.29 0.80 0.49 0.55 0.64 0.58 0.29 0.07 0.02 0.06 0.05 0.07 0.08 0.08 0.06 0.03 0.02 0.01 0.01 0.01 0.00 0.00
0.96 1.22 1.77 2.81 2.43 2.35 1.65 1.37 1.51 1.16 1.11 0.93 0.55 0.83 1.63 1.60 1.44 1.05 0.87 1.29 1.38 1.03 0.78 0.63 0.74 1.00 1.02 0.61 0.16 0.09 0.05 0.01 0.01 0.00 0.00 0.01 0.02 0.02 0.01 0.00 0.01 0.01 0.01 0.05
1.25 1.87 2.70 2.83 1.86 1.62 1.85 2.57 2.63 2.19 1.12 0.76 0.52 0.45 0.99 1.67 1.74 1.34 1.09 0.90 0.88 0.85 0.67 0.76 1.01 0.81 0.41 0.16 0.16 0.13 0.09 0.08 0.05 0.02 0.03 0.02 0.03 0.02 0.02 0.02 0.03 0.05 0.09 0.11
1.23 1.55 2.08 1.66 1.73 1.90 2.06 1.95 1.47 1.30 0.67 0.29 0.41 0.49 0.87 1.08 1.65 1.13 0.93 0.99 0.58 0.40 0.51 0.62 0.88 0.48 0.25 0.06 0.04 0.07 0.11 0.10 0.13 0.16 0.18 0.19 0.18 0.14 0.09 0.12 0.15 0.15 0.14 0.17
0.77 1.28 1.35 1.84 1.94 1.58 1.21 0.91 0.70 0.50 0.30 0.24 0.37 0.63 1.13 0.98 1.34 1.05 0.98 0.92 0.65 0.44 0.35 0.39 0.54 0.40 0.19 0.13 0.11 0.10 0.14 0.19 0.23 0.21 0.21 0.25 0.24 0.24 0.21 0.20 0.19 0.20 0.23 0.28
0.96 0.68 0.94 1.06 0.93 0.82 0.68 0.47 0.46 0.42 0.25 0.27 0.34 0.71 1.37 1.02 1.26 1.01 0.71 1.19 0.84 0.49 0.52 0.49 0.38 0.20 0.14 0.15 0.19 0.22 0.24 0.24 0.26 0.29 0.31 0.28 0.28 0.26 0.24 0.26 0.35 0.37 0.49 0.73
0.62 0.62 0.58 0.79 0.59 0.56 0.50 0.48 0.44 0.25 0.16 0.21 0.48 0.84 1.07 1.15 1.36 1.02 0.60 0.87 0.86 0.70 0.57 0.41 0.39 0.34 0.31 0.28 0.29 0.26 0.35 0.37 0.38 0.46 0.47 0.52 0.56 0.68 0.80 0.87 0.98 0.81 0.91 1.13
0.47 0.59 0.70 0.56 0.68 0.61 0.63 0.54 0.39 0.30 0.30 0.35 0.59 0.90 0.80 0.81 1.39 0.78 0.57 0.55 0.53 0.38 0.37 0.46 0.59 0.55 0.50 0.53 0.58 0.62 0.70 0.76 0.85 0.93 0.87 0.96 0.92 0.75 0.90 1.00 0.93 0.76 0.75 0.74
0.57 0.77 0.71 0.59 0.58 0.60 0.56 0.48 0.42 0.40 0.47 0.53 0.86 0.91 0.65 0.58 0.44 0.40 0.41 0.39 0.43 0.51 0.52 0.62 0.62 0.69 0.82 0.88 0.92 1.00 1.01 0.96 0.94 0.93 0.81 0.76 0.70 0.61 0.64 0.63 0.56 0.55 0.44 0.43
0.63 0.90 0.99 0.86 0.71 0.77 0.79 0.69 0.57 0.52 0.52 0.67 0.57 0.55 0.57 0.47 0.24 0.23 0.32 0.59 0.81 0.86 0.88 0.84 0.83 0.91 1.01 1.01 0.93 0.91 0.77 0.66 0.63 0.57 0.50 0.48 0.46 0.30 0.18 0.22 0.29 0.20 0.17 0.15

GFSNW_prec_precacc_072.txt.gz
Total_Precipitation_Accumulation
0.37 0.42 0.42 0.38 0.44 0.64 1.10 1.70 1.16 0.28 0.34 0.88 0.62 0.21 0.02 0.00 0.00 0.00 0.00 0.00 0.00 0.00 0.00 0.00 0.00 0.00 0.02 0.02 0.02 0.04 0.01 0.01 0.01 0.00 0.00 0.00 0.02 0.04 0.14 0.36 0.19 0.03 0.07 0.19
0.61 0.59 0.65 0.55 0.57 0.91 1.46 2.11 1.05 0.83 0.78 1.00 0.32 0.11 0.05 0.01 0.00 0.00 0.01 0.00 0.00 0.00 0.00 0.02 0.01 0.01 0.01 0.00 0.02 0.02 0.01 0.01 0.01 0.01 0.03 0.02 0.01 0.03 0.07 0.19 0.31 0.21 0.16 0.11
0.81 0.88 0.85 0.83 0.81 1.14 1.92 2.62 1.80 1.86 1.22 0.31 0.36 0.47 0.24 0.06 0.04 0.04 0.05 0.01 0.00 0.01 0.06 0.02 0.02 0.02 0.02 0.02 0.02 0.01 0.02 0.01 0.01 0.03 0.08 0.10 0.06 0.04 0.08 0.30 0.45 0.16 0.13 0.08
0.78 0.89 1.11 1.13 1.18 1.48 2.99 3.77 1.48 0.80 0.88 0.41 0.21 0.29 0.31 0.18 0.20 0.12 0.06 0.04 0.04 0.05 0.07 0.07 0.04 0.05 0.06 0.07 0.02 0.01 0.07 0.08 0.03 0.00 0.00 0.03 0.08 0.08 0.07 0.16 0.21 0.27 0.06 0.11
0.77 0.99 1.03 1.22 1.47 2.13 4.15 3.62 0.92 0.29 0.16 0.19 0.28 0.35 0.19 0.10 0.13 0.14 0.19 0.23 0.07 0.06 0.08 0.08 0.12 0.14 0.16 0.20 0.15 0.07 0.07 0.12 0.02 0.00 0.00 0.00 0.01 0.01 0.11 0.13 0.08 0.09 0.05 0.12
0.61 0.94 1.07 1.17 1.59 3.09 5.02 2.91 0.71 0.59 0.35 0.17 0.28 0.21 0.14 0.13 0.07 0.11 0.14 0.21 0.13 0.06 0.12 0.14 0.20 0.16 0.18 0.21 0.26 0.25 0.15 0.18 0.13 0.06 0.00 0.00 0.00 0.00 0.03 0.10 0.14 0.22 0.23 0.08
0.52 0.73 1.04 1.11 1.60 2.68 3.08 2.12 0.89 1.19 0.84 0.26 0.13 0.07 0.08 0.11 0.09 0.10 0.06 0.16 0.43 0.23 0.06 0.10 0.15 0.24 0.19 0.21 0.23 0.23 0.27 0.18 0.19 0.13 0.05 0.07 0.02 0.00 0.00 0.02 0.07 0.08 0.12 0.16
0.56 0.62 0.92 1.04 1.31 1.77 1.87 1.73 1.40 1.41 0.92 0.22 0.10 0.09 0.12 0.12 0.19 0.17 0.11 0.09 0.22 0.24 0.20 0.30 0.27 0.17 0.19 0.18 0.20 0.21 0.23 0.23 0.26 0.19 0.17 0.08 0.01 0.00 0.00 0.03 0.04 0.04 0.06 0.11
0.61 0.57 0.82 1.03 1.04 1.29 1.52 1.43 1.43 2.25 1.61 0.52 0.10 0.15 0.16 0.22 0.24 0.32 0.21 0.34 0.31 0.32 0.52 0.53 0.36 0.25 0.14 0.14 0.15 0.15 0.28 0.27 0.35 0.23 0.21 0.12 0.02 0.00 0.00 0.01 0.06 0.01 0.01 0.07
0.60 0.56 0.70 0.87 0.76 0.89 1.29 1.36 1.29 2.42 2.46 0.64 0.26 0.29 0.31 0.38 0.37 0.38 0.40 0.55 0.46 0.52 0.59 0.52 0.24 0.19 0.14 0.19 0.23 0.21 0.23 0.26 0.27 0.23 0.23 0.07 0.01 0.01 0.01 0.08 0.15 0.01 0.00 0.01
0.67 0.65 0.58 0.75 0.69 0.79 1.20 1.15 1.26 2.01 2.03 0.67 0.47 0.29 0.23 0.25 0.33 0.57 0.55 0.88 0.83 0.61 0.46 0.23 0.16 0.14 0.11 0.10 0.22 0.28 0.24 0.24 0.24 0.27 0.26 0.08 0.02 0.06 0.14 0.19 0.05 0.02 0.01 0.01
0.67 0.69 0.68 0.78 0.87 0.99 1.21 1.28 1.05 1.49 2.10 1.13 0.47 0.25 0.15 0.07 0.06 0.19 0.43 0.63 0.66 0.69 0.47 0.24 0.20 0.17 0.14 0.10 0.16 0.29 0.48 0.30 0.19 0.11 0.07 0.08 0.09 0.11 0.10 0.04 0.11 0.10 0.27 0.24
0.60 0.57 0.64 0.87 1.12 1.14 1.32 1.28 1.01 2.37 2.49 1.59 0.68 0.32 0.10 0.04 0.04 0.09 0.39 0.18 0.50 0.78 0.53 0.63 0.38 0.28 0.17 0.09 0.07 0.18 0.26 0.30 0.50 0.37 0.21 0.13 0.24 0.22 0.05 0.01 0.02 0.03 0.10 0.56
0.63 0.69 0.76 1.03 1.26 1.18 1.64 1.71 1.37 2.63 1.76 1.70 1.03 0.50 0.18 0.13 0.08 0.15 0.18 0.14 0.25 0.49 0.58 0.72 0.58 0.34 0.26 0.22 0.11 0.23 0.32 0.52 0.31 0.40 0.45 0.31 0.36 0.62 0.34 0.13 0.08 0.06 0.03 0.05
0.57 0.65 0.90 1.27 1.41 1.51 2.23 2.03 1.79 1.78 1.42 1.31 1.23 0.33 0.29 0.21 0.18 0.15 0.31 0.34 0.37 0.65 0.66 0.55 0.29 0.27 0.49 0.47 0.29 0.28 0.29 0.77 0.73 0.51 0.81 0.91 0.86 0.45 0.38 0.47 0.31 0.10 0.05 0.04
0.48 0.71 1.02 1.15 1.37 2.32 3.57 4.63 2.87 1.56 1.37 1.49 1.42 0.64 0.29 0.39 0.34 0.35 0.25 0.47 0.69 0.82 0.97 0.49 0.16 0.16 0.64 0.63 0.64 0.44 0.24 0.27 0.44 0.71 0.76 0.87 0.71 0.36 0.20 0.13 0.20 0.23 0.16 0.12
0.66 0.82 0.96 0.98 1.33 1.67 2.41 2.11 1.42 1.08 1.39 1.71 1.37 0.99 0.49 0.45 0.61 0.67 0.78 0.59 1.02 1.43 1.24 0.67 0.30 0.22 0.43 0.54 0.54 0.42 0.16 0.20 0.22 0.38 0.33 0.15 0.11 0.11 0.06 0.03 0.02 0.01 0.02 0.02
0.75 0.97 1.08 1.27 1.48 1.88 1.68 1.10 1.16 0.90 1.26 1.28 1.20 1.17 1.08 0.81 1.06 0.95 0.93 1.09 1.16 1.29 1.30 0.80 0.50 0.56 0.66 0.62 0.40 0.14 0.04 0.09 0.06 0.07 0.08 0.08 0.06 0.03 0.02 0.01 0.01 0.01 0.00 0.00
1.07 1.34 1.82 2.82 2.44 2.36 1.66 1.38 1.51 1.16 1.11 0.93 0.55 0.83 1.63 1.61 1.46 1.06 0.88 1.29 1.38 1.03 0.79 0.64 0.74 1.01 1.03 0.64 0.16 0.10 0.05 0.01 0.01 0.00 0.00 0.01 0.02 0.02 0.01 0.00 0.01 0.01 0.01 0.05
1.28 1.90 2.70 2.83 1.87 1.64 1.86 2.59 2.64 2.19 1.12 0.76 0.53 0.45 0.99 1.69 1.80 1.38 1.09 0.90 0.88 0.86 0.68 0.78 1.04 0.82 0.42 0.17 0.16 0.13 0.09 0.08 0.05 0.03 0.03 0.02 0.03 0.02 0.02 0.02 0.04 0.05 0.09 0.11
1.23 1.55 2.08 1.67 1.74 1.90 2.06 1.96 1.48 1.31 0.68 0.29 0.41 0.49 0.88 1.09 1.75 1.30 0.99 1.02 0.62 0.40 0.52 0.65 0.90 0.49 0.26 0.06 0.05 0.07 0.11 0.10 0.13 0.17 0.19 0.19 0.18 0.14 0.09 0.12 0.15 0.15 0.14 0.17
0.77 1.28 1.36 1.85 1.95 1.58 1.21 0.92 0.70 0.51 0.30 0.24 0.37 0.63 1.13 0.98 1.37 1.22 1.09 0.95 0.68 0.47 0.36 0.41 0.55 0.41 0.19 0.13 0.11 0.10 0.14 0.19 0.23 0.21 0.21 0.25 0.24 0.24 0.21 0.20 0.19 0.20 0.23 0.28
0.96 0.68 0.94 1.06 0.93 0.83 0.68 0.48 0.46 0.42 0.25 0.27 0.35 0.72 1.37 1.02 1.31 1.08 0.73 1.21 0.84 0.51 0.56 0.50 0.39 0.20 0.14 0.15 0.19 0.22 0.24 0.24 0.26 0.29 0.31 0.28 0.28 0.26 0.24 0.26 0.35 0.37 0.49 0.73
0.62 0.62 0.58 0.80 0.60 0.57 0.51 0.48 0.44 0.25 0.16 0.21 0.50 0.84 1.08 1.15 1.36 1.02 0.61 0.91 0.88 0.71 0.57 0.41 0.39 0.34 0.31 0.28 0.29 0.26 0.35 0.37 0.38 0.46 0.47 0.52 0.56 0.69 0.80 0.87 0.98 0.81 0.91 1.14
0.47 0.59 0.70 0.57 0.69 0.61 0.63 0.54 0.39 0.30 0.30 0.36 0.61 0.90 0.80 0.81 1.39 0.78 0.57 0.56 0.53 0.39 0.37 0.46 0.59 0.55 0.51 0.53 0.58 0.62 0.71 0.77 0.85 0.94 0.88 0.96 0.92 0.75 0.91 1.00 0.93 0.76 0.75 0.74
0.57 0.77 0.71 0.59 0.58 0.60 0.57 0.49 0.42 0.41 0.50 0.54 0.86 0.91 0.65 0.58 0.44 0.40 0.41 0.39 0.43 0.51 0.52 0.62 0.62 0.69 0.82 0.88 0.92 1.00 1.01 0.96 0.95 0.94 0.81 0.76 0.70 0.61 0.64 0.63 0.56 0.55 0.44 0.43
0.63 0.91 1.00 0.86 0.71 0.77 0.80 0.70 0.58 0.53 0.54 0.67 0.57 0.55 0.57 0.47 0.24 0.23 0.32 0.59 0.81 0.86 0.88 0.84 0.83 0.91 1.01 1.01 0.94 0.92 0.77 0.67 0.64 0.58 0.51 0.49 0.46 0.30 0.18 0.22 0.29 0.20 0.17 0.15

GFSNW_prec_precacc_075.txt.gz
Total_Precipitation_Accumulation
0.37 0.42 0.42 0.38 0.45 0.64 1.10 1.70 1.16 0.28 0.34 0.88 0.62 0.21 0.02 0.00 0.00 0.00 0.00 0.00 0.00 0.00 0.00 0.00 0.00 0.00 0.02 0.02 0.03 0.05 0.01 0.01 0.01 0.00 0.00 0.00 0.02 0.05 0.15 0.40 0.24 0.09 0.08 0.30
0.61 0.59 0.65 0.55 0.57 0.91 1.46 2.11 1.05 0.83 0.78 1.00 0.32 0.11 0.05 0.01 0.00 0.00 0.01 0.00 0.00 0.00 0.00 0.02 0.01 0.01 0.01 0.01 0.02 0.03 0.02 0.07 0.06 0.03 0.05 0.02 0.02 0.07 0.14 0.25 0.35 0.28 0.22 0.14
0.82 0.88 0.85 0.83 0.82 1.14 1.92 2.62 1.80 1.86 1.22 0.31 0.36 0.47 0.24 0.06 0.05 0.07 0.08 0.01 0.01 0.03 0.06 0.02 0.02 0.02 0.03 0.04 0.04 0.02 0.03 0.02 0.03 0.04 0.09 0.10 0.06 0.04 0.10 0.38 0.59 0.31 0.18 0.10
0.79 0.89 1.11 1.13 1.18 1.48 2.99 3.77 1.48 0.80 0.88 0.41 0.21 0.29 0.31 0.18 0.21 0.16 0.08 0.16 0.20 0.16 0.12 0.09 0.05 0.05 0.06 0.10 0.07 0.07 0.10 0.09 0.04 0.00 0.00 0.03 0.08 0.08 0.07 0.16 0.23 0.32 0.10 0.13
0.77 0.99 1.03 1.22 1.48 2.13 4.15 3.63 0.92 0.29 0.16 0.19 0.28 0.35 0.19 0.10 0.13 0.14 0.20 0.27 0.09 0.07 0.11 0.10 0.14 0.16 0.17 0.22 0.21 0.14 0.14 0.13 0.02 0.00 0.00 0.00 0.01 0.01 0.11 0.13 0.08 0.09 0.06 0.12
0.61 0.94 1.07 1.18 1.60 3.09 5.02 2.91 0.71 0.59 0.36 0.17 0.28 0.21 0.14 0.13 0.07 0.11 0.14 0.21 0.13 0.06 0.13 0.16 0.21 0.16 0.19 0.23 0.30 0.34 0.21 0.21 0.14 0.06 0.00 0.00 0.00 0.00 0.03 0.10 0.14 0.23 0.23 0.08
0.52 0.73 1.04 1.12 1.61 2.68 3.08 2.12 0.91 1.22 0.85 0.26 0.13 0.07 0.08 0.11 0.09 0.10 0.06 0.16 0.43 0.24 0.07 0.10 0.16 0.24 0.19 0.21 0.23 0.25 0.31 0.20 0.19 0.13 0.05 0.07 0.02 0.00 0.00 0.03 0.07 0.08 0.12 0.16
0.56 0.62 0.92 1.04 1.33 1.77 1.87 1.73 1.40 1.41 0.92 0.22 0.10 0.09 0.12 0.12 0.19 0.17 0.11 0.09 0.22 0.24 0.20 0.31 0.28 0.18 0.21 0.18 0.20 0.21 0.24 0.25 0.26 0.19 0.17 0.08 0.01 0.00 0.00 0.03 0.04 0.04 0.06 0.12
0.62 0.58 0.82 1.04 1.05 1.31 1.52 1.43 1.43 2.25 1.61 0.52 0.10 0.15 0.16 0.22 0.24 0.32 0.21 0.34 0.31 0.32 0.56 0.63 0.46 0.26 0.14 0.14 0.16 0.15 0.28 0.27 0.35 0.23 0.21 0.12 0.02 0.00 0.00 0.01 0.06 0.01 0.01 0.07
0.61 0.57 0.71 0.89 0.78 0.92 1.29 1.36 1.29 2.43 2.46 0.64 0.26 0.29 0.31 0.38 0.37 0.38 0.40 0.55 0.46 0.53 0.75 0.82 0.52 0.21 0.16 0.19 0.25 0.22 0.23 0.26 0.27 0.23 0.23 0.07 0.01 0.01 0.01 0.08 0.15 0.01 0.00 0.01
0.67 0.65 0.58 0.76 0.70 0.82 1.20 1.15 1.26 2.01 2.03 0.67 0.47 0.29 0.23 0.25 0.33 0.57 0.55 0.88 0.83 0.62 0.55 0.32 0.24 0.15 0.13 0.11 0.22 0.29 0.25 0.24 0.24 0.27 0.26 0.08 0.02 0.06 0.14 0.20 0.06 0.02 0.01 0.01
0.67 0.69 0.68 0.78 0.87 1.01 1.23 1.28 1.05 1.49 2.10 1.13 0.47 0.25 0.15 0.07 0.06 0.19 0.43 0.63 0.67 0.72 0.51 0.28 0.23 0.19 0.15 0.11 0.17 0.31 0.49 0.30 0.19 0.11 0.07 0.08 0.09 0.11 0.10 0.05 0.12 0.11 0.28 0.30
0.60 0.57 0.65 0.88 1.14 1.16 1.35 1.30 1.01 2.40 2.55 1.60 0.68 0.32 0.10 0.04 0.04 0.09 0.39 0.18 0.50 0.81 0.58 0.70 0.43 0.30 0.18 0.09 0.07 0.18 0.27 0.31 0.58 0.56 0.34 0.14 0.24 0.22 0.06 0.03 0.04 0.05 0.10 0.57
0.63 0.69 0.76 1.03 1.27 1.22 1.69 1.72 1.38 2.64 1.79 1.70 1.03 0.50 0.18 0.13 0.08 0.15 0.18 0.14 0.25 0.50 0.60 0.77 0.64 0.35 0.27 0.22 0.11 0.24 0.32 0.56 0.42 0.57 0.57 0.35 0.39 0.64 0.37 0.17 0.13 0.13 0.10 0.09
0.57 0.65 0.90 1.27 1.41 1.52 2.29 2.18 1.91 1.78 1.44 1.32 1.23 0.33 0.29 0.21 0.18 0.15 0.31 0.34 0.37 0.65 0.66 0.57 0.30 0.28 0.50 0.48 0.31 0.30 0.34 0.86 0.78 0.57 0.87 0.95 0.93 0.52 0.44 0.52 0.38 0.21 0.10 0.08
0.49 0.71 1.03 1.17 1.41 2.46 4.00 5.05 3.08 1.67 1.44 1.63 1.46 0.64 0.29 0.39 0.34 0.35 0.25 0.47 0.69 0.82 0.98 0.51 0.16 0.16 0.65 0.64 0.67 0.48 0.39 0.37 0.50 0.78 0.84 0.93 0.77 0.41 0.25 0.16 0.23 0.26 0.18 0.15
0.66 0.82 0.98 1.00 1.38 1.85 2.82 2.41 1.48 1.16 1.53 1.90 1.42 0.99 0.49 0.45 0.61 0.67 0.78 0.59 1.02 1.43 1.24 0.67 0.30 0.22 0.46 0.59 0.60 0.51 0.29 0.33 0.32 0.48 0.43 0.23 0.17 0.14 0.08 0.04 0.02 0.02 0.02 0.03
0.77 1.05 1.21 1.35 1.56 2.00 1.81 1.13 1.18 0.97 1.39 1.32 1.20 1.17 1.08 0.81 1.06 0.95 0.93 1.09 1.16 1.29 1.30 0.80 0.50 0.56 0.68 0.69 0.51 0.28 0.12 0.16 0.13 0.12 0.11 0.10 0.07 0.03 0.02 0.01 0.01 0.01 0.00 0.00
1.20 1.50 1.93 2.88 2.46 2.39 1.68 1.41 1.56 1.19 1.12 0.93 0.55 0.83 1.63 1.61 1.46 1.06 0.90 1.30 1.38 1.03 0.80 0.64 0.75 1.01 1.04 0.66 0.20 0.16 0.08 0.03 0.03 0.00 0.00 0.01 0.02 0.02 0.01 0.00 0.01 0.01 0.01 0.05
1.51 1.97 2.71 2.85 1.89 1.64 1.87 2.62 2.65 2.19 1.12 0.76 0.53 0.45 0.99 1.70 1.82 1.41 1.11 0.92 0.88 0.86 0.68 0.78 1.05 0.83 0.43 0.17 0.16 0.14 0.09 0.08 0.05 0.03 0.03 0.03 0.03 0.02 0.02 0.03 0.04 0.05 0.09 0.11
1.28 1.57 2.10 1.70 1.75 1.90 2.06 1.97 1.48 1.31 0.68 0.29 0.41 0.49 0.88 1.09 1.76 1.34 0.99 1.03 0.62 0.40 0.53 0.67 0.92 0.49 0.27 0.07 0.05 0.07 0.11 0.10 0.13 0.17 0.19 0.19 0.18 0.14 0.09 0.13 0.15 0.15 0.14 0.18
0.78 1.28 1.39 1.88 1.95 1.58 1.21 0.93 0.71 0.52 0.30 0.24 0.37 0.64 1.14 0.99 1.38 1.32 1.16 1.02 0.73 0.53 0.38 0.44 0.55 0.41 0.20 0.14 0.11 0.10 0.14 0.19 0.23 0.21 0.21 0.25 0.24 0.24 0.21 0.20 0.19 0.20 0.24 0.29
0.96 0.68 0.94 1.06 0.93 0.84 0.69 0.49 0.47 0.42 0.25 0.27 0.38 0.79 1.39 1.04 1.40 1.28 0.82 1.25 0.86 0.55 0.59 0.51 0.39 0.21 0.15 0.16 0.19 0.23 0.24 0.24 0.26 0.29 0.31 0.28 0.28 0.26 0.24 0.26 0.35 0.37 0.50 0.74
0.62 0.62 0.58 0.80 0.60 0.57 0.51 0.48 0.44 0.25 0.16 0.22 0.59 0.86 1.11 1.17 1.38 1.04 0.61 0.93 0.90 0.72 0.58 0.41 0.40 0.35 0.31 0.28 0.29 0.26 0.35 0.37 0.38 0.46 0.47 0.52 0.57 0.69 0.80 0.87 0.98 0.81 0.92 1.14
0.47 0.59 0.70 0.57 0.69 0.61 0.64 0.54 0.39 0.30 0.31 0.40 0.67 0.91 0.81 0.81 1.39 0.78 0.57 0.56 0.53 0.39 0.37 0.46 0.60 0.55 0.51 0.53 0.58 0.62 0.71 0.77 0.85 0.94 0.88 0.96 0.93 0.75 0.91 1.01 0.94 0.76 0.75 0.74
0.57 0.77 0.71 0.60 0.59 0.61 0.58 0.50 0.42 0.42 0.52 0.57 0.87 0.92 0.65 0.58 0.44 0.40 0.41 0.39 0.43 0.51 0.52 0.62 0.62 0.69 0.82 0.88 0.92 1.00 1.01 0.96 0.95 0.94 0.82 0.76 0.71 0.61 0.64 0.63 0.56 0.55 0.44 0.43
0.63 0.91 1.00 0.86 0.72 0.78 0.80 0.71 0.58 0.55 0.56 0.68 0.57 0.55 0.57 0.47 0.24 0.23 0.32 0.59 0.81 0.86 0.89 0.84 0.83 0.91 1.01 1.01 0.94 0.92 0.77 0.67 0.64 0.58 0.51 0.49 0.46 0.30 0.18 0.22 0.29 0.20 0.17 0.15

GFSNW_prec_precacc_078.txt.gz
Total_Precipitation_Accumulation
0.38 0.43 0.42 0.38 0.45 0.64 1.10 1.70 1.16 0.28 0.34 0.88 0.62 0.21 0.02 0.00 0.00 0.00 0.00 0.00 0.00 0.00 0.00 0.00 0.00 0.00 0.03 0.02 0.03 0.07 0.03 0.03 0.01 0.00 0.00 0.00 0.03 0.07 0.17 0.42 0.26 0.13 0.14 0.36
0.62 0.59 0.66 0.55 0.57 0.91 1.46 2.11 1.05 0.83 0.78 1.00 0.32 0.11 0.05 0.01 0.00 0.00 0.01 0.00 0.00 0.01 0.00 0.03 0.01 0.01 0.01 0.01 0.03 0.05 0.04 0.11 0.09 0.06 0.08 0.04 0.05 0.09 0.16 0.28 0.38 0.31 0.29 0.21
0.82 0.89 0.85 0.83 0.82 1.14 1.92 2.62 1.80 1.86 1.22 0.31 0.36 0.47 0.24 0.06 0.05 0.08 0.09 0.02 0.04 0.05 0.07 0.03 0.02 0.02 0.03 0.05 0.06 0.08 0.07 0.03 0.05 0.10 0.12 0.12 0.07 0.05 0.10 0.39 0.61 0.34 0.22 0.15
0.79 0.89 1.11 1.13 1.18 1.48 2.99 3.77 1.48 0.80 0.88 0.41 0.21 0.29 0.31 0.18 0.21 0.16 0.08 0.21 0.25 0.20 0.15 0.12 0.07 0.06 0.06 0.10 0.08 0.17 0.24 0.13 0.05 0.01 0.02 0.03 0.08 0.08 0.07 0.16 0.23 0.32 0.10 0.13
0.78 1.00 1.03 1.22 1.48 2.13 4.15 3.63 0.92 0.29 0.16 0.19 0.28 0.35 0.19 0.10 0.13 0.14 0.20 0.27 0.10 0.07 0.13 0.13 0.19 0.21 0.21 0.25 0.24 0.24 0.37 0.24 0.04 0.01 0.01 0.01 0.01 0.01 0.11 0.13 0.08 0.09 0.06 0.12
0.62 0.94 1.08 1.18 1.60 3.09 5.02 2.91 0.71 0.59 0.36 0.17 0.28 0.21 0.14 0.13 0.07 0.11 0.14 0.21 0.13 0.06 0.17 0.18 0.22 0.17 0.20 0.24 0.32 0.43 0.40 0.44 0.17 0.07 0.00 0.00 0.00 0.00 0.03 0.10 0.14 0.23 0.23 0.08
0.53 0.74 1.05 1.13 1.62 2.68 3.08 2.12 0.91 1.22 0.85 0.26 0.13 0.07 0.08 0.11 0.09 0.10 0.06 0.16 0.43 0.24 0.07 0.10 0.16 0.24 0.19 0.21 0.24 0.31 0.47 0.34 0.22 0.13 0.05 0.07 0.02 0.00 0.00 0.03 0.07 0.08 0.12 0.18
0.57 0.62 0.93 1.05 1.34 1.77 1.87 1.73 1.40 1.41 0.92 0.22 0.10 0.09 0.12 0.12 0.19 0.17 0.11 0.09 0.22 0.24 0.20 0.32 0.29 0.22 0.23 0.19 0.21 0.23 0.28 0.33 0.30 0.19 0.17 0.08 0.01 0.00 0.00 0.03 0.04 0.04 0.07 0.12
0.62 0.58 0.83 1.04 1.06 1.31 1.52 1.43 1.43 2.25 1.61 0.52 0.10 0.15 0.16 0.22 0.24 0.32 0.21 0.34 0.31 0.32 0.56 0.66 0.50 0.30 0.16 0.14 0.17 0.16 0.28 0.30 0.39 0.24 0.21 0.12 0.02 0.00 0.00 0.01 0.06 0.01 0.01 0.07
0.62 0.57 0.72 0.89 0.79 0.93 1.29 1.36 1.29 2.43 2.47 0.64 0.26 0.29 0.31 0.38 0.37 0.38 0.40 0.55 0.46 0.53 0.76 0.88 0.77 0.36 0.18 0.21 0.27 0.25 0.24 0.28 0.29 0.24 0.24 0.07 0.01 0.01 0.01 0.08 0.15 0.01 0.00 0.01
0.67 0.65 0.59 0.76 0.72 0.83 1.20 1.15 1.26 2.01 2.03 0.67 0.47 0.29 0.23 0.25 0.34 0.57 0.55 0.88 0.83 0.62 0.57 0.38 0.47 0.32 0.15 0.15 0.26 0.33 0.29 0.27 0.25 0.28 0.26 0.08 0.02 0.06 0.14 0.20 0.06 0.02 0.01 0.01
0.68 0.69 0.68 0.78 0.88 1.02 1.23 1.29 1.05 1.50 2.10 1.13 0.47 0.25 0.15 0.07 0.06 0.19 0.43 0.63 0.67 0.73 0.55 0.30 0.27 0.25 0.16 0.13 0.22 0.36 0.52 0.33 0.23 0.12 0.08 0.08 0.09 0.11 0.10 0.06 0.12 0.11 0.28 0.30
0.61 0.57 0.65 0.89 1.15 1.19 1.37 1.30 1.01 2.41 2.57 1.61 0.68 0.32 0.10 0.04 0.04 0.09 0.39 0.18 0.51 0.83 0.62 0.74 0.47 0.34 0.19 0.12 0.11 0.22 0.29 0.32 0.59 0.59 0.43 0.19 0.25 0.22 0.06 0.04 0.05 0.05 0.12 0.58
0.63 0.69 0.76 1.03 1.28 1.25 1.74 1.73 1.38 2.65 1.81 1.70 1.03 0.50 0.18 0.13 0.08 0.15 0.18 0.14 0.26 0.51 0.61 0.78 0.66 0.36 0.28 0.23 0.13 0.25 0.33 0.56 0.43 0.71 0.75 0.50 0.45 0.67 0.38 0.19 0.14 0.15 0.16 0.15
0.57 0.65 0.90 1.28 1.41 1.53 2.34 2.22 1.95 1.78 1.45 1.33 1.23 0.33 0.29 0.21 0.18 0.15 0.31 0.34 0.37 0.65 0.66 0.59 0.31 0.28 0.52 0.50 0.34 0.32 0.35 0.88 0.81 0.68 0.94 1.03 0.97 0.55 0.46 0.54 0.40 0.26 0.13 0.10
0.49 0.72 1.03 1.18 1.42 2.49 4.08 5.13 3.13 1.70 1.49 1.75 1.50 0.64 0.29 0.39 0.34 0.35 0.25 0.47 0.69 0.82 0.99 0.52 0.17 0.17 0.67 0.66 0.70 0.50 0.42 0.42 0.57 0.83 0.89 0.95 0.79 0.43 0.27 0.18 0.25 0.27 0.19 0.15
0.66 0.82 0.98 1.01 1.41 2.01 3.06 2.51 1.50 1.20 1.63 2.16 1.54 1.01 0.49 0.45 0.61 0.67 0.78 0.59 1.02 1.43 1.25 0.68 0.31 0.22 0.47 0.62 0.65 0.54 0.38 0.43 0.39 0.55 0.47 0.26 0.19 0.16 0.09 0.04 0.03 0.02 0.02 0.03
0.77 1.05 1.22 1.39 1.63 2.12 1.96 1.24 1.27 1.06 1.62 1.49 1.25 1.17 1.08 0.82 1.07 0.96 0.93 1.10 1.17 1.30 1.31 0.81 0.50 0.57 0.70 0.73 0.58 0.33 0.22 0.30 0.22 0.20 0.15 0.12 0.08 0.04 0.02 0.01 0.01 0.01 0.00 0.00
1.23 1.56 2.02 2.98 2.55 2.46 1.71 1.47 1.62 1.22 1.16 0.94 0.56 0.83 1.63 1.61 1.48 1.08 0.90 1.31 1.39 1.04 0.81 0.64 0.75 1.01 1.05 0.69 0.27 0.24 0.16 0.10 0.09 0.03 0.01 0.01 0.02 0.02 0.01 0.00 0.01 0.01 0.01 0.05
1.66 2.03 2.77 2.93 1.95 1.66 1.89 2.64 2.66 2.20 1.12 0.76 0.53 0.45 0.99 1.70 1.82 1.42 1.13 0.94 0.89 0.87 0.68 0.79 1.06 0.83 0.43 0.18 0.17 0.16 0.11 0.09 0.06 0.04 0.04 0.03 0.03 0.02 0.02 0.03 0.04 0.05 0.09 0.11
1.36 1.63 2.16 1.73 1.77 1.90 2.07 1.97 1.48 1.31 0.68 0.29 0.41 0.49 0.88 1.10 1.76 1.37 1.00 1.04 0.62 0.40 0.53 0.67 0.93 0.50 0.28 0.08 0.05 0.07 0.12 0.10 0.13 0.17 0.20 0.19 0.18 0.14 0.09 0.13 0.15 0.15 0.14 0.18
0.81 1.30 1.43 1.91 1.96 1.58 1.21 0.93 0.71 0.52 0.30 0.24 0.37 0.64 1.14 0.99 1.38 1.34 1.18 1.03 0.76 0.56 0.40 0.45 0.56 0.42 0.21 0.14 0.12 0.10 0.14 0.19 0.23 0.21 0.21 0.25 0.25 0.24 0.21 0.20 0.20 0.21 0.24 0.29
0.98 0.69 0.96 1.07 0.93 0.84 0.69 0.49 0.47 0.43 0.25 0.27 0.39 0.81 1.39 1.05 1.42 1.37 0.92 1.30 0.92 0.58 0.63 0.52 0.39 0.21 0.15 0.16 0.19 0.23 0.25 0.24 0.26 0.30 0.31 0.28 0.28 0.27 0.24 0.26 0.36 0.38 0.50 0.74
0.63 0.63 0.58 0.80 0.60 0.57 0.51 0.48 0.44 0.25 0.16 0.23 0.68 0.90 1.14 1.19 1.44 1.13 0.69 0.97 0.94 0.74 0.59 0.41 0.40 0.35 0.31 0.28 0.29 0.26 0.35 0.38 0.39 0.46 0.47 0.53 0.57 0.69 0.81 0.88 0.99 0.82 0.92 1.14
0.47 0.59 0.70 0.57 0.69 0.61 0.64 0.54 0.39 0.30 0.31 0.43 0.79 0.94 0.86 0.83 1.41 0.80 0.58 0.57 0.55 0.40 0.38 0.46 0.60 0.56 0.51 0.53 0.58 0.62 0.71 0.77 0.85 0.94 0.88 0.97 0.93 0.76 0.92 1.01 0.94 0.76 0.75 0.74
0.57 0.77 0.71 0.60 0.59 0.61 0.58 0.50 0.43 0.42 0.53 0.59 0.91 0.93 0.65 0.58 0.44 0.40 0.41 0.39 0.43 0.51 0.52 0.62 0.63 0.69 0.82 0.88 0.92 1.00 1.01 0.97 0.95 0.94 0.82 0.77 0.71 0.62 0.65 0.63 0.56 0.55 0.44 0.43
0.63 0.91 1.01 0.86 0.72 0.78 0.81 0.71 0.59 0.55 0.57 0.68 0.57 0.55 0.57 0.47 0.24 0.23 0.32 0.59 0.81 0.86 0.89 0.84 0.83 0.91 1.01 1.01 0.94 0.92 0.77 0.67 0.64 0.59 0.52 0.49 0.46 0.30 0.18 0.22 0.29 0.20 0.17 0.15

GFSNW_prec_precacc_081.txt.gz
Total_Precipitation_Accumulation
0.38 0.43 0.42 0.38 0.45 0.64 1.10 1.70 1.16 0.28 0.34 0.88 0.62 0.21 0.02 0.00 0.00 0.00 0.00 0.00 0.00 0.00 0.00 0.00 0.00 0.00 0.03 0.02 0.04 0.10 0.10 0.08 0.03 0.01 0.00 0.00 0.03 0.09 0.23 0.46 0.31 0.17 0.17 0.41
0.62 0.59 0.66 0.55 0.57 0.91 1.46 2.11 1.05 0.83 0.78 1.00 0.32 0.11 0.05 0.01 0.00 0.00 0.01 0.00 0.01 0.01 0.00 0.03 0.01 0.01 0.01 0.01 0.04 0.08 0.06 0.16 0.15 0.08 0.10 0.05 0.05 0.10 0.19 0.31 0.40 0.33 0.33 0.32
0.83 0.89 0.85 0.83 0.82 1.14 1.92 2.62 1.80 1.86 1.22 0.31 0.36 0.47 0.24 0.06 0.05 0.09 0.09 0.03 0.04 0.05 0.07 0.05 0.04 0.02 0.03 0.05 0.06 0.10 0.12 0.07 0.09 0.11 0.16 0.18 0.12 0.09 0.14 0.42 0.62 0.36 0.24 0.15
0.79 0.89 1.11 1.13 1.18 1.48 2.99 3.77 1.48 0.80 0.88 0.41 0.21 0.29 0.31 0.18 0.21 0.16 0.08 0.21 0.25 0.20 0.15 0.12 0.10 0.10 0.09 0.10 0.09 0.20 0.29 0.19 0.08 0.03 0.02 0.04 0.11 0.12 0.09 0.18 0.23 0.32 0.10 0.13
0.78 1.00 1.03 1.22 1.48 2.13 4.15 3.63 0.92 0.29 0.16 0.19 0.28 0.35 0.19 0.10 0.13 0.14 0.20 0.27 0.10 0.07 0.13 0.14 0.21 0.24 0.25 0.29 0.30 0.32 0.42 0.30 0.09 0.06 0.02 0.02 0.03 0.02 0.11 0.13 0.08 0.09 0.06 0.12
0.62 0.94 1.08 1.18 1.60 3.09 5.02 2.91 0.71 0.59 0.36 0.17 0.28 0.21 0.14 0.13 0.07 0.11 0.14 0.21 0.13 0.07 0.17 0.18 0.22 0.17 0.20 0.25 0.35 0.47 0.45 0.55 0.38 0.17 0.03 0.01 0.01 0.00 0.03 0.10 0.14 0.23 0.24 0.09
0.53 0.74 1.05 1.13 1.62 2.68 3.08 2.12 0.91 1.22 0.85 0.26 0.13 0.07 0.08 0.11 0.09 0.10 0.06 0.16 0.43 0.24 0.07 0.10 0.16 0.25 0.20 0.22 0.24 0.34 0.55 0.46 0.49 0.32 0.07 0.08 0.02 0.00 0.00 0.03 0.08 0.08 0.12 0.19
0.57 0.63 0.93 1.05 1.34 1.77 1.87 1.73 1.40 1.42 0.92 0.22 0.10 0.09 0.12 0.12 0.19 0.17 0.11 0.09 0.22 0.24 0.20 0.32 0.29 0.23 0.28 0.21 0.21 0.24 0.31 0.45 0.49 0.30 0.19 0.08 0.01 0.00 0.00 0.04 0.07 0.04 0.07 0.12
0.63 0.58 0.83 1.04 1.06 1.31 1.53 1.43 1.43 2.25 1.62 0.52 0.10 0.15 0.16 0.22 0.24 0.33 0.21 0.34 0.31 0.32 0.57 0.67 0.52 0.34 0.20 0.16 0.18 0.17 0.30 0.35 0.59 0.33 0.23 0.12 0.07 0.00 0.00 0.01 0.07 0.01 0.01 0.07
0.63 0.57 0.72 0.89 0.79 0.93 1.30 1.37 1.29 2.43 2.47 0.64 0.26 0.29 0.31 0.38 0.37 0.39 0.40 0.55 0.46 0.54 0.78 0.91 0.84 0.49 0.20 0.23 0.28 0.29 0.26 0.30 0.34 0.30 0.26 0.08 0.01 0.01 0.01 0.08 0.16 0.01 0.00 0.01
0.69 0.65 0.59 0.76 0.73 0.84 1.21 1.17 1.26 2.02 2.04 0.68 0.47 0.29 0.23 0.25 0.34 0.58 0.56 0.89 0.85 0.63 0.61 0.41 0.55 0.63 0.24 0.21 0.29 0.37 0.33 0.31 0.28 0.31 0.29 0.10 0.02 0.06 0.14 0.20 0.06 0.02 0.01 0.01
0.69 0.69 0.69 0.78 0.89 1.03 1.24 1.31 1.06 1.50 2.11 1.14 0.47 0.25 0.15 0.07 0.06 0.19 0.44 0.64 0.67 0.74 0.58 0.33 0.32 0.36 0.22 0.19 0.31 0.42 0.58 0.38 0.31 0.20 0.14 0.08 0.09 0.11 0.10 0.06 0.12 0.11 0.28 0.30
0.62 0.58 0.65 0.89 1.15 1.20 1.37 1.32 1.02 2.42 2.58 1.61 0.68 0.32 0.10 0.04 0.04 0.09 0.39 0.19 0.52 0.86 0.66 0.77 0.49 0.40 0.23 0.17 0.20 0.31 0.34 0.32 0.60 0.60 0.43 0.19 0.26 0.22 0.06 0.04 0.05 0.05 0.12 0.58
0.64 0.70 0.76 1.03 1.29 1.27 1.75 1.76 1.39 2.65 1.82 1.71 1.03 0.50 0.18 0.13 0.08 0.15 0.18 0.14 0.26 0.51 0.62 0.80 0.68 0.40 0.31 0.26 0.16 0.28 0.34 0.57 0.43 0.73 0.77 0.53 0.48 0.70 0.39 0.19 0.14 0.16 0.18 0.16
0.59 0.66 0.90 1.28 1.41 1.55 2.38 2.27 1.97 1.79 1.45 1.34 1.23 0.33 0.29 0.21 0.18 0.15 0.31 0.34 0.37 0.66 0.67 0.60 0.33 0.31 0.56 0.53 0.39 0.34 0.35 0.88 0.82 0.72 0.96 1.09 1.06 0.60 0.48 0.55 0.41 0.29 0.16 0.12
0.50 0.72 1.03 1.18 1.43 2.51 4.14 5.18 3.14 1.70 1.50 1.79 1.52 0.64 0.29 0.39 0.34 0.35 0.25 0.47 0.70 0.82 0.99 0.53 0.19 0.20 0.69 0.67 0.78 0.52 0.42 0.43 0.59 0.86 0.94 1.00 0.83 0.47 0.28 0.19 0.25 0.28 0.20 0.16
0.66 0.82 0.98 1.02 1.42 2.05 3.08 2.53 1.51 1.21 1.67 2.32 1.61 1.02 0.49 0.45 0.61 0.69 0.79 0.59 1.02 1.44 1.26 0.69 0.31 0.23 0.48 0.65 0.71 0.57 0.39 0.46 0.45 0.60 0.51 0.29 0.21 0.17 0.10 0.04 0.03 0.02 0.02 0.03
0.77 1.05 1.22 1.40 1.68 2.20 2.02 1.25 1.30 1.16 1.80 1.63 1.33 1.19 1.09 0.82 1.09 0.99 0.94 1.11 1.18 1.32 1.33 0.83 0.52 0.58 0.73 0.76 0.59 0.35 0.25 0.36 0.28 0.25 0.17 0.13 0.09 0.04 0.02 0.01 0.01 0.01 0.00 0.00
1.24 1.57 2.06 3.03 2.63 2.50 1.73 1.50 1.69 1.34 1.28 1.01 0.57 0.85 1.67 1.62 1.52 1.14 0.93 1.34 1.41 1.05 0.83 0.65 0.76 1.02 1.06 0.70 0.30 0.27 0.21 0.19 0.18 0.08 0.02 0.01 0.02 0.02 0.01 0.00 0.01 0.01 0.01 0.05
1.69 2.11 2.89 3.04 2.00 1.69 1.92 2.69 2.71 2.26 1.16 0.78 0.53 0.45 1.02 1.71 1.84 1.43 1.16 0.97 0.91 0.89 0.69 0.80 1.07 0.84 0.44 0.18 0.18 0.16 0.12 0.12 0.09 0.05 0.04 0.03 0.03 0.02 0.02 0.03 0.04 0.05 0.09 0.11
1.45 1.74 2.23 1.76 1.79 1.93 2.09 1.98 1.50 1.33 0.69 0.29 0.41 0.49 0.89 1.11 1.79 1.40 1.02 1.07 0.64 0.41 0.54 0.68 0.95 0.52 0.28 0.08 0.05 0.07 0.12 0.10 0.13 0.17 0.20 0.19 0.18 0.14 0.09 0.13 0.15 0.15 0.14 0.18
0.88 1.31 1.47 1.96 1.98 1.59 1.22 0.93 0.72 0.52 0.30 0.24 0.37 0.64 1.15 1.01 1.41 1.39 1.21 1.05 0.77 0.58 0.43 0.46 0.59 0.43 0.21 0.14 0.12 0.10 0.14 0.19 0.23 0.21 0.21 0.25 0.25 0.24 0.21 0.21 0.20 0.21 0.24 0.29
1.05 0.73 0.99 1.08 0.94 0.85 0.69 0.49 0.47 0.43 0.26 0.28 0.40 0.81 1.40 1.06 1.43 1.38 0.95 1.31 0.97 0.60 0.67 0.55 0.40 0.22 0.15 0.16 0.19 0.23 0.25 0.24 0.26 0.30 0.32 0.29 0.29 0.27 0.24 0.26 0.36 0.38 0.50 0.75
0.67 0.64 0.59 0.81 0.60 0.57 0.51 0.48 0.45 0.26 0.17 0.24 0.70 0.92 1.15 1.21 1.46 1.17 0.79 1.03 0.98 0.78 0.62 0.42 0.40 0.35 0.32 0.29 0.29 0.26 0.35 0.38 0.39 0.47 0.47 0.53 0.57 0.70 0.81 0.88 0.99 0.82 0.92 1.14
0.48 0.59 0.70 0.57 0.69 0.61 0.64 0.55 0.40 0.31 0.32 0.44 0.82 0.97 0.89 0.86 1.47 0.86 0.65 0.62 0.61 0.43 0.40 0.47 0.61 0.56 0.51 0.53 0.58 0.62 0.71 0.77 0.86 0.94 0.89 0.97 0.93 0.76 0.92 1.02 0.94 0.76 0.75 0.74
0.57 0.77 0.71 0.60 0.59 0.61 0.58 0.51 0.43 0.42 0.54 0.62 0.96 0.99 0.69 0.61 0.45 0.41 0.41 0.39 0.44 0.52 0.53 0.63 0.63 0.70 0.82 0.88 0.93 1.00 1.02 0.97 0.95 0.94 0.82 0.77 0.71 0.62 0.65 0.63 0.56 0.55 0.44 0.43
0.63 0.91 1.01 0.87 0.72 0.78 0.81 0.71 0.59 0.55 0.58 0.71 0.59 0.56 0.58 0.48 0.24 0.23 0.32 0.59 0.82 0.86 0.89 0.85 0.84 0.91 1.02 1.02 0.94 0.92 0.78 0.67 0.65 0.59 0.52 0.49 0.46 0.30 0.18 0.22 0.29 0.20 0.17 0.15

GFSNW_prec_precacc_084.txt.gz
Total_Precipitation_Accumulation
0.38 0.43 0.42 0.38 0.45 0.64 1.10 1.70 1.16 0.28 0.34 0.88 0.62 0.21 0.02 0.00 0.00 0.00 0.00 0.00 0.00 0.00 0.00 0.00 0.00 0.00 0.03 0.02 0.04 0.10 0.14 0.12 0.05 0.01 0.00 0.00 0.04 0.09 0.24 0.51 0.33 0.20 0.21 0.44
0.62 0.59 0.66 0.55 0.57 0.91 1.46 2.11 1.05 0.83 0.78 1.00 0.32 0.11 0.05 0.01 0.00 0.00 0.01 0.00 0.01 0.01 0.00 0.03 0.01 0.01 0.01 0.01 0.04 0.10 0.07 0.19 0.17 0.09 0.11 0.06 0.06 0.11 0.20 0.35 0.44 0.34 0.39 0.37
0.83 0.89 0.85 0.83 0.82 1.14 1.92 2.62 1.80 1.86 1.22 0.31 0.36 0.47 0.24 0.06 0.05 0.09 0.09 0.03 0.05 0.05 0.07 0.05 0.04 0.02 0.03 0.05 0.06 0.12 0.14 0.07 0.10 0.13 0.21 0.25 0.17 0.12 0.15 0.46 0.66 0.38 0.27 0.17
0.79 0.89 1.11 1.13 1.18 1.48 2.99 3.77 1.48 0.80 0.88 0.41 0.21 0.29 0.31 0.18 0.21 0.16 0.08 0.21 0.26 0.20 0.15 0.13 0.10 0.11 0.09 0.10 0.09 0.20 0.31 0.20 0.08 0.04 0.02 0.08 0.17 0.17 0.13 0.22 0.27 0.34 0.10 0.13
0.78 1.00 1.03 1.22 1.48 2.13 4.15 3.63 0.92 0.29 0.16 0.19 0.28 0.35 0.19 0.10 0.13 0.14 0.20 0.27 0.10 0.07 0.13 0.14 0.21 0.24 0.26 0.30 0.31 0.37 0.53 0.35 0.10 0.06 0.03 0.03 0.03 0.04 0.18 0.21 0.14 0.12 0.06 0.15
0.62 0.94 1.08 1.18 1.60 3.09 5.02 2.91 0.71 0.59 0.36 0.17 0.28 0.21 0.14 0.13 0.07 0.11 0.14 0.21 0.13 0.07 0.17 0.18 0.22 0.17 0.20 0.25 0.35 0.48 0.52 0.65 0.41 0.17 0.05 0.05 0.02 0.00 0.03 0.11 0.16 0.24 0.27 0.14
0.53 0.74 1.05 1.13 1.62 2.68 3.08 2.12 0.91 1.22 0.86 0.26 0.13 0.07 0.08 0.11 0.09 0.10 0.06 0.16 0.43 0.24 0.07 0.10 0.16 0.25 0.20 0.22 0.24 0.34 0.56 0.49 0.53 0.35 0.15 0.22 0.03 0.00 0.00 0.03 0.10 0.12 0.13 0.19
0.57 0.63 0.93 1.05 1.34 1.77 1.87 1.73 1.40 1.42 0.92 0.22 0.10 0.09 0.12 0.12 0.19 0.17 0.11 0.09 0.22 0.24 0.20 0.33 0.29 0.23 0.29 0.22 0.22 0.25 0.32 0.48 0.56 0.49 0.45 0.19 0.02 0.00 0.00 0.05 0.18 0.05 0.07 0.12
0.64 0.58 0.83 1.04 1.06 1.31 1.53 1.43 1.43 2.25 1.63 0.52 0.10 0.15 0.16 0.22 0.24 0.33 0.22 0.34 0.31 0.33 0.58 0.69 0.53 0.35 0.23 0.22 0.23 0.17 0.31 0.38 0.65 0.41 0.56 0.34 0.18 0.01 0.00 0.01 0.14 0.02 0.01 0.07
0.64 0.58 0.72 0.89 0.79 0.93 1.30 1.37 1.29 2.44 2.48 0.64 0.26 0.29 0.31 0.38 0.38 0.39 0.42 0.56 0.46 0.54 0.79 0.94 0.90 0.53 0.22 0.31 0.32 0.29 0.27 0.31 0.37 0.38 0.48 0.33 0.12 0.02 0.01 0.08 0.18 0.01 0.00 0.01
0.70 0.66 0.59 0.76 0.73 0.84 1.22 1.18 1.26 2.02 2.04 0.68 0.47 0.29 0.23 0.25 0.34 0.59 0.58 0.91 0.89 0.64 0.63 0.49 0.59 0.70 0.36 0.31 0.34 0.40 0.37 0.35 0.31 0.36 0.38 0.17 0.02 0.07 0.14 0.21 0.07 0.02 0.01 0.01
0.71 0.71 0.69 0.78 0.89 1.03 1.25 1.34 1.06 1.50 2.11 1.14 0.47 0.25 0.15 0.07 0.06 0.19 0.44 0.64 0.69 0.76 0.61 0.35 0.35 0.42 0.34 0.35 0.48 0.50 0.66 0.44 0.55 0.31 0.26 0.11 0.09 0.11 0.10 0.06 0.12 0.11 0.28 0.30
0.63 0.59 0.65 0.89 1.15 1.20 1.38 1.36 1.02 2.43 2.59 1.61 0.68 0.32 0.10 0.04 0.04 0.09 0.39 0.22 0.54 0.88 0.69 0.80 0.50 0.44 0.28 0.24 0.34 0.46 0.40 0.33 0.66 0.64 0.45 0.19 0.26 0.23 0.06 0.04 0.05 0.05 0.12 0.58
0.65 0.71 0.76 1.03 1.29 1.27 1.75 1.78 1.42 2.66 1.83 1.71 1.04 0.50 0.18 0.13 0.08 0.15 0.18 0.16 0.26 0.51 0.63 0.81 0.69 0.42 0.36 0.30 0.20 0.33 0.35 0.57 0.44 0.75 0.77 0.54 0.49 0.72 0.41 0.20 0.15 0.17 0.19 0.17
0.59 0.66 0.91 1.28 1.42 1.55 2.39 2.28 2.00 1.80 1.47 1.38 1.24 0.34 0.29 0.21 0.18 0.15 0.31 0.34 0.38 0.66 0.67 0.60 0.34 0.32 0.61 0.56 0.46 0.39 0.36 0.88 0.83 0.75 0.96 1.10 1.08 0.63 0.49 0.57 0.43 0.31 0.16 0.13
0.51 0.73 1.03 1.18 1.43 2.52 4.17 5.20 3.15 1.70 1.52 1.81 1.53 0.65 0.29 0.39 0.34 0.35 0.25 0.47 0.70 0.82 0.99 0.53 0.19 0.21 0.73 0.68 0.87 0.58 0.42 0.43 0.59 0.87 0.95 1.02 0.87 0.51 0.30 0.21 0.27 0.29 0.21 0.16
0.67 0.83 0.98 1.02 1.42 2.06 3.12 2.56 1.54 1.21 1.68 2.34 1.63 1.02 0.49 0.45 0.61 0.70 0.81 0.59 1.02 1.44 1.27 0.69 0.32 0.24 0.50 0.67 0.76 0.58 0.39 0.46 0.46 0.63 0.56 0.34 0.26 0.21 0.12 0.05 0.03 0.02 0.02 0.03
0.78 1.05 1.22 1.40 1.69 2.22 2.04 1.26 1.30 1.16 1.84 1.69 1.36 1.20 1.10 0.82 1.11 1.03 0.98 1.11 1.18 1.32 1.34 0.85 0.54 0.59 0.76 0.79 0.60 0.35 0.25 0.38 0.32 0.30 0.22 0.16 0.10 0.04 0.02 0.01 0.01 0.01 0.00 0.00
1.24 1.58 2.07 3.06 2.65 2.52 1.74 1.51 1.69 1.36 1.40 1.08 0.59 0.86 1.73 1.64 1.56 1.22 0.98 1.36 1.43 1.07 0.85 0.67 0.77 1.05 1.07 0.71 0.30 0.27 0.22 0.24 0.25 0.13 0.04 0.02 0.02 0.02 0.01 0.00 0.01 0.01 0.01 0.05
1.70 2.12 2.93 3.07 2.01 1.70 1.93 2.71 2.74 2.31 1.22 0.81 0.55 0.46 1.09 1.73 1.85 1.47 1.21 1.01 0.93 0.92 0.71 0.80 1.08 0.85 0.44 0.18 0.18 0.17 0.12 0.14 0.13 0.09 0.05 0.03 0.03 0.02 0.02 0.03 0.04 0.05 0.09 0.11
1.46 1.80 2.34 1.81 1.81 1.96 2.15 2.01 1.53 1.35 0.72 0.30 0.41 0.50 0.93 1.13 1.80 1.42 1.04 1.11 0.67 0.43 0.56 0.69 0.96 0.54 0.28 0.08 0.06 0.07 0.12 0.10 0.13 0.17 0.20 0.19 0.18 0.14 0.09 0.13 0.16 0.15 0.15 0.18
0.90 1.38 1.52 2.00 2.02 1.65 1.25 0.94 0.73 0.54 0.31 0.24 0.37 0.64 1.16 1.05 1.44 1.46 1.26 1.07 0.79 0.59 0.47 0.47 0.62 0.44 0.21 0.14 0.12 0.10 0.14 0.19 0.23 0.21 0.21 0.25 0.25 0.25 0.21 0.21 0.20 0.21 0.25 0.30
1.16 0.80 1.03 1.13 0.97 0.86 0.70 0.50 0.47 0.43 0.26 0.29 0.40 0.82 1.40 1.09 1.45 1.41 0.98 1.33 0.99 0.64 0.72 0.60 0.42 0.22 0.15 0.16 0.19 0.23 0.25 0.24 0.26 0.30 0.32 0.29 0.29 0.27 0.24 0.27 0.36 0.38 0.51 0.75
0.75 0.69 0.62 0.83 0.61 0.57 0.51 0.50 0.47 0.28 0.19 0.25 0.71 0.93 1.16 1.23 1.46 1.17 0.81 1.08 1.02 0.84 0.67 0.45 0.41 0.35 0.32 0.29 0.29 0.27 0.36 0.38 0.39 0.47 0.47 0.53 0.57 0.70 0.81 0.88 0.99 0.82 0.92 1.14
0.56 0.61 0.72 0.58 0.70 0.62 0.65 0.55 0.40 0.31 0.33 0.46 0.83 0.99 0.91 0.88 1.49 0.88 0.69 0.69 0.67 0.48 0.46 0.47 0.61 0.56 0.51 0.53 0.58 0.62 0.71 0.78 0.86 0.95 0.89 0.97 0.93 0.76 0.92 1.02 0.94 0.76 0.75 0.74
0.59 0.78 0.72 0.61 0.59 0.61 0.58 0.51 0.44 0.43 0.55 0.63 0.97 1.03 0.72 0.66 0.47 0.45 0.45 0.43 0.48 0.53 0.53 0.64 0.63 0.70 0.83 0.88 0.93 1.01 1.02 0.97 0.96 0.94 0.82 0.77 0.72 0.62 0.65 0.63 0.56 0.55 0.44 0.43
0.63 0.91 1.01 0.87 0.73 0.79 0.81 0.72 0.59 0.55 0.60 0.74 0.62 0.62 0.63 0.51 0.25 0.23 0.33 0.60 0.82 0.87 0.90 0.85 0.84 0.91 1.02 1.02 0.94 0.93 0.78 0.68 0.65 0.59 0.52 0.49 0.46 0.30 0.18 0.22 0.29 0.20 0.17 0.15

GFSNW_prec_precacc_087.txt.gz
Total_Precipitation_Accumulation
0.38 0.43 0.42 0.38 0.45 0.64 1.10 1.70 1.16 0.28 0.34 0.88 0.62 0.21 0.02 0.00 0.00 0.00 0.00 0.00 0.00 0.00 0.00 0.00 0.00 0.00 0.03 0.02 0.04 0.10 0.14 0.12 0.05 0.01 0.00 0.00 0.06 0.12 0.27 0.54 0.34 0.22 0.23 0.46
0.62 0.60 0.66 0.55 0.57 0.91 1.46 2.11 1.05 0.83 0.78 1.00 0.32 0.11 0.05 0.01 0.00 0.00 0.01 0.00 0.01 0.01 0.00 0.03 0.01 0.01 0.01 0.01 0.04 0.10 0.08 0.19 0.17 0.09 0.11 0.08 0.09 0.16 0.24 0.40 0.51 0.41 0.42 0.41
0.83 0.89 0.85 0.83 0.82 1.14 1.92 2.62 1.80 1.86 1.22 0.31 0.36 0.47 0.24 0.06 0.05 0.09 0.09 0.03 0.05 0.05 0.07 0.05 0.04 0.02 0.03 0.05 0.06 0.12 0.14 0.08 0.10 0.13 0.22 0.29 0.20 0.14 0.19 0.57 0.81 0.49 0.29 0.18
0.79 0.89 1.11 1.13 1.18 1.48 2.99 3.77 1.48 0.80 0.88 0.41 0.21 0.29 0.31 0.18 0.21 0.16 0.08 0.21 0.26 0.20 0.15 0.13 0.10 0.11 0.09 0.10 0.09 0.20 0.32 0.20 0.08 0.04 0.02 0.10 0.19 0.18 0.16 0.26 0.31 0.41 0.12 0.15
0.78 1.00 1.03 1.22 1.48 2.13 4.15 3.63 0.92 0.29 0.16 0.19 0.28 0.35 0.19 0.10 0.13 0.14 0.20 0.27 0.10 0.07 0.13 0.14 0.21 0.24 0.26 0.30 0.31 0.37 0.54 0.38 0.14 0.07 0.03 0.03 0.03 0.04 0.20 0.22 0.16 0.18 0.10 0.24
0.62 0.94 1.08 1.18 1.60 3.09 5.02 2.91 0.71 0.59 0.36 0.17 0.28 0.21 0.14 0.13 0.07 0.11 0.14 0.21 0.13 0.07 0.17 0.18 0.22 0.17 0.20 0.25 0.35 0.48 0.52 0.67 0.47 0.21 0.06 0.05 0.03 0.00 0.04 0.12 0.19 0.31 0.40 0.31
0.53 0.74 1.05 1.13 1.62 2.68 3.08 2.12 0.91 1.22 0.86 0.26 0.13 0.07 0.08 0.11 0.09 0.10 0.06 0.16 0.43 0.24 0.07 0.10 0.16 0.25 0.20 0.22 0.24 0.34 0.56 0.50 0.56 0.37 0.16 0.23 0.03 0.00 0.01 0.09 0.18 0.24 0.28 0.24
0.57 0.63 0.93 1.05 1.34 1.77 1.87 1.73 1.40 1.42 0.92 0.22 0.10 0.09 0.12 0.12 0.19 0.17 0.11 0.09 0.22 0.24 0.20 0.33 0.29 0.23 0.29 0.22 0.22 0.25 0.33 0.49 0.59 0.54 0.48 0.21 0.08 0.07 0.06 0.08 0.20 0.06 0.08 0.12
0.64 0.58 0.83 1.04 1.06 1.31 1.53 1.43 1.43 2.25 1.63 0.52 0.10 0.15 0.16 0.22 0.24 0.33 0.22 0.34 0.31 0.33 0.59 0.70 0.54 0.35 0.23 0.23 0.26 0.18 0.31 0.40 0.67 0.45 0.63 0.52 0.65 0.21 0.04 0.04 0.16 0.03 0.01 0.07
0.65 0.58 0.72 0.89 0.79 0.93 1.30 1.37 1.29 2.44 2.48 0.64 0.26 0.29 0.31 0.38 0.38 0.39 0.42 0.56 0.46 0.55 0.79 0.95 0.95 0.54 0.23 0.35 0.45 0.30 0.27 0.32 0.38 0.39 0.55 0.54 0.37 0.11 0.01 0.11 0.26 0.02 0.00 0.01
0.71 0.66 0.59 0.76 0.73 0.84 1.22 1.19 1.26 2.02 2.04 0.68 0.47 0.29 0.23 0.25 0.34 0.59 0.58 0.91 0.89 0.64 0.63 0.53 0.61 0.71 0.37 0.51 0.69 0.42 0.38 0.36 0.35 0.44 0.62 0.48 0.04 0.07 0.16 0.26 0.08 0.02 0.01 0.01
0.72 0.72 0.69 0.78 0.89 1.03 1.25 1.35 1.06 1.50 2.11 1.14 0.47 0.25 0.15 0.07 0.06 0.19 0.44 0.65 0.70 0.76 0.61 0.36 0.35 0.42 0.45 0.53 0.61 0.61 0.97 0.65 0.81 0.51 0.47 0.20 0.10 0.12 0.12 0.07 0.13 0.12 0.28 0.30
0.63 0.60 0.65 0.89 1.15 1.20 1.38 1.37 1.03 2.43 2.59 1.61 0.68 0.32 0.10 0.04 0.04 0.09 0.39 0.22 0.55 0.89 0.69 0.81 0.51 0.44 0.32 0.32 0.48 0.59 0.49 0.35 0.73 0.72 0.50 0.21 0.28 0.24 0.07 0.05 0.06 0.06 0.12 0.58
0.66 0.72 0.76 1.03 1.29 1.27 1.75 1.78 1.43 2.67 1.83 1.71 1.04 0.50 0.18 0.13 0.08 0.15 0.18 0.16 0.26 0.51 0.63 0.82 0.69 0.42 0.38 0.32 0.28 0.39 0.35 0.57 0.46 0.78 0.81 0.57 0.50 0.74 0.43 0.22 0.15 0.17 0.20 0.18
0.60 0.67 0.91 1.28 1.42 1.55 2.39 2.28 2.01 1.81 1.48 1.40 1.25 0.34 0.29 0.21 0.18 0.15 0.31 0.34 0.38 0.66 0.67 0.61 0.34 0.32 0.63 0.57 0.53 0.41 0.36 0.89 0.83 0.77 0.99 1.12 1.11 0.65 0.51 0.59 0.44 0.33 0.17 0.14
0.52 0.74 1.03 1.18 1.43 2.52 4.18 5.20 3.16 1.71 1.53 1.82 1.53 0.65 0.29 0.39 0.34 0.35 0.25 0.47 0.70 0.82 0.99 0.53 0.19 0.21 0.75 0.68 0.88 0.61 0.43 0.43 0.60 0.89 0.96 1.03 0.89 0.52 0.31 0.22 0.27 0.30 0.21 0.17
0.70 0.84 0.98 1.02 1.42 2.07 3.12 2.56 1.55 1.22 1.68 2.34 1.63 1.03 0.50 0.45 0.61 0.70 0.83 0.60 1.03 1.44 1.27 0.69 0.32 0.24 0.51 0.68 0.78 0.59 0.39 0.46 0.46 0.63 0.58 0.36 0.28 0.22 0.13 0.05 0.03 0.02 0.02 0.03
0.80 1.07 1.22 1.40 1.69 2.22 2.04 1.27 1.31 1.16 1.84 1.69 1.36 1.21 1.10 0.82 1.11 1.04 1.01 1.13 1.18 1.33 1.34 0.85 0.54 0.60 0.77 0.80 0.60 0.35 0.25 0.39 0.32 0.31 0.24 0.18 0.11 0.04 0.02 0.01 0.01 0.01 0.00 0.00
1.25 1.58 2.07 3.07 2.66 2.52 1.74 1.52 1.69 1.37 1.41 1.10 0.60 0.87 1.76 1.65 1.57 1.25 1.03 1.39 1.44 1.07 0.85 0.67 0.78 1.05 1.08 0.71 0.30 0.27 0.22 0.26 0.28 0.16 0.06 0.02 0.02 0.02 0.01 0.00 0.01 0.01 0.01 0.05
1.70 2.12 2.93 3.08 2.01 1.71 1.93 2.71 2.74 2.32 1.24 0.83 0.56 0.46 1.13 1.75 1.86 1.49 1.25 1.03 0.94 0.94 0.72 0.81 1.08 0.85 0.44 0.18 0.18 0.17 0.12 0.15 0.14 0.12 0.07 0.04 0.03 0.02 0.02 0.03 0.04 0.05 0.09 0.11
1.46 1.80 2.37 1.86 1.83 1.97 2.17 2.02 1.54 1.35 0.73 0.31 0.41 0.50 0.94 1.16 1.80 1.43 1.06 1.13 0.70 0.45 0.60 0.70 0.96 0.55 0.29 0.08 0.06 0.07 0.12 0.10 0.13 0.17 0.20 0.19 0.18 0.14 0.09 0.13 0.16 0.15 0.15 0.18
0.90 1.41 1.58 2.06 2.05 1.68 1.28 0.97 0.74 0.55 0.31 0.25 0.38 0.64 1.16 1.07 1.45 1.49 1.29 1.08 0.80 0.60 0.49 0.48 0.62 0.45 0.21 0.14 0.12 0.10 0.14 0.19 0.23 0.21 0.21 0.25 0.25 0.25 0.21 0.21 0.20 0.21 0.25 0.30
1.17 0.86 1.05 1.18 1.00 0.92 0.71 0.50 0.47 0.43 0.26 0.30 0.41 0.82 1.41 1.11 1.47 1.41 1.01 1.34 0.99 0.67 0.76 0.62 0.43 0.22 0.15 0.16 0.19 0.23 0.25 0.24 0.26 0.30 0.32 0.29 0.29 0.27 0.24 0.27 0.36 0.38 0.51 0.75
0.81 0.74 0.64 0.87 0.64 0.57 0.52 0.51 0.48 0.29 0.20 0.26 0.72 0.93 1.17 1.24 1.47 1.17 0.81 1.09 1.04 0.91 0.70 0.49 0.41 0.36 0.32 0.29 0.29 0.27 0.36 0.38 0.39 0.47 0.47 0.53 0.57 0.70 0.81 0.88 0.99 0.82 0.92 1.14
0.69 0.66 0.74 0.58 0.70 0.62 0.65 0.55 0.40 0.31 0.33 0.47 0.83 0.99 0.91 0.88 1.49 0.88 0.69 0.70 0.72 0.54 0.58 0.49 0.62 0.57 0.51 0.53 0.58 0.62 0.71 0.78 0.86 0.95 0.89 0.97 0.93 0.76 0.93 1.02 0.94 0.76 0.75 0.74
0.70 0.81 0.72 0.61 0.60 0.61 0.58 0.51 0.44 0.43 0.55 0.63 0.97 1.04 0.73 0.66 0.47 0.47 0.47 0.46 0.62 0.57 0.54 0.64 0.64 0.70 0.83 0.88 0.93 1.01 1.02 0.97 0.96 0.94 0.82 0.77 0.72 0.62 0.65 0.63 0.56 0.55 0.44 0.43
0.64 0.92 1.01 0.87 0.73 0.79 0.81 0.72 0.60 0.55 0.60 0.75 0.63 0.66 0.66 0.55 0.26 0.23 0.33 0.60 0.83 0.87 0.91 0.86 0.84 0.91 1.02 1.02 0.94 0.93 0.78 0.68 0.65 0.60 0.53 0.49 0.46 0.30 0.18 0.22 0.29 0.20 0.17 0.15

GFSNW_prec_precacc_090.txt.gz
Total_Precipitation_Accumulation
0.38 0.43 0.42 0.38 0.45 0.64 1.10 1.70 1.16 0.28 0.34 0.88 0.62 0.22 0.02 0.00 0.00 0.00 0.00 0.00 0.00 0.00 0.00 0.00 0.00 0.00 0.03 0.02 0.04 0.10 0.14 0.12 0.05 0.01 0.00 0.00 0.07 0.15 0.33 0.62 0.38 0.23 0.23 0.47
0.62 0.60 0.66 0.55 0.57 0.91 1.46 2.11 1.05 0.83 0.78 1.00 0.32 0.11 0.05 0.01 0.00 0.00 0.01 0.00 0.01 0.01 0.00 0.03 0.01 0.01 0.01 0.01 0.04 0.10 0.08 0.19 0.17 0.09 0.11 0.08 0.09 0.17 0.29 0.46 0.56 0.45 0.47 0.42
0.83 0.89 0.85 0.83 0.82 1.14 1.92 2.62 1.80 1.86 1.22 0.31 0.36 0.47 0.24 0.06 0.05 0.09 0.09 0.03 0.05 0.05 0.07 0.05 0.04 0.02 0.03 0.05 0.06 0.12 0.14 0.08 0.11 0.13 0.22 0.29 0.20 0.14 0.21 0.69 0.98 0.60 0.40 0.27
0.79 0.89 1.11 1.13 1.18 1.48 2.99 3.77 1.48 0.80 0.88 0.41 0.21 0.29 0.31 0.18 0.21 0.16 0.08 0.21 0.26 0.20 0.15 0.13 0.10 0.11 0.09 0.10 0.09 0.20 0.32 0.20 0.08 0.04 0.02 0.10 0.19 0.18 0.16 0.26 0.34 0.51 0.20 0.30
0.78 1.00 1.03 1.22 1.48 2.13 4.15 3.63 0.92 0.29 0.16 0.19 0.28 0.35 0.19 0.10 0.13 0.14 0.20 0.27 0.10 0.07 0.13 0.14 0.21 0.24 0.26 0.30 0.31 0.37 0.54 0.38 0.14 0.07 0.03 0.03 0.03 0.04 0.20 0.22 0.17 0.20 0.12 0.35
0.62 0.94 1.08 1.18 1.60 3.09 5.02 2.91 0.71 0.59 0.36 0.17 0.28 0.21 0.14 0.13 0.07 0.11 0.14 0.21 0.13 0.07 0.17 0.18 0.22 0.17 0.20 0.25 0.35 0.48 0.52 0.67 0.47 0.21 0.06 0.06 0.03 0.01 0.04 0.12 0.22 0.33 0.42 0.36
0.53 0.74 1.05 1.13 1.62 2.68 3.08 2.12 0.91 1.22 0.86 0.26 0.13 0.07 0.08 0.11 0.09 0.10 0.06 0.16 0.43 0.24 0.07 0.10 0.16 0.25 0.20 0.22 0.24 0.34 0.56 0.50 0.56 0.38 0.17 0.23 0.06 0.06 0.05 0.13 0.33 0.40 0.48 0.34
0.57 0.63 0.93 1.05 1.34 1.77 1.87 1.73 1.40 1.42 0.92 0.22 0.10 0.09 0.12 0.12 0.19 0.17 0.11 0.09 0.22 0.24 0.20 0.33 0.29 0.23 0.29 0.22 0.22 0.25 0.33 0.49 0.61 0.54 0.50 0.22 0.11 0.14 0.28 0.31 0.34 0.19 0.16 0.13
0.64 0.58 0.83 1.04 1.06 1.31 1.53 1.43 1.43 2.25 1.63 0.52 0.10 0.15 0.16 0.22 0.24 0.33 0.22 0.34 0.31 0.33 0.59 0.70 0.54 0.35 0.23 0.23 0.26 0.18 0.32 0.41 0.69 0.47 0.70 0.53 0.68 0.25 0.16 0.36 0.36 0.12 0.03 0.07
0.65 0.58 0.72 0.89 0.79 0.93 1.30 1.37 1.29 2.44 2.48 0.64 0.26 0.29 0.31 0.38 0.38 0.39 0.42 0.56 0.46 0.55 0.79 0.95 0.97 0.54 0.23 0.37 0.59 0.32 0.27 0.33 0.39 0.39 0.57 0.56 0.42 0.22 0.18 0.28 0.41 0.03 0.00 0.01
0.71 0.66 0.59 0.76 0.73 0.84 1.22 1.19 1.26 2.02 2.04 0.68 0.47 0.29 0.23 0.25 0.34 0.59 0.58 0.91 0.89 0.64 0.63 0.54 0.61 0.71 0.37 0.61 1.01 0.47 0.46 0.41 0.38 0.52 0.74 0.58 0.07 0.20 0.33 0.39 0.12 0.03 0.01 0.01
0.72 0.72 0.69 0.78 0.89 1.03 1.25 1.35 1.06 1.50 2.11 1.14 0.47 0.25 0.15 0.07 0.06 0.19 0.44 0.65 0.70 0.76 0.61 0.36 0.35 0.42 0.45 0.56 0.74 0.74 1.20 0.95 0.97 0.63 0.57 0.32 0.16 0.20 0.21 0.10 0.14 0.12 0.28 0.31
0.64 0.60 0.65 0.89 1.15 1.20 1.38 1.37 1.03 2.43 2.59 1.61 0.68 0.32 0.10 0.04 0.04 0.09 0.39 0.22 0.55 0.89 0.69 0.81 0.51 0.44 0.32 0.33 0.62 0.63 0.51 0.43 0.82 0.76 0.53 0.24 0.32 0.26 0.09 0.06 0.07 0.06 0.12 0.58
0.66 0.72 0.76 1.03 1.29 1.27 1.75 1.78 1.43 2.67 1.83 1.71 1.04 0.50 0.18 0.13 0.08 0.15 0.18 0.16 0.26 0.51 0.63 0.82 0.69 0.42 0.38 0.33 0.42 0.40 0.35 0.58 0.49 0.80 0.82 0.58 0.51 0.76 0.45 0.23 0.16 0.18 0.20 0.18
0.61 0.68 0.91 1.28 1.42 1.55 2.39 2.28 2.01 1.81 1.48 1.40 1.25 0.34 0.29 0.21 0.18 0.15 0.31 0.34 0.38 0.66 0.67 0.61 0.34 0.32 0.63 0.58 0.58 0.42 0.37 0.90 0.84 0.78 1.00 1.13 1.12 0.67 0.52 0.61 0.46 0.34 0.17 0.15
0.54 0.74 1.03 1.18 1.43 2.52 4.18 5.20 3.16 1.71 1.53 1.82 1.53 0.65 0.29 0.39 0.34 0.35 0.25 0.47 0.70 0.82 0.99 0.53 0.19 0.21 0.75 0.69 0.89 0.61 0.43 0.43 0.60 0.90 0.97 1.03 0.90 0.54 0.32 0.22 0.27 0.30 0.21 0.17
0.72 0.85 0.98 1.02 1.42 2.07 3.12 2.56 1.56 1.22 1.68 2.34 1.63 1.03 0.50 0.45 0.61 0.70 0.83 0.60 1.03 1.44 1.27 0.69 0.32 0.24 0.51 0.69 0.78 0.59 0.39 0.46 0.47 0.64 0.59 0.38 0.30 0.23 0.13 0.05 0.03 0.02 0.02 0.03
0.83 1.07 1.23 1.40 1.69 2.22 2.05 1.27 1.31 1.16 1.84 1.69 1.36 1.21 1.10 0.82 1.11 1.04 1.01 1.13 1.18 1.33 1.34 0.85 0.54 0.60 0.77 0.81 0.61 0.35 0.25 0.39 0.33 0.32 0.24 0.18 0.11 0.05 0.03 0.01 0.01 0.01 0.00 0.00
1.27 1.58 2.07 3.07 2.66 2.52 1.74 1.52 1.69 1.37 1.41 1.10 0.60 0.87 1.76 1.65 1.57 1.25 1.03 1.40 1.44 1.07 0.85 0.67 0.78 1.06 1.09 0.72 0.30 0.27 0.22 0.27 0.29 0.17 0.06 0.02 0.02 0.02 0.01 0.00 0.01 0.01 0.01 0.05
1.71 2.12 2.93 3.08 2.01 1.71 1.93 2.71 2.74 2.32 1.24 0.83 0.56 0.46 1.13 1.75 1.86 1.49 1.25 1.04 0.94 0.94 0.73 0.81 1.08 0.86 0.46 0.19 0.18 0.17 0.13 0.16 0.16 0.14 0.09 0.04 0.04 0.02 0.02 0.03 0.04 0.05 0.09 0.11
1.46 1.80 2.37 1.87 1.84 1.97 2.17 2.03 1.54 1.35 0.73 0.31 0.41 0.50 0.94 1.16 1.80 1.43 1.06 1.15 0.72 0.49 0.63 0.70 0.97 0.56 0.30 0.09 0.06 0.07 0.12 0.14 0.19 0.21 0.22 0.20 0.19 0.14 0.09 0.13 0.16 0.15 0.15 0.19
0.90 1.42 1.63 2.09 2.06 1.69 1.30 0.98 0.74 0.55 0.31 0.25 0.38 0.64 1.16 1.07 1.46 1.49 1.29 1.09 0.82 0.63 0.51 0.48 0.63 0.47 0.22 0.15 0.12 0.10 0.14 0.19 0.24 0.22 0.21 0.25 0.25 0.25 0.21 0.21 0.20 0.21 0.25 0.30
1.18 0.89 1.06 1.19 1.02 0.94 0.71 0.50 0.47 0.43 0.26 0.30 0.41 0.82 1.41 1.11 1.47 1.41 1.03 1.38 1.00 0.68 0.78 0.63 0.44 0.23 0.16 0.16 0.19 0.23 0.25 0.24 0.26 0.30 0.32 0.29 0.29 0.27 0.24 0.27 0.37 0.38 0.51 0.75
0.82 0.75 0.64 0.89 0.65 0.57 0.52 0.51 0.48 0.29 0.21 0.26 0.72 0.93 1.17 1.24 1.47 1.17 0.81 1.09 1.05 0.95 0.73 0.49 0.42 0.36 0.32 0.29 0.29 0.27 0.36 0.38 0.39 0.47 0.47 0.53 0.57 0.70 0.81 0.88 0.99 0.82 0.92 1.14
0.71 0.68 0.75 0.58 0.70 0.62 0.65 0.55 0.40 0.31 0.33 0.47 0.83 0.99 0.91 0.88 1.49 0.88 0.69 0.71 0.77 0.62 0.68 0.49 0.63 0.57 0.51 0.53 0.58 0.62 0.71 0.78 0.86 0.95 0.89 0.97 0.94 0.76 0.93 1.02 0.94 0.76 0.75 0.74
0.76 0.86 0.73 0.61 0.60 0.61 0.59 0.51 0.44 0.43 0.55 0.63 0.97 1.04 0.73 0.66 0.47 0.47 0.47 0.51 0.78 0.59 0.54 0.65 0.64 0.70 0.83 0.88 0.93 1.01 1.02 0.97 0.96 0.94 0.82 0.78 0.72 0.62 0.65 0.63 0.56 0.55 0.44 0.43
0.68 0.92 1.01 0.87 0.73 0.79 0.81 0.72 0.60 0.55 0.61 0.75 0.63 0.67 0.66 0.58 0.26 0.23 0.33 0.60 0.83 0.87 0.91 0.86 0.84 0.91 1.02 1.02 0.94 0.93 0.78 0.68 0.65 0.60 0.53 0.49 0.46 0.30 0.18 0.22 0.29 0.20 0.17 0.15

GFSNW_prec_precacc_093.txt.gz
Total_Precipitation_Accumulation
0.39 0.43 0.42 0.38 0.45 0.64 1.10 1.70 1.16 0.28 0.34 0.88 0.62 0.22 0.03 0.00 0.00 0.00 0.00 0.00 0.00 0.00 0.00 0.00 0.00 0.00 0.03 0.02 0.04 0.10 0.14 0.12 0.05 0.01 0.00 0.00 0.07 0.15 0.33 0.66 0.41 0.24 0.24 0.47
0.62 0.60 0.66 0.55 0.57 0.91 1.46 2.11 1.05 0.83 0.78 1.00 0.32 0.11 0.05 0.01 0.00 0.00 0.01 0.00 0.01 0.01 0.00 0.03 0.01 0.01 0.01 0.01 0.04 0.10 0.08 0.19 0.17 0.09 0.11 0.08 0.09 0.17 0.29 0.47 0.59 0.48 0.52 0.43
0.83 0.89 0.85 0.83 0.82 1.14 1.92 2.62 1.80 1.86 1.22 0.31 0.37 0.47 0.24 0.06 0.05 0.09 0.09 0.03 0.05 0.05 0.07 0.05 0.04 0.02 0.03 0.05 0.06 0.12 0.14 0.08 0.11 0.13 0.22 0.29 0.20 0.14 0.21 0.69 1.00 0.61 0.41 0.28
0.79 0.89 1.11 1.13 1.18 1.48 2.99 3.77 1.48 0.80 0.88 0.41 0.21 0.29 0.31 0.18 0.21 0.16 0.08 0.21 0.26 0.20 0.15 0.13 0.10 0.11 0.09 0.10 0.09 0.20 0.32 0.20 0.08 0.04 0.02 0.10 0.19 0.18 0.16 0.26 0.34 0.53 0.21 0.31
0.78 1.00 1.03 1.22 1.48 2.13 4.15 3.63 0.92 0.29 0.16 0.19 0.28 0.35 0.19 0.10 0.13 0.14 0.20 0.27 0.10 0.07 0.13 0.14 0.21 0.24 0.26 0.30 0.31 0.37 0.54 0.38 0.14 0.07 0.03 0.03 0.03 0.04 0.20 0.22 0.17 0.20 0.12 0.36
0.62 0.94 1.08 1.18 1.60 3.09 5.02 2.91 0.71 0.59 0.36 0.17 0.28 0.21 0.14 0.13 0.07 0.11 0.14 0.21 0.13 0.07 0.17 0.18 0.22 0.17 0.20 0.25 0.35 0.48 0.52 0.67 0.47 0.21 0.06 0.06 0.04 0.04 0.06 0.12 0.22 0.34 0.43 0.36
0.53 0.74 1.05 1.13 1.62 2.68 3.08 2.12 0.91 1.22 0.86 0.26 0.13 0.07 0.08 0.11 0.09 0.10 0.06 0.16 0.43 0.24 0.07 0.10 0.16 0.25 0.20 0.22 0.24 0.34 0.56 0.50 0.56 0.38 0.17 0.24 0.08 0.16 0.22 0.16 0.35 0.48 0.53 0.40
0.57 0.63 0.93 1.05 1.34 1.77 1.87 1.73 1.40 1.42 0.92 0.22 0.10 0.09 0.12 0.12 0.19 0.17 0.11 0.09 0.22 0.24 0.20 0.33 0.29 0.23 0.29 0.22 0.22 0.25 0.33 0.49 0.62 0.55 0.50 0.22 0.13 0.26 0.47 0.42 0.44 0.33 0.28 0.21
0.64 0.58 0.83 1.04 1.06 1.31 1.53 1.43 1.43 2.25 1.63 0.52 0.10 0.15 0.16 0.22 0.24 0.33 0.22 0.34 0.31 0.33 0.59 0.70 0.54 0.35 0.23 0.23 0.26 0.18 0.32 0.41 0.72 0.50 0.72 0.55 0.69 0.25 0.20 0.50 0.47 0.20 0.12 0.10
0.65 0.58 0.72 0.89 0.79 0.93 1.30 1.37 1.29 2.44 2.48 0.64 0.26 0.29 0.31 0.38 0.38 0.39 0.42 0.56 0.46 0.55 0.79 0.95 0.97 0.54 0.23 0.38 0.61 0.35 0.28 0.35 0.41 0.40 0.58 0.57 0.45 0.26 0.31 0.51 0.52 0.09 0.01 0.02
0.71 0.66 0.59 0.76 0.73 0.84 1.22 1.19 1.26 2.02 2.04 0.68 0.47 0.29 0.23 0.25 0.34 0.59 0.58 0.91 0.89 0.64 0.63 0.54 0.61 0.71 0.37 0.62 1.07 0.56 0.54 0.46 0.43 0.57 0.82 0.62 0.10 0.25 0.48 0.58 0.24 0.05 0.02 0.02
0.72 0.72 0.69 0.78 0.89 1.03 1.25 1.35 1.06 1.50 2.11 1.14 0.47 0.25 0.15 0.07 0.06 0.19 0.44 0.65 0.70 0.76 0.61 0.36 0.35 0.42 0.45 0.57 0.77 0.79 1.32 1.07 1.09 0.70 0.64 0.42 0.24 0.29 0.33 0.21 0.19 0.14 0.30 0.31
0.64 0.60 0.65 0.89 1.15 1.20 1.38 1.37 1.03 2.43 2.59 1.61 0.68 0.32 0.10 0.04 0.04 0.09 0.39 0.22 0.55 0.89 0.69 0.81 0.51 0.44 0.32 0.34 0.64 0.63 0.53 0.47 0.88 0.80 0.58 0.30 0.42 0.33 0.14 0.09 0.10 0.09 0.13 0.59
0.66 0.72 0.76 1.03 1.29 1.27 1.75 1.78 1.43 2.67 1.83 1.71 1.04 0.50 0.18 0.13 0.08 0.15 0.18 0.16 0.26 0.51 0.63 0.82 0.69 0.42 0.38 0.33 0.47 0.40 0.35 0.58 0.50 0.81 0.84 0.60 0.53 0.80 0.48 0.26 0.19 0.21 0.22 0.19
0.61 0.68 0.91 1.28 1.42 1.55 2.39 2.28 2.01 1.81 1.48 1.40 1.25 0.34 0.29 0.21 0.18 0.15 0.31 0.34 0.38 0.66 0.67 0.61 0.34 0.32 0.63 0.59 0.59 0.42 0.37 0.90 0.84 0.78 1.01 1.14 1.14 0.69 0.54 0.63 0.48 0.36 0.18 0.15
0.55 0.74 1.03 1.18 1.43 2.52 4.18 5.20 3.16 1.71 1.53 1.82 1.53 0.65 0.29 0.39 0.34 0.35 0.25 0.47 0.70 0.82 0.99 0.53 0.19 0.21 0.75 0.69 0.89 0.61 0.43 0.44 0.61 0.91 0.99 1.04 0.91 0.54 0.33 0.23 0.28 0.30 0.22 0.17
0.74 0.85 0.98 1.02 1.42 2.07 3.12 2.56 1.56 1.22 1.68 2.34 1.63 1.03 0.50 0.45 0.61 0.70 0.83 0.60 1.03 1.44 1.27 0.69 0.32 0.24 0.51 0.70 0.78 0.59 0.39 0.46 0.47 0.65 0.59 0.38 0.31 0.24 0.14 0.06 0.03 0.02 0.02 0.03
0.85 1.07 1.23 1.40 1.69 2.22 2.05 1.27 1.31 1.16 1.84 1.69 1.36 1.21 1.10 0.82 1.11 1.04 1.01 1.13 1.18 1.33 1.34 0.85 0.54 0.60 0.77 0.82 0.61 0.35 0.25 0.39 0.33 0.33 0.25 0.18 0.11 0.05 0.03 0.01 0.01 0.01 0.01 0.00
1.29 1.58 2.07 3.07 2.66 2.52 1.74 1.52 1.69 1.37 1.41 1.10 0.60 0.87 1.76 1.65 1.57 1.25 1.03 1.40 1.44 1.07 0.85 0.67 0.78 1.06 1.10 0.72 0.30 0.27 0.22 0.28 0.29 0.18 0.06 0.02 0.03 0.03 0.02 0.00 0.01 0.01 0.01 0.05
1.71 2.12 2.93 3.08 2.01 1.71 1.93 2.71 2.74 2.32 1.24 0.83 0.56 0.46 1.13 1.75 1.86 1.49 1.25 1.04 0.94 0.94 0.73 0.81 1.08 0.87 0.47 0.19 0.18 0.17 0.14 0.17 0.17 0.16 0.09 0.05 0.05 0.02 0.02 0.03 0.04 0.05 0.09 0.11
1.46 1.80 2.37 1.87 1.85 1.97 2.17 2.03 1.54 1.35 0.73 0.31 0.41 0.50 0.94 1.16 1.80 1.43 1.06 1.15 0.76 0.51 0.64 0.71 0.99 0.56 0.31 0.09 0.06 0.08 0.13 0.17 0.21 0.24 0.24 0.23 0.19 0.14 0.09 0.13 0.16 0.15 0.15 0.19
0.90 1.42 1.64 2.10 2.07 1.70 1.30 0.98 0.74 0.55 0.31 0.25 0.38 0.64 1.16 1.07 1.46 1.49 1.30 1.12 0.88 0.74 0.58 0.50 0.64 0.48 0.23 0.15 0.13 0.10 0.14 0.20 0.25 0.24 0.23 0.26 0.25 0.25 0.21 0.21 0.20 0.21 0.25 0.30
1.18 0.89 1.06 1.20 1.03 0.94 0.71 0.51 0.47 0.43 0.26 0.30 0.41 0.82 1.41 1.11 1.47 1.41 1.03 1.45 1.02 0.72 0.84 0.65 0.44 0.23 0.16 0.16 0.19 0.23 0.25 0.24 0.26 0.30 0.32 0.29 0.29 0.27 0.24 0.27 0.37 0.38 0.51 0.75
0.82 0.75 0.65 0.89 0.65 0.57 0.52 0.51 0.48 0.29 0.21 0.26 0.72 0.93 1.17 1.24 1.47 1.17 0.81 1.09 1.06 0.95 0.74 0.50 0.42 0.36 0.33 0.29 0.29 0.27 0.36 0.38 0.39 0.47 0.47 0.53 0.57 0.70 0.81 0.88 0.99 0.82 0.92 1.14
0.71 0.70 0.76 0.58 0.70 0.62 0.65 0.55 0.40 0.31 0.33 0.47 0.83 0.99 0.91 0.88 1.49 0.88 0.69 0.72 0.81 0.69 0.72 0.49 0.63 0.57 0.51 0.53 0.58 0.62 0.71 0.78 0.86 0.95 0.89 0.97 0.94 0.76 0.93 1.02 0.94 0.76 0.75 0.74
0.77 0.89 0.76 0.62 0.60 0.61 0.59 0.51 0.44 0.43 0.55 0.63 0.97 1.04 0.73 0.66 0.47 0.47 0.48 0.55 0.83 0.60 0.54 0.65 0.64 0.70 0.83 0.88 0.93 1.01 1.02 0.97 0.96 0.94 0.82 0.78 0.72 0.62 0.65 0.63 0.56 0.55 0.44 0.43
0.69 0.92 1.02 0.88 0.73 0.79 0.81 0.72 0.60 0.55 0.61 0.75 0.63 0.67 0.67 0.60 0.27 0.24 0.33 0.60 0.83 0.87 0.91 0.86 0.84 0.91 1.02 1.02 0.94 0.93 0.78 0.68 0.65 0.60 0.53 0.49 0.46 0.30 0.18 0.22 0.29 0.20 0.17 0.15

GFSNW_prec_precacc_096.txt.gz
Total_Precipitation_Accumulation
0.41 0.43 0.42 0.38 0.45 0.64 1.10 1.70 1.16 0.28 0.34 0.89 0.63 0.23 0.03 0.00 0.01 0.00 0.00 0.01 0.02 0.01 0.01 0.00 0.00 0.00 0.03 0.02 0.04 0.10 0.14 0.12 0.05 0.01 0.00 0.00 0.07 0.15 0.33 0.67 0.45 0.29 0.28 0.49
0.64 0.60 0.66 0.55 0.57 0.91 1.46 2.11 1.05 0.83 0.78 1.00 0.32 0.12 0.05 0.02 0.01 0.01 0.02 0.02 0.01 0.01 0.01 0.03 0.01 0.01 0.01 0.01 0.04 0.10 0.08 0.19 0.17 0.09 0.11 0.08 0.09 0.17 0.29 0.47 0.59 0.49 0.53 0.44
0.83 0.89 0.85 0.83 0.82 1.14 1.92 2.62 1.80 1.86 1.22 0.31 0.37 0.47 0.25 0.06 0.05 0.09 0.09 0.04 0.05 0.06 0.08 0.05 0.04 0.02 0.03 0.05 0.06 0.12 0.14 0.08 0.11 0.13 0.22 0.29 0.20 0.14 0.21 0.69 1.00 0.61 0.42 0.28
0.79 0.89 1.11 1.13 1.18 1.48 2.99 3.77 1.48 0.80 0.88 0.41 0.21 0.29 0.31 0.19 0.22 0.16 0.08 0.21 0.26 0.20 0.15 0.13 0.10 0.11 0.09 0.10 0.09 0.20 0.32 0.20 0.08 0.04 0.02 0.10 0.19 0.18 0.16 0.26 0.34 0.53 0.21 0.31
0.78 1.00 1.03 1.22 1.48 2.13 4.15 3.63 0.92 0.29 0.16 0.19 0.28 0.35 0.19 0.10 0.13 0.14 0.20 0.27 0.10 0.07 0.13 0.14 0.21 0.24 0.26 0.30 0.31 0.37 0.54 0.38 0.14 0.07 0.03 0.03 0.03 0.04 0.20 0.22 0.17 0.20 0.12 0.36
0.62 0.94 1.08 1.18 1.60 3.09 5.02 2.91 0.71 0.59 0.36 0.17 0.28 0.21 0.14 0.13 0.07 0.11 0.14 0.21 0.13 0.07 0.17 0.18 0.22 0.17 0.20 0.25 0.35 0.48 0.52 0.67 0.47 0.21 0.06 0.06 0.04 0.05 0.08 0.15 0.23 0.34 0.43 0.36
0.53 0.74 1.05 1.13 1.62 2.68 3.08 2.12 0.91 1.22 0.86 0.26 0.13 0.07 0.08 0.11 0.09 0.10 0.06 0.16 0.43 0.24 0.07 0.10 0.16 0.25 0.20 0.22 0.24 0.34 0.56 0.50 0.56 0.38 0.17 0.24 0.08 0.16 0.25 0.27 0.41 0.49 0.55 0.42
0.57 0.63 0.93 1.05 1.34 1.77 1.87 1.73 1.40 1.42 0.92 0.22 0.10 0.09 0.12 0.12 0.19 0.17 0.11 0.09 0.22 0.24 0.20 0.33 0.29 0.23 0.29 0.22 0.22 0.25 0.33 0.49 0.62 0.55 0.50 0.22 0.13 0.27 0.52 0.59 0.57 0.41 0.36 0.28
0.64 0.58 0.83 1.04 1.06 1.31 1.53 1.43 1.43 2.25 1.63 0.52 0.10 0.15 0.16 0.22 0.24 0.33 0.22 0.34 0.31 0.33 0.59 0.70 0.54 0.35 0.23 0.23 0.26 0.18 0.32 0.41 0.73 0.52 0.72 0.55 0.69 0.26 0.20 0.56 0.57 0.27 0.26 0.22
0.65 0.58 0.72 0.89 0.79 0.93 1.30 1.37 1.29 2.44 2.48 0.64 0.26 0.29 0.31 0.38 0.38 0.39 0.42 0.56 0.46 0.55 0.79 0.95 0.97 0.54 0.23 0.38 0.61 0.37 0.29 0.36 0.42 0.40 0.59 0.57 0.46 0.26 0.33 0.60 0.61 0.18 0.20 0.16
0.71 0.66 0.59 0.76 0.73 0.84 1.22 1.19 1.26 2.02 2.04 0.68 0.47 0.29 0.23 0.25 0.34 0.59 0.58 0.91 0.89 0.64 0.63 0.54 0.61 0.71 0.37 0.62 1.09 0.59 0.58 0.48 0.47 0.60 0.85 0.64 0.10 0.28 0.55 0.70 0.33 0.16 0.15 0.09
0.72 0.72 0.69 0.78 0.89 1.03 1.25 1.35 1.06 1.50 2.11 1.14 0.47 0.25 0.15 0.07 0.06 0.19 0.44 0.65 0.70 0.76 0.61 0.36 0.35 0.42 0.45 0.57 0.78 0.80 1.34 1.09 1.12 0.75 0.69 0.47 0.27 0.37 0.42 0.32 0.28 0.23 0.34 0.33
0.64 0.60 0.65 0.89 1.15 1.20 1.38 1.37 1.03 2.43 2.59 1.61 0.68 0.32 0.10 0.04 0.04 0.09 0.39 0.22 0.55 0.89 0.69 0.81 0.51 0.44 0.32 0.34 0.64 0.63 0.55 0.51 0.91 0.83 0.62 0.35 0.48 0.39 0.19 0.15 0.14 0.12 0.15 0.59
0.67 0.72 0.76 1.03 1.29 1.27 1.75 1.78 1.43 2.67 1.83 1.71 1.04 0.50 0.18 0.13 0.08 0.15 0.18 0.16 0.26 0.51 0.63 0.82 0.69 0.42 0.38 0.33 0.47 0.40 0.36 0.58 0.51 0.82 0.86 0.63 0.59 0.88 0.53 0.30 0.21 0.22 0.22 0.19
0.62 0.68 0.91 1.28 1.42 1.55 2.39 2.28 2.01 1.81 1.48 1.40 1.25 0.34 0.29 0.21 0.18 0.15 0.31 0.34 0.38 0.66 0.67 0.61 0.34 0.32 0.63 0.59 0.60 0.42 0.37 0.90 0.85 0.78 1.01 1.14 1.17 0.74 0.58 0.64 0.49 0.36 0.19 0.16
0.55 0.74 1.03 1.18 1.43 2.52 4.18 5.20 3.16 1.71 1.53 1.82 1.53 0.65 0.29 0.39 0.34 0.35 0.25 0.47 0.70 0.82 0.99 0.53 0.19 0.21 0.75 0.69 0.89 0.61 0.43 0.44 0.61 0.91 0.99 1.04 0.92 0.56 0.34 0.24 0.29 0.31 0.22 0.18
0.74 0.85 0.98 1.02 1.42 2.07 3.12 2.57 1.56 1.22 1.68 2.34 1.63 1.03 0.50 0.45 0.61 0.70 0.83 0.60 1.03 1.44 1.27 0.69 0.32 0.24 0.51 0.70 0.78 0.59 0.39 0.46 0.47 0.65 0.59 0.39 0.32 0.25 0.15 0.06 0.04 0.02 0.02 0.04
0.85 1.07 1.23 1.40 1.69 2.22 2.05 1.28 1.31 1.16 1.84 1.69 1.36 1.21 1.10 0.82 1.11 1.04 1.01 1.13 1.18 1.33 1.34 0.85 0.54 0.60 0.77 0.82 0.61 0.35 0.25 0.39 0.33 0.34 0.25 0.18 0.12 0.05 0.03 0.01 0.01 0.01 0.01 0.01
1.29 1.58 2.07 3.07 2.66 2.52 1.74 1.52 1.69 1.37 1.41 1.10 0.60 0.87 1.76 1.65 1.57 1.25 1.03 1.40 1.44 1.07 0.85 0.67 0.78 1.06 1.10 0.72 0.30 0.27 0.22 0.28 0.30 0.18 0.06 0.03 0.04 0.03 0.02 0.00 0.01 0.01 0.02 0.06
1.71 2.12 2.93 3.08 2.01 1.71 1.93 2.71 2.74 2.32 1.24 0.83 0.56 0.46 1.13 1.75 1.86 1.49 1.25 1.04 0.94 0.94 0.73 0.81 1.08 0.87 0.47 0.19 0.18 0.17 0.14 0.17 0.18 0.16 0.10 0.05 0.05 0.03 0.02 0.03 0.04 0.05 0.09 0.11
1.46 1.80 2.38 1.88 1.85 1.97 2.17 2.03 1.54 1.35 0.73 0.31 0.41 0.50 0.94 1.16 1.80 1.43 1.06 1.15 0.77 0.52 0.66 0.71 0.99 0.56 0.31 0.10 0.06 0.08 0.13 0.17 0.22 0.24 0.24 0.23 0.19 0.14 0.09 0.13 0.16 0.15 0.15 0.19
0.90 1.42 1.65 2.11 2.07 1.70 1.30 0.98 0.74 0.55 0.31 0.25 0.38 0.64 1.16 1.07 1.46 1.49 1.30 1.13 0.92 0.80 0.60 0.51 0.66 0.48 0.24 0.16 0.13 0.10 0.15 0.21 0.26 0.25 0.24 0.26 0.25 0.25 0.21 0.21 0.20 0.21 0.25 0.30
1.18 0.89 1.06 1.20 1.03 0.94 0.71 0.51 0.47 0.43 0.26 0.30 0.41 0.82 1.41 1.11 1.47 1.41 1.03 1.49 1.09 0.80 0.96 0.65 0.44 0.24 0.17 0.17 0.19 0.23 0.25 0.24 0.26 0.30 0.32 0.29 0.29 0.27 0.24 0.27 0.37 0.38 0.51 0.75
0.82 0.75 0.65 0.90 0.66 0.58 0.52 0.51 0.48 0.29 0.21 0.26 0.72 0.93 1.17 1.24 1.47 1.17 0.81 1.09 1.06 0.95 0.74 0.50 0.42 0.37 0.33 0.29 0.29 0.27 0.36 0.38 0.39 0.47 0.47 0.53 0.57 0.70 0.81 0.88 0.99 0.82 0.92 1.14
0.71 0.70 0.76 0.59 0.71 0.62 0.65 0.55 0.40 0.31 0.33 0.47 0.83 0.99 0.91 0.88 1.49 0.88 0.70 0.73 0.82 0.71 0.73 0.49 0.63 0.57 0.51 0.53 0.58 0.62 0.71 0.78 0.86 0.95 0.89 0.97 0.94 0.76 0.93 1.02 0.94 0.76 0.75 0.74
0.77 0.91 0.78 0.62 0.60 0.62 0.59 0.52 0.44 0.43 0.55 0.63 0.97 1.04 0.73 0.66 0.47 0.48 0.49 0.56 0.84 0.60 0.54 0.65 0.64 0.71 0.83 0.88 0.93 1.01 1.02 0.97 0.96 0.94 0.82 0.78 0.72 0.62 0.65 0.63 0.56 0.55 0.44 0.43
0.69 0.93 1.02 0.89 0.73 0.79 0.81 0.72 0.60 0.55 0.61 0.75 0.63 0.68 0.67 0.60 0.27 0.24 0.33 0.60 0.83 0.87 0.91 0.86 0.84 0.91 1.02 1.02 0.94 0.93 0.78 0.68 0.65 0.60 0.53 0.49 0.46 0.30 0.18 0.22 0.29 0.20 0.17 0.15

GFSNW_prec_precacc_099.txt.gz
Total_Precipitation_Accumulation
0.43 0.44 0.42 0.38 0.45 0.64 1.10 1.70 1.17 0.28 0.35 0.92 0.67 0.24 0.03 0.00 0.01 0.00 0.00 0.02 0.04 0.02 0.01 0.00 0.01 0.01 0.04 0.03 0.04 0.11 0.15 0.12 0.05 0.01 0.00 0.00 0.07 0.15 0.33 0.67 0.45 0.29 0.28 0.49
0.66 0.60 0.66 0.55 0.57 0.91 1.46 2.11 1.06 0.84 0.78 1.02 0.32 0.12 0.05 0.02 0.01 0.01 0.02 0.02 0.02 0.02 0.01 0.03 0.01 0.01 0.01 0.01 0.04 0.10 0.08 0.19 0.17 0.09 0.11 0.08 0.09 0.17 0.29 0.47 0.59 0.49 0.53 0.44
0.85 0.89 0.86 0.83 0.82 1.14 1.92 2.62 1.82 1.89 1.22 0.32 0.37 0.47 0.25 0.06 0.05 0.09 0.09 0.04 0.05 0.06 0.08 0.05 0.04 0.02 0.03 0.05 0.06 0.12 0.14 0.08 0.11 0.13 0.22 0.29 0.20 0.14 0.21 0.69 1.00 0.61 0.42 0.28
0.79 0.89 1.11 1.13 1.18 1.48 2.99 3.77 1.48 0.80 0.88 0.41 0.21 0.29 0.31 0.19 0.22 0.16 0.08 0.21 0.26 0.20 0.15 0.13 0.10 0.11 0.09 0.10 0.09 0.20 0.32 0.20 0.08 0.04 0.02 0.10 0.19 0.18 0.16 0.26 0.34 0.53 0.21 0.31
0.78 1.00 1.03 1.22 1.48 2.13 4.15 3.63 0.92 0.29 0.16 0.19 0.28 0.35 0.19 0.10 0.13 0.14 0.20 0.27 0.10 0.07 0.13 0.14 0.21 0.24 0.26 0.30 0.31 0.37 0.54 0.38 0.14 0.07 0.03 0.03 0.03 0.04 0.20 0.22 0.17 0.20 0.12 0.36
0.62 0.94 1.08 1.18 1.60 3.09 5.02 2.91 0.71 0.59 0.36 0.17 0.28 0.21 0.14 0.13 0.07 0.11 0.14 0.21 0.13 0.07 0.17 0.18 0.22 0.17 0.20 0.25 0.35 0.48 0.52 0.67 0.47 0.21 0.06 0.06 0.04 0.05 0.08 0.15 0.23 0.35 0.44 0.36
0.53 0.74 1.05 1.13 1.62 2.68 3.08 2.12 0.91 1.22 0.86 0.26 0.13 0.07 0.08 0.11 0.09 0.10 0.06 0.16 0.43 0.24 0.07 0.10 0.16 0.25 0.20 0.22 0.24 0.34 0.56 0.50 0.56 0.38 0.17 0.24 0.08 0.16 0.25 0.27 0.42 0.50 0.55 0.43
0.57 0.63 0.93 1.05 1.34 1.78 1.87 1.73 1.40 1.42 0.92 0.22 0.10 0.09 0.12 0.12 0.19 0.17 0.11 0.09 0.22 0.24 0.20 0.33 0.29 0.23 0.29 0.22 0.22 0.25 0.33 0.49 0.62 0.55 0.50 0.22 0.13 0.27 0.53 0.60 0.58 0.43 0.38 0.31
0.64 0.58 0.83 1.04 1.06 1.31 1.53 1.43 1.43 2.25 1.63 0.52 0.10 0.15 0.16 0.22 0.24 0.33 0.22 0.34 0.31 0.33 0.59 0.70 0.54 0.35 0.23 0.23 0.26 0.18 0.32 0.41 0.73 0.52 0.72 0.55 0.69 0.26 0.20 0.58 0.60 0.30 0.29 0.30
0.65 0.58 0.72 0.89 0.79 0.93 1.30 1.37 1.29 2.44 2.48 0.64 0.26 0.29 0.31 0.38 0.38 0.39 0.42 0.56 0.46 0.55 0.79 0.95 0.97 0.54 0.23 0.38 0.61 0.37 0.29 0.36 0.43 0.41 0.60 0.57 0.46 0.26 0.33 0.63 0.64 0.23 0.32 0.33
0.71 0.66 0.59 0.76 0.73 0.84 1.22 1.19 1.26 2.02 2.04 0.68 0.47 0.29 0.23 0.25 0.34 0.59 0.58 0.91 0.89 0.64 0.63 0.54 0.61 0.71 0.37 0.62 1.09 0.60 0.59 0.49 0.48 0.60 0.86 0.64 0.11 0.28 0.57 0.74 0.40 0.26 0.32 0.28
0.72 0.72 0.69 0.78 0.89 1.03 1.25 1.35 1.06 1.50 2.11 1.14 0.47 0.25 0.15 0.07 0.06 0.19 0.44 0.65 0.70 0.76 0.61 0.36 0.35 0.42 0.45 0.57 0.78 0.81 1.35 1.10 1.13 0.76 0.69 0.48 0.29 0.40 0.47 0.37 0.36 0.36 0.49 0.48
0.64 0.60 0.65 0.89 1.15 1.20 1.38 1.37 1.03 2.43 2.59 1.61 0.68 0.32 0.10 0.04 0.04 0.09 0.39 0.22 0.55 0.89 0.69 0.81 0.51 0.44 0.32 0.34 0.64 0.64 0.56 0.52 0.92 0.83 0.64 0.37 0.52 0.43 0.23 0.21 0.21 0.22 0.23 0.65
0.67 0.72 0.76 1.03 1.29 1.27 1.75 1.78 1.43 2.67 1.83 1.71 1.04 0.50 0.18 0.13 0.08 0.15 0.18 0.16 0.26 0.51 0.63 0.82 0.69 0.42 0.38 0.33 0.47 0.40 0.36 0.59 0.52 0.83 0.89 0.65 0.62 0.91 0.56 0.35 0.26 0.26 0.25 0.21
0.62 0.68 0.91 1.28 1.42 1.55 2.39 2.28 2.01 1.81 1.48 1.40 1.25 0.34 0.29 0.21 0.18 0.15 0.31 0.34 0.38 0.66 0.67 0.61 0.34 0.32 0.63 0.59 0.60 0.42 0.37 0.90 0.85 0.78 1.02 1.15 1.20 0.77 0.60 0.66 0.53 0.38 0.19 0.16
0.55 0.74 1.03 1.18 1.43 2.52 4.18 5.20 3.16 1.71 1.53 1.82 1.53 0.65 0.29 0.39 0.34 0.35 0.25 0.47 0.70 0.82 0.99 0.53 0.19 0.21 0.75 0.69 0.89 0.61 0.43 0.44 0.61 0.91 0.99 1.04 0.93 0.56 0.34 0.24 0.29 0.31 0.22 0.18
0.74 0.85 0.98 1.02 1.42 2.07 3.12 2.57 1.56 1.22 1.68 2.34 1.63 1.03 0.50 0.45 0.61 0.70 0.83 0.60 1.03 1.44 1.27 0.69 0.32 0.24 0.51 0.70 0.78 0.59 0.39 0.46 0.47 0.65 0.59 0.39 0.32 0.25 0.15 0.06 0.04 0.02 0.02 0.04
0.85 1.07 1.23 1.40 1.69 2.22 2.05 1.28 1.31 1.16 1.84 1.69 1.36 1.21 1.10 0.82 1.11 1.04 1.01 1.13 1.18 1.33 1.34 0.85 0.54 0.60 0.77 0.82 0.61 0.35 0.25 0.39 0.33 0.34 0.25 0.18 0.12 0.05 0.03 0.01 0.01 0.01 0.01 0.01
1.29 1.58 2.07 3.07 2.66 2.52 1.74 1.52 1.69 1.37 1.41 1.10 0.60 0.87 1.76 1.65 1.57 1.25 1.03 1.40 1.44 1.07 0.85 0.67 0.78 1.06 1.10 0.72 0.30 0.27 0.22 0.28 0.30 0.19 0.06 0.03 0.04 0.03 0.02 0.00 0.01 0.01 0.02 0.06
1.71 2.12 2.93 3.08 2.01 1.71 1.93 2.71 2.74 2.32 1.24 0.83 0.56 0.46 1.13 1.75 1.86 1.49 1.25 1.04 0.94 0.94 0.73 0.81 1.08 0.87 0.47 0.19 0.18 0.17 0.14 0.17 0.18 0.16 0.10 0.06 0.05 0.03 0.02 0.03 0.04 0.05 0.09 0.11
1.46 1.80 2.38 1.88 1.85 1.97 2.17 2.03 1.54 1.35 0.73 0.31 0.41 0.50 0.94 1.16 1.80 1.43 1.06 1.15 0.77 0.52 0.66 0.71 0.99 0.56 0.31 0.11 0.07 0.09 0.14 0.17 0.22 0.24 0.24 0.23 0.19 0.14 0.09 0.13 0.16 0.15 0.15 0.19
0.90 1.42 1.65 2.11 2.07 1.70 1.30 0.98 0.74 0.55 0.31 0.25 0.38 0.64 1.16 1.07 1.46 1.49 1.30 1.13 0.95 0.84 0.61 0.51 0.68 0.49 0.25 0.17 0.14 0.11 0.15 0.21 0.27 0.25 0.24 0.26 0.25 0.25 0.21 0.21 0.20 0.21 0.25 0.30
1.18 0.89 1.06 1.20 1.03 0.94 0.71 0.51 0.47 0.43 0.26 0.30 0.41 0.82 1.41 1.11 1.47 1.41 1.03 1.50 1.14 0.86 1.03 0.66 0.44 0.24 0.18 0.18 0.20 0.23 0.25 0.24 0.28 0.32 0.32 0.29 0.29 0.27 0.24 0.27 0.37 0.38 0.51 0.75
0.82 0.75 0.65 0.90 0.66 0.58 0.52 0.51 0.48 0.29 0.21 0.26 0.72 0.93 1.17 1.24 1.47 1.17 0.81 1.09 1.06 0.96 0.76 0.50 0.42 0.37 0.33 0.29 0.29 0.27 0.36 0.38 0.40 0.47 0.47 0.53 0.57 0.70 0.81 0.88 0.99 0.82 0.92 1.14
0.71 0.70 0.76 0.59 0.71 0.64 0.67 0.56 0.40 0.31 0.33 0.47 0.83 0.99 0.91 0.88 1.49 0.88 0.70 0.73 0.82 0.71 0.73 0.49 0.63 0.57 0.51 0.53 0.58 0.62 0.71 0.78 0.86 0.95 0.89 0.97 0.94 0.76 0.93 1.02 0.94 0.76 0.75 0.74
0.77 0.91 0.79 0.63 0.61 0.63 0.59 0.52 0.44 0.43 0.55 0.63 0.97 1.04 0.73 0.66 0.47 0.48 0.49 0.56 0.84 0.60 0.54 0.65 0.64 0.71 0.83 0.88 0.93 1.01 1.02 0.97 0.96 0.94 0.82 0.78 0.72 0.62 0.65 0.63 0.56 0.55 0.44 0.43
0.69 0.93 1.04 0.90 0.74 0.79 0.82 0.73 0.60 0.55 0.61 0.75 0.63 0.68 0.67 0.60 0.27 0.24 0.33 0.60 0.83 0.87 0.91 0.86 0.84 0.91 1.02 1.02 0.94 0.93 0.78 0.68 0.65 0.60 0.53 0.49 0.46 0.30 0.18 0.22 0.29 0.20 0.17 0.15

GFSNW_prec_precacc_102.txt.gz
Total_Precipitation_Accumulation
0.44 0.44 0.43 0.39 0.45 0.65 1.10 1.70 1.17 0.29 0.39 0.99 0.73 0.25 0.03 0.00 0.01 0.00 0.01 0.02 0.04 0.03 0.02 0.00 0.02 0.01 0.05 0.03 0.05 0.12 0.15 0.12 0.06 0.01 0.00 0.00 0.07 0.15 0.33 0.67 0.45 0.29 0.28 0.49
0.68 0.61 0.66 0.55 0.57 0.91 1.46 2.12 1.07 0.86 0.83 1.07 0.34 0.12 0.05 0.02 0.01 0.01 0.03 0.03 0.03 0.02 0.02 0.03 0.01 0.02 0.03 0.02 0.05 0.11 0.08 0.19 0.17 0.09 0.11 0.08 0.09 0.17 0.29 0.47 0.59 0.49 0.53 0.44
0.88 0.90 0.86 0.83 0.83 1.14 1.93 2.62 1.84 1.94 1.27 0.34 0.37 0.48 0.25 0.06 0.05 0.09 0.09 0.04 0.06 0.07 0.08 0.05 0.04 0.02 0.03 0.05 0.06 0.12 0.14 0.08 0.11 0.13 0.22 0.29 0.20 0.14 0.21 0.69 1.00 0.61 0.42 0.28
0.82 0.90 1.11 1.13 1.19 1.48 2.99 3.77 1.48 0.81 0.89 0.42 0.22 0.29 0.31 0.19 0.22 0.16 0.08 0.21 0.26 0.22 0.15 0.13 0.10 0.11 0.09 0.10 0.09 0.20 0.32 0.20 0.08 0.04 0.02 0.10 0.19 0.18 0.16 0.26 0.34 0.53 0.21 0.31
0.79 1.00 1.03 1.22 1.49 2.13 4.15 3.63 0.92 0.29 0.16 0.19 0.28 0.35 0.19 0.10 0.13 0.14 0.20 0.27 0.10 0.08 0.14 0.14 0.21 0.24 0.26 0.30 0.31 0.37 0.54 0.38 0.14 0.07 0.03 0.03 0.03 0.04 0.20 0.22 0.17 0.20 0.12 0.36
0.63 0.94 1.08 1.18 1.60 3.10 5.02 2.91 0.71 0.59 0.36 0.17 0.28 0.22 0.14 0.13 0.07 0.11 0.14 0.21 0.13 0.07 0.17 0.18 0.22 0.17 0.20 0.25 0.35 0.48 0.52 0.67 0.47 0.21 0.06 0.06 0.04 0.05 0.08 0.15 0.23 0.35 0.44 0.37
0.54 0.74 1.05 1.13 1.62 2.68 3.09 2.12 0.91 1.23 0.86 0.26 0.13 0.07 0.08 0.11 0.09 0.10 0.06 0.16 0.43 0.24 0.07 0.10 0.16 0.25 0.20 0.22 0.24 0.34 0.56 0.50 0.56 0.38 0.17 0.24 0.08 0.16 0.26 0.27 0.42 0.51 0.56 0.44
0.58 0.63 0.93 1.05 1.34 1.78 1.88 1.73 1.40 1.42 0.93 0.22 0.10 0.09 0.12 0.12 0.19 0.17 0.11 0.09 0.22 0.24 0.20 0.33 0.29 0.23 0.29 0.22 0.22 0.25 0.33 0.49 0.62 0.55 0.50 0.22 0.13 0.27 0.53 0.61 0.60 0.44 0.38 0.33
0.64 0.58 0.83 1.04 1.06 1.32 1.56 1.43 1.43 2.25 1.63 0.52 0.10 0.15 0.16 0.22 0.24 0.33 0.22 0.34 0.31 0.33 0.59 0.70 0.54 0.35 0.23 0.23 0.27 0.18 0.32 0.41 0.73 0.53 0.73 0.55 0.70 0.26 0.21 0.59 0.64 0.30 0.29 0.31
0.65 0.58 0.72 0.89 0.79 0.93 1.31 1.37 1.29 2.44 2.48 0.64 0.26 0.29 0.31 0.38 0.38 0.39 0.42 0.56 0.46 0.55 0.79 0.95 0.97 0.54 0.23 0.38 0.61 0.38 0.29 0.36 0.43 0.41 0.60 0.58 0.46 0.26 0.34 0.66 0.66 0.24 0.32 0.35
0.71 0.66 0.59 0.77 0.74 0.84 1.22 1.19 1.26 2.02 2.04 0.68 0.47 0.29 0.23 0.25 0.34 0.59 0.58 0.91 0.89 0.64 0.63 0.54 0.61 0.71 0.37 0.62 1.09 0.61 0.60 0.49 0.49 0.61 0.86 0.65 0.11 0.28 0.58 0.75 0.42 0.29 0.36 0.35
0.72 0.72 0.69 0.78 0.89 1.03 1.25 1.35 1.06 1.50 2.11 1.14 0.47 0.25 0.15 0.07 0.06 0.19 0.44 0.65 0.70 0.76 0.61 0.36 0.35 0.42 0.45 0.57 0.79 0.81 1.35 1.11 1.13 0.77 0.70 0.48 0.29 0.40 0.47 0.39 0.40 0.42 0.57 0.58
0.64 0.60 0.65 0.89 1.15 1.20 1.38 1.37 1.03 2.43 2.59 1.61 0.68 0.32 0.10 0.04 0.04 0.09 0.39 0.22 0.55 0.89 0.69 0.81 0.51 0.44 0.32 0.34 0.64 0.64 0.56 0.52 0.93 0.85 0.65 0.38 0.53 0.44 0.25 0.24 0.26 0.28 0.29 0.71
0.67 0.72 0.76 1.03 1.29 1.27 1.75 1.78 1.43 2.67 1.83 1.71 1.04 0.50 0.18 0.13 0.08 0.15 0.18 0.16 0.26 0.51 0.63 0.82 0.69 0.42 0.38 0.34 0.47 0.40 0.36 0.59 0.52 0.84 0.90 0.66 0.64 0.93 0.59 0.39 0.29 0.29 0.31 0.25
0.62 0.68 0.91 1.28 1.42 1.55 2.39 2.28 2.01 1.81 1.48 1.40 1.25 0.34 0.29 0.21 0.18 0.15 0.31 0.34 0.38 0.66 0.67 0.61 0.34 0.32 0.63 0.59 0.60 0.42 0.37 0.91 0.85 0.79 1.02 1.16 1.22 0.80 0.64 0.71 0.57 0.42 0.21 0.17
0.55 0.74 1.03 1.18 1.43 2.52 4.18 5.20 3.16 1.71 1.53 1.82 1.53 0.65 0.29 0.39 0.34 0.35 0.25 0.47 0.70 0.82 0.99 0.53 0.19 0.21 0.75 0.69 0.89 0.61 0.43 0.44 0.61 0.91 0.99 1.04 0.94 0.59 0.36 0.25 0.30 0.31 0.22 0.18
0.74 0.85 0.98 1.02 1.42 2.07 3.12 2.57 1.56 1.22 1.68 2.34 1.63 1.03 0.50 0.45 0.61 0.70 0.83 0.60 1.03 1.44 1.27 0.69 0.32 0.24 0.51 0.70 0.79 0.60 0.39 0.46 0.47 0.65 0.59 0.40 0.33 0.26 0.15 0.06 0.04 0.02 0.02 0.04
0.85 1.07 1.23 1.40 1.69 2.22 2.05 1.28 1.31 1.16 1.84 1.69 1.36 1.21 1.10 0.82 1.11 1.04 1.01 1.13 1.18 1.33 1.34 0.85 0.54 0.60 0.77 0.83 0.61 0.36 0.26 0.39 0.34 0.34 0.25 0.18 0.12 0.05 0.03 0.01 0.01 0.01 0.01 0.01
1.29 1.58 2.07 3.07 2.66 2.52 1.74 1.52 1.69 1.37 1.41 1.10 0.60 0.87 1.76 1.65 1.57 1.25 1.03 1.40 1.44 1.07 0.85 0.67 0.78 1.06 1.10 0.72 0.30 0.27 0.22 0.28 0.30 0.19 0.06 0.03 0.04 0.03 0.02 0.00 0.01 0.01 0.02 0.06
1.71 2.12 2.93 3.08 2.01 1.71 1.93 2.71 2.74 2.32 1.24 0.83 0.56 0.46 1.13 1.75 1.86 1.49 1.25 1.04 0.94 0.94 0.73 0.81 1.09 0.87 0.47 0.19 0.18 0.17 0.14 0.17 0.18 0.16 0.10 0.06 0.05 0.03 0.02 0.03 0.04 0.05 0.09 0.11
1.46 1.80 2.38 1.88 1.85 1.97 2.17 2.03 1.54 1.35 0.73 0.31 0.41 0.50 0.94 1.16 1.80 1.43 1.06 1.15 0.77 0.52 0.66 0.72 1.00 0.56 0.31 0.11 0.07 0.09 0.14 0.18 0.22 0.24 0.24 0.23 0.19 0.14 0.09 0.13 0.16 0.15 0.15 0.19
0.90 1.42 1.65 2.11 2.07 1.70 1.30 0.98 0.74 0.55 0.31 0.25 0.38 0.64 1.16 1.07 1.46 1.49 1.30 1.14 0.95 0.87 0.62 0.51 0.70 0.50 0.25 0.18 0.15 0.12 0.15 0.21 0.28 0.25 0.24 0.26 0.25 0.25 0.21 0.21 0.20 0.21 0.25 0.30
1.18 0.89 1.06 1.20 1.03 0.94 0.71 0.51 0.47 0.44 0.26 0.30 0.41 0.82 1.41 1.11 1.47 1.41 1.03 1.50 1.17 0.89 1.08 0.68 0.46 0.25 0.19 0.18 0.20 0.23 0.25 0.24 0.29 0.32 0.33 0.29 0.29 0.27 0.24 0.27 0.37 0.38 0.51 0.75
0.82 0.75 0.65 0.90 0.66 0.58 0.52 0.51 0.48 0.30 0.21 0.26 0.72 0.93 1.17 1.24 1.47 1.17 0.81 1.09 1.06 0.97 0.77 0.51 0.43 0.37 0.33 0.30 0.29 0.27 0.36 0.39 0.41 0.48 0.48 0.53 0.57 0.70 0.81 0.88 0.99 0.82 0.92 1.14
0.71 0.70 0.77 0.59 0.72 0.65 0.68 0.57 0.41 0.31 0.33 0.47 0.83 0.99 0.91 0.88 1.49 0.88 0.70 0.73 0.82 0.72 0.73 0.49 0.63 0.57 0.51 0.53 0.58 0.62 0.71 0.78 0.86 0.95 0.89 0.97 0.94 0.76 0.93 1.02 0.94 0.76 0.75 0.74
0.77 0.92 0.80 0.65 0.63 0.65 0.61 0.53 0.45 0.43 0.55 0.63 0.97 1.04 0.73 0.66 0.47 0.48 0.49 0.56 0.84 0.60 0.54 0.65 0.64 0.71 0.83 0.88 0.93 1.01 1.02 0.97 0.96 0.94 0.82 0.78 0.72 0.62 0.65 0.63 0.56 0.55 0.44 0.43
0.69 0.94 1.04 0.90 0.74 0.80 0.82 0.73 0.60 0.55 0.61 0.75 0.63 0.68 0.67 0.60 0.27 0.24 0.34 0.60 0.83 0.87 0.92 0.87 0.84 0.91 1.02 1.02 0.94 0.93 0.78 0.68 0.65 0.60 0.53 0.49 0.46 0.30 0.18 0.22 0.29 0.20 0.17 0.15

GFSNW_prec_precacc_105.txt.gz
Total_Precipitation_Accumulation
0.51 0.45 0.44 0.41 0.46 0.65 1.10 1.70 1.19 0.30 0.42 1.06 0.77 0.26 0.03 0.00 0.01 0.00 0.01 0.02 0.04 0.03 0.02 0.01 0.02 0.01 0.05 0.03 0.05 0.12 0.15 0.12 0.06 0.01 0.00 0.00 0.07 0.15 0.34 0.69 0.46 0.31 0.29 0.52
0.89 0.63 0.67 0.57 0.59 0.91 1.46 2.14 1.09 0.91 0.88 1.11 0.36 0.12 0.05 0.02 0.01 0.01 0.03 0.03 0.03 0.02 0.02 0.03 0.04 0.02 0.03 0.02 0.05 0.11 0.08 0.19 0.17 0.09 0.11 0.08 0.09 0.17 0.29 0.47 0.59 0.49 0.54 0.46
1.21 0.99 0.87 0.83 0.84 1.15 1.95 2.64 1.88 2.05 1.37 0.36 0.38 0.49 0.25 0.07 0.05 0.09 0.10 0.05 0.06 0.07 0.08 0.05 0.04 0.03 0.03 0.05 0.06 0.12 0.15 0.08 0.11 0.13 0.22 0.29 0.20 0.14 0.21 0.69 1.00 0.61 0.42 0.28
1.09 1.00 1.12 1.13 1.20 1.50 3.03 3.80 1.50 0.83 0.92 0.43 0.22 0.30 0.32 0.19 0.22 0.16 0.08 0.23 0.28 0.23 0.16 0.13 0.10 0.11 0.09 0.10 0.09 0.20 0.32 0.20 0.08 0.04 0.02 0.10 0.19 0.18 0.16 0.26 0.34 0.53 0.21 0.31
1.12 1.12 1.04 1.23 1.53 2.17 4.20 3.66 0.93 0.29 0.16 0.19 0.29 0.37 0.20 0.11 0.14 0.14 0.20 0.28 0.11 0.09 0.16 0.14 0.21 0.24 0.26 0.30 0.31 0.37 0.54 0.38 0.14 0.07 0.03 0.03 0.03 0.04 0.20 0.22 0.17 0.20 0.12 0.36
0.89 1.09 1.09 1.18 1.64 3.14 5.06 2.94 0.72 0.60 0.36 0.18 0.30 0.23 0.15 0.14 0.08 0.11 0.14 0.22 0.14 0.07 0.17 0.18 0.22 0.17 0.20 0.25 0.35 0.48 0.52 0.67 0.47 0.21 0.06 0.06 0.04 0.05 0.08 0.15 0.23 0.35 0.44 0.37
0.67 0.80 1.06 1.14 1.63 2.70 3.12 2.16 0.94 1.25 0.88 0.26 0.14 0.07 0.08 0.11 0.10 0.10 0.06 0.16 0.43 0.24 0.07 0.10 0.16 0.25 0.20 0.22 0.24 0.34 0.56 0.50 0.56 0.38 0.17 0.24 0.08 0.16 0.26 0.27 0.42 0.51 0.56 0.44
0.71 0.67 0.94 1.05 1.35 1.79 1.91 1.76 1.43 1.46 0.96 0.22 0.11 0.09 0.12 0.13 0.19 0.18 0.11 0.09 0.22 0.24 0.20 0.33 0.29 0.23 0.29 0.22 0.22 0.25 0.33 0.49 0.62 0.55 0.50 0.22 0.13 0.27 0.53 0.61 0.60 0.44 0.38 0.33
0.72 0.59 0.83 1.04 1.07 1.32 1.58 1.44 1.44 2.27 1.67 0.53 0.11 0.16 0.16 0.22 0.24 0.33 0.22 0.34 0.31 0.33 0.59 0.70 0.54 0.35 0.23 0.23 0.27 0.18 0.32 0.41 0.73 0.53 0.73 0.56 0.71 0.26 0.21 0.60 0.66 0.31 0.29 0.31
0.67 0.58 0.72 0.89 0.80 0.93 1.36 1.40 1.30 2.44 2.50 0.65 0.26 0.30 0.32 0.38 0.38 0.39 0.42 0.56 0.46 0.55 0.79 0.95 0.98 0.54 0.23 0.38 0.62 0.39 0.30 0.37 0.44 0.42 0.61 0.60 0.46 0.26 0.34 0.68 0.70 0.24 0.33 0.35
0.71 0.67 0.60 0.77 0.74 0.85 1.26 1.23 1.26 2.03 2.05 0.68 0.47 0.29 0.23 0.25 0.34 0.59 0.58 0.91 0.89 0.64 0.63 0.54 0.61 0.71 0.38 0.62 1.10 0.62 0.61 0.50 0.49 0.62 0.87 0.68 0.11 0.28 0.59 0.78 0.43 0.29 0.37 0.37
0.72 0.73 0.71 0.80 0.90 1.04 1.28 1.37 1.06 1.50 2.11 1.14 0.47 0.25 0.15 0.07 0.06 0.19 0.44 0.65 0.70 0.76 0.61 0.36 0.35 0.43 0.46 0.58 0.80 0.82 1.36 1.12 1.16 0.79 0.73 0.49 0.29 0.41 0.47 0.40 0.41 0.44 0.59 0.62
0.65 0.62 0.68 0.91 1.16 1.20 1.38 1.37 1.03 2.43 2.59 1.61 0.68 0.32 0.10 0.04 0.04 0.09 0.39 0.22 0.55 0.89 0.69 0.81 0.51 0.45 0.33 0.36 0.65 0.64 0.56 0.52 0.93 0.86 0.66 0.38 0.53 0.44 0.25 0.25 0.27 0.30 0.31 0.74
0.68 0.75 0.78 1.04 1.29 1.27 1.75 1.78 1.43 2.67 1.83 1.71 1.04 0.50 0.18 0.13 0.08 0.15 0.18 0.16 0.26 0.51 0.63 0.82 0.70 0.43 0.39 0.35 0.47 0.42 0.36 0.59 0.52 0.85 0.91 0.67 0.64 0.93 0.59 0.40 0.30 0.31 0.32 0.25
0.64 0.69 0.91 1.28 1.42 1.55 2.39 2.28 2.01 1.81 1.48 1.40 1.25 0.34 0.29 0.21 0.18 0.15 0.31 0.34 0.38 0.66 0.67 0.61 0.34 0.32 0.63 0.60 0.60 0.43 0.37 0.91 0.85 0.79 1.02 1.16 1.22 0.81 0.64 0.72 0.58 0.42 0.21 0.17
0.58 0.74 1.03 1.18 1.43 2.52 4.18 5.20 3.16 1.71 1.53 1.82 1.53 0.65 0.29 0.39 0.34 0.35 0.25 0.47 0.70 0.82 0.99 0.53 0.19 0.21 0.75 0.70 0.90 0.61 0.43 0.44 0.61 0.91 0.99 1.04 0.94 0.60 0.37 0.26 0.31 0.32 0.22 0.18
0.75 0.85 0.98 1.02 1.42 2.07 3.12 2.57 1.56 1.22 1.68 2.34 1.63 1.03 0.50 0.45 0.61 0.70 0.83 0.60 1.03 1.44 1.27 0.69 0.32 0.24 0.51 0.70 0.79 0.60 0.39 0.46 0.47 0.65 0.59 0.40 0.33 0.26 0.15 0.06 0.04 0.02 0.02 0.04
0.85 1.07 1.23 1.40 1.69 2.22 2.05 1.28 1.31 1.16 1.84 1.69 1.36 1.21 1.10 0.82 1.11 1.04 1.01 1.13 1.18 1.33 1.34 0.85 0.54 0.60 0.77 0.83 0.62 0.36 0.26 0.39 0.34 0.34 0.25 0.18 0.12 0.05 0.03 0.01 0.01 0.01 0.01 0.01
1.29 1.58 2.07 3.07 2.66 2.52 1.74 1.52 1.69 1.37 1.41 1.10 0.60 0.87 1.76 1.65 1.57 1.25 1.03 1.40 1.44 1.07 0.85 0.67 0.78 1.06 1.10 0.72 0.30 0.27 0.22 0.28 0.31 0.19 0.06 0.03 0.04 0.03 0.02 0.00 0.01 0.01 0.02 0.06
1.71 2.12 2.93 3.08 2.01 1.71 1.93 2.71 2.74 2.32 1.24 0.83 0.56 0.46 1.14 1.76 1.86 1.50 1.26 1.04 0.94 0.94 0.73 0.81 1.09 0.88 0.47 0.19 0.18 0.17 0.14 0.17 0.18 0.16 0.11 0.06 0.05 0.03 0.02 0.03 0.04 0.05 0.09 0.11
1.46 1.80 2.38 1.88 1.85 1.97 2.17 2.03 1.54 1.35 0.73 0.31 0.41 0.50 0.95 1.16 1.81 1.44 1.06 1.16 0.77 0.53 0.67 0.72 1.01 0.57 0.32 0.11 0.07 0.09 0.14 0.18 0.22 0.24 0.24 0.23 0.19 0.14 0.09 0.13 0.16 0.15 0.15 0.19
0.90 1.42 1.65 2.11 2.07 1.70 1.30 0.98 0.74 0.55 0.31 0.25 0.38 0.65 1.16 1.07 1.46 1.49 1.30 1.14 0.96 0.90 0.63 0.52 0.73 0.52 0.26 0.18 0.15 0.12 0.15 0.21 0.28 0.25 0.24 0.26 0.25 0.25 0.21 0.21 0.20 0.21 0.25 0.30
1.18 0.89 1.06 1.20 1.03 0.94 0.71 0.51 0.47 0.44 0.27 0.30 0.41 0.82 1.41 1.11 1.48 1.42 1.03 1.50 1.19 0.91 1.11 0.74 0.50 0.25 0.19 0.19 0.20 0.24 0.25 0.24 0.29 0.33 0.33 0.29 0.29 0.27 0.24 0.27 0.37 0.38 0.51 0.75
0.82 0.75 0.65 0.90 0.66 0.58 0.52 0.51 0.48 0.30 0.21 0.27 0.72 0.93 1.17 1.24 1.47 1.17 0.82 1.09 1.06 0.99 0.81 0.57 0.43 0.37 0.34 0.30 0.30 0.27 0.36 0.40 0.42 0.49 0.48 0.53 0.58 0.70 0.81 0.88 0.99 0.82 0.92 1.14
0.71 0.70 0.77 0.60 0.73 0.66 0.69 0.58 0.42 0.31 0.33 0.47 0.84 1.00 0.92 0.89 1.50 0.88 0.70 0.73 0.83 0.74 0.78 0.51 0.63 0.57 0.51 0.54 0.59 0.63 0.72 0.79 0.88 0.96 0.90 0.98 0.94 0.76 0.93 1.02 0.94 0.76 0.75 0.74
0.77 0.93 0.82 0.66 0.65 0.67 0.63 0.55 0.46 0.44 0.56 0.64 0.98 1.04 0.73 0.67 0.47 0.48 0.49 0.57 0.87 0.62 0.54 0.65 0.64 0.71 0.83 0.89 0.94 1.01 1.03 0.98 0.97 0.95 0.83 0.78 0.72 0.62 0.65 0.63 0.56 0.55 0.44 0.43
0.70 0.95 1.06 0.93 0.76 0.82 0.83 0.74 0.61 0.56 0.62 0.76 0.63 0.68 0.67 0.61 0.27 0.24 0.34 0.61 0.85 0.87 0.92 0.87 0.84 0.92 1.02 1.02 0.94 0.93 0.78 0.68 0.65 0.60 0.53 0.49 0.46 0.30 0.18 0.22 0.29 0.20 0.17 0.15

GFSNW_prec_precacc_108.txt.gz
Total_Precipitation_Accumulation
0.56 0.60 0.55 0.47 0.46 0.65 1.13 1.78 1.31 0.31 0.49 1.22 0.88 0.27 0.03 0.01 0.01 0.00 0.01 0.02 0.04 0.04 0.02 0.01 0.03 0.03 0.06 0.04 0.05 0.12 0.15 0.13 0.07 0.01 0.00 0.00 0.07 0.15 0.40 0.82 0.61 0.36 0.33 0.63
0.94 0.82 0.91 0.73 0.61 0.91 1.50 2.24 1.16 0.96 0.97 1.20 0.37 0.12 0.05 0.02 0.01 0.01 0.03 0.03 0.03 0.02 0.02 0.04 0.04 0.03 0.04 0.02 0.05 0.11 0.08 0.19 0.19 0.10 0.11 0.08 0.09 0.17 0.29 0.48 0.60 0.49 0.56 0.53
1.27 1.20 1.11 1.06 0.90 1.16 2.03 2.81 1.95 2.17 1.52 0.39 0.39 0.49 0.25 0.07 0.05 0.09 0.10 0.06 0.07 0.07 0.08 0.05 0.05 0.04 0.04 0.05 0.06 0.12 0.15 0.08 0.11 0.15 0.23 0.29 0.20 0.14 0.21 0.69 1.00 0.61 0.42 0.29
1.14 1.22 1.39 1.34 1.27 1.53 3.10 3.96 1.58 0.85 0.96 0.44 0.23 0.32 0.32 0.20 0.22 0.16 0.08 0.24 0.29 0.24 0.16 0.14 0.11 0.13 0.09 0.10 0.09 0.20 0.32 0.20 0.08 0.04 0.02 0.10 0.19 0.18 0.16 0.26 0.34 0.53 0.21 0.31
1.14 1.24 1.25 1.48 1.63 2.26 4.31 3.72 1.00 0.31 0.17 0.19 0.30 0.39 0.22 0.12 0.15 0.14 0.21 0.29 0.12 0.10 0.18 0.15 0.22 0.25 0.26 0.30 0.31 0.37 0.54 0.38 0.14 0.07 0.03 0.03 0.03 0.04 0.20 0.22 0.17 0.20 0.12 0.36
0.92 1.28 1.24 1.35 1.74 3.19 5.13 2.96 0.74 0.63 0.39 0.20 0.31 0.25 0.15 0.15 0.09 0.12 0.15 0.23 0.15 0.09 0.19 0.18 0.22 0.17 0.20 0.25 0.35 0.48 0.52 0.67 0.47 0.21 0.06 0.06 0.04 0.05 0.08 0.15 0.23 0.35 0.44 0.37
0.70 1.03 1.25 1.25 1.70 2.72 3.14 2.21 0.99 1.29 0.92 0.28 0.15 0.08 0.09 0.13 0.12 0.11 0.07 0.16 0.45 0.25 0.07 0.10 0.16 0.25 0.20 0.22 0.24 0.34 0.56 0.50 0.56 0.38 0.17 0.24 0.08 0.16 0.26 0.27 0.42 0.51 0.56 0.44
0.74 0.79 1.13 1.13 1.37 1.80 1.97 1.84 1.53 1.54 1.03 0.24 0.12 0.11 0.14 0.16 0.24 0.19 0.11 0.09 0.22 0.24 0.20 0.33 0.29 0.23 0.29 0.22 0.22 0.25 0.33 0.49 0.62 0.55 0.50 0.23 0.14 0.27 0.53 0.61 0.60 0.44 0.38 0.33
0.77 0.69 0.93 1.07 1.08 1.36 1.64 1.51 1.49 2.33 1.78 0.56 0.12 0.18 0.18 0.27 0.28 0.34 0.22 0.34 0.31 0.33 0.59 0.70 0.54 0.35 0.23 0.23 0.27 0.18 0.32 0.41 0.73 0.53 0.73 0.56 0.72 0.26 0.21 0.60 0.67 0.31 0.30 0.31
0.73 0.65 0.76 0.89 0.80 0.97 1.42 1.44 1.32 2.49 2.66 0.68 0.29 0.33 0.35 0.40 0.39 0.40 0.42 0.56 0.46 0.55 0.79 0.96 0.98 0.54 0.23 0.38 0.62 0.39 0.30 0.37 0.44 0.42 0.62 0.61 0.46 0.26 0.34 0.69 0.71 0.24 0.33 0.36
0.76 0.71 0.61 0.77 0.74 0.87 1.31 1.27 1.27 2.08 2.22 0.69 0.49 0.30 0.26 0.26 0.35 0.60 0.58 0.91 0.89 0.64 0.63 0.54 0.62 0.72 0.38 0.63 1.10 0.62 0.61 0.50 0.50 0.62 0.88 0.69 0.11 0.28 0.59 0.78 0.43 0.29 0.37 0.37
0.74 0.75 0.71 0.80 0.90 1.06 1.30 1.45 1.07 1.52 2.18 1.15 0.47 0.25 0.15 0.07 0.06 0.20 0.44 0.65 0.70 0.76 0.61 0.36 0.36 0.43 0.46 0.58 0.81 0.82 1.37 1.14 1.18 0.80 0.74 0.49 0.29 0.41 0.47 0.40 0.41 0.44 0.59 0.62
0.65 0.62 0.68 0.92 1.18 1.23 1.41 1.48 1.04 2.43 2.60 1.63 0.69 0.32 0.10 0.04 0.04 0.09 0.39 0.22 0.55 0.89 0.69 0.82 0.52 0.47 0.33 0.37 0.67 0.64 0.56 0.53 0.93 0.86 0.66 0.38 0.53 0.44 0.25 0.25 0.28 0.30 0.31 0.74
0.69 0.76 0.79 1.06 1.31 1.31 1.78 1.83 1.44 2.69 1.85 1.73 1.04 0.50 0.18 0.13 0.08 0.15 0.18 0.16 0.26 0.51 0.63 0.82 0.72 0.45 0.41 0.38 0.48 0.43 0.36 0.59 0.52 0.85 0.91 0.67 0.64 0.93 0.59 0.40 0.30 0.31 0.32 0.25
0.65 0.71 0.93 1.29 1.44 1.56 2.41 2.31 2.01 1.82 1.51 1.40 1.25 0.34 0.29 0.21 0.18 0.15 0.31 0.34 0.38 0.66 0.67 0.61 0.36 0.33 0.64 0.60 0.61 0.43 0.37 0.91 0.86 0.80 1.02 1.16 1.23 0.81 0.64 0.72 0.58 0.43 0.21 0.17
0.61 0.76 1.05 1.18 1.43 2.52 4.23 5.23 3.16 1.71 1.54 1.82 1.53 0.65 0.29 0.39 0.34 0.35 0.25 0.47 0.70 0.82 0.99 0.53 0.19 0.22 0.75 0.71 0.91 0.62 0.43 0.44 0.61 0.91 0.99 1.04 0.94 0.60 0.37 0.26 0.31 0.32 0.22 0.18
0.75 0.85 0.99 1.02 1.42 2.09 3.14 2.58 1.56 1.22 1.68 2.34 1.63 1.03 0.50 0.45 0.61 0.70 0.83 0.60 1.03 1.44 1.27 0.69 0.32 0.24 0.52 0.72 0.80 0.60 0.39 0.46 0.47 0.65 0.59 0.40 0.33 0.26 0.15 0.06 0.04 0.02 0.02 0.04
0.85 1.07 1.23 1.40 1.69 2.23 2.05 1.28 1.31 1.16 1.85 1.70 1.36 1.21 1.10 0.82 1.11 1.04 1.01 1.13 1.18 1.33 1.34 0.85 0.54 0.60 0.77 0.83 0.62 0.36 0.26 0.39 0.34 0.34 0.25 0.18 0.12 0.05 0.03 0.01 0.01 0.01 0.01 0.01
1.29 1.58 2.07 3.08 2.67 2.53 1.74 1.52 1.69 1.37 1.41 1.11 0.60 0.87 1.77 1.65 1.57 1.25 1.04 1.40 1.44 1.07 0.86 0.67 0.78 1.07 1.10 0.73 0.30 0.27 0.22 0.28 0.31 0.19 0.06 0.03 0.04 0.03 0.02 0.00 0.01 0.01 0.02 0.06
1.71 2.13 2.94 3.09 2.02 1.71 1.93 2.71 2.75 2.32 1.24 0.83 0.57 0.47 1.14 1.76 1.87 1.50 1.26 1.04 0.94 0.95 0.74 0.81 1.09 0.89 0.47 0.19 0.18 0.17 0.14 0.17 0.18 0.16 0.11 0.06 0.05 0.03 0.02 0.03 0.04 0.05 0.09 0.11
1.46 1.80 2.38 1.88 1.85 1.97 2.17 2.03 1.54 1.35 0.73 0.31 0.41 0.50 0.95 1.16 1.81 1.44 1.07 1.16 0.78 0.54 0.69 0.73 1.01 0.59 0.32 0.11 0.07 0.09 0.14 0.18 0.22 0.24 0.24 0.23 0.19 0.14 0.09 0.13 0.16 0.15 0.15 0.19
0.90 1.42 1.65 2.11 2.07 1.70 1.30 0.98 0.74 0.55 0.31 0.25 0.38 0.65 1.17 1.07 1.46 1.50 1.30 1.14 0.96 0.93 0.65 0.53 0.75 0.53 0.26 0.18 0.15 0.12 0.15 0.21 0.28 0.26 0.24 0.26 0.25 0.25 0.21 0.21 0.20 0.21 0.25 0.30
1.18 0.89 1.06 1.20 1.03 0.94 0.71 0.51 0.47 0.44 0.27 0.31 0.42 0.83 1.41 1.11 1.48 1.42 1.03 1.51 1.21 0.92 1.13 0.78 0.54 0.26 0.19 0.19 0.21 0.24 0.25 0.24 0.29 0.33 0.33 0.29 0.29 0.27 0.24 0.27 0.37 0.38 0.51 0.75
0.82 0.75 0.65 0.90 0.66 0.58 0.52 0.52 0.49 0.30 0.21 0.28 0.73 0.94 1.18 1.25 1.48 1.17 0.82 1.10 1.07 0.99 0.85 0.64 0.44 0.37 0.34 0.31 0.30 0.27 0.37 0.40 0.43 0.50 0.48 0.53 0.58 0.70 0.81 0.88 0.99 0.82 0.92 1.14
0.71 0.70 0.77 0.60 0.73 0.67 0.70 0.58 0.42 0.31 0.34 0.48 0.84 1.00 0.92 0.89 1.50 0.88 0.70 0.74 0.83 0.76 0.85 0.54 0.63 0.57 0.52 0.55 0.60 0.63 0.73 0.80 0.89 0.97 0.90 0.98 0.94 0.77 0.93 1.02 0.94 0.76 0.75 0.74
0.77 0.93 0.84 0.68 0.66 0.69 0.64 0.56 0.46 0.44 0.57 0.66 0.98 1.05 0.74 0.67 0.47 0.48 0.49 0.58 0.92 0.65 0.55 0.65 0.65 0.71 0.84 0.89 0.94 1.02 1.04 0.99 0.98 0.96 0.83 0.78 0.72 0.62 0.65 0.63 0.56 0.55 0.44 0.43
0.71 0.96 1.08 0.97 0.77 0.84 0.85 0.76 0.62 0.58 0.65 0.77 0.64 0.68 0.67 0.61 0.27 0.25 0.34 0.63 0.87 0.88 0.92 0.87 0.84 0.92 1.03 1.06 0.98 0.96 0.81 0.70 0.66 0.60 0.53 0.49 0.46 0.30 0.18 0.22 0.29 0.20 0.17 0.15

GFSNW_prec_precacc_111.txt.gz
Total_Precipitation_Accumulation
0.57 0.60 0.56 0.51 0.54 0.74 1.18 1.85 1.41 0.31 0.51 1.41 1.09 0.34 0.05 0.02 0.03 0.02 0.03 0.03 0.04 0.04 0.02 0.01 0.03 0.04 0.09 0.04 0.07 0.14 0.16 0.15 0.07 0.01 0.00 0.00 0.07 0.16 0.42 0.89 0.71 0.56 0.44 0.71
0.94 0.83 0.91 0.77 0.75 1.05 1.56 2.30 1.28 1.00 1.07 1.34 0.44 0.14 0.06 0.04 0.02 0.04 0.04 0.03 0.03 0.02 0.02 0.04 0.04 0.04 0.04 0.02 0.06 0.13 0.10 0.25 0.19 0.10 0.12 0.08 0.09 0.17 0.31 0.50 0.61 0.50 0.57 0.56
1.27 1.21 1.12 1.09 1.10 1.45 2.21 2.94 2.06 2.25 1.72 0.47 0.40 0.49 0.26 0.12 0.07 0.10 0.10 0.06 0.07 0.07 0.08 0.05 0.06 0.04 0.04 0.05 0.06 0.12 0.15 0.08 0.11 0.16 0.23 0.29 0.20 0.14 0.21 0.69 1.00 0.61 0.42 0.30
1.14 1.23 1.40 1.36 1.46 1.80 3.40 4.09 1.66 0.87 1.01 0.47 0.24 0.34 0.34 0.20 0.23 0.17 0.08 0.24 0.29 0.24 0.17 0.14 0.11 0.14 0.09 0.10 0.09 0.20 0.33 0.20 0.08 0.04 0.02 0.10 0.19 0.18 0.16 0.26 0.34 0.53 0.21 0.32
1.14 1.25 1.26 1.52 1.76 2.56 4.61 3.84 1.07 0.43 0.17 0.19 0.30 0.42 0.28 0.14 0.15 0.15 0.21 0.29 0.12 0.11 0.18 0.16 0.22 0.27 0.27 0.30 0.31 0.37 0.54 0.38 0.14 0.07 0.03 0.03 0.03 0.04 0.20 0.22 0.17 0.20 0.12 0.36
0.93 1.30 1.26 1.37 1.94 3.59 5.38 3.01 0.76 0.86 0.68 0.26 0.32 0.25 0.16 0.17 0.13 0.14 0.15 0.23 0.16 0.11 0.21 0.19 0.22 0.18 0.21 0.25 0.35 0.48 0.52 0.67 0.47 0.21 0.06 0.06 0.04 0.05 0.08 0.15 0.23 0.35 0.44 0.37
0.71 1.05 1.28 1.29 1.85 3.00 3.21 2.23 1.02 1.34 1.00 0.47 0.19 0.08 0.09 0.13 0.15 0.15 0.09 0.17 0.46 0.26 0.07 0.10 0.16 0.25 0.20 0.22 0.24 0.34 0.56 0.50 0.56 0.38 0.17 0.24 0.08 0.16 0.26 0.27 0.42 0.51 0.56 0.44
0.75 0.81 1.15 1.17 1.48 1.92 2.02 1.87 1.57 1.60 1.06 0.26 0.16 0.13 0.15 0.17 0.27 0.25 0.16 0.11 0.23 0.24 0.20 0.33 0.30 0.23 0.29 0.22 0.22 0.25 0.33 0.49 0.62 0.55 0.50 0.23 0.14 0.27 0.53 0.61 0.60 0.44 0.38 0.33
0.80 0.72 0.97 1.16 1.12 1.44 1.69 1.54 1.54 2.41 1.80 0.57 0.13 0.21 0.22 0.32 0.36 0.47 0.32 0.34 0.31 0.33 0.59 0.70 0.54 0.35 0.23 0.23 0.27 0.18 0.32 0.41 0.73 0.53 0.73 0.57 0.72 0.26 0.21 0.60 0.67 0.31 0.30 0.31
0.76 0.68 0.80 1.00 0.85 1.02 1.47 1.51 1.34 2.55 2.73 0.82 0.32 0.37 0.43 0.45 0.46 0.50 0.44 0.56 0.46 0.55 0.79 0.96 0.99 0.55 0.23 0.38 0.62 0.39 0.30 0.37 0.44 0.42 0.62 0.61 0.46 0.26 0.34 0.69 0.71 0.24 0.33 0.36
0.77 0.73 0.67 0.86 0.81 0.91 1.33 1.31 1.30 2.13 2.45 0.96 0.55 0.33 0.35 0.33 0.40 0.64 0.58 0.91 0.89 0.64 0.63 0.55 0.63 0.74 0.38 0.63 1.10 0.62 0.61 0.50 0.50 0.62 0.88 0.70 0.11 0.28 0.59 0.79 0.43 0.29 0.37 0.38
0.75 0.78 0.77 0.86 0.93 1.07 1.32 1.49 1.09 1.59 2.40 1.23 0.51 0.27 0.21 0.11 0.08 0.20 0.44 0.65 0.70 0.76 0.61 0.36 0.36 0.44 0.47 0.59 0.81 0.82 1.37 1.14 1.18 0.80 0.74 0.49 0.29 0.41 0.47 0.40 0.41 0.44 0.59 0.62
0.68 0.66 0.73 0.93 1.18 1.24 1.42 1.51 1.09 2.52 2.64 1.64 0.70 0.32 0.10 0.05 0.04 0.09 0.39 0.22 0.55 0.89 0.70 0.83 0.53 0.47 0.33 0.38 0.68 0.64 0.56 0.53 0.93 0.87 0.66 0.38 0.53 0.44 0.25 0.25 0.28 0.30 0.31 0.74
0.71 0.78 0.80 1.06 1.31 1.31 1.81 1.88 1.47 2.76 1.89 1.76 1.04 0.50 0.18 0.13 0.08 0.15 0.18 0.16 0.26 0.51 0.63 0.83 0.74 0.47 0.42 0.38 0.49 0.43 0.36 0.59 0.52 0.86 0.91 0.67 0.64 0.93 0.59 0.40 0.30 0.31 0.32 0.25
0.65 0.72 0.93 1.30 1.46 1.58 2.46 2.34 2.07 1.88 1.54 1.41 1.25 0.34 0.29 0.21 0.18 0.15 0.31 0.34 0.38 0.66 0.67 0.61 0.37 0.34 0.64 0.60 0.61 0.43 0.37 0.91 0.86 0.80 1.02 1.16 1.23 0.81 0.64 0.72 0.58 0.43 0.21 0.17
0.61 0.76 1.06 1.20 1.46 2.58 4.33 5.34 3.20 1.72 1.54 1.83 1.53 0.65 0.29 0.39 0.34 0.35 0.25 0.47 0.70 0.82 0.99 0.54 0.20 0.22 0.75 0.71 0.91 0.62 0.43 0.44 0.61 0.91 0.99 1.04 0.94 0.60 0.37 0.26 0.31 0.32 0.22 0.18
0.76 0.86 0.99 1.03 1.44 2.13 3.16 2.60 1.57 1.22 1.69 2.35 1.63 1.03 0.50 0.45 0.61 0.70 0.83 0.60 1.03 1.44 1.27 0.69 0.32 0.24 0.52 0.72 0.80 0.60 0.39 0.46 0.47 0.65 0.59 0.40 0.33 0.26 0.15 0.06 0.04 0.02 0.02 0.04
0.85 1.08 1.23 1.41 1.71 2.26 2.05 1.28 1.31 1.17 1.87 1.70 1.36 1.21 1.10 0.82 1.11 1.04 1.01 1.13 1.18 1.33 1.34 0.85 0.54 0.60 0.77 0.83 0.62 0.36 0.26 0.39 0.34 0.34 0.25 0.18 0.12 0.05 0.03 0.01 0.01 0.01 0.01 0.01
1.29 1.58 2.07 3.09 2.70 2.54 1.74 1.52 1.69 1.37 1.42 1.11 0.60 0.87 1.77 1.65 1.57 1.25 1.04 1.40 1.44 1.07 0.86 0.67 0.78 1.07 1.10 0.73 0.30 0.27 0.22 0.28 0.31 0.19 0.06 0.03 0.04 0.03 0.02 0.00 0.01 0.01 0.02 0.06
1.71 2.13 2.96 3.12 2.02 1.71 1.93 2.72 2.75 2.32 1.24 0.83 0.57 0.47 1.14 1.76 1.87 1.50 1.26 1.04 0.94 0.95 0.74 0.81 1.09 0.89 0.47 0.19 0.18 0.17 0.14 0.17 0.18 0.16 0.11 0.06 0.05 0.03 0.02 0.03 0.04 0.05 0.09 0.11
1.47 1.82 2.39 1.88 1.85 1.98 2.18 2.03 1.55 1.35 0.73 0.31 0.42 0.50 0.95 1.16 1.81 1.44 1.07 1.16 0.78 0.54 0.70 0.73 1.02 0.59 0.32 0.11 0.07 0.09 0.14 0.18 0.22 0.24 0.24 0.23 0.19 0.14 0.09 0.13 0.16 0.15 0.15 0.19
0.90 1.42 1.65 2.11 2.08 1.70 1.30 0.98 0.74 0.55 0.31 0.25 0.38 0.65 1.17 1.07 1.46 1.50 1.30 1.14 0.96 0.93 0.65 0.53 0.75 0.54 0.26 0.18 0.15 0.12 0.15 0.21 0.28 0.26 0.24 0.26 0.25 0.25 0.21 0.21 0.20 0.21 0.25 0.30
1.19 0.90 1.07 1.20 1.03 0.94 0.71 0.51 0.47 0.44 0.27 0.31 0.42 0.83 1.42 1.12 1.49 1.42 1.03 1.51 1.21 0.92 1.13 0.78 0.54 0.26 0.19 0.19 0.21 0.24 0.25 0.24 0.29 0.33 0.33 0.29 0.29 0.27 0.25 0.27 0.37 0.38 0.51 0.75
0.82 0.75 0.65 0.90 0.66 0.58 0.53 0.52 0.49 0.30 0.22 0.28 0.73 0.94 1.18 1.26 1.48 1.17 0.82 1.10 1.07 1.00 0.86 0.68 0.44 0.38 0.34 0.31 0.30 0.27 0.38 0.41 0.43 0.50 0.48 0.53 0.58 0.70 0.82 0.88 0.99 0.82 0.92 1.14
0.71 0.70 0.77 0.61 0.74 0.67 0.70 0.58 0.42 0.31 0.35 0.48 0.85 1.01 0.92 0.89 1.50 0.88 0.70 0.74 0.83 0.77 0.92 0.57 0.63 0.58 0.53 0.56 0.61 0.64 0.74 0.80 0.89 0.97 0.90 0.98 0.94 0.77 0.93 1.02 0.94 0.76 0.75 0.74
0.77 0.93 0.84 0.68 0.66 0.70 0.65 0.56 0.46 0.44 0.58 0.66 0.99 1.05 0.74 0.67 0.47 0.48 0.49 0.59 0.94 0.67 0.55 0.65 0.65 0.72 0.85 0.90 0.95 1.03 1.05 1.00 0.98 0.96 0.84 0.78 0.72 0.62 0.65 0.63 0.56 0.55 0.44 0.43
0.71 0.97 1.10 0.99 0.78 0.86 0.86 0.76 0.62 0.59 0.67 0.77 0.64 0.68 0.67 0.61 0.27 0.25 0.35 0.64 0.87 0.88 0.92 0.87 0.84 0.92 1.04 1.07 0.99 0.97 0.82 0.71 0.67 0.61 0.54 0.50 0.47 0.30 0.18 0.22 0.29 0.20 0.17 0.15

GFSNW_prec_precacc_114.txt.gz
Total_Precipitation_Accumulation
0.59 0.62 0.57 0.52 0.56 0.81 1.25 1.90 1.47 0.31 0.53 1.58 1.32 0.43 0.07 0.02 0.03 0.03 0.04 0.04 0.05 0.04 0.02 0.02 0.03 0.04 0.09 0.04 0.07 0.16 0.19 0.17 0.07 0.01 0.00 0.00 0.07 0.16 0.42 0.90 0.72 0.61 0.53 0.86
0.95 0.85 0.94 0.79 0.78 1.12 1.60 2.44 1.34 1.03 1.10 1.46 0.53 0.17 0.06 0.05 0.03 0.05 0.07 0.05 0.03 0.02 0.02 0.04 0.04 0.04 0.04 0.02 0.06 0.17 0.19 0.38 0.29 0.15 0.13 0.08 0.09 0.17 0.31 0.52 0.64 0.52 0.58 0.58
1.28 1.22 1.13 1.10 1.11 1.51 2.29 3.13 2.20 2.33 1.83 0.52 0.44 0.50 0.28 0.15 0.08 0.11 0.13 0.07 0.08 0.07 0.08 0.05 0.06 0.04 0.04 0.05 0.07 0.13 0.18 0.17 0.18 0.19 0.24 0.29 0.20 0.14 0.21 0.70 1.01 0.62 0.42 0.30
1.15 1.24 1.41 1.39 1.49 1.84 3.55 4.41 1.88 0.89 1.03 0.49 0.25 0.34 0.35 0.21 0.25 0.21 0.12 0.28 0.29 0.24 0.17 0.14 0.11 0.14 0.09 0.10 0.09 0.20 0.33 0.21 0.10 0.05 0.02 0.10 0.19 0.18 0.16 0.27 0.34 0.53 0.21 0.32
1.15 1.25 1.27 1.54 1.80 2.64 4.70 4.07 1.23 0.46 0.17 0.19 0.30 0.44 0.34 0.15 0.15 0.18 0.24 0.37 0.16 0.11 0.18 0.16 0.22 0.27 0.27 0.31 0.31 0.37 0.55 0.40 0.16 0.09 0.03 0.03 0.03 0.04 0.20 0.22 0.17 0.20 0.12 0.36
0.93 1.30 1.26 1.38 1.97 3.69 5.57 3.11 0.82 0.90 0.72 0.28 0.34 0.26 0.17 0.19 0.20 0.18 0.16 0.24 0.17 0.12 0.21 0.19 0.22 0.18 0.21 0.25 0.35 0.48 0.52 0.69 0.51 0.25 0.07 0.08 0.04 0.05 0.08 0.15 0.23 0.35 0.44 0.37
0.72 1.05 1.28 1.30 1.88 3.05 3.23 2.28 1.08 1.41 1.07 0.63 0.31 0.09 0.09 0.14 0.19 0.22 0.14 0.22 0.46 0.26 0.08 0.11 0.16 0.25 0.21 0.22 0.24 0.34 0.56 0.50 0.57 0.38 0.18 0.29 0.09 0.16 0.26 0.27 0.42 0.51 0.56 0.44
0.77 0.81 1.17 1.19 1.51 1.97 2.06 1.95 1.60 1.65 1.10 0.28 0.29 0.26 0.18 0.18 0.30 0.30 0.23 0.17 0.25 0.26 0.22 0.35 0.33 0.25 0.30 0.23 0.22 0.25 0.33 0.50 0.63 0.55 0.50 0.23 0.14 0.27 0.53 0.61 0.60 0.44 0.38 0.33
0.81 0.73 0.99 1.19 1.17 1.51 1.76 1.66 1.60 2.44 1.85 0.58 0.13 0.23 0.29 0.35 0.37 0.50 0.36 0.43 0.35 0.33 0.60 0.71 0.56 0.36 0.24 0.23 0.27 0.18 0.32 0.41 0.73 0.53 0.73 0.57 0.72 0.26 0.21 0.60 0.67 0.31 0.30 0.31
0.77 0.69 0.82 1.04 0.89 1.09 1.62 1.58 1.40 2.60 2.78 0.82 0.32 0.37 0.45 0.47 0.47 0.55 0.50 0.66 0.58 0.55 0.80 0.97 0.99 0.55 0.23 0.38 0.62 0.39 0.30 0.37 0.44 0.42 0.62 0.61 0.46 0.26 0.34 0.69 0.71 0.24 0.33 0.36
0.80 0.76 0.69 0.89 0.87 0.96 1.47 1.36 1.31 2.14 2.48 1.01 0.73 0.36 0.36 0.36 0.42 0.67 0.62 0.97 0.92 0.64 0.63 0.55 0.63 0.75 0.39 0.63 1.10 0.62 0.61 0.50 0.50 0.62 0.88 0.70 0.11 0.28 0.59 0.79 0.43 0.29 0.37 0.38
0.77 0.79 0.79 0.94 1.09 1.16 1.38 1.54 1.13 1.61 2.43 1.35 0.72 0.40 0.23 0.13 0.12 0.21 0.44 0.65 0.70 0.76 0.61 0.36 0.36 0.45 0.47 0.59 0.81 0.82 1.37 1.14 1.18 0.80 0.74 0.49 0.29 0.41 0.47 0.40 0.41 0.44 0.59 0.62
0.68 0.67 0.76 1.07 1.39 1.31 1.43 1.53 1.12 2.55 2.68 1.71 0.84 0.40 0.16 0.09 0.07 0.10 0.39 0.22 0.55 0.89 0.70 0.83 0.54 0.48 0.34 0.38 0.68 0.64 0.56 0.53 0.93 0.87 0.66 0.38 0.53 0.44 0.25 0.25 0.28 0.30 0.31 0.74
0.71 0.79 0.85 1.14 1.39 1.33 1.82 1.88 1.51 2.81 1.92 1.77 1.08 0.51 0.20 0.17 0.09 0.15 0.18 0.16 0.26 0.51 0.63 0.83 0.75 0.48 0.43 0.39 0.49 0.43 0.36 0.59 0.52 0.86 0.92 0.67 0.64 0.93 0.59 0.40 0.30 0.31 0.32 0.25
0.67 0.74 0.97 1.33 1.47 1.59 2.47 2.35 2.10 1.92 1.55 1.41 1.25 0.34 0.29 0.21 0.18 0.15 0.31 0.34 0.38 0.66 0.67 0.61 0.37 0.34 0.64 0.60 0.61 0.43 0.37 0.91 0.86 0.80 1.02 1.16 1.23 0.81 0.64 0.72 0.58 0.43 0.21 0.17
0.62 0.78 1.06 1.20 1.47 2.63 4.34 5.45 3.27 1.73 1.54 1.83 1.53 0.65 0.29 0.39 0.34 0.35 0.25 0.47 0.70 0.82 0.99 0.54 0.20 0.22 0.75 0.71 0.91 0.62 0.43 0.44 0.61 0.91 0.99 1.04 0.94 0.60 0.37 0.26 0.31 0.32 0.22 0.18
0.76 0.86 1.00 1.07 1.50 2.14 3.16 2.64 1.61 1.22 1.69 2.35 1.63 1.03 0.50 0.45 0.61 0.70 0.83 0.60 1.03 1.44 1.27 0.69 0.32 0.24 0.52 0.72 0.80 0.60 0.39 0.46 0.47 0.65 0.59 0.40 0.33 0.27 0.15 0.06 0.04 0.02 0.02 0.04
0.86 1.09 1.26 1.47 1.73 2.26 2.05 1.28 1.31 1.17 1.87 1.70 1.36 1.21 1.10 0.82 1.11 1.04 1.01 1.13 1.18 1.33 1.34 0.85 0.54 0.60 0.77 0.83 0.62 0.36 0.26 0.39 0.34 0.34 0.25 0.18 0.12 0.05 0.03 0.01 0.01 0.01 0.01 0.01
1.30 1.61 2.13 3.13 2.71 2.54 1.74 1.52 1.69 1.37 1.42 1.11 0.60 0.87 1.77 1.65 1.57 1.25 1.04 1.40 1.44 1.07 0.86 0.67 0.78 1.07 1.10 0.73 0.30 0.27 0.22 0.28 0.31 0.19 0.06 0.03 0.04 0.03 0.02 0.00 0.01 0.01 0.02 0.06
1.72 2.16 3.00 3.17 2.03 1.71 1.93 2.72 2.75 2.32 1.24 0.83 0.57 0.47 1.14 1.76 1.87 1.50 1.26 1.04 0.94 0.95 0.74 0.81 1.09 0.89 0.47 0.19 0.18 0.17 0.14 0.17 0.18 0.16 0.11 0.06 0.05 0.03 0.02 0.03 0.04 0.05 0.09 0.11
1.48 1.83 2.39 1.88 1.85 1.98 2.18 2.03 1.55 1.35 0.73 0.31 0.42 0.50 0.95 1.16 1.81 1.44 1.07 1.16 0.78 0.54 0.70 0.73 1.02 0.59 0.32 0.11 0.07 0.09 0.14 0.18 0.22 0.24 0.24 0.23 0.19 0.14 0.09 0.13 0.16 0.15 0.15 0.19
0.90 1.42 1.65 2.11 2.08 1.70 1.30 0.98 0.74 0.55 0.31 0.25 0.38 0.65 1.17 1.07 1.46 1.50 1.30 1.14 0.96 0.93 0.65 0.53 0.75 0.54 0.26 0.18 0.15 0.12 0.15 0.21 0.28 0.26 0.24 0.26 0.25 0.25 0.21 0.21 0.20 0.21 0.25 0.30
1.19 0.90 1.07 1.20 1.03 0.94 0.71 0.51 0.47 0.44 0.27 0.31 0.42 0.83 1.42 1.12 1.49 1.42 1.03 1.51 1.21 0.92 1.13 0.78 0.54 0.26 0.20 0.19 0.21 0.24 0.25 0.24 0.29 0.33 0.33 0.29 0.29 0.27 0.26 0.28 0.37 0.38 0.51 0.75
0.82 0.75 0.65 0.90 0.66 0.59 0.53 0.52 0.49 0.30 0.22 0.28 0.73 0.94 1.18 1.26 1.48 1.17 0.82 1.10 1.07 1.00 0.86 0.68 0.44 0.38 0.35 0.31 0.30 0.27 0.38 0.41 0.43 0.50 0.48 0.53 0.58 0.73 0.86 0.90 1.00 0.82 0.92 1.14
0.71 0.70 0.77 0.61 0.74 0.67 0.70 0.58 0.42 0.31 0.35 0.48 0.85 1.01 0.92 0.89 1.50 0.88 0.70 0.74 0.83 0.77 0.93 0.58 0.63 0.58 0.54 0.56 0.61 0.64 0.74 0.81 0.89 0.97 0.90 0.98 0.94 0.78 0.96 1.06 0.96 0.76 0.75 0.74
0.77 0.93 0.84 0.68 0.66 0.70 0.65 0.56 0.46 0.44 0.58 0.66 0.99 1.05 0.74 0.67 0.47 0.48 0.49 0.59 0.94 0.68 0.55 0.66 0.65 0.72 0.86 0.91 0.95 1.03 1.05 1.00 0.99 0.97 0.85 0.81 0.74 0.63 0.67 0.65 0.57 0.56 0.44 0.43
0.71 0.98 1.12 1.00 0.78 0.87 0.88 0.76 0.62 0.59 0.67 0.77 0.64 0.68 0.67 0.61 0.27 0.25 0.35 0.64 0.87 0.88 0.92 0.87 0.85 0.92 1.05 1.08 1.00 0.98 0.82 0.71 0.68 0.63 0.57 0.54 0.49 0.32 0.19 0.22 0.29 0.20 0.17 0.15

GFSNW_prec_precacc_117.txt.gz
Total_Precipitation_Accumulation
0.60 0.64 0.60 0.54 0.59 0.87 1.27 1.93 1.47 0.31 0.54 1.71 1.44 0.48 0.08 0.02 0.03 0.03 0.04 0.04 0.05 0.04 0.02 0.02 0.03 0.04 0.09 0.04 0.07 0.17 0.22 0.20 0.08 0.01 0.00 0.01 0.07 0.16 0.42 0.90 0.72 0.61 0.53 0.87
0.96 0.86 0.95 0.81 0.81 1.19 1.63 2.49 1.40 1.04 1.16 1.50 0.59 0.19 0.07 0.05 0.03 0.05 0.07 0.05 0.03 0.02 0.02 0.05 0.04 0.04 0.04 0.02 0.06 0.18 0.22 0.42 0.32 0.19 0.16 0.10 0.11 0.17 0.31 0.52 0.65 0.53 0.58 0.58
1.28 1.22 1.15 1.13 1.15 1.57 2.33 3.19 2.27 2.45 1.92 0.54 0.44 0.52 0.31 0.18 0.08 0.11 0.14 0.08 0.09 0.08 0.08 0.06 0.06 0.04 0.04 0.05 0.07 0.15 0.23 0.18 0.18 0.20 0.26 0.30 0.21 0.15 0.21 0.70 1.02 0.62 0.42 0.30
1.16 1.24 1.42 1.41 1.53 1.90 3.65 4.55 1.97 0.90 1.10 0.51 0.25 0.35 0.36 0.22 0.26 0.22 0.13 0.31 0.31 0.25 0.17 0.14 0.12 0.14 0.09 0.10 0.09 0.20 0.34 0.21 0.10 0.07 0.07 0.15 0.23 0.20 0.17 0.27 0.34 0.54 0.21 0.32
1.18 1.27 1.29 1.56 1.84 2.69 4.80 4.20 1.28 0.49 0.18 0.19 0.30 0.46 0.35 0.15 0.15 0.19 0.26 0.38 0.17 0.15 0.19 0.16 0.22 0.27 0.28 0.31 0.31 0.37 0.55 0.40 0.16 0.09 0.03 0.03 0.04 0.05 0.20 0.22 0.17 0.20 0.12 0.36
0.96 1.33 1.28 1.40 2.00 3.76 5.68 3.12 0.83 0.98 0.77 0.28 0.35 0.27 0.17 0.20 0.22 0.18 0.16 0.24 0.20 0.19 0.29 0.22 0.23 0.18 0.21 0.26 0.36 0.48 0.52 0.69 0.52 0.27 0.09 0.22 0.16 0.05 0.08 0.15 0.23 0.35 0.44 0.37
0.73 1.07 1.29 1.31 1.90 3.08 3.26 2.29 1.09 1.46 1.14 0.68 0.32 0.09 0.09 0.14 0.19 0.23 0.15 0.28 0.49 0.28 0.11 0.19 0.24 0.26 0.21 0.22 0.24 0.34 0.56 0.50 0.59 0.40 0.20 0.37 0.12 0.16 0.26 0.27 0.42 0.51 0.56 0.44
0.78 0.83 1.17 1.19 1.52 2.00 2.06 1.96 1.65 1.73 1.18 0.31 0.31 0.27 0.18 0.18 0.30 0.30 0.24 0.21 0.30 0.30 0.26 0.42 0.42 0.30 0.32 0.24 0.22 0.25 0.33 0.50 0.64 0.56 0.52 0.24 0.14 0.27 0.53 0.61 0.60 0.44 0.38 0.33
0.83 0.75 1.00 1.19 1.18 1.54 1.78 1.67 1.63 2.50 1.90 0.62 0.15 0.24 0.30 0.37 0.37 0.51 0.37 0.46 0.42 0.42 0.64 0.76 0.61 0.38 0.25 0.24 0.27 0.18 0.32 0.41 0.74 0.54 0.74 0.57 0.72 0.26 0.21 0.60 0.67 0.31 0.30 0.31
0.78 0.69 0.83 1.05 0.91 1.13 1.66 1.60 1.46 2.73 2.86 0.83 0.32 0.37 0.45 0.47 0.47 0.55 0.50 0.67 0.72 0.77 0.90 1.01 1.00 0.55 0.23 0.38 0.62 0.39 0.30 0.38 0.44 0.42 0.62 0.61 0.46 0.26 0.34 0.69 0.71 0.24 0.33 0.36
0.80 0.76 0.69 0.90 0.89 1.02 1.53 1.40 1.35 2.26 2.60 1.02 0.73 0.36 0.37 0.36 0.42 0.67 0.62 0.99 1.02 0.84 0.81 0.58 0.65 0.75 0.39 0.63 1.10 0.62 0.61 0.50 0.50 0.62 0.88 0.70 0.11 0.28 0.59 0.79 0.43 0.29 0.37 0.38
0.79 0.81 0.79 0.95 1.12 1.21 1.47 1.63 1.18 1.68 2.50 1.36 0.73 0.42 0.25 0.13 0.12 0.21 0.44 0.67 0.71 0.80 0.65 0.37 0.37 0.45 0.47 0.59 0.81 0.82 1.37 1.14 1.18 0.80 0.74 0.49 0.29 0.41 0.47 0.40 0.41 0.44 0.59 0.62
0.71 0.69 0.78 1.10 1.42 1.37 1.56 1.60 1.23 2.60 2.70 1.72 0.87 0.52 0.20 0.09 0.08 0.10 0.39 0.22 0.55 0.89 0.70 0.83 0.54 0.48 0.34 0.38 0.68 0.64 0.56 0.53 0.93 0.87 0.66 0.38 0.53 0.44 0.25 0.25 0.28 0.30 0.31 0.74
0.74 0.83 0.90 1.23 1.58 1.41 1.92 1.96 1.59 2.85 1.92 1.78 1.17 0.57 0.30 0.22 0.10 0.16 0.18 0.16 0.26 0.51 0.63 0.83 0.75 0.48 0.43 0.39 0.49 0.43 0.36 0.59 0.52 0.86 0.92 0.67 0.65 0.93 0.59 0.40 0.30 0.31 0.32 0.25
0.69 0.76 1.03 1.48 1.72 1.67 2.50 2.41 2.13 1.93 1.55 1.41 1.32 0.41 0.38 0.27 0.18 0.16 0.31 0.34 0.38 0.66 0.67 0.61 0.37 0.35 0.65 0.60 0.61 0.43 0.37 0.91 0.86 0.80 1.02 1.16 1.23 0.81 0.64 0.72 0.58 0.43 0.21 0.17
0.63 0.81 1.15 1.41 1.63 2.68 4.37 5.50 3.28 1.74 1.54 1.83 1.54 0.67 0.31 0.39 0.34 0.35 0.25 0.47 0.70 0.82 0.99 0.54 0.20 0.22 0.76 0.71 0.91 0.62 0.43 0.44 0.61 0.91 0.99 1.04 0.94 0.60 0.37 0.26 0.31 0.32 0.22 0.18
0.79 0.93 1.10 1.17 1.53 2.15 3.16 2.65 1.61 1.22 1.69 2.35 1.63 1.03 0.50 0.45 0.61 0.70 0.83 0.60 1.03 1.44 1.27 0.69 0.32 0.24 0.52 0.72 0.80 0.60 0.39 0.46 0.47 0.65 0.59 0.40 0.33 0.27 0.15 0.06 0.04 0.02 0.02 0.04
0.92 1.13 1.30 1.49 1.74 2.26 2.05 1.28 1.31 1.17 1.87 1.70 1.36 1.21 1.10 0.82 1.11 1.04 1.01 1.13 1.18 1.33 1.34 0.85 0.54 0.60 0.77 0.83 0.62 0.36 0.26 0.39 0.34 0.34 0.25 0.18 0.12 0.05 0.03 0.01 0.01 0.01 0.01 0.01
1.32 1.65 2.21 3.20 2.74 2.56 1.77 1.52 1.69 1.37 1.42 1.11 0.60 0.87 1.77 1.65 1.57 1.25 1.04 1.40 1.44 1.07 0.86 0.67 0.78 1.07 1.10 0.73 0.30 0.27 0.22 0.28 0.31 0.19 0.06 0.03 0.04 0.03 0.02 0.00 0.01 0.01 0.02 0.06
1.76 2.22 3.03 3.21 2.04 1.72 1.93 2.72 2.75 2.32 1.24 0.83 0.57 0.47 1.14 1.76 1.87 1.50 1.26 1.04 0.94 0.95 0.74 0.81 1.09 0.89 0.47 0.19 0.18 0.17 0.14 0.17 0.18 0.16 0.11 0.06 0.05 0.03 0.02 0.03 0.04 0.05 0.09 0.11
1.51 1.84 2.40 1.90 1.87 1.98 2.18 2.03 1.55 1.35 0.73 0.31 0.42 0.50 0.95 1.16 1.81 1.44 1.07 1.16 0.78 0.54 0.70 0.73 1.02 0.59 0.32 0.11 0.07 0.09 0.14 0.18 0.22 0.24 0.24 0.23 0.19 0.14 0.09 0.13 0.16 0.15 0.15 0.19
0.90 1.42 1.65 2.11 2.08 1.70 1.30 0.98 0.74 0.55 0.31 0.25 0.38 0.65 1.17 1.07 1.46 1.50 1.30 1.14 0.96 0.93 0.65 0.53 0.75 0.54 0.26 0.18 0.15 0.12 0.15 0.21 0.28 0.26 0.24 0.26 0.25 0.25 0.21 0.21 0.20 0.21 0.25 0.30
1.19 0.90 1.07 1.20 1.03 0.94 0.71 0.51 0.47 0.44 0.27 0.31 0.42 0.83 1.42 1.12 1.49 1.42 1.03 1.51 1.21 0.92 1.13 0.78 0.54 0.26 0.20 0.19 0.21 0.24 0.25 0.24 0.29 0.33 0.33 0.29 0.29 0.27 0.26 0.28 0.37 0.38 0.51 0.75
0.82 0.75 0.65 0.90 0.66 0.59 0.53 0.52 0.49 0.30 0.22 0.28 0.73 0.94 1.18 1.26 1.48 1.17 0.82 1.10 1.07 1.00 0.86 0.68 0.44 0.38 0.35 0.31 0.30 0.27 0.38 0.41 0.43 0.50 0.48 0.53 0.58 0.74 0.88 0.93 1.01 0.82 0.92 1.14
0.71 0.70 0.77 0.61 0.75 0.68 0.70 0.58 0.42 0.31 0.35 0.48 0.85 1.01 0.92 0.89 1.50 0.88 0.70 0.74 0.83 0.77 0.93 0.58 0.63 0.58 0.54 0.56 0.61 0.64 0.74 0.81 0.89 0.97 0.90 0.99 0.95 0.80 1.00 1.11 0.99 0.78 0.76 0.74
0.77 0.93 0.85 0.69 0.67 0.71 0.66 0.56 0.46 0.44 0.58 0.66 0.99 1.05 0.74 0.67 0.47 0.48 0.49 0.59 0.94 0.68 0.55 0.66 0.65 0.72 0.86 0.91 0.95 1.03 1.05 1.00 0.99 0.97 0.86 0.84 0.79 0.67 0.72 0.71 0.63 0.60 0.45 0.43
0.71 1.00 1.13 1.00 0.79 0.90 0.90 0.77 0.62 0.59 0.67 0.77 0.64 0.68 0.67 0.61 0.27 0.25 0.35 0.64 0.87 0.88 0.92 0.87 0.85 0.92 1.05 1.08 1.01 0.98 0.82 0.72 0.69 0.64 0.60 0.60 0.56 0.37 0.23 0.26 0.33 0.24 0.18 0.15

GFSNW_prec_precacc_120.txt.gz
Total_Precipitation_Accumulation
0.63 0.65 0.61 0.56 0.63 0.94 1.30 1.95 1.49 0.31 0.57 1.82 1.55 0.54 0.08 0.02 0.03 0.03 0.04 0.04 0.05 0.04 0.02 0.02 0.03 0.04 0.09 0.04 0.07 0.17 0.22 0.23 0.09 0.02 0.00 0.01 0.08 0.16 0.43 0.91 0.73 0.61 0.53 0.87
0.99 0.89 0.97 0.83 0.86 1.25 1.65 2.52 1.41 1.05 1.24 1.54 0.65 0.22 0.08 0.06 0.03 0.05 0.08 0.05 0.03 0.02 0.02 0.05 0.04 0.04 0.04 0.02 0.07 0.20 0.28 0.47 0.34 0.19 0.16 0.10 0.11 0.17 0.31 0.53 0.69 0.55 0.58 0.58
1.30 1.23 1.16 1.14 1.19 1.63 2.37 3.25 2.32 2.52 2.00 0.56 0.45 0.52 0.32 0.19 0.09 0.11 0.15 0.09 0.09 0.08 0.09 0.06 0.06 0.04 0.04 0.06 0.08 0.17 0.28 0.21 0.19 0.21 0.26 0.30 0.21 0.15 0.23 0.77 1.15 0.64 0.43 0.30
1.18 1.25 1.42 1.42 1.56 1.96 3.74 4.67 2.04 0.92 1.17 0.53 0.26 0.36 0.37 0.22 0.27 0.23 0.15 0.32 0.31 0.25 0.18 0.14 0.12 0.14 0.10 0.11 0.10 0.21 0.39 0.24 0.11 0.07 0.07 0.15 0.23 0.21 0.21 0.37 0.43 0.60 0.23 0.32
1.19 1.27 1.30 1.56 1.87 2.75 4.97 4.40 1.32 0.50 0.18 0.19 0.32 0.48 0.36 0.15 0.15 0.20 0.27 0.40 0.17 0.17 0.21 0.16 0.22 0.28 0.29 0.31 0.31 0.37 0.56 0.42 0.16 0.09 0.03 0.04 0.05 0.05 0.21 0.25 0.22 0.26 0.14 0.37
0.96 1.33 1.30 1.42 2.02 3.82 5.91 3.30 0.88 0.98 0.78 0.28 0.37 0.31 0.18 0.20 0.22 0.19 0.16 0.25 0.21 0.20 0.29 0.22 0.23 0.20 0.22 0.28 0.37 0.49 0.53 0.70 0.53 0.28 0.09 0.24 0.21 0.05 0.08 0.15 0.23 0.35 0.44 0.37
0.74 1.07 1.32 1.35 1.94 3.10 3.32 2.37 1.13 1.51 1.16 0.70 0.32 0.09 0.09 0.14 0.19 0.23 0.16 0.28 0.49 0.28 0.11 0.20 0.30 0.35 0.24 0.24 0.25 0.35 0.58 0.52 0.62 0.43 0.23 0.43 0.12 0.16 0.26 0.27 0.42 0.51 0.56 0.44
0.79 0.84 1.20 1.22 1.55 2.03 2.06 1.98 1.71 1.76 1.20 0.31 0.33 0.27 0.18 0.18 0.30 0.30 0.24 0.21 0.30 0.32 0.30 0.46 0.49 0.43 0.51 0.37 0.29 0.28 0.33 0.51 0.67 0.58 0.54 0.25 0.14 0.27 0.53 0.61 0.60 0.44 0.38 0.33
0.84 0.76 1.03 1.22 1.21 1.57 1.79 1.67 1.66 2.53 1.91 0.62 0.15 0.25 0.30 0.37 0.37 0.51 0.37 0.46 0.42 0.45 0.72 0.84 0.66 0.45 0.36 0.32 0.34 0.19 0.32 0.41 0.77 0.57 0.75 0.58 0.72 0.26 0.21 0.60 0.67 0.31 0.30 0.31
0.79 0.71 0.85 1.07 0.94 1.17 1.68 1.60 1.46 2.77 2.93 0.84 0.33 0.40 0.47 0.47 0.47 0.56 0.50 0.68 0.73 0.80 1.05 1.18 1.07 0.56 0.23 0.41 0.63 0.42 0.33 0.41 0.46 0.43 0.62 0.61 0.46 0.26 0.34 0.69 0.71 0.24 0.33 0.36
0.81 0.77 0.70 0.92 0.91 1.06 1.58 1.40 1.35 2.27 2.64 1.04 0.74 0.36 0.37 0.38 0.43 0.68 0.62 1.01 1.04 0.90 0.94 0.77 0.79 0.78 0.39 0.63 1.10 0.62 0.62 0.51 0.51 0.63 0.89 0.70 0.11 0.28 0.59 0.79 0.43 0.29 0.37 0.38
0.79 0.81 0.80 0.96 1.14 1.24 1.52 1.64 1.19 1.72 2.56 1.41 0.74 0.42 0.25 0.14 0.13 0.21 0.44 0.68 0.72 0.81 0.68 0.47 0.47 0.52 0.48 0.59 0.81 0.82 1.37 1.14 1.18 0.80 0.74 0.49 0.29 0.41 0.47 0.40 0.41 0.44 0.59 0.62
0.71 0.70 0.79 1.10 1.43 1.40 1.60 1.61 1.26 2.66 2.83 1.78 0.89 0.52 0.20 0.09 0.08 0.10 0.40 0.22 0.55 0.89 0.71 0.86 0.57 0.51 0.34 0.38 0.68 0.64 0.56 0.53 0.93 0.87 0.66 0.38 0.53 0.44 0.25 0.25 0.28 0.30 0.31 0.74
0.76 0.85 0.91 1.23 1.59 1.43 1.97 2.00 1.68 2.93 1.96 1.81 1.18 0.57 0.30 0.22 0.10 0.17 0.19 0.16 0.26 0.52 0.64 0.86 0.78 0.51 0.44 0.39 0.49 0.43 0.36 0.59 0.52 0.86 0.92 0.67 0.65 0.93 0.59 0.40 0.30 0.31 0.32 0.25
0.75 0.82 1.06 1.49 1.73 1.69 2.57 2.49 2.20 2.08 1.60 1.42 1.34 0.45 0.43 0.30 0.22 0.18 0.38 0.35 0.38 0.72 0.71 0.64 0.38 0.35 0.65 0.60 0.61 0.43 0.37 0.91 0.86 0.80 1.02 1.16 1.23 0.81 0.64 0.72 0.58 0.43 0.21 0.17
0.68 0.86 1.19 1.44 1.69 2.75 4.49 5.79 3.46 1.86 1.64 1.85 1.57 0.78 0.42 0.44 0.36 0.41 0.30 0.50 0.70 0.84 1.00 0.54 0.20 0.22 0.76 0.71 0.91 0.62 0.43 0.44 0.61 0.91 0.99 1.04 0.94 0.60 0.37 0.26 0.31 0.32 0.22 0.18
0.83 0.98 1.15 1.28 1.67 2.25 3.22 2.70 1.64 1.28 1.76 2.38 1.66 1.12 0.59 0.50 0.62 0.72 0.83 0.60 1.03 1.44 1.27 0.69 0.32 0.24 0.52 0.76 0.82 0.60 0.39 0.46 0.47 0.65 0.59 0.41 0.33 0.27 0.15 0.06 0.04 0.02 0.02 0.04
0.95 1.20 1.43 1.69 1.91 2.34 2.06 1.28 1.31 1.20 1.89 1.70 1.36 1.22 1.11 0.83 1.11 1.05 1.01 1.13 1.18 1.33 1.34 0.85 0.54 0.60 0.78 0.84 0.62 0.36 0.26 0.39 0.34 0.34 0.25 0.18 0.12 0.05 0.03 0.01 0.01 0.01 0.01 0.01
1.44 1.84 2.42 3.36 2.83 2.63 1.80 1.53 1.70 1.38 1.43 1.11 0.60 0.87 1.77 1.65 1.57 1.25 1.04 1.40 1.44 1.07 0.86 0.67 0.78 1.07 1.10 0.73 0.30 0.27 0.22 0.28 0.31 0.19 0.06 0.03 0.04 0.03 0.02 0.00 0.01 0.01 0.02 0.06
1.90 2.31 3.07 3.26 2.10 1.81 1.97 2.75 2.77 2.33 1.24 0.83 0.57 0.47 1.14 1.76 1.87 1.50 1.26 1.04 0.94 0.95 0.74 0.81 1.09 0.89 0.47 0.19 0.18 0.17 0.14 0.17 0.18 0.16 0.11 0.06 0.05 0.03 0.02 0.03 0.04 0.05 0.09 0.11
1.52 1.84 2.42 2.01 2.00 2.02 2.18 2.03 1.55 1.35 0.73 0.31 0.42 0.50 0.95 1.16 1.81 1.44 1.07 1.16 0.78 0.54 0.70 0.73 1.02 0.59 0.32 0.11 0.07 0.09 0.14 0.18 0.22 0.24 0.24 0.23 0.19 0.14 0.09 0.13 0.16 0.15 0.15 0.19
0.90 1.43 1.70 2.15 2.08 1.70 1.30 0.98 0.74 0.55 0.31 0.25 0.38 0.65 1.17 1.07 1.46 1.50 1.30 1.14 0.96 0.93 0.65 0.53 0.75 0.54 0.26 0.18 0.15 0.12 0.15 0.21 0.28 0.26 0.24 0.26 0.25 0.25 0.21 0.21 0.20 0.21 0.25 0.30
1.19 0.90 1.07 1.20 1.03 0.94 0.71 0.51 0.47 0.44 0.27 0.31 0.42 0.83 1.42 1.12 1.49 1.42 1.03 1.51 1.21 0.92 1.13 0.78 0.54 0.26 0.20 0.19 0.21 0.24 0.25 0.24 0.29 0.33 0.33 0.29 0.29 0.27 0.26 0.29 0.37 0.38 0.51 0.75
0.82 0.75 0.65 0.90 0.66 0.59 0.53 0.52 0.49 0.30 0.22 0.28 0.73 0.94 1.18 1.26 1.48 1.17 0.82 1.10 1.07 1.00 0.86 0.68 0.44 0.38 0.35 0.31 0.30 0.27 0.38 0.41 0.43 0.50 0.48 0.53 0.58 0.74 0.89 0.94 1.02 0.83 0.92 1.14
0.71 0.70 0.77 0.61 0.75 0.68 0.70 0.58 0.42 0.31 0.35 0.48 0.85 1.01 0.92 0.89 1.50 0.88 0.70 0.74 0.83 0.77 0.93 0.58 0.63 0.58 0.54 0.56 0.61 0.64 0.74 0.81 0.89 0.97 0.90 0.99 0.96 0.81 1.03 1.15 1.03 0.81 0.78 0.75
0.77 0.94 0.85 0.70 0.67 0.72 0.66 0.56 0.46 0.44 0.58 0.66 0.99 1.05 0.74 0.67 0.47 0.48 0.49 0.59 0.94 0.68 0.55 0.66 0.65 0.72 0.86 0.91 0.95 1.03 1.05 1.00 0.99 0.97 0.86 0.85 0.80 0.70 0.76 0.77 0.69 0.65 0.49 0.45
0.72 1.00 1.14 1.01 0.80 0.93 0.92 0.77 0.62 0.59 0.67 0.77 0.64 0.68 0.67 0.61 0.27 0.25 0.35 0.64 0.87 0.88 0.92 0.87 0.85 0.92 1.05 1.08 1.01 0.98 0.82 0.72 0.69 0.64 0.61 0.62 0.59 0.40 0.27 0.31 0.39 0.29 0.23 0.19

GFSNW_prec_precacc_123.txt.gz
Total_Precipitation_Accumulation
0.73 0.89 0.95 0.76 0.73 1.01 1.33 1.95 1.49 0.31 0.60 1.89 1.57 0.56 0.08 0.02 0.03 0.03 0.04 0.04 0.05 0.04 0.02 0.02 0.03 0.04 0.09 0.04 0.07 0.17 0.22 0.23 0.09 0.02 0.00 0.02 0.09 0.17 0.45 0.97 0.78 0.64 0.54 0.87
1.03 0.99 1.14 1.06 1.01 1.43 1.79 2.55 1.41 1.06 1.35 1.58 0.68 0.23 0.08 0.06 0.03 0.05 0.08 0.05 0.03 0.02 0.02 0.05 0.04 0.04 0.04 0.02 0.07 0.20 0.30 0.50 0.38 0.23 0.19 0.11 0.11 0.17 0.33 0.57 0.72 0.57 0.61 0.59
1.38 1.30 1.26 1.22 1.24 1.71 2.48 3.36 2.38 2.55 2.10 0.60 0.46 0.54 0.33 0.19 0.09 0.11 0.15 0.09 0.09 0.08 0.09 0.06 0.06 0.04 0.04 0.06 0.08 0.17 0.30 0.23 0.22 0.24 0.28 0.30 0.21 0.15 0.25 0.81 1.18 0.67 0.44 0.30
1.41 1.39 1.49 1.46 1.59 2.00 3.79 4.81 2.13 0.95 1.23 0.60 0.26 0.36 0.37 0.22 0.27 0.24 0.15 0.33 0.31 0.26 0.19 0.15 0.12 0.14 0.10 0.11 0.10 0.22 0.41 0.25 0.12 0.07 0.08 0.16 0.24 0.21 0.21 0.38 0.43 0.62 0.24 0.33
1.42 1.50 1.43 1.60 1.91 2.81 5.04 4.53 1.38 0.51 0.19 0.20 0.33 0.49 0.36 0.15 0.15 0.21 0.28 0.40 0.17 0.18 0.22 0.16 0.22 0.28 0.29 0.32 0.31 0.38 0.58 0.44 0.17 0.09 0.04 0.05 0.05 0.05 0.21 0.25 0.22 0.28 0.17 0.41
1.11 1.58 1.43 1.46 2.07 3.90 6.06 3.52 0.95 0.99 0.78 0.29 0.40 0.34 0.18 0.20 0.22 0.19 0.16 0.25 0.22 0.21 0.29 0.23 0.24 0.20 0.23 0.28 0.38 0.51 0.56 0.71 0.55 0.29 0.09 0.25 0.22 0.05 0.08 0.15 0.23 0.35 0.44 0.37
0.87 1.19 1.43 1.38 1.97 3.13 3.38 2.44 1.26 1.55 1.17 0.70 0.32 0.09 0.09 0.14 0.19 0.23 0.16 0.28 0.49 0.28 0.11 0.20 0.30 0.35 0.24 0.24 0.25 0.35 0.59 0.56 0.69 0.47 0.26 0.48 0.13 0.16 0.26 0.27 0.42 0.51 0.56 0.44
0.88 0.90 1.25 1.26 1.57 2.04 2.06 2.03 1.81 1.86 1.25 0.32 0.33 0.27 0.18 0.18 0.30 0.30 0.24 0.21 0.31 0.34 0.33 0.48 0.51 0.43 0.52 0.37 0.29 0.29 0.34 0.52 0.73 0.64 0.59 0.26 0.14 0.27 0.53 0.61 0.60 0.44 0.38 0.33
0.95 0.79 1.04 1.25 1.24 1.59 1.79 1.67 1.70 2.65 1.98 0.64 0.15 0.25 0.30 0.37 0.37 0.51 0.37 0.46 0.42 0.45 0.73 0.89 0.70 0.47 0.37 0.33 0.36 0.24 0.43 0.53 0.87 0.65 0.76 0.58 0.72 0.26 0.21 0.60 0.67 0.31 0.30 0.31
0.86 0.72 0.85 1.08 0.96 1.20 1.69 1.60 1.46 2.81 3.02 0.84 0.34 0.41 0.47 0.47 0.47 0.56 0.50 0.68 0.74 0.80 1.06 1.20 1.09 0.57 0.24 0.44 0.70 0.49 0.42 0.54 0.64 0.52 0.64 0.61 0.46 0.26 0.34 0.69 0.71 0.24 0.33 0.36
0.81 0.78 0.72 0.94 0.93 1.10 1.59 1.40 1.35 2.27 2.67 1.04 0.75 0.37 0.38 0.39 0.44 0.68 0.63 1.04 1.07 0.93 0.97 0.78 0.79 0.82 0.40 0.64 1.10 0.63 0.63 0.52 0.52 0.64 0.91 0.70 0.11 0.28 0.59 0.79 0.43 0.29 0.37 0.38
0.79 0.81 0.81 0.98 1.17 1.30 1.56 1.64 1.19 1.72 2.57 1.41 0.74 0.42 0.25 0.15 0.15 0.24 0.45 0.69 0.73 0.83 0.69 0.48 0.49 0.58 0.53 0.61 0.82 0.82 1.37 1.14 1.18 0.80 0.74 0.49 0.29 0.41 0.47 0.40 0.41 0.44 0.59 0.62
0.72 0.70 0.79 1.11 1.45 1.45 1.64 1.61 1.26 2.68 2.85 1.79 0.89 0.53 0.20 0.09 0.08 0.12 0.46 0.24 0.55 0.91 0.73 0.87 0.62 0.56 0.36 0.39 0.68 0.64 0.56 0.53 0.93 0.87 0.66 0.38 0.53 0.44 0.25 0.25 0.28 0.30 0.31 0.74
0.78 0.85 0.91 1.23 1.60 1.45 2.01 2.00 1.69 2.94 2.01 1.83 1.18 0.57 0.30 0.22 0.10 0.17 0.19 0.16 0.27 0.53 0.65 0.89 0.83 0.54 0.45 0.40 0.49 0.44 0.36 0.59 0.52 0.86 0.92 0.67 0.65 0.93 0.59 0.40 0.30 0.31 0.32 0.25
0.79 0.83 1.06 1.49 1.73 1.70 2.61 2.50 2.21 2.10 1.64 1.48 1.34 0.45 0.43 0.30 0.22 0.18 0.39 0.36 0.39 0.73 0.73 0.73 0.51 0.40 0.68 0.62 0.62 0.44 0.37 0.91 0.86 0.80 1.02 1.16 1.23 0.81 0.64 0.72 0.58 0.43 0.21 0.17
0.74 0.89 1.20 1.44 1.69 2.78 4.55 5.86 3.49 1.89 1.77 1.99 1.61 0.79 0.42 0.45 0.38 0.44 0.34 0.57 0.72 0.91 1.15 0.62 0.27 0.23 0.76 0.71 0.91 0.62 0.43 0.44 0.61 0.91 0.99 1.04 0.94 0.60 0.37 0.26 0.31 0.32 0.22 0.18
0.88 1.01 1.17 1.29 1.69 2.27 3.26 2.75 1.65 1.28 1.88 2.66 1.81 1.21 0.75 0.70 0.78 0.86 0.91 0.73 1.09 1.48 1.34 0.72 0.32 0.24 0.52 0.76 0.83 0.60 0.39 0.46 0.47 0.65 0.59 0.41 0.33 0.27 0.15 0.06 0.04 0.02 0.02 0.04
0.99 1.24 1.46 1.73 1.97 2.44 2.11 1.29 1.33 1.27 2.07 1.86 1.42 1.33 1.32 1.00 1.22 1.13 1.04 1.15 1.21 1.34 1.34 0.85 0.54 0.60 0.78 0.84 0.62 0.36 0.26 0.39 0.34 0.34 0.25 0.18 0.12 0.05 0.03 0.01 0.01 0.01 0.01 0.01
1.52 1.92 2.57 3.58 3.01 2.74 1.85 1.55 1.82 1.50 1.56 1.17 0.62 0.93 1.84 1.70 1.59 1.26 1.04 1.40 1.44 1.07 0.86 0.67 0.78 1.07 1.10 0.73 0.30 0.27 0.22 0.28 0.31 0.19 0.06 0.03 0.04 0.03 0.02 0.00 0.01 0.01 0.02 0.06
2.05 2.49 3.29 3.45 2.20 1.84 2.07 2.97 2.98 2.47 1.34 0.84 0.57 0.47 1.14 1.76 1.87 1.50 1.26 1.04 0.94 0.95 0.74 0.81 1.09 0.89 0.47 0.19 0.18 0.17 0.14 0.17 0.18 0.16 0.11 0.06 0.05 0.03 0.02 0.03 0.04 0.05 0.09 0.11
1.62 1.90 2.48 2.13 2.21 2.13 2.28 2.13 1.61 1.38 0.74 0.31 0.42 0.50 0.95 1.16 1.81 1.44 1.07 1.16 0.78 0.54 0.70 0.73 1.02 0.59 0.32 0.11 0.07 0.09 0.14 0.18 0.22 0.24 0.24 0.23 0.19 0.14 0.09 0.13 0.16 0.15 0.15 0.19
0.90 1.43 1.76 2.31 2.18 1.71 1.30 0.98 0.74 0.55 0.31 0.25 0.38 0.65 1.17 1.07 1.46 1.50 1.30 1.14 0.96 0.93 0.65 0.53 0.75 0.54 0.26 0.18 0.15 0.12 0.15 0.21 0.28 0.26 0.24 0.26 0.25 0.25 0.21 0.21 0.20 0.21 0.25 0.30
1.19 0.90 1.07 1.22 1.04 0.94 0.71 0.51 0.47 0.44 0.27 0.31 0.42 0.83 1.42 1.12 1.49 1.42 1.03 1.51 1.21 0.92 1.13 0.78 0.54 0.26 0.20 0.19 0.21 0.24 0.25 0.24 0.29 0.33 0.33 0.29 0.29 0.27 0.26 0.29 0.38 0.40 0.52 0.76
0.82 0.75 0.65 0.90 0.66 0.59 0.53 0.52 0.49 0.30 0.22 0.28 0.73 0.94 1.18 1.26 1.48 1.17 0.82 1.10 1.07 1.00 0.86 0.68 0.44 0.38 0.35 0.31 0.30 0.27 0.38 0.41 0.43 0.50 0.48 0.53 0.58 0.74 0.90 0.96 1.04 0.85 0.94 1.16
0.71 0.70 0.77 0.61 0.75 0.68 0.70 0.58 0.42 0.31 0.35 0.48 0.85 1.01 0.92 0.89 1.50 0.88 0.70 0.74 0.83 0.77 0.93 0.58 0.63 0.58 0.54 0.56 0.61 0.64 0.74 0.81 0.89 0.97 0.90 0.99 0.96 0.81 1.05 1.18 1.06 0.84 0.81 0.79
0.77 0.94 0.85 0.70 0.68 0.73 0.66 0.56 0.46 0.44 0.58 0.66 0.99 1.05 0.74 0.67 0.47 0.48 0.49 0.59 0.94 0.68 0.55 0.66 0.65 0.72 0.86 0.91 0.95 1.03 1.05 1.00 0.99 0.97 0.86 0.85 0.80 0.70 0.77 0.79 0.72 0.69 0.52 0.48
0.72 1.01 1.15 1.01 0.81 0.94 0.93 0.77 0.62 0.59 0.67 0.77 0.64 0.68 0.67 0.61 0.27 0.25 0.35 0.64 0.87 0.88 0.93 0.88 0.85 0.92 1.05 1.08 1.01 0.98 0.82 0.72 0.69 0.64 0.61 0.62 0.59 0.41 0.29 0.32 0.42 0.32 0.27 0.23

GFSNW_prec_precacc_126.txt.gz
Total_Precipitation_Accumulation
0.74 0.98 1.25 1.09 0.90 1.22 1.72 2.15 1.56 0.33 0.62 1.92 1.62 0.59 0.09 0.02 0.03 0.03 0.04 0.04 0.05 0.04 0.02 0.02 0.03 0.04 0.09 0.04 0.07 0.17 0.22 0.23 0.10 0.02 0.00 0.02 0.09 0.17 0.47 1.00 0.80 0.66 0.59 0.89
1.05 1.00 1.25 1.56 1.43 1.73 2.10 2.72 1.44 1.11 1.40 1.60 0.69 0.23 0.08 0.06 0.03 0.05 0.08 0.05 0.03 0.02 0.02 0.05 0.04 0.04 0.04 0.02 0.07 0.20 0.31 0.52 0.41 0.25 0.21 0.12 0.12 0.18 0.35 0.61 0.79 0.64 0.69 0.60
1.40 1.31 1.30 1.42 1.90 2.34 2.76 3.50 2.50 2.67 2.19 0.62 0.46 0.54 0.33 0.19 0.09 0.12 0.15 0.09 0.09 0.08 0.09 0.06 0.06 0.04 0.04 0.06 0.08 0.17 0.33 0.25 0.24 0.25 0.30 0.33 0.25 0.18 0.30 0.87 1.24 0.70 0.45 0.31
1.44 1.41 1.54 1.60 1.87 2.73 4.21 5.05 2.27 1.02 1.35 0.64 0.27 0.37 0.37 0.22 0.27 0.24 0.16 0.33 0.31 0.26 0.19 0.15 0.12 0.14 0.10 0.11 0.10 0.22 0.42 0.25 0.12 0.07 0.08 0.17 0.25 0.22 0.22 0.40 0.46 0.67 0.25 0.33
1.44 1.58 1.57 1.71 2.10 3.17 5.39 4.73 1.47 0.54 0.19 0.20 0.34 0.51 0.37 0.15 0.15 0.21 0.29 0.40 0.17 0.19 0.22 0.16 0.22 0.29 0.31 0.33 0.32 0.40 0.60 0.45 0.18 0.10 0.04 0.06 0.06 0.05 0.21 0.26 0.22 0.29 0.18 0.41
1.13 1.62 1.68 1.73 2.25 4.23 6.55 3.70 0.97 0.99 0.79 0.30 0.43 0.36 0.18 0.20 0.22 0.19 0.17 0.26 0.26 0.24 0.31 0.27 0.28 0.25 0.26 0.31 0.40 0.54 0.58 0.73 0.57 0.31 0.10 0.27 0.26 0.05 0.08 0.15 0.23 0.35 0.44 0.37
0.90 1.26 1.63 1.75 2.25 3.42 3.59 2.50 1.29 1.57 1.19 0.71 0.33 0.09 0.09 0.14 0.20 0.23 0.16 0.29 0.51 0.30 0.12 0.21 0.32 0.36 0.25 0.24 0.26 0.36 0.61 0.58 0.75 0.52 0.31 0.57 0.14 0.16 0.26 0.27 0.42 0.51 0.56 0.44
0.90 0.99 1.43 1.52 1.79 2.33 2.24 2.07 1.83 1.93 1.34 0.34 0.34 0.27 0.19 0.19 0.31 0.31 0.25 0.23 0.32 0.36 0.36 0.51 0.52 0.44 0.52 0.37 0.29 0.29 0.34 0.54 0.76 0.67 0.61 0.28 0.14 0.27 0.53 0.61 0.60 0.44 0.38 0.33
1.08 0.92 1.22 1.38 1.36 1.75 1.92 1.76 1.72 2.66 2.03 0.71 0.18 0.26 0.31 0.39 0.39 0.52 0.38 0.47 0.43 0.47 0.76 0.93 0.74 0.48 0.38 0.34 0.36 0.24 0.43 0.54 0.91 0.67 0.79 0.59 0.72 0.26 0.21 0.60 0.67 0.31 0.30 0.31
1.18 0.94 0.97 1.15 1.02 1.25 1.70 1.61 1.46 2.82 3.05 0.85 0.36 0.43 0.49 0.48 0.47 0.57 0.52 0.69 0.74 0.81 1.07 1.22 1.10 0.58 0.25 0.45 0.71 0.49 0.43 0.57 0.68 0.63 0.76 0.67 0.47 0.26 0.34 0.69 0.71 0.24 0.33 0.36
1.09 0.96 0.79 0.96 0.96 1.11 1.59 1.40 1.36 2.27 2.67 1.05 0.75 0.38 0.40 0.41 0.46 0.70 0.65 1.06 1.10 0.96 1.01 0.80 0.80 0.83 0.41 0.64 1.11 0.63 0.66 0.60 0.61 0.77 1.06 0.78 0.11 0.28 0.59 0.79 0.43 0.29 0.37 0.38
0.89 0.91 0.85 1.00 1.20 1.31 1.56 1.64 1.20 1.72 2.57 1.41 0.74 0.42 0.25 0.16 0.17 0.26 0.49 0.72 0.76 0.86 0.72 0.51 0.51 0.60 0.54 0.61 0.82 0.82 1.38 1.15 1.19 0.82 0.76 0.50 0.29 0.41 0.47 0.40 0.41 0.44 0.59 0.62
0.72 0.71 0.81 1.13 1.46 1.47 1.64 1.61 1.27 2.70 2.85 1.79 0.89 0.53 0.20 0.09 0.08 0.12 0.47 0.27 0.58 0.93 0.78 0.96 0.68 0.60 0.38 0.40 0.68 0.64 0.56 0.53 0.93 0.87 0.66 0.38 0.53 0.44 0.25 0.25 0.28 0.30 0.31 0.74
0.78 0.85 0.91 1.25 1.61 1.47 2.02 2.01 1.69 2.94 2.01 1.84 1.18 0.57 0.30 0.22 0.10 0.17 0.19 0.18 0.29 0.55 0.68 0.95 0.93 0.60 0.48 0.42 0.51 0.45 0.37 0.59 0.52 0.86 0.92 0.67 0.65 0.93 0.59 0.40 0.30 0.31 0.32 0.25
0.80 0.84 1.06 1.50 1.74 1.73 2.64 2.52 2.23 2.10 1.64 1.53 1.37 0.45 0.43 0.30 0.22 0.18 0.39 0.36 0.40 0.75 0.76 0.75 0.53 0.44 0.71 0.68 0.66 0.45 0.37 0.91 0.86 0.81 1.02 1.16 1.23 0.81 0.64 0.72 0.58 0.43 0.21 0.17
0.76 0.92 1.21 1.45 1.71 2.82 4.59 5.89 3.51 1.90 1.79 2.00 1.62 0.80 0.42 0.45 0.38 0.45 0.35 0.58 0.73 0.94 1.17 0.64 0.31 0.33 0.87 0.77 0.93 0.62 0.43 0.44 0.61 0.91 0.99 1.04 0.94 0.60 0.37 0.26 0.31 0.32 0.22 0.18
0.90 1.04 1.18 1.29 1.70 2.29 3.27 2.76 1.65 1.28 1.88 2.70 1.91 1.28 0.77 0.70 0.79 0.88 0.93 0.77 1.11 1.49 1.42 0.85 0.46 0.36 0.57 0.80 0.84 0.60 0.39 0.46 0.47 0.65 0.59 0.41 0.33 0.27 0.15 0.06 0.04 0.02 0.02 0.04
1.00 1.27 1.47 1.74 1.99 2.46 2.11 1.30 1.37 1.28 2.09 1.90 1.49 1.38 1.50 1.13 1.30 1.22 1.08 1.24 1.35 1.44 1.41 0.92 0.59 0.62 0.81 0.86 0.62 0.36 0.26 0.39 0.34 0.34 0.25 0.18 0.12 0.05 0.03 0.01 0.01 0.01 0.01 0.01
1.56 1.97 2.62 3.65 3.06 2.75 1.85 1.56 1.95 1.59 1.61 1.30 0.67 1.01 2.05 1.90 1.71 1.34 1.09 1.46 1.56 1.17 0.88 0.68 0.79 1.09 1.13 0.73 0.30 0.27 0.22 0.28 0.31 0.19 0.06 0.03 0.04 0.03 0.02 0.00 0.01 0.01 0.02 0.06
2.10 2.52 3.35 3.52 2.22 1.88 2.12 3.06 3.28 2.83 1.60 1.03 0.60 0.52 1.29 1.87 1.91 1.54 1.28 1.05 0.95 0.96 0.74 0.81 1.09 0.90 0.47 0.19 0.18 0.17 0.14 0.17 0.18 0.16 0.11 0.06 0.05 0.03 0.02 0.03 0.04 0.05 0.09 0.11
1.66 1.99 2.67 2.23 2.26 2.22 2.45 2.34 1.77 1.49 0.90 0.36 0.42 0.51 0.97 1.17 1.81 1.44 1.07 1.16 0.78 0.54 0.70 0.73 1.02 0.59 0.32 0.11 0.07 0.09 0.14 0.18 0.22 0.24 0.24 0.23 0.19 0.14 0.09 0.13 0.16 0.15 0.15 0.19
0.94 1.47 1.81 2.41 2.27 1.82 1.40 1.01 0.75 0.55 0.32 0.25 0.39 0.65 1.17 1.07 1.46 1.50 1.30 1.14 0.96 0.93 0.65 0.53 0.75 0.54 0.26 0.18 0.15 0.12 0.15 0.21 0.28 0.26 0.24 0.26 0.25 0.25 0.21 0.21 0.20 0.21 0.25 0.30
1.20 0.90 1.10 1.25 1.05 0.95 0.72 0.51 0.47 0.44 0.27 0.31 0.42 0.83 1.42 1.12 1.49 1.42 1.03 1.51 1.21 0.92 1.13 0.78 0.54 0.26 0.20 0.19 0.21 0.24 0.25 0.24 0.29 0.33 0.33 0.29 0.29 0.27 0.26 0.29 0.38 0.40 0.53 0.77
0.82 0.76 0.68 0.91 0.66 0.59 0.53 0.52 0.49 0.30 0.22 0.28 0.73 0.94 1.18 1.26 1.48 1.17 0.82 1.10 1.07 1.00 0.86 0.68 0.44 0.38 0.35 0.31 0.30 0.27 0.38 0.41 0.43 0.50 0.48 0.53 0.58 0.74 0.90 0.96 1.05 0.86 0.96 1.19
0.71 0.70 0.78 0.61 0.75 0.69 0.71 0.59 0.42 0.31 0.35 0.48 0.85 1.01 0.92 0.89 1.50 0.88 0.70 0.74 0.83 0.77 0.93 0.58 0.63 0.58 0.54 0.56 0.61 0.64 0.74 0.81 0.89 0.97 0.90 0.99 0.96 0.82 1.05 1.18 1.07 0.85 0.83 0.82
0.77 0.94 0.85 0.70 0.68 0.74 0.67 0.56 0.46 0.44 0.58 0.66 0.99 1.05 0.74 0.67 0.47 0.48 0.49 0.59 0.94 0.68 0.55 0.66 0.65 0.73 0.86 0.91 0.95 1.03 1.05 1.00 0.99 0.97 0.86 0.85 0.80 0.70 0.77 0.80 0.73 0.71 0.53 0.50
0.72 1.01 1.15 1.02 0.81 0.94 0.93 0.77 0.62 0.59 0.67 0.77 0.64 0.68 0.67 0.61 0.27 0.25 0.35 0.64 0.88 0.88 0.93 0.88 0.85 0.93 1.05 1.08 1.01 0.98 0.82 0.72 0.69 0.64 0.61 0.62 0.60 0.41 0.29 0.33 0.42 0.34 0.30 0.26

GFSNW_prec_precacc_129.txt.gz
Total_Precipitation_Accumulation
0.74 0.98 1.26 1.11 0.96 1.44 2.32 3.00 2.14 0.55 0.74 1.98 1.70 0.65 0.09 0.02 0.03 0.03 0.04 0.04 0.05 0.04 0.02 0.02 0.03 0.04 0.09 0.04 0.07 0.17 0.22 0.23 0.10 0.02 0.00 0.02 0.09 0.17 0.47 1.01 0.81 0.67 0.60 0.89
1.05 1.00 1.25 1.57 1.50 1.93 2.81 3.54 1.93 1.31 1.55 1.74 0.72 0.23 0.08 0.06 0.03 0.05 0.08 0.05 0.03 0.02 0.02 0.05 0.04 0.04 0.04 0.02 0.07 0.20 0.32 0.53 0.41 0.25 0.22 0.13 0.12 0.18 0.35 0.62 0.82 0.66 0.74 0.62
1.40 1.31 1.30 1.42 1.92 2.50 3.43 4.20 3.01 3.13 2.49 0.72 0.46 0.54 0.33 0.19 0.09 0.13 0.15 0.10 0.10 0.08 0.09 0.06 0.06 0.04 0.04 0.06 0.08 0.17 0.33 0.25 0.25 0.26 0.31 0.37 0.29 0.20 0.32 0.90 1.31 0.75 0.48 0.32
1.44 1.42 1.55 1.61 1.89 2.92 4.78 5.64 2.66 1.32 1.63 0.74 0.28 0.37 0.37 0.22 0.27 0.25 0.17 0.36 0.32 0.26 0.19 0.15 0.12 0.14 0.10 0.11 0.10 0.22 0.43 0.26 0.13 0.07 0.08 0.19 0.27 0.24 0.23 0.43 0.50 0.73 0.28 0.35
1.44 1.59 1.60 1.74 2.15 3.41 5.91 5.18 1.71 0.71 0.22 0.21 0.34 0.52 0.37 0.15 0.15 0.22 0.29 0.41 0.17 0.19 0.23 0.16 0.22 0.30 0.32 0.33 0.33 0.40 0.61 0.46 0.18 0.10 0.04 0.06 0.06 0.05 0.21 0.26 0.22 0.29 0.18 0.42
1.13 1.62 1.70 1.77 2.32 4.44 7.03 4.15 1.18 1.09 0.85 0.31 0.45 0.37 0.18 0.20 0.23 0.20 0.17 0.27 0.28 0.25 0.31 0.29 0.29 0.27 0.28 0.33 0.43 0.58 0.62 0.76 0.60 0.32 0.10 0.28 0.28 0.05 0.08 0.15 0.23 0.35 0.44 0.37
0.90 1.27 1.65 1.78 2.33 3.64 3.81 2.67 1.42 1.73 1.29 0.75 0.34 0.09 0.09 0.14 0.21 0.26 0.18 0.30 0.55 0.31 0.16 0.25 0.36 0.39 0.27 0.26 0.27 0.39 0.66 0.61 0.80 0.56 0.32 0.63 0.16 0.16 0.26 0.27 0.42 0.51 0.56 0.44
0.91 1.01 1.45 1.55 2.01 2.60 2.37 2.16 1.91 2.04 1.41 0.36 0.35 0.28 0.19 0.20 0.33 0.33 0.28 0.24 0.34 0.38 0.40 0.55 0.55 0.45 0.55 0.38 0.29 0.29 0.35 0.57 0.80 0.70 0.63 0.29 0.14 0.27 0.53 0.61 0.61 0.44 0.38 0.33
1.08 0.94 1.26 1.42 1.62 2.34 2.07 1.89 1.79 2.72 2.09 0.75 0.19 0.27 0.32 0.40 0.41 0.56 0.39 0.49 0.45 0.49 0.80 0.98 0.78 0.49 0.38 0.34 0.37 0.24 0.43 0.54 0.95 0.70 0.82 0.60 0.72 0.26 0.21 0.60 0.68 0.31 0.30 0.31
1.19 0.95 1.06 1.26 1.27 1.69 2.00 1.79 1.53 2.89 3.13 0.87 0.37 0.46 0.51 0.50 0.49 0.59 0.54 0.71 0.77 0.85 1.12 1.28 1.13 0.59 0.26 0.47 0.72 0.51 0.45 0.60 0.71 0.64 0.78 0.67 0.47 0.26 0.34 0.70 0.72 0.24 0.33 0.36
1.13 0.98 0.86 1.13 1.20 1.36 1.87 1.57 1.39 2.31 2.71 1.06 0.76 0.40 0.41 0.43 0.48 0.72 0.68 1.10 1.14 1.00 1.04 0.82 0.82 0.84 0.41 0.65 1.11 0.64 0.69 0.64 0.64 0.83 1.12 0.81 0.11 0.28 0.59 0.79 0.43 0.29 0.37 0.38
1.17 0.99 0.90 1.13 1.38 1.41 1.62 1.68 1.21 1.73 2.58 1.42 0.74 0.43 0.25 0.16 0.17 0.27 0.52 0.74 0.80 0.90 0.76 0.53 0.53 0.62 0.56 0.62 0.83 0.83 1.39 1.16 1.22 0.89 0.84 0.52 0.30 0.41 0.47 0.40 0.41 0.44 0.59 0.62
0.91 0.86 0.90 1.23 1.52 1.47 1.65 1.62 1.27 2.70 2.86 1.79 0.89 0.53 0.20 0.09 0.08 0.12 0.50 0.30 0.62 0.98 0.85 1.05 0.77 0.67 0.41 0.44 0.70 0.66 0.57 0.53 0.94 0.88 0.67 0.39 0.53 0.44 0.25 0.25 0.28 0.30 0.31 0.74
0.80 0.90 0.96 1.31 1.63 1.48 2.02 2.01 1.69 2.94 2.01 1.84 1.18 0.57 0.30 0.22 0.10 0.17 0.19 0.20 0.30 0.57 0.74 1.03 0.99 0.68 0.58 0.51 0.56 0.49 0.42 0.62 0.55 0.88 0.93 0.67 0.65 0.93 0.59 0.40 0.30 0.31 0.32 0.25
0.81 0.84 1.06 1.52 1.75 1.74 2.66 2.54 2.24 2.10 1.64 1.54 1.38 0.45 0.43 0.30 0.22 0.18 0.39 0.37 0.42 0.78 0.80 0.79 0.56 0.47 0.75 0.72 0.69 0.46 0.38 0.93 0.87 0.84 1.05 1.18 1.25 0.81 0.64 0.72 0.58 0.43 0.21 0.17
0.77 0.92 1.21 1.46 1.72 2.84 4.63 5.91 3.53 1.90 1.79 2.00 1.63 0.83 0.44 0.46 0.38 0.45 0.35 0.58 0.75 0.97 1.20 0.68 0.35 0.38 0.93 0.84 0.98 0.64 0.44 0.44 0.61 0.93 1.00 1.05 0.94 0.60 0.37 0.26 0.31 0.32 0.22 0.18
0.90 1.05 1.19 1.31 1.72 2.31 3.28 2.78 1.66 1.29 1.90 2.71 1.92 1.32 0.78 0.72 0.81 0.90 0.94 0.78 1.14 1.52 1.44 0.87 0.48 0.39 0.63 0.84 0.87 0.62 0.40 0.46 0.47 0.65 0.59 0.41 0.33 0.27 0.15 0.06 0.04 0.02 0.02 0.04
1.01 1.29 1.49 1.76 2.03 2.49 2.12 1.32 1.37 1.28 2.09 1.91 1.50 1.42 1.55 1.15 1.33 1.25 1.10 1.25 1.37 1.46 1.43 0.94 0.61 0.68 0.93 0.98 0.64 0.36 0.26 0.39 0.34 0.34 0.25 0.18 0.12 0.05 0.03 0.01 0.01 0.01 0.01 0.01
1.58 2.00 2.66 3.71 3.10 2.76 1.86 1.56 2.04 1.69 1.63 1.32 0.68 1.04 2.20 2.04 1.78 1.37 1.12 1.48 1.62 1.22 0.91 0.71 0.84 1.15 1.20 0.75 0.32 0.27 0.22 0.28 0.31 0.19 0.06 0.03 0.04 0.03 0.02 0.00 0.01 0.01 0.02 0.06
2.13 2.55 3.39 3.54 2.23 1.89 2.13 3.07 3.33 2.98 1.66 1.05 0.66 0.56 1.44 2.07 2.02 1.61 1.33 1.09 1.03 1.02 0.78 0.83 1.15 0.93 0.49 0.19 0.18 0.17 0.14 0.17 0.18 0.16 0.11 0.06 0.05 0.03 0.02 0.03 0.04 0.05 0.09 0.11
1.68 2.02 2.73 2.27 2.27 2.26 2.49 2.42 1.81 1.53 1.02 0.41 0.45 0.56 1.20 1.33 1.90 1.48 1.09 1.20 0.81 0.60 0.74 0.75 1.05 0.61 0.33 0.11 0.07 0.09 0.14 0.18 0.22 0.24 0.24 0.23 0.19 0.14 0.09 0.13 0.16 0.15 0.15 0.19
0.95 1.56 1.90 2.44 2.32 1.92 1.48 1.13 0.82 0.61 0.42 0.27 0.40 0.68 1.30 1.11 1.47 1.51 1.31 1.15 0.97 0.95 0.66 0.54 0.76 0.54 0.26 0.18 0.15 0.12 0.15 0.21 0.28 0.26 0.24 0.26 0.25 0.25 0.21 0.21 0.20 0.21 0.25 0.30
1.26 1.01 1.17 1.35 1.10 1.07 0.75 0.51 0.48 0.45 0.28 0.31 0.43 0.84 1.44 1.13 1.50 1.43 1.04 1.51 1.21 0.93 1.14 0.78 0.54 0.26 0.20 0.19 0.21 0.24 0.25 0.24 0.29 0.33 0.33 0.29 0.29 0.27 0.26 0.29 0.38 0.40 0.54 0.77
0.84 0.78 0.69 0.91 0.67 0.59 0.54 0.53 0.50 0.31 0.22 0.29 0.77 0.96 1.20 1.26 1.48 1.17 0.82 1.10 1.07 1.00 0.86 0.68 0.44 0.38 0.35 0.31 0.30 0.27 0.38 0.41 0.43 0.50 0.48 0.53 0.58 0.74 0.90 0.96 1.05 0.86 0.96 1.20
0.71 0.71 0.78 0.62 0.76 0.69 0.71 0.59 0.42 0.31 0.35 0.50 0.86 1.02 0.93 0.89 1.50 0.88 0.70 0.74 0.83 0.77 0.93 0.59 0.63 0.58 0.54 0.56 0.61 0.64 0.74 0.81 0.89 0.97 0.90 0.99 0.96 0.82 1.06 1.19 1.07 0.86 0.84 0.84
0.77 0.94 0.86 0.71 0.70 0.75 0.68 0.57 0.46 0.44 0.58 0.67 0.99 1.05 0.74 0.67 0.47 0.48 0.49 0.59 0.94 0.68 0.56 0.66 0.66 0.73 0.86 0.91 0.95 1.03 1.05 1.00 0.99 0.97 0.86 0.85 0.80 0.70 0.77 0.80 0.74 0.72 0.55 0.52
0.72 1.02 1.16 1.02 0.83 0.95 0.93 0.78 0.62 0.59 0.68 0.78 0.64 0.68 0.67 0.61 0.27 0.25 0.35 0.64 0.88 0.89 0.93 0.88 0.86 0.93 1.05 1.08 1.01 0.98 0.82 0.72 0.69 0.64 0.61 0.62 0.60 0.42 0.30 0.33 0.43 0.35 0.31 0.28

GFSNW_prec_precacc_132.txt.gz
Total_Precipitation_Accumulation
0.74 0.98 1.26 1.11 0.96 1.45 2.36 3.32 2.63 0.74 0.85 2.30 1.98 0.75 0.10 0.02 0.03 0.03 0.04 0.04 0.05 0.04 0.02 0.02 0.03 0.04 0.09 0.04 0.07 0.17 0.22 0.23 0.10 0.02 0.00 0.02 0.09 0.17 0.47 1.01 0.81 0.67 0.60 0.90
1.05 1.00 1.25 1.57 1.51 1.96 2.84 3.75 2.27 1.48 1.75 2.30 0.98 0.24 0.08 0.06 0.03 0.06 0.09 0.06 0.03 0.02 0.02 0.05 0.04 0.05 0.07 0.02 0.07 0.20 0.32 0.53 0.41 0.25 0.22 0.13 0.12 0.18 0.35 0.62 0.83 0.66 0.76 0.62
1.40 1.32 1.30 1.42 1.92 2.52 3.50 4.32 3.22 3.51 2.97 1.12 0.57 0.55 0.33 0.19 0.09 0.13 0.16 0.10 0.10 0.08 0.09 0.06 0.06 0.07 0.06 0.06 0.08 0.17 0.33 0.25 0.25 0.26 0.31 0.38 0.31 0.21 0.32 0.92 1.34 0.78 0.50 0.32
1.44 1.42 1.55 1.61 1.89 2.96 4.88 5.80 2.83 1.60 2.13 1.13 0.37 0.37 0.37 0.22 0.27 0.25 0.18 0.40 0.33 0.27 0.20 0.15 0.12 0.15 0.11 0.11 0.10 0.22 0.43 0.26 0.13 0.07 0.08 0.20 0.30 0.26 0.24 0.45 0.53 0.77 0.29 0.37
1.44 1.59 1.60 1.74 2.16 3.46 6.01 5.32 1.82 0.85 0.43 0.35 0.37 0.53 0.38 0.15 0.15 0.22 0.30 0.42 0.17 0.20 0.25 0.18 0.23 0.30 0.33 0.35 0.33 0.41 0.61 0.46 0.18 0.10 0.04 0.06 0.10 0.08 0.21 0.26 0.23 0.29 0.18 0.42
1.13 1.62 1.70 1.77 2.32 4.50 7.13 4.23 1.25 1.17 0.97 0.39 0.55 0.42 0.19 0.20 0.23 0.20 0.17 0.27 0.29 0.26 0.32 0.31 0.31 0.28 0.30 0.34 0.43 0.59 0.63 0.77 0.60 0.34 0.10 0.29 0.30 0.05 0.08 0.15 0.23 0.35 0.44 0.37
0.90 1.27 1.66 1.79 2.34 3.70 3.92 2.72 1.56 1.94 1.39 0.84 0.45 0.11 0.10 0.14 0.21 0.26 0.18 0.30 0.55 0.31 0.16 0.26 0.37 0.40 0.28 0.27 0.27 0.40 0.70 0.69 0.91 0.64 0.35 0.73 0.19 0.16 0.26 0.27 0.42 0.51 0.56 0.44
0.92 1.01 1.46 1.55 2.02 2.62 2.50 2.27 2.02 2.31 1.69 0.41 0.38 0.29 0.20 0.21 0.33 0.34 0.30 0.25 0.35 0.40 0.46 0.61 0.59 0.50 0.61 0.39 0.29 0.30 0.35 0.61 0.96 0.84 0.68 0.31 0.14 0.27 0.53 0.61 0.61 0.44 0.38 0.33
1.08 0.94 1.26 1.42 1.63 2.35 2.13 1.96 1.89 2.84 2.27 0.91 0.22 0.30 0.36 0.45 0.46 0.60 0.41 0.50 0.47 0.52 0.85 1.09 0.84 0.53 0.41 0.36 0.38 0.25 0.43 0.55 1.01 0.78 0.87 0.61 0.72 0.26 0.21 0.61 0.70 0.31 0.30 0.31
1.20 0.96 1.07 1.27 1.34 1.75 2.09 1.87 1.58 3.01 3.23 0.92 0.42 0.49 0.54 0.52 0.52 0.67 0.57 0.75 0.80 0.89 1.15 1.32 1.15 0.61 0.27 0.49 0.74 0.55 0.46 0.60 0.73 0.65 0.80 0.67 0.47 0.26 0.34 0.71 0.72 0.24 0.33 0.36
1.13 0.98 0.88 1.23 1.30 1.48 2.02 1.69 1.44 2.39 2.78 1.08 0.77 0.41 0.43 0.45 0.52 0.77 0.71 1.14 1.16 1.03 1.06 0.85 0.84 0.84 0.41 0.66 1.12 0.65 0.73 0.68 0.66 0.84 1.15 0.82 0.11 0.28 0.60 0.79 0.43 0.29 0.37 0.38
1.22 1.00 0.94 1.35 1.61 1.63 1.94 1.91 1.35 1.82 2.63 1.44 0.75 0.43 0.26 0.17 0.18 0.29 0.53 0.75 0.81 0.91 0.77 0.54 0.55 0.62 0.56 0.63 0.83 0.83 1.39 1.17 1.24 0.92 0.88 0.54 0.30 0.41 0.48 0.40 0.41 0.44 0.59 0.62
1.17 0.98 1.01 1.61 1.92 1.72 1.89 1.76 1.35 2.79 2.92 1.80 0.89 0.53 0.20 0.09 0.08 0.12 0.53 0.32 0.63 1.00 0.87 1.09 0.81 0.70 0.43 0.46 0.71 0.69 0.57 0.53 0.95 0.90 0.67 0.39 0.53 0.44 0.25 0.25 0.28 0.30 0.31 0.74
1.06 1.24 1.31 1.67 1.80 1.60 2.11 2.04 1.71 2.95 2.01 1.84 1.18 0.57 0.30 0.22 0.10 0.17 0.20 0.20 0.31 0.59 0.76 1.05 1.02 0.71 0.61 0.56 0.62 0.55 0.47 0.66 0.60 0.92 0.94 0.69 0.65 0.93 0.59 0.40 0.30 0.31 0.32 0.25
0.92 1.09 1.31 1.61 1.77 1.76 2.69 2.56 2.24 2.10 1.64 1.54 1.38 0.46 0.43 0.30 0.22 0.18 0.39 0.37 0.42 0.78 0.81 0.80 0.56 0.47 0.78 0.75 0.72 0.47 0.39 0.95 0.92 0.87 1.09 1.21 1.31 0.85 0.66 0.72 0.58 0.43 0.21 0.17
0.79 1.01 1.27 1.50 1.72 2.85 4.64 5.92 3.54 1.90 1.79 2.00 1.63 0.84 0.44 0.46 0.38 0.45 0.35 0.59 0.76 0.98 1.21 0.69 0.36 0.40 0.98 0.88 0.99 0.65 0.45 0.45 0.63 0.94 1.02 1.06 0.95 0.61 0.37 0.26 0.31 0.32 0.22 0.18
0.90 1.05 1.20 1.32 1.72 2.35 3.31 2.80 1.68 1.29 1.90 2.72 1.92 1.34 0.80 0.73 0.82 0.93 0.97 0.83 1.20 1.57 1.47 0.88 0.49 0.42 0.66 0.87 0.88 0.63 0.40 0.47 0.47 0.65 0.59 0.41 0.33 0.27 0.15 0.06 0.04 0.02 0.02 0.04
1.01 1.30 1.49 1.77 2.03 2.51 2.15 1.33 1.38 1.29 2.11 1.91 1.51 1.45 1.58 1.18 1.36 1.31 1.17 1.33 1.42 1.51 1.46 0.95 0.62 0.70 0.95 0.99 0.65 0.37 0.27 0.39 0.34 0.34 0.25 0.18 0.12 0.05 0.03 0.01 0.01 0.01 0.01 0.01
1.60 2.01 2.67 3.72 3.12 2.77 1.88 1.56 2.04 1.70 1.65 1.33 0.69 1.05 2.28 2.09 1.81 1.40 1.15 1.51 1.65 1.25 0.92 0.71 0.85 1.16 1.21 0.76 0.34 0.30 0.24 0.28 0.31 0.19 0.06 0.03 0.04 0.03 0.02 0.00 0.01 0.01 0.02 0.06
2.14 2.56 3.40 3.56 2.24 1.90 2.13 3.07 3.34 2.99 1.67 1.06 0.67 0.57 1.49 2.16 2.10 1.64 1.37 1.13 1.06 1.04 0.78 0.84 1.18 0.96 0.50 0.21 0.20 0.19 0.14 0.17 0.18 0.16 0.11 0.06 0.05 0.03 0.02 0.03 0.04 0.05 0.09 0.11
1.71 2.06 2.76 2.31 2.28 2.26 2.50 2.42 1.81 1.54 1.03 0.42 0.45 0.56 1.23 1.40 2.05 1.55 1.15 1.27 0.86 0.66 0.77 0.77 1.07 0.62 0.36 0.12 0.08 0.09 0.14 0.18 0.22 0.24 0.24 0.23 0.19 0.14 0.09 0.13 0.16 0.15 0.15 0.19
0.99 1.59 1.91 2.46 2.32 1.94 1.50 1.17 0.84 0.63 0.48 0.30 0.41 0.71 1.41 1.26 1.62 1.63 1.37 1.22 1.02 1.04 0.73 0.58 0.81 0.57 0.27 0.18 0.15 0.12 0.15 0.21 0.28 0.26 0.24 0.26 0.25 0.25 0.21 0.21 0.20 0.21 0.25 0.30
1.33 1.10 1.18 1.39 1.12 1.14 0.77 0.53 0.49 0.53 0.33 0.34 0.46 0.93 1.56 1.25 1.63 1.46 1.05 1.52 1.24 0.95 1.16 0.80 0.56 0.26 0.20 0.19 0.21 0.24 0.25 0.24 0.29 0.33 0.33 0.29 0.29 0.27 0.26 0.29 0.38 0.40 0.54 0.77
1.03 0.88 0.77 1.02 0.71 0.62 0.56 0.58 0.55 0.34 0.27 0.32 0.80 0.99 1.25 1.30 1.49 1.19 0.83 1.10 1.07 1.00 0.86 0.69 0.44 0.38 0.35 0.31 0.30 0.27 0.38 0.41 0.43 0.50 0.48 0.53 0.58 0.74 0.90 0.96 1.05 0.86 0.96 1.20
0.77 0.72 0.78 0.62 0.77 0.69 0.71 0.59 0.42 0.31 0.39 0.55 0.90 1.03 0.95 0.90 1.50 0.88 0.70 0.74 0.83 0.77 0.93 0.60 0.63 0.58 0.54 0.56 0.61 0.64 0.74 0.81 0.89 0.97 0.90 0.99 0.96 0.82 1.06 1.19 1.08 0.86 0.85 0.85
0.78 0.94 0.87 0.72 0.72 0.76 0.68 0.57 0.47 0.45 0.61 0.72 1.01 1.06 0.75 0.67 0.47 0.48 0.49 0.59 0.94 0.68 0.56 0.67 0.66 0.73 0.86 0.91 0.95 1.03 1.05 1.00 0.99 0.97 0.86 0.85 0.80 0.70 0.78 0.81 0.75 0.72 0.55 0.53
0.72 1.02 1.16 1.03 0.86 0.96 0.94 0.78 0.63 0.59 0.72 0.79 0.64 0.68 0.67 0.61 0.27 0.25 0.35 0.65 0.89 0.90 0.94 0.89 0.86 0.93 1.06 1.08 1.01 0.98 0.82 0.72 0.69 0.64 0.61 0.62 0.60 0.42 0.30 0.34 0.43 0.35 0.32 0.29

GFSNW_prec_precacc_135.txt.gz
Total_Precipitation_Accumulation
0.74 0.98 1.26 1.11 0.96 1.46 2.36 3.33 2.63 0.75 0.91 2.76 2.64 1.02 0.16 0.02 0.03 0.03 0.04 0.04 0.05 0.04 0.02 0.02 0.03 0.04 0.10 0.05 0.07 0.17 0.22 0.23 0.10 0.02 0.00 0.02 0.09 0.17 0.47 1.01 0.81 0.67 0.60 0.90
1.05 1.00 1.25 1.57 1.51 1.96 2.86 3.75 2.27 1.49 1.81 2.61 1.38 0.40 0.08 0.06 0.03 0.06 0.10 0.06 0.03 0.02 0.02 0.05 0.04 0.06 0.08 0.03 0.07 0.20 0.32 0.53 0.41 0.25 0.22 0.13 0.12 0.18 0.35 0.62 0.83 0.66 0.76 0.62
1.40 1.32 1.30 1.42 1.92 2.53 3.52 4.33 3.23 3.51 2.99 1.22 0.77 0.72 0.38 0.19 0.09 0.13 0.18 0.12 0.10 0.09 0.09 0.06 0.06 0.12 0.12 0.11 0.12 0.19 0.34 0.25 0.25 0.26 0.31 0.38 0.31 0.21 0.32 0.92 1.35 0.78 0.50 0.32
1.44 1.42 1.55 1.61 1.89 2.97 4.90 5.80 2.84 1.60 2.15 1.20 0.45 0.45 0.44 0.24 0.27 0.25 0.21 0.52 0.34 0.27 0.21 0.15 0.13 0.22 0.20 0.21 0.24 0.35 0.55 0.36 0.16 0.07 0.08 0.20 0.31 0.27 0.24 0.45 0.55 0.80 0.30 0.37
1.45 1.59 1.60 1.74 2.16 3.47 6.04 5.33 1.83 0.87 0.44 0.37 0.48 0.60 0.43 0.18 0.16 0.22 0.31 0.44 0.18 0.21 0.26 0.18 0.24 0.34 0.39 0.36 0.34 0.47 0.68 0.54 0.25 0.12 0.04 0.06 0.11 0.08 0.21 0.26 0.23 0.30 0.19 0.42
1.13 1.63 1.70 1.77 2.32 4.53 7.14 4.24 1.26 1.20 1.00 0.42 0.64 0.51 0.26 0.23 0.25 0.21 0.18 0.27 0.30 0.27 0.32 0.31 0.31 0.29 0.30 0.35 0.43 0.59 0.64 0.77 0.61 0.35 0.10 0.29 0.30 0.06 0.08 0.15 0.23 0.35 0.45 0.38
0.90 1.27 1.66 1.79 2.34 3.71 3.94 2.73 1.58 1.98 1.41 0.85 0.49 0.13 0.11 0.15 0.22 0.29 0.19 0.31 0.57 0.31 0.16 0.26 0.37 0.40 0.28 0.27 0.27 0.40 0.71 0.70 0.93 0.65 0.36 0.74 0.20 0.16 0.26 0.27 0.42 0.51 0.56 0.44
0.92 1.02 1.46 1.55 2.02 2.64 2.53 2.29 2.05 2.37 1.76 0.44 0.40 0.30 0.21 0.22 0.34 0.36 0.31 0.26 0.36 0.41 0.47 0.61 0.60 0.50 0.61 0.39 0.29 0.30 0.35 0.61 0.97 0.89 0.74 0.35 0.15 0.27 0.53 0.62 0.62 0.44 0.38 0.33
1.09 0.95 1.26 1.42 1.63 2.36 2.17 1.99 1.92 2.93 2.42 0.96 0.26 0.32 0.39 0.49 0.50 0.70 0.50 0.56 0.47 0.53 0.86 1.11 0.86 0.55 0.41 0.36 0.38 0.25 0.43 0.55 1.02 0.82 0.97 0.68 0.73 0.26 0.21 0.61 0.71 0.31 0.30 0.31
1.20 0.96 1.07 1.27 1.34 1.75 2.11 1.89 1.62 3.08 3.46 1.02 0.53 0.59 0.58 0.55 0.58 0.76 0.65 0.83 0.82 0.90 1.15 1.34 1.17 0.61 0.27 0.50 0.75 0.55 0.47 0.60 0.74 0.67 0.84 0.70 0.47 0.26 0.34 0.71 0.72 0.24 0.33 0.36
1.13 0.98 0.88 1.24 1.31 1.49 2.05 1.72 1.49 2.44 2.91 1.15 0.84 0.59 0.61 0.50 0.59 0.85 0.84 1.29 1.21 1.05 1.07 0.85 0.84 0.84 0.41 0.66 1.12 0.65 0.76 0.76 0.71 0.87 1.18 0.84 0.11 0.28 0.60 0.79 0.43 0.29 0.37 0.38
1.22 1.01 0.95 1.36 1.64 1.65 2.00 1.95 1.38 1.88 2.79 1.57 0.82 0.50 0.38 0.22 0.23 0.37 0.59 0.80 0.83 0.91 0.77 0.54 0.55 0.62 0.56 0.63 0.83 0.83 1.40 1.18 1.26 0.97 0.90 0.54 0.30 0.41 0.48 0.40 0.41 0.44 0.59 0.62
1.19 1.01 1.03 1.61 1.97 1.82 2.03 1.86 1.42 2.92 3.19 1.99 1.03 0.64 0.22 0.14 0.19 0.19 0.61 0.38 0.65 1.01 0.87 1.09 0.82 0.71 0.43 0.46 0.71 0.69 0.57 0.53 0.95 0.91 0.67 0.39 0.53 0.44 0.25 0.25 0.28 0.30 0.31 0.74
1.21 1.47 1.39 1.73 1.97 1.86 2.39 2.30 1.88 3.15 2.30 2.07 1.26 0.58 0.31 0.26 0.20 0.20 0.23 0.23 0.32 0.60 0.77 1.05 1.02 0.71 0.61 0.56 0.62 0.55 0.48 0.71 0.68 1.01 0.97 0.70 0.66 0.94 0.61 0.42 0.31 0.31 0.32 0.25
1.19 1.43 1.55 1.87 2.12 2.10 2.99 2.85 2.49 2.27 1.77 1.60 1.39 0.46 0.43 0.30 0.23 0.19 0.40 0.37 0.43 0.79 0.81 0.80 0.56 0.47 0.78 0.75 0.73 0.47 0.39 0.95 0.93 0.89 1.13 1.25 1.34 0.88 0.71 0.79 0.60 0.44 0.21 0.17
1.02 1.23 1.34 1.66 2.02 3.11 4.87 6.12 3.61 1.93 1.80 2.01 1.63 0.84 0.44 0.46 0.38 0.45 0.35 0.59 0.76 0.98 1.21 0.69 0.36 0.40 0.99 0.88 0.99 0.65 0.45 0.46 0.65 0.97 1.04 1.07 0.96 0.61 0.38 0.29 0.34 0.33 0.22 0.18
0.96 1.10 1.21 1.33 1.73 2.38 3.32 2.81 1.69 1.29 1.90 2.72 1.92 1.34 0.80 0.73 0.82 0.93 0.97 0.83 1.21 1.59 1.49 0.88 0.49 0.43 0.67 0.87 0.88 0.63 0.40 0.47 0.47 0.65 0.59 0.41 0.33 0.27 0.15 0.06 0.04 0.02 0.02 0.04
1.01 1.30 1.49 1.77 2.03 2.51 2.16 1.33 1.38 1.29 2.11 1.91 1.51 1.45 1.58 1.18 1.37 1.31 1.18 1.34 1.44 1.54 1.48 0.96 0.62 0.71 0.97 1.00 0.65 0.37 0.27 0.39 0.35 0.34 0.25 0.18 0.12 0.05 0.03 0.01 0.01 0.01 0.01 0.01
1.60 2.01 2.67 3.72 3.12 2.78 1.88 1.56 2.04 1.70 1.65 1.33 0.69 1.06 2.28 2.09 1.82 1.41 1.16 1.51 1.69 1.27 0.93 0.72 0.88 1.19 1.24 0.76 0.35 0.30 0.24 0.30 0.31 0.19 0.06 0.03 0.04 0.03 0.02 0.00 0.01 0.01 0.02 0.06
2.14 2.56 3.40 3.56 2.24 1.91 2.13 3.08 3.34 2.99 1.67 1.07 0.67 0.57 1.50 2.18 2.11 1.64 1.37 1.14 1.07 1.06 0.79 0.85 1.19 0.96 0.50 0.21 0.21 0.21 0.15 0.17 0.18 0.16 0.11 0.06 0.05 0.03 0.02 0.03 0.04 0.05 0.09 0.11
1.72 2.08 2.77 2.33 2.28 2.27 2.50 2.42 1.81 1.55 1.04 0.42 0.45 0.56 1.24 1.40 2.07 1.57 1.17 1.30 0.87 0.67 0.78 0.77 1.08 0.62 0.36 0.12 0.09 0.11 0.14 0.18 0.22 0.24 0.24 0.23 0.19 0.14 0.09 0.13 0.16 0.15 0.15 0.19
1.02 1.60 1.92 2.46 2.32 1.95 1.50 1.17 0.85 0.63 0.49 0.31 0.42 0.71 1.42 1.26 1.63 1.68 1.40 1.28 1.10 1.09 0.79 0.60 0.84 0.59 0.27 0.19 0.16 0.12 0.15 0.21 0.28 0.26 0.24 0.26 0.25 0.25 0.21 0.21 0.20 0.21 0.25 0.30
1.33 1.10 1.19 1.40 1.12 1.15 0.77 0.54 0.50 0.57 0.41 0.36 0.48 0.98 1.57 1.32 1.74 1.69 1.21 1.55 1.33 0.99 1.37 0.88 0.59 0.27 0.20 0.19 0.21 0.24 0.25 0.24 0.29 0.33 0.33 0.29 0.29 0.27 0.26 0.29 0.38 0.40 0.54 0.77
1.10 0.96 0.82 1.08 0.76 0.63 0.58 0.62 0.69 0.37 0.35 0.37 0.85 1.05 1.39 1.44 1.55 1.25 0.86 1.11 1.08 1.01 0.86 0.70 0.45 0.38 0.35 0.31 0.30 0.27 0.38 0.41 0.43 0.50 0.48 0.53 0.58 0.74 0.90 0.96 1.05 0.86 0.96 1.20
0.98 0.80 0.84 0.63 0.79 0.70 0.71 0.59 0.42 0.31 0.41 0.62 0.93 1.05 0.96 0.90 1.50 0.89 0.70 0.74 0.83 0.77 0.94 0.60 0.63 0.58 0.54 0.56 0.61 0.64 0.74 0.81 0.89 0.97 0.90 0.99 0.96 0.82 1.06 1.19 1.08 0.86 0.85 0.85
0.81 0.94 0.87 0.72 0.74 0.78 0.68 0.57 0.47 0.45 0.64 0.76 1.02 1.06 0.75 0.67 0.47 0.48 0.49 0.59 0.94 0.68 0.56 0.67 0.66 0.73 0.86 0.91 0.95 1.03 1.05 1.00 0.99 0.97 0.86 0.85 0.80 0.70 0.78 0.81 0.75 0.72 0.55 0.53
0.72 1.03 1.16 1.03 0.88 0.98 0.94 0.78 0.63 0.60 0.75 0.81 0.64 0.68 0.67 0.61 0.27 0.25 0.35 0.65 0.89 0.90 0.94 0.89 0.86 0.93 1.06 1.08 1.01 0.98 0.82 0.72 0.69 0.64 0.61 0.62 0.60 0.42 0.30 0.34 0.44 0.35 0.32 0.29

GFSNW_prec_precacc_138.txt.gz
Total_Precipitation_Accumulation
0.74 0.98 1.26 1.11 0.96 1.46 2.36 3.33 2.63 0.75 0.93 2.81 2.89 1.23 0.18 0.02 0.03 0.03 0.04 0.04 0.05 0.04 0.02 0.02 0.03 0.05 0.11 0.05 0.07 0.17 0.22 0.23 0.10 0.02 0.00 0.02 0.09 0.17 0.47 1.01 0.81 0.67 0.60 0.90
1.05 1.00 1.25 1.57 1.51 1.96 2.86 3.75 2.27 1.49 1.82 2.62 1.42 0.47 0.11 0.06 0.03 0.06 0.10 0.06 0.03 0.02 0.02 0.05 0.05 0.06 0.09 0.07 0.09 0.22 0.32 0.53 0.41 0.25 0.22 0.13 0.12 0.18 0.35 0.62 0.83 0.66 0.76 0.62
1.40 1.32 1.30 1.42 1.92 2.53 3.52 4.33 3.23 3.51 3.00 1.22 0.77 0.72 0.42 0.22 0.09 0.13 0.19 0.14 0.10 0.09 0.09 0.06 0.07 0.12 0.12 0.13 0.19 0.33 0.41 0.29 0.26 0.26 0.31 0.38 0.31 0.21 0.32 0.92 1.36 0.79 0.50 0.32
1.44 1.43 1.55 1.61 1.89 2.97 4.90 5.80 2.84 1.60 2.15 1.20 0.46 0.45 0.44 0.25 0.28 0.25 0.21 0.62 0.38 0.27 0.21 0.15 0.15 0.23 0.20 0.23 0.29 0.47 0.78 0.62 0.33 0.12 0.10 0.21 0.31 0.27 0.25 0.46 0.56 0.81 0.30 0.37
1.45 1.59 1.60 1.74 2.16 3.48 6.04 5.34 1.83 0.87 0.44 0.37 0.48 0.61 0.45 0.18 0.16 0.23 0.31 0.48 0.19 0.22 0.27 0.19 0.26 0.37 0.40 0.38 0.35 0.52 0.83 0.78 0.49 0.28 0.21 0.16 0.15 0.09 0.23 0.31 0.26 0.33 0.20 0.43
1.13 1.63 1.71 1.78 2.32 4.53 7.15 4.24 1.26 1.20 1.00 0.42 0.65 0.52 0.26 0.24 0.26 0.22 0.18 0.30 0.32 0.29 0.33 0.33 0.32 0.30 0.31 0.36 0.45 0.60 0.66 0.80 0.68 0.42 0.22 0.43 0.36 0.07 0.09 0.16 0.25 0.37 0.46 0.38
0.90 1.28 1.66 1.79 2.34 3.72 3.94 2.73 1.58 1.98 1.41 0.85 0.49 0.13 0.11 0.15 0.22 0.30 0.20 0.33 0.62 0.34 0.18 0.29 0.38 0.41 0.29 0.27 0.27 0.40 0.71 0.70 0.94 0.66 0.37 0.82 0.23 0.17 0.26 0.27 0.43 0.51 0.56 0.44
0.92 1.02 1.46 1.56 2.03 2.64 2.54 2.29 2.06 2.38 1.76 0.44 0.40 0.30 0.21 0.22 0.34 0.36 0.31 0.27 0.41 0.44 0.56 0.79 0.67 0.51 0.61 0.39 0.29 0.30 0.35 0.61 0.98 0.89 0.74 0.35 0.15 0.27 0.53 0.62 0.62 0.44 0.38 0.33
1.09 0.95 1.26 1.42 1.64 2.37 2.19 2.00 1.95 2.95 2.45 0.97 0.26 0.33 0.40 0.51 0.51 0.71 0.51 0.59 0.49 0.63 1.08 1.33 0.92 0.55 0.41 0.36 0.38 0.25 0.43 0.55 1.02 0.82 0.97 0.68 0.73 0.26 0.21 0.61 0.71 0.31 0.30 0.31
1.20 0.96 1.07 1.28 1.34 1.75 2.11 1.89 1.66 3.13 3.51 1.02 0.53 0.60 0.59 0.55 0.59 0.83 0.70 0.93 0.95 0.96 1.33 1.41 1.22 0.61 0.27 0.50 0.75 0.55 0.47 0.60 0.74 0.67 0.85 0.70 0.47 0.26 0.34 0.72 0.73 0.24 0.33 0.36
1.13 0.98 0.88 1.24 1.31 1.49 2.06 1.72 1.49 2.46 2.95 1.16 0.84 0.60 0.66 0.59 0.62 0.90 0.90 1.43 1.45 1.29 1.14 0.89 0.84 0.84 0.41 0.66 1.12 0.65 0.76 0.76 0.72 0.88 1.21 0.85 0.11 0.28 0.60 0.79 0.43 0.29 0.37 0.38
1.22 1.01 0.95 1.36 1.65 1.67 2.03 1.97 1.39 1.89 2.82 1.58 0.83 0.51 0.43 0.35 0.34 0.47 0.70 0.92 0.93 1.08 0.81 0.54 0.55 0.62 0.56 0.63 0.83 0.83 1.40 1.18 1.26 0.98 0.92 0.54 0.30 0.41 0.48 0.40 0.41 0.44 0.59 0.62
1.19 1.01 1.03 1.62 1.98 1.84 2.06 1.88 1.43 2.96 3.24 2.02 1.04 0.73 0.36 0.27 0.35 0.33 0.81 0.47 0.68 1.07 0.89 1.09 0.82 0.71 0.43 0.46 0.71 0.69 0.57 0.53 0.95 0.91 0.67 0.39 0.53 0.44 0.25 0.25 0.28 0.30 0.31 0.74
1.21 1.49 1.43 1.75 1.99 1.89 2.43 2.33 1.90 3.20 2.40 2.16 1.38 0.87 0.50 0.39 0.58 0.33 0.37 0.31 0.33 0.61 0.78 1.06 1.02 0.71 0.61 0.56 0.62 0.55 0.48 0.71 0.68 1.01 0.97 0.70 0.66 0.94 0.62 0.44 0.32 0.32 0.33 0.25
1.21 1.54 1.70 2.01 2.24 2.19 3.13 2.87 2.52 2.32 1.97 1.92 1.63 0.72 0.57 0.33 0.68 0.42 0.50 0.43 0.49 0.81 0.81 0.80 0.56 0.47 0.78 0.75 0.73 0.47 0.39 0.95 0.93 0.89 1.13 1.25 1.34 0.88 0.71 0.79 0.61 0.44 0.22 0.17
1.17 1.41 1.61 2.02 2.34 3.34 5.10 6.36 3.82 2.16 1.97 2.21 1.79 0.93 0.47 0.47 0.50 0.56 0.44 0.66 0.80 0.99 1.21 0.69 0.36 0.40 0.99 0.88 0.99 0.65 0.45 0.46 0.65 0.97 1.04 1.07 0.96 0.61 0.38 0.29 0.34 0.34 0.22 0.18
1.07 1.16 1.26 1.49 1.85 2.46 3.40 2.90 1.78 1.46 2.14 2.91 1.99 1.36 0.80 0.73 0.82 0.93 0.98 0.84 1.21 1.59 1.49 0.88 0.49 0.43 0.67 0.87 0.88 0.63 0.40 0.48 0.47 0.65 0.59 0.41 0.33 0.27 0.15 0.06 0.04 0.02 0.02 0.04
1.02 1.30 1.49 1.77 2.03 2.51 2.16 1.33 1.38 1.30 2.12 1.91 1.51 1.45 1.58 1.18 1.37 1.31 1.18 1.34 1.44 1.54 1.48 0.96 0.62 0.71 0.97 1.00 0.65 0.37 0.27 0.40 0.35 0.35 0.25 0.18 0.12 0.05 0.03 0.01 0.01 0.01 0.01 0.01
1.60 2.01 2.67 3.72 3.12 2.78 1.88 1.56 2.04 1.70 1.65 1.33 0.69 1.06 2.28 2.09 1.82 1.41 1.16 1.51 1.69 1.27 0.93 0.72 0.88 1.19 1.25 0.76 0.35 0.31 0.24 0.30 0.32 0.21 0.08 0.04 0.04 0.03 0.02 0.00 0.01 0.01 0.02 0.06
2.14 2.56 3.40 3.56 2.24 1.91 2.13 3.08 3.34 2.99 1.67 1.07 0.67 0.57 1.50 2.18 2.11 1.64 1.37 1.14 1.07 1.07 0.79 0.85 1.19 0.96 0.50 0.21 0.21 0.22 0.17 0.20 0.20 0.16 0.12 0.06 0.05 0.03 0.02 0.03 0.04 0.05 0.09 0.11
1.72 2.08 2.77 2.33 2.28 2.27 2.50 2.42 1.81 1.55 1.04 0.42 0.45 0.56 1.24 1.40 2.07 1.57 1.17 1.30 0.87 0.67 0.78 0.77 1.08 0.62 0.36 0.12 0.09 0.11 0.15 0.19 0.23 0.24 0.24 0.23 0.19 0.14 0.09 0.13 0.16 0.15 0.15 0.19
1.02 1.60 1.92 2.46 2.32 1.95 1.50 1.17 0.85 0.63 0.49 0.31 0.42 0.71 1.42 1.26 1.63 1.68 1.40 1.28 1.12 1.09 0.79 0.60 0.84 0.59 0.27 0.20 0.16 0.13 0.16 0.21 0.28 0.26 0.24 0.26 0.25 0.25 0.21 0.21 0.20 0.21 0.25 0.30
1.33 1.10 1.19 1.40 1.12 1.15 0.77 0.54 0.50 0.57 0.43 0.37 0.49 0.98 1.57 1.32 1.74 1.69 1.23 1.55 1.36 1.08 1.54 1.06 0.61 0.29 0.20 0.19 0.21 0.24 0.25 0.24 0.29 0.33 0.33 0.29 0.29 0.27 0.26 0.29 0.38 0.40 0.54 0.77
1.11 0.97 0.83 1.09 0.81 0.63 0.60 0.66 0.85 0.48 0.58 0.60 0.97 1.10 1.46 1.52 1.57 1.29 0.97 1.14 1.09 1.03 0.88 0.72 0.45 0.39 0.35 0.31 0.30 0.27 0.38 0.41 0.43 0.50 0.48 0.53 0.58 0.74 0.90 0.96 1.05 0.86 0.96 1.20
1.07 0.96 1.02 0.66 0.90 0.74 0.73 0.61 0.43 0.31 0.50 0.88 1.05 1.13 1.09 0.97 1.51 0.91 0.71 0.74 0.83 0.77 0.94 0.60 0.63 0.58 0.54 0.56 0.61 0.64 0.74 0.81 0.89 0.97 0.90 0.99 0.96 0.82 1.06 1.19 1.08 0.86 0.85 0.85
0.99 1.02 0.88 0.72 0.74 0.79 0.68 0.57 0.47 0.45 0.73 0.83 1.03 1.06 0.75 0.67 0.47 0.48 0.49 0.59 0.94 0.68 0.56 0.67 0.66 0.73 0.86 0.91 0.95 1.03 1.05 1.00 0.99 0.97 0.86 0.85 0.80 0.70 0.78 0.81 0.75 0.72 0.55 0.53
0.73 1.04 1.17 1.03 0.88 0.98 0.94 0.78 0.63 0.60 0.75 0.81 0.64 0.68 0.67 0.61 0.27 0.25 0.35 0.65 0.89 0.90 0.94 0.89 0.86 0.93 1.06 1.08 1.01 0.98 0.82 0.72 0.69 0.64 0.61 0.62 0.60 0.42 0.30 0.34 0.44 0.35 0.32 0.29

GFSNW_prec_precacc_141.txt.gz
Total_Precipitation_Accumulation
0.74 0.98 1.26 1.11 0.96 1.46 2.36 3.33 2.63 0.75 0.94 2.85 3.01 1.32 0.20 0.02 0.03 0.03 0.04 0.04 0.05 0.04 0.02 0.02 0.03 0.05 0.12 0.05 0.07 0.17 0.22 0.23 0.10 0.02 0.00 0.02 0.09 0.17 0.47 1.02 0.82 0.67 0.60 0.90
1.05 1.00 1.25 1.57 1.51 1.96 2.86 3.75 2.27 1.49 1.83 2.62 1.42 0.48 0.12 0.06 0.03 0.06 0.10 0.06 0.03 0.02 0.02 0.05 0.05 0.07 0.10 0.07 0.10 0.23 0.32 0.56 0.44 0.25 0.22 0.13 0.12 0.18 0.35 0.62 0.83 0.67 0.76 0.62
1.40 1.32 1.30 1.42 1.92 2.53 3.52 4.33 3.23 3.51 3.00 1.22 0.77 0.72 0.42 0.22 0.09 0.13 0.19 0.16 0.10 0.09 0.09 0.06 0.07 0.12 0.13 0.14 0.20 0.35 0.49 0.47 0.49 0.39 0.33 0.38 0.31 0.21 0.32 0.92 1.37 0.80 0.50 0.32
1.44 1.43 1.55 1.61 1.89 2.97 4.90 5.80 2.84 1.60 2.15 1.20 0.46 0.45 0.44 0.25 0.28 0.25 0.21 0.63 0.42 0.28 0.23 0.16 0.15 0.23 0.20 0.23 0.32 0.51 0.84 0.82 0.56 0.34 0.24 0.29 0.35 0.28 0.25 0.46 0.57 0.84 0.31 0.37
1.45 1.59 1.60 1.74 2.16 3.48 6.04 5.34 1.83 0.87 0.44 0.37 0.48 0.61 0.45 0.18 0.16 0.23 0.31 0.48 0.19 0.23 0.29 0.19 0.26 0.37 0.40 0.38 0.36 0.54 0.87 0.90 0.62 0.39 0.39 0.30 0.21 0.10 0.24 0.34 0.34 0.44 0.29 0.46
1.13 1.63 1.71 1.78 2.33 4.54 7.15 4.24 1.26 1.20 1.00 0.42 0.65 0.52 0.26 0.24 0.26 0.22 0.18 0.30 0.32 0.30 0.33 0.33 0.32 0.31 0.32 0.37 0.46 0.64 0.71 0.84 0.75 0.47 0.30 0.53 0.40 0.08 0.11 0.20 0.32 0.48 0.63 0.47
0.90 1.28 1.66 1.80 2.34 3.73 3.94 2.73 1.58 1.98 1.41 0.85 0.49 0.13 0.11 0.15 0.22 0.31 0.20 0.34 0.66 0.35 0.19 0.32 0.42 0.43 0.31 0.28 0.28 0.41 0.73 0.72 0.99 0.69 0.40 0.87 0.25 0.17 0.27 0.28 0.45 0.53 0.58 0.45
0.92 1.02 1.46 1.56 2.03 2.66 2.54 2.29 2.06 2.38 1.76 0.44 0.40 0.30 0.21 0.22 0.34 0.36 0.31 0.27 0.41 0.45 0.64 1.07 0.92 0.65 0.71 0.42 0.30 0.30 0.35 0.62 1.00 0.90 0.74 0.36 0.16 0.28 0.53 0.62 0.62 0.44 0.39 0.33
1.09 0.95 1.26 1.42 1.65 2.39 2.21 2.01 1.95 2.95 2.46 0.97 0.26 0.33 0.40 0.51 0.51 0.71 0.51 0.59 0.49 0.64 1.21 1.57 1.13 0.72 0.49 0.38 0.38 0.25 0.43 0.56 1.03 0.82 0.97 0.68 0.73 0.26 0.21 0.61 0.71 0.31 0.30 0.31
1.20 0.96 1.07 1.28 1.35 1.76 2.12 1.90 1.67 3.16 3.56 1.03 0.53 0.60 0.59 0.55 0.60 0.83 0.70 0.94 0.96 1.00 1.47 1.69 1.44 0.69 0.28 0.50 0.75 0.55 0.47 0.60 0.75 0.67 0.86 0.70 0.47 0.26 0.34 0.72 0.73 0.24 0.33 0.36
1.13 0.98 0.88 1.25 1.32 1.50 2.07 1.73 1.49 2.47 2.97 1.16 0.84 0.60 0.66 0.59 0.62 0.90 0.90 1.48 1.49 1.38 1.28 1.04 0.96 0.92 0.42 0.66 1.12 0.65 0.76 0.76 0.72 0.90 1.23 0.85 0.11 0.28 0.60 0.79 0.43 0.29 0.37 0.38
1.22 1.01 0.95 1.37 1.66 1.69 2.06 1.98 1.39 1.90 2.85 1.59 0.83 0.51 0.43 0.35 0.34 0.47 0.72 1.06 1.11 1.29 1.06 0.64 0.58 0.63 0.56 0.63 0.83 0.83 1.40 1.18 1.26 0.98 0.92 0.54 0.30 0.41 0.48 0.40 0.41 0.44 0.59 0.62
1.19 1.01 1.04 1.62 1.98 1.85 2.09 1.89 1.44 2.98 3.30 2.07 1.06 0.73 0.36 0.27 0.35 0.33 0.83 0.50 0.74 1.20 1.10 1.29 0.89 0.71 0.43 0.46 0.71 0.69 0.57 0.53 0.95 0.91 0.67 0.39 0.53 0.44 0.25 0.25 0.28 0.30 0.31 0.74
1.21 1.49 1.43 1.76 2.00 1.91 2.46 2.38 1.96 3.28 2.53 2.24 1.38 0.87 0.50 0.39 0.58 0.34 0.39 0.34 0.38 0.71 1.02 1.37 1.13 0.72 0.61 0.56 0.62 0.55 0.48 0.71 0.68 1.01 0.97 0.70 0.66 0.94 0.62 0.44 0.32 0.32 0.33 0.25
1.21 1.55 1.72 2.07 2.33 2.27 3.22 2.95 2.60 2.42 2.10 1.99 1.68 0.80 0.70 0.44 0.78 0.49 0.57 0.54 0.59 0.99 1.00 0.97 0.68 0.48 0.78 0.75 0.73 0.47 0.39 0.95 0.93 0.89 1.13 1.25 1.34 0.88 0.71 0.79 0.61 0.44 0.22 0.17
1.18 1.47 1.80 2.29 2.51 3.43 5.28 6.54 3.86 2.18 2.00 2.27 1.84 1.06 0.75 0.63 0.96 0.88 0.56 0.93 0.97 1.21 1.38 0.72 0.36 0.40 0.99 0.88 0.99 0.65 0.45 0.46 0.65 0.97 1.04 1.07 0.96 0.61 0.38 0.29 0.34 0.34 0.22 0.18
1.16 1.29 1.49 1.75 1.95 2.52 3.46 2.97 1.81 1.49 2.24 3.12 2.16 1.50 0.94 0.80 1.06 1.34 1.28 1.20 1.41 1.68 1.51 0.88 0.49 0.43 0.67 0.87 0.88 0.63 0.40 0.48 0.47 0.65 0.59 0.41 0.33 0.27 0.15 0.06 0.04 0.02 0.02 0.04
1.09 1.33 1.51 1.81 2.08 2.63 2.29 1.48 1.52 1.40 2.24 2.03 1.60 1.49 1.61 1.18 1.38 1.39 1.28 1.43 1.48 1.55 1.48 0.96 0.62 0.71 0.97 1.00 0.65 0.37 0.27 0.40 0.35 0.35 0.25 0.18 0.12 0.05 0.03 0.01 0.01 0.01 0.01 0.01
1.61 2.02 2.67 3.73 3.12 2.78 1.88 1.56 2.05 1.70 1.66 1.34 0.69 1.06 2.29 2.09 1.82 1.41 1.16 1.51 1.69 1.27 0.93 0.72 0.88 1.19 1.25 0.76 0.35 0.31 0.24 0.30 0.32 0.21 0.09 0.05 0.05 0.04 0.03 0.01 0.01 0.01 0.02 0.06
2.14 2.56 3.40 3.56 2.24 1.91 2.13 3.08 3.34 2.99 1.67 1.07 0.67 0.57 1.50 2.18 2.11 1.64 1.37 1.14 1.07 1.07 0.79 0.85 1.19 0.96 0.50 0.21 0.21 0.22 0.17 0.20 0.21 0.18 0.17 0.11 0.09 0.04 0.03 0.03 0.04 0.05 0.09 0.11
1.72 2.08 2.77 2.33 2.28 2.27 2.50 2.42 1.81 1.55 1.04 0.42 0.45 0.56 1.24 1.40 2.07 1.57 1.17 1.30 0.87 0.67 0.78 0.77 1.08 0.62 0.36 0.12 0.09 0.11 0.15 0.19 0.23 0.25 0.26 0.23 0.19 0.14 0.09 0.13 0.16 0.15 0.15 0.19
1.02 1.60 1.92 2.46 2.32 1.95 1.50 1.17 0.85 0.63 0.49 0.31 0.42 0.71 1.42 1.26 1.63 1.68 1.40 1.28 1.12 1.09 0.79 0.60 0.84 0.59 0.27 0.20 0.16 0.13 0.16 0.21 0.28 0.26 0.24 0.26 0.25 0.25 0.21 0.21 0.20 0.21 0.25 0.30
1.33 1.10 1.19 1.40 1.12 1.15 0.77 0.54 0.50 0.57 0.43 0.37 0.49 0.98 1.57 1.32 1.74 1.69 1.23 1.55 1.36 1.09 1.57 1.08 0.62 0.29 0.20 0.19 0.21 0.24 0.25 0.24 0.29 0.33 0.33 0.29 0.29 0.27 0.26 0.29 0.38 0.40 0.54 0.77
1.11 0.97 0.83 1.09 0.81 0.64 0.60 0.66 0.86 0.50 0.62 0.65 1.01 1.11 1.46 1.52 1.57 1.29 0.98 1.16 1.09 1.04 0.92 0.73 0.45 0.39 0.35 0.31 0.30 0.27 0.38 0.42 0.44 0.50 0.48 0.53 0.58 0.74 0.90 0.96 1.05 0.86 0.96 1.20
1.07 0.98 1.06 0.68 0.96 0.81 0.77 0.62 0.44 0.32 0.62 1.13 1.27 1.25 1.19 1.01 1.53 0.93 0.71 0.78 0.85 0.77 0.94 0.60 0.63 0.58 0.54 0.57 0.61 0.64 0.74 0.81 0.89 0.97 0.90 0.99 0.96 0.82 1.06 1.19 1.08 0.86 0.85 0.85
1.09 1.14 0.99 0.75 0.75 0.82 0.69 0.57 0.47 0.46 1.02 1.15 1.18 1.11 0.80 0.69 0.48 0.49 0.49 0.59 0.94 0.68 0.56 0.67 0.66 0.73 0.86 0.91 0.95 1.03 1.05 1.00 0.99 0.97 0.86 0.85 0.80 0.70 0.78 0.81 0.75 0.72 0.55 0.53
0.80 1.06 1.17 1.03 0.88 0.98 0.94 0.78 0.63 0.60 0.80 0.82 0.64 0.68 0.67 0.61 0.27 0.25 0.35 0.65 0.89 0.90 0.94 0.89 0.86 0.93 1.06 1.08 1.01 0.98 0.82 0.72 0.69 0.64 0.61 0.62 0.60 0.42 0.30 0.34 0.44 0.35 0.32 0.30